SondeTracker

Meteorological Radiosondes Database

Operations
Statistics for the Launch Site: Kümmersbruck (DE)

7279

37

228658.00 m / 33082.32 m / 34516.00 m

4.91 m/s / 4.92 m/s

14.19 m/s / 13.61 m/s

2784

269

134

Radiosondes Table with Launch Site: Kümmersbruck (DE) (7279)
Number Type Last Frame [UTC] φ λ Course Speed Altitude Climbing Frequency Nearest City Distance from QTH Status
T1330071 RS41 2022-09-26 00:50:32 49.36 12.6059 92 ° 19 km/h 1024 m -4.4 m/s 402.700 MHz Domažlice (CZ) 0.00 km UNKNOWN
T1330097 RS41 2022-09-25 12:49:30 49.7 12.7035 44 ° 11 km/h 647 m -11.7 m/s 402.700 MHz Tachov (CZ) 0.00 km FOUND
T1330120 RS41-SGP 2022-09-25 00:45:29 49.6943 12.8684 74 ° 9 km/h 624 m -5.5 m/s 402.700 MHz Stříbro (CZ) 0.00 km FOUND
T1330102 RS41 2022-09-24 12:45:48 49.8211 13.0334 358 ° 13 km/h 750 m -6.8 m/s 402.70 MHz Stříbro (CZ) 0.00 km FOUND
T1330118 RS41-SGP 2022-09-24 00:50:55 49.6378 12.9327 340 ° 4 km/h 629 m -8.1 m/s 402.70 MHz Holýšov (CZ) 0.00 km FOUND
T1330072 RS41 2022-09-23 12:51:09 49.2707 12.5777 359 ° 4 km/h 727 m -4.5 m/s 402.700 MHz Domažlice (CZ) 0.00 km UNKNOWN
T1330475 RS41 2022-09-23 00:34:48 48.8761 12.0034 263 ° 15 km/h 546 m -13.5 m/s 402.700 MHz Regensburg (DE) 0.00 km FOUND
T1330458 RS41 2022-09-22 12:49:59 48.5899 11.9521 296 ° 13 km/h 677 m -7.3 m/s 402.70 MHz Landshut (DE) 0.00 km UNKNOWN
D17046744 DFM 2022-09-22 08:21:48 48.5191 11.6687 275 ° 9 km/h 587 m -4.2 m/s 403.450 MHz Pfaffenhofen an der Ilm (DE) 0.00 km FOUND
T1330460 RS41 2022-09-22 00:44:01 48.5758 12.0672 292 ° 19 km/h 713 m -8.5 m/s 402.700 MHz Landshut (DE) 0.00 km UNKNOWN
T1330461 RS41 2022-09-21 12:46:52 48.6401 12.2334 277 ° 13 km/h 802 m -12.8 m/s 402.700 MHz Landshut (DE) 0.00 km UNKNOWN
T1330093 RS41 2022-09-21 00:46:16 48.5417 12.4038 217 ° 6 km/h 1201 m -4.2 m/s 402.70 MHz Landshut (DE) 0.00 km UNKNOWN
T1330116 RS41 2022-09-20 12:51:19 48.445 13.1842 153 ° 35 km/h 639 m -10.1 m/s 402.701 MHz Schärding (AT) 0.00 km UNKNOWN
T1251017 RS41 2022-09-20 00:56:24 48.3283 13.3029 75 ° 19 km/h 380 m -5.1 m/s 404.900 MHz Altheim (AT) 0.00 km UNKNOWN
T1330092 RS41 2022-09-19 13:01:08 48.8245 13.0937 109 ° 33 km/h 1824 m -2.6 m/s 402.700 MHz Deggendorf (DE) 0.00 km UNKNOWN
T1330119 RS41 2022-09-19 00:57:47 49.0305 13.7413 115 ° 24 km/h 1255 m -9.0 m/s 402.70 MHz Vimperk (CZ) 0.00 km UNKNOWN
T1330099 RS41 2022-09-18 13:16:10 48.7069 13.9017 83 ° 44 km/h 867 m -3.3 m/s 402.700 MHz Ulrichsberg (AT) 0.00 km UNKNOWN
T1251015 RS41 2022-09-18 01:11:45 48.9733 13.462 112 ° 76 km/h 1591 m -6.6 m/s 402.700 MHz Vimperk (CZ) 0.00 km UNKNOWN
T1251018 RS41 2022-09-17 13:01:25 49.446 13.1788 101 ° 41 km/h 739 m -5.3 m/s 402.700 MHz Klatovy (CZ) 0.00 km UNKNOWN
T1330098 RS41 2022-09-17 00:54:02 49.6958 13.8416 112 ° 56 km/h 1210 m -5.1 m/s 402.700 MHz Příbram (CZ) 0.00 km UNKNOWN
T1330095 RS41 2022-09-16 12:50:53 49.6619 14.4594 80 ° 33 km/h 561 m -6.2 m/s 402.70 MHz Sedlčany (CZ) 0.00 km UNKNOWN
T1251204 RS41 2022-09-16 00:45:04 49.3469 13.984 106 ° 46 km/h 1087 m -10.6 m/s 402.700 MHz Strakonice (CZ) 0.00 km UNKNOWN
T1251019 RS41 2022-09-15 12:57:03 49.4785 13.5719 107 ° 15 km/h 783 m -4.4 m/s 402.700 MHz Horažďovice (CZ) 0.00 km UNKNOWN
T1251203 RS41 2022-09-15 01:01:46 49.5004 14.2141 85 ° 52 km/h 700 m -8.3 m/s 402.700 MHz Milevsko (CZ) 0.00 km UNKNOWN
T1251201 RS41 2022-09-14 12:36:49 49.4305 13.6915 108 ° 48 km/h 1391 m -10.6 m/s 402.700 MHz Horažďovice (CZ) 0.00 km UNKNOWN
T1330091 RS41 2022-09-14 01:17:36 49.1198 13.9546 126 ° 28 km/h 1170 m -3.9 m/s 402.700 MHz Prachatice (CZ) 0.00 km UNKNOWN
T1251205 RS41 2022-09-13 13:18:35 48.7293 13.7597 47 ° 13 km/h 912 m -4.2 m/s 402.700 MHz Ulrichsberg (AT) 0.00 km UNKNOWN
T1330185 RS41 2022-09-13 00:51:52 48.9393 12.8172 57 ° 9 km/h 1233 m -14.4 m/s 402.700 MHz Deggendorf (DE) 0.00 km UNKNOWN
T1330126 RS41 2022-09-12 12:59:40 48.7953 12.7622 125 ° 4 km/h 874 m -7.8 m/s 402.700 MHz Deggendorf (DE) 0.00 km FOUND
T1330261 RS41 2022-09-12 01:01:12 48.5741 12.6727 103 ° 11 km/h 1223 m -3.2 m/s 402.700 MHz Straubing (DE) 0.00 km UNKNOWN
T1330122 RS41 2022-09-11 12:48:56 48.8165 12.537 132 ° 30 km/h 903 m -9.3 m/s 402.70 MHz Straubing (DE) 0.00 km FOUND
T1330100 RS41 2022-09-11 00:58:12 49.1341 13.1034 115 ° 28 km/h 1276 m -5.6 m/s 402.700 MHz Kdyně (CZ) 0.00 km UNKNOWN
T1330124 RS41 2022-09-10 13:07:49 49.4254 13.0896 88 ° 28 km/h 739 m -3.8 m/s 402.70 MHz Kdyně (CZ) 0.00 km UNKNOWN
T1330260 RS41 2022-09-10 00:55:07 49.7524 13.1188 53 ° 28 km/h 633 m -5.5 m/s 402.70 MHz Nýřany (CZ) 0.00 km UNKNOWN
T1330403 RS41 2022-09-09 13:15:56 50.0876 13.5418 55 ° 35 km/h 689 m -6.4 m/s 402.700 MHz Rakovník (CZ) 0.00 km UNKNOWN
T1330404 RS41 2022-09-09 01:12:26 49.8639 13.8008 89 ° 6 km/h 557 m -4.4 m/s 402.70 MHz Hořovice (CZ) 0.00 km UNKNOWN
T1330262 RS41 2022-09-08 13:15:04 50.1713 13.0508 70 ° 48 km/h 1028 m -4.8 m/s 402.70 MHz Karlovy Vary (CZ) 0.00 km UNKNOWN
T1330259 RS41 2022-09-08 00:45:27 49.6582 12.8072 228 ° 7 km/h 603 m -11.6 m/s 402.70 MHz Stříbro (CZ) 0.00 km FOUND
T1330121 RS41 2022-09-07 13:00:39 49.6271 13.11 292 ° 7 km/h 656 m -12.5 m/s 402.701 MHz Holýšov (CZ) 0.00 km FOUND
T1330446 RS41 2022-09-07 00:55:11 49.3769 13.1732 54 ° 2 km/h 653 m -5.9 m/s 402.70 MHz Klatovy (CZ) 0.00 km UNKNOWN
T1330184 RS41-SGP 2022-09-06 13:18:22 49.3573 13.9105 286 ° 11 km/h 983 m -3.9 m/s 402.701 MHz Blatná (CZ) 0.00 km FOUND
T1330407 RS41 2022-09-06 00:45:55 49.2975 13.1577 322 ° 4 km/h 569 m -9.7 m/s 402.70 MHz Kdyně (CZ) 0.00 km UNKNOWN
T1330406 RS41 2022-09-05 12:54:22 49.401 12.7832 249 ° 11 km/h 840 m -12.8 m/s 402.701 MHz Domažlice (CZ) 0.00 km FOUND
T1330405 RS41 2022-09-05 01:11:36 49.2502 12.8717 323 ° 7 km/h 697 m -12.0 m/s 402.70 MHz Kdyně (CZ) 0.00 km LOST
T1330283 RS41 2022-09-04 13:03:20 49.0814 12.4699 187 ° 7 km/h 719 m -4.7 m/s 402.700 MHz Straubing (DE) 0.00 km UNKNOWN
T1330408 RS41-SGP 2022-09-04 01:04:42 49.3805 12.8056 36 ° 6 km/h 858 m -6.1 m/s 402.700 MHz Domažlice (CZ) 0.00 km FOUND
T1330282 RS41 2022-09-03 12:50:55 49.6377 12.8739 40 ° 7 km/h 578 m -11.6 m/s 402.70 MHz Stříbro (CZ) 0.00 km UNKNOWN
T1330281 RS41 2022-09-03 00:37:04 49.5058 12.6715 294 ° 44 km/h 946 m -2.1 m/s 402.700 MHz Domažlice (CZ) 0.00 km FOUND
T1330457 RS41 2022-09-02 12:56:18 49.4937 12.4399 275 ° 31 km/h 974 m -9.7 m/s 402.70 MHz Weiden in der Oberpfalz (DE) 0.00 km FOUND
T1330280 RS41 2022-09-02 00:37:43 49.3725 12.335 298 ° 15 km/h 827 m -4.8 m/s 402.70 MHz Schwandorf (DE) 0.00 km UNKNOWN
T1330278 RS41 2022-09-01 12:51:00 49.4219 12.3843 264 ° 19 km/h 1236 m -13.5 m/s 402.70 MHz Schwandorf (DE) 0.00 km UNKNOWN
T1330449 RS41 2022-09-01 00:42:21 49.2165 12.8956 293 ° 9 km/h 1158 m -9.8 m/s 402.70 MHz Kdyně (CZ) 0.00 km UNKNOWN
T1330186 RS41 2022-08-31 12:53:29 49.5146 12.4219 245 ° 24 km/h 922 m -4.9 m/s 402.70 MHz Weiden in der Oberpfalz (DE) 0.00 km NEED ATTENTION
T1330181 RS41 2022-08-31 01:06:40 49.4808 12.7082 247 ° 35 km/h 894 m -10.5 m/s 402.70 MHz Domažlice (CZ) 0.00 km NEED ATTENTION
T1330277 RS41 2022-08-30 12:45:29 49.4527 12.7529 254 ° 6 km/h 947 m -6.9 m/s 402.70 MHz Domažlice (CZ) 0.00 km FOUND
T1330448 RS41 2022-08-30 01:06:30 49.4627 12.7947 258 ° 9 km/h 721 m -3.5 m/s 402.70 MHz Domažlice (CZ) 0.00 km UNKNOWN
T1330236 RS41 2022-08-29 12:52:09 49.4519 12.3469 1 ° 6 km/h 860 m -8.1 m/s 404.900 MHz Schwandorf (DE) 0.00 km UNKNOWN
T1330237 RS41 2022-08-29 01:07:27 49.439 12.3616 140 ° 11 km/h 1183 m -13.8 m/s 402.70 MHz Schwandorf (DE) 0.00 km UNKNOWN
T1330450 RS41 2022-08-28 12:58:38 49.5544 12.2085 195 ° 20 km/h 665 m -6.3 m/s 402.70 MHz Weiden in der Oberpfalz (DE) 0.00 km UNKNOWN
T1330215 RS41 2022-08-28 01:00:10 49.7096 12.2267 183 ° 15 km/h 594 m -5.9 m/s 402.70 MHz Weiden in der Oberpfalz (DE) 0.00 km FOUND
T1330235 RS41 2022-08-27 12:59:09 49.6589 12.0707 284 ° 2 km/h 514 m -4.2 m/s 402.70 MHz Weiden in der Oberpfalz (DE) 0.00 km FOUND
T1330154 RS41 2022-08-27 01:18:31 49.5719 11.9128 156 ° 19 km/h 895 m -3.7 m/s 402.70 MHz Sulzbach-Rosenberg (DE) 0.00 km FOUND
T1320415 RS41 2022-08-26 12:53:04 49.5829 11.6266 220 ° 22 km/h 924 m -5.1 m/s 402.70 MHz Sulzbach-Rosenberg (DE) 0.00 km FOUND
T1320112 RS41 2022-08-26 00:57:33 49.4918 11.5671 300 ° 11 km/h 803 m -14.2 m/s 402.70 MHz Sulzbach-Rosenberg (DE) 0.00 km FOUND
T1330285 RS41 2022-08-25 12:55:44 49.5943 11.4664 253 ° 13 km/h 754 m -10.7 m/s 402.700 MHz Lauf an der Pegnitz (DE) 0.00 km FOUND
T1330286 RS41 2022-08-25 01:04:30 49.4826 11.3617 285 ° 31 km/h 739 m -8.8 m/s 402.700 MHz Lauf an der Pegnitz (DE) 0.00 km FOUND
T1320283 RS41 2022-08-24 13:04:36 49.1722 11.4872 229 ° 7 km/h 544 m -4.0 m/s 402.70 MHz Neumarkt in der Oberpfalz (DE) 0.00 km FOUND
T1330287 RS41 2022-08-24 00:53:11 49.0077 11.7574 301 ° 15 km/h 685 m -10.6 m/s 402.70 MHz Regensburg (DE) 0.00 km FOUND
T1330284 RS41 2022-08-23 12:50:11 49.2524 11.8727 153 ° 17 km/h 894 m -4.5 m/s 402.70 MHz Schwandorf (DE) 0.00 km LOST
T1330370 RS41 2022-08-23 00:59:44 49.5551 11.8984 206 ° 2 km/h 822 m -3.3 m/s 402.700 MHz Sulzbach-Rosenberg (DE) 0.00 km FOUND
T1320281 RS41 2022-08-22 12:53:13 49.5013 11.6666 236 ° 15 km/h 1030 m -14.2 m/s 402.70 MHz Sulzbach-Rosenberg (DE) 0.00 km FOUND
T1320277 RS41 2022-08-22 01:14:31 49.4065 11.7809 258 ° 17 km/h 878 m -4.0 m/s 402.700 MHz Amberg (DE) 0.00 km FOUND
T1330112 RS41 2022-08-21 12:55:49 49.369 12.0419 66 ° 15 km/h 552 m -4.2 m/s 402.700 MHz Schwandorf (DE) 0.00 km FOUND
T1330239 RS41 2022-08-21 01:16:41 49.4087 12.023 132 ° 20 km/h 638 m -5.4 m/s 402.700 MHz Schwandorf (DE) 0.00 km FOUND
T1330288 RS41 2022-08-20 13:05:15 49.5106 11.9423 130 ° 6 km/h 719 m -7.3 m/s 402.70 MHz Amberg (DE) 0.00 km FOUND
T1330183 RS41 2022-08-20 00:59:28 49.7481 11.8087 175 ° 24 km/h 831 m -10.8 m/s 402.70 MHz Weiden in der Oberpfalz (DE) 0.00 km FOUND
T1330128 RS41 2022-08-19 12:31:00 49.8708 11.4754 192 ° 26 km/h 808 m -6.3 m/s 404.900 MHz Bayreuth (DE) 0.00 km NEED ATTENTION
T1330214 RS41 2022-08-19 00:56:59 49.824 12.1426 220 ° 13 km/h 548 m -3.5 m/s 402.700 MHz Weiden in der Oberpfalz (DE) 0.00 km FOUND
T1330213 RS41 2022-08-18 12:55:00 49.9071 12.4847 279 ° 4 km/h 780 m -12.1 m/s 404.90 MHz Tachov (CZ) 0.00 km FOUND
T1330212 RS41 2022-08-18 00:33:55 50.0025 12.4535 272 ° 4 km/h 660 m -5.0 m/s 402.700 MHz Cheb (CZ) 0.00 km FOUND
T1330211 RS41 2022-08-17 12:38:00 49.8952 12.3273 92 ° 7 km/h 621 m -14.8 m/s 402.70 MHz Cheb (CZ) 0.00 km FOUND
T1330383 RS41 2022-08-17 00:39:25 49.6785 12.3143 328 ° 9 km/h 1090 m -13.4 m/s 402.701 MHz Weiden in der Oberpfalz (DE) 0.00 km NEED ATTENTION
T1330380 RS41 2022-08-16 12:50:56 49.5084 12.3918 34 ° 11 km/h 1064 m -9.5 m/s 402.70 MHz Weiden in der Oberpfalz (DE) 0.00 km FOUND
T1330197 RS41 2022-08-16 00:38:21 49.7337 12.327 38 ° 9 km/h 679 m -8.5 m/s 402.700 MHz Weiden in der Oberpfalz (DE) 0.00 km UNKNOWN
T1320282 RS41 2022-08-15 12:58:22 49.8656 11.9915 47 ° 4 km/h 663 m -3.3 m/s 404.901 MHz Weiden in der Oberpfalz (DE) 0.00 km FOUND
T1330156 RS41 2022-08-15 00:44:13 49.4788 12.1088 359 ° 24 km/h 733 m -7.0 m/s 402.700 MHz Schwandorf (DE) 0.00 km FOUND
T1330155 RS41 2022-08-14 12:43:09 49.4142 12.0045 270 ° 13 km/h 679 m -5.9 m/s 402.701 MHz Amberg (DE) 0.00 km FOUND
T1330852 RS41 2022-08-13 12:45:46 49.376 11.386 241 ° 7 km/h 1003 m -9.8 m/s 402.70 MHz Neumarkt in der Oberpfalz (DE) 0.00 km FOUND
T1330371 RS41 2022-08-13 01:00:40 49.3015 10.8497 279 ° 30 km/h 663 m -3.4 m/s 402.700 MHz Schwabach (DE) 0.00 km FOUND
T1330110 RS41 2022-08-12 12:50:21 48.8912 11.1003 249 ° 15 km/h 725 m -8.3 m/s 402.700 MHz Neuburg an der Donau (DE) 0.00 km NEED ATTENTION
T1330136 RS41 2022-08-12 00:51:54 48.535 10.8849 259 ° 41 km/h 631 m -12.9 m/s 402.70 MHz Neusäß (DE) 0.00 km UNKNOWN
T1330137 RS41 2022-08-11 12:53:42 48.9747 10.8345 242 ° 13 km/h 794 m -8.4 m/s 402.70 MHz Roth bei Nürnberg (DE) 0.00 km FOUND
T1330135 RS41 2022-08-11 00:51:22 49.0086 11.0065 281 ° 46 km/h 994 m -9.8 m/s 402.70 MHz Roth bei Nürnberg (DE) 0.00 km FOUND
T1330138 RS41 2022-08-10 12:47:15 49.1548 11.1972 273 ° 26 km/h 869 m -7.4 m/s 402.70 MHz Roth bei Nürnberg (DE) 0.00 km FOUND
T1320267 RS41 2022-08-10 00:49:07 49.2322 12.0776 270 ° 33 km/h 864 m -4.3 m/s 402.70 MHz Schwandorf (DE) 0.00 km FOUND
T1320111 RS41 2022-08-09 12:52:53 49.1922 12.0271 240 ° 19 km/h 673 m -1.9 m/s 402.70 MHz Schwandorf (DE) 0.00 km FOUND
T1330369 RS41 2022-08-09 00:49:49 49.0496 12.2116 282 ° 15 km/h 600 m -7.2 m/s 402.701 MHz Regensburg (DE) 0.00 km UNKNOWN
T1320110 RS41 2022-08-08 12:55:27 49.1255 12.1605 303 ° 7 km/h 653 m -10.2 m/s 402.700 MHz Regensburg (DE) 0.00 km FOUND
T1320114 RS41 2022-08-08 01:07:40 49.445 12.2012 268 ° 19 km/h 585 m -3.2 m/s 402.701 MHz Schwandorf (DE) 0.00 km FOUND
T1320109 RS41 2022-08-07 13:01:53 49.5971 12.2621 214 ° 13 km/h 625 m -5.0 m/s 402.700 MHz Weiden in der Oberpfalz (DE) 0.00 km FOUND
T1320113 RS41 2022-08-07 01:00:58 49.5704 12.6949 248 ° 24 km/h 761 m -2.8 m/s 402.700 MHz Domažlice (CZ) 0.00 km FOUND
T1320355 RS41 2022-08-06 12:53:41 49.7431 12.7056 336 ° 4 km/h 616 m -12.0 m/s 402.700 MHz Tachov (CZ) 0.00 km FOUND
T1320419 RS41 2022-08-06 00:46:50 50.05 13.0526 135 ° 19 km/h 950 m -8.4 m/s 402.70 MHz Horní Slavkov (CZ) 0.00 km UNKNOWN
T1320356 RS41 2022-08-05 12:57:19 50.0174 12.8327 129 ° 15 km/h 830 m -5.7 m/s 402.70 MHz Mariánské Lázně (CZ) 0.00 km UNKNOWN
T1330379 RS41 2022-08-05 00:59:57 49.8146 12.6077 11 ° 17 km/h 760 m -2.5 m/s 402.70 MHz Tachov (CZ) 0.00 km FOUND
T1330107 RS41 2022-08-04 12:36:31 49.6483 12.5067 30 ° 4 km/h 897 m -11.7 m/s 402.70 MHz Tachov (CZ) 0.00 km FOUND
T1330109 RS41 2022-08-04 01:09:22 49.5098 12.5114 346 ° 26 km/h 895 m -3.1 m/s 402.70 MHz Domažlice (CZ) 0.00 km FOUND
T1320416 RS41 2022-08-03 13:00:41 49.3371 12.2941 284 ° 11 km/h 624 m -1.9 m/s 402.700 MHz Schwandorf (DE) 0.00 km FOUND
T1320418 RS41 2022-08-03 00:45:57 49.0365 12.0036 300 ° 20 km/h 542 m -13.0 m/s 402.70 MHz Regensburg (DE) 0.00 km FOUND
T1320357 RS41 2022-08-02 12:57:03 48.8938 11.9232 127 ° 11 km/h 492 m -1.9 m/s 402.70 MHz Regensburg (DE) 0.00 km FOUND
T3020333 RS41 2022-08-02 01:12:54 49.2559 12.4549 260 ° 17 km/h 855 m -3.0 m/s 402.70 MHz Schwandorf (DE) 0.00 km UNKNOWN
T1320358 RS41 2022-08-01 12:59:11 49.2744 12.7188 91 ° 20 km/h 645 m -6.8 m/s 402.70 MHz Domažlice (CZ) 0.00 km UNKNOWN
T1330792 RS41 2022-08-01 00:54:53 49.2078 12.9107 67 ° 33 km/h 1183 m -7.4 m/s 402.70 MHz Kdyně (CZ) 0.00 km UNKNOWN
T1320420 RS41 2022-07-31 13:14:11 48.719 13.0446 109 ° 28 km/h 800 m -4.7 m/s 402.700 MHz Deggendorf (DE) 0.00 km UNKNOWN
T1330113 RS41 2022-07-31 00:27:36 48.9317 12.4971 149 ° 19 km/h 1069 m -14.6 m/s 402.701 MHz Straubing (DE) 0.00 km UNKNOWN
T1330332 RS41 2022-07-30 13:13:30 49.3461 12.5128 112 ° 17 km/h 920 m -3.6 m/s 402.701 MHz Schwandorf (DE) 0.00 km UNKNOWN
T1330299 RS41 2022-07-30 00:59:25 49.8886 12.6646 144 ° 7 km/h 612 m -8.4 m/s 402.700 MHz Planá (CZ) 0.00 km FOUND
T1320270 RS41 2022-07-29 13:14:00 49.8418 12.8426 275 ° 19 km/h 608 m -5.1 m/s 402.701 MHz Planá (CZ) 0.00 km FOUND
T1330300 RS41 2022-07-29 00:51:19 49.7244 12.5492 250 ° 28 km/h 849 m -2.3 m/s 402.700 MHz Tachov (CZ) 0.00 km FOUND
T1330298 RS41 2022-07-28 13:05:12 49.6813 12.8224 232 ° 22 km/h 614 m -7.2 m/s 402.70 MHz Stříbro (CZ) 0.00 km FOUND
T1330331 RS41 2022-07-28 00:47:46 49.3328 12.8525 199 ° 17 km/h 580 m -4.7 m/s 402.70 MHz Domažlice (CZ) 0.00 km FOUND
T1320417 RS41 2022-07-27 13:00:38 49.5483 13.0904 187 ° 20 km/h 575 m -3.3 m/s 402.701 MHz Holýšov (CZ) 0.00 km UNKNOWN
T1320269 RS41-SGP 2022-07-27 01:00:11 49.6596 13.084 220 ° 13 km/h 499 m -11.5 m/s 402.701 MHz Holýšov (CZ) 0.00 km FOUND
T1320228 RS41-SGP 2022-07-26 12:55:29 49.479 12.8464 112 ° 28 km/h 685 m -14.2 m/s 402.701 MHz Domažlice (CZ) 0.00 km FOUND
T1330334 RS41 2022-07-26 01:14:57 50.0269 13.7718 142 ° 39 km/h 514 m -5.6 m/s 402.701 MHz Rakovník (CZ) 0.00 km UNKNOWN
T1330333 RS41 2022-07-25 12:45:37 49.7632 12.9889 75 ° 13 km/h 650 m -1.9 m/s 402.70 MHz Stříbro (CZ) 0.00 km FOUND
T3020347 RS41 2022-07-25 00:34:13 49.2559 12.6552 317 ° 28 km/h 678 m -12.0 m/s 402.701 MHz Domažlice (CZ) 0.00 km FOUND
T3020029 RS41 2022-07-24 13:10:28 48.9358 12.6156 229 ° 6 km/h 1789 m -6.5 m/s 402.70 MHz Straubing (DE) 0.00 km UNKNOWN
T3010795 RS41 2022-07-24 00:43:46 49.3362 12.798 257 ° 9 km/h 1013 m -12.9 m/s 402.70 MHz Domažlice (CZ) 0.00 km UNKNOWN
T3020075 RS41-SGP 2022-07-23 12:51:01 49.6469 13.0093 96 ° 26 km/h 579 m -12.2 m/s 402.70 MHz Holýšov (CZ) 0.00 km FOUND
T3020076 RS41 2022-07-23 00:54:42 49.9072 12.6952 252 ° 2 km/h 630 m -9.0 m/s 402.700 MHz Planá (CZ) 0.00 km FOUND
T3010794 RS41 2022-07-22 12:45:06 49.503 12.5799 76 ° 13 km/h 952 m -8.5 m/s 402.70 MHz Domažlice (CZ) 0.00 km FOUND
T3010789 RS41-SGP 2022-07-22 00:43:50 49.3625 12.8482 43 ° 13 km/h 668 m -5.3 m/s 402.700 MHz Domažlice (CZ) 0.00 km FOUND
T3040616 RS41 2022-07-21 12:46:35 49.7844 12.3738 63 ° 17 km/h 856 m -7.2 m/s 402.70 MHz Tachov (CZ) 0.00 km UNKNOWN
T3020344 RS41 2022-07-21 01:14:03 49.8638 12.0263 80 ° 22 km/h 620 m -3.7 m/s 402.70 MHz Weiden in der Oberpfalz (DE) 0.00 km FOUND
T3020598 RS41 2022-07-20 13:00:48 49.6118 11.775 311 ° 17 km/h 715 m -3.9 m/s 402.70 MHz Sulzbach-Rosenberg (DE) 0.00 km FOUND
T3020345 RS41 2022-07-20 01:01:37 49.4019 11.7892 304 ° 20 km/h 731 m -14.3 m/s 402.70 MHz Amberg (DE) 0.00 km FOUND
T3020284 RS41 2022-07-19 12:28:35 49.1895 12.0889 330 ° 17 km/h 683 m -10.1 m/s 402.70 MHz Schwandorf (DE) 0.00 km FOUND
T3020307 RS41 2022-07-19 00:59:20 48.8466 11.8799 263 ° 7 km/h 463 m -7.9 m/s 402.70 MHz Regensburg (DE) 0.00 km LOST
T3020027 RS41 2022-07-18 12:54:13 48.696 12.0537 85 ° 2 km/h 560 m -8.1 m/s 402.70 MHz Landshut (DE) 0.00 km FOUND
T3020596 RS41 2022-07-18 01:06:59 48.9691 12.4161 302 ° 20 km/h 515 m -6.5 m/s 402.70 MHz Straubing (DE) 0.00 km UNKNOWN
T3020320 RS41 2022-07-17 13:01:05 48.7941 12.7213 111 ° 4 km/h 932 m -3.8 m/s 402.70 MHz Straubing (DE) 0.00 km UNKNOWN
T3020600 RS41 2022-07-17 01:12:02 48.7405 12.9548 254 ° 20 km/h 787 m -4.4 m/s 402.70 MHz Deggendorf (DE) 0.00 km UNKNOWN
T3020597 RS41 2022-07-16 12:33:00 49.0176 13.1682 117 ° 19 km/h 1601 m -10.5 m/s 402.70 MHz Deggendorf (DE) 0.00 km UNKNOWN
T3020599 RS41 2022-07-16 01:01:08 49.0026 13.5645 92 ° 20 km/h 1567 m -4.0 m/s 402.701 MHz Vimperk (CZ) 0.00 km UNKNOWN
T3010910 RS41 2022-07-15 12:43:00 49.1858 13.1773 154 ° 15 km/h 1167 m -8.6 m/s 402.70 MHz Klatovy (CZ) 0.00 km UNKNOWN
T3010909 RS41 2022-07-15 00:58:11 49.1755 13.8109 186 ° 33 km/h 1199 m -6.7 m/s 404.90 MHz Strakonice (CZ) 0.00 km UNKNOWN
T3010865 RS41 2022-07-14 12:35:36 49.4764 13.1815 58 ° 26 km/h 636 m -14.3 m/s 402.70 MHz Klatovy (CZ) 0.00 km UNKNOWN
T3020290 RS41 2022-07-14 00:55:04 49.2228 13.5909 115 ° 37 km/h 1245 m -4.0 m/s 404.90 MHz Sušice (CZ) 0.00 km UNKNOWN
T3010907 RS41 2022-07-13 13:10:22 48.8958 12.7604 28 ° 7 km/h 811 m -5.5 m/s 402.70 MHz Straubing (DE) 0.00 km UNKNOWN
T3010912 RS41 2022-07-13 00:55:08 48.4951 11.7951 96 ° 9 km/h 622 m -3.0 m/s 402.700 MHz Freising (DE) 0.00 km UNKNOWN
T3020291 RS41 2022-07-12 12:58:55 48.3803 11.9231 141 ° 11 km/h 672 m -6.6 m/s 402.70 MHz Erding (DE) 0.00 km FOUND
T3010911 RS41 2022-07-12 00:58:51 48.5644 12.2418 136 ° 17 km/h 918 m -4.0 m/s 402.70 MHz Landshut (DE) 0.00 km UNKNOWN
T3020296 RS41 2022-07-11 13:04:18 48.8177 12.6197 114 ° 30 km/h 663 m -4.3 m/s 402.70 MHz Straubing (DE) 0.00 km UNKNOWN
T3020285 RS41 2022-07-11 01:04:23 48.4147 12.8474 120 ° 20 km/h 854 m -3.7 m/s 402.70 MHz Braunau am Inn (AT) 0.00 km UNKNOWN
T3020297 RS41 2022-07-10 12:46:27 48.6228 12.4078 131 ° 35 km/h 968 m -13.2 m/s 402.70 MHz Landshut (DE) 0.00 km FOUND
T3010866 RS41 2022-07-10 01:05:34 48.3994 12.5717 122 ° 28 km/h 1237 m -3.2 m/s 402.70 MHz Waldkraiburg (DE) 0.00 km UNKNOWN
T3020287 RS41 2022-07-09 12:49:47 48.9765 12.4922 90 ° 22 km/h 977 m -7.0 m/s 402.70 MHz Straubing (DE) 0.00 km UNKNOWN
T3020312 RS41 2022-07-09 00:54:11 48.6427 12.3098 92 ° 22 km/h 725 m -6.8 m/s 402.70 MHz Landshut (DE) 0.00 km UNKNOWN
T3020298 RS41 2022-07-08 13:02:47 48.4661 12.0882 147 ° 15 km/h 652 m -5.3 m/s 402.70 MHz Landshut (DE) 0.00 km UNKNOWN
T3020319 RS41 2022-07-08 00:59:20 47.9967 11.9908 117 ° 43 km/h 781 m -5.9 m/s 402.70 MHz Rosenheim (DE) 0.00 km UNKNOWN
T3020555 RS41 2022-07-07 13:05:41 49.1468 12.459 85 ° 26 km/h 773 m -4.5 m/s 402.700 MHz Regensburg (DE) 0.00 km FOUND
T3020026 RS41 2022-07-07 00:55:43 49.1072 12.7979 159 ° 11 km/h 1198 m -4.3 m/s 402.70 MHz Straubing (DE) 0.00 km UNKNOWN
T3020346 RS41 2022-07-06 12:43:01 49.1151 12.7758 110 ° 33 km/h 1341 m -3.9 m/s 402.700 MHz Straubing (DE) 0.00 km UNKNOWN
T3020295 RS41 2022-07-06 01:02:08 49.6159 13.2574 172 ° 11 km/h 456 m -7.2 m/s 402.700 MHz Dobřany (CZ) 0.00 km FOUND
T3010778 RS41 2022-07-05 12:53:23 49.5708 12.4882 134 ° 19 km/h 851 m -14.6 m/s 402.70 MHz Weiden in der Oberpfalz (DE) 0.00 km UNKNOWN
T3010835 RS41 2022-07-05 01:19:23 49.968 12.9208 205 ° 22 km/h 811 m -10.4 m/s 402.70 MHz Mariánské Lázně (CZ) 0.00 km UNKNOWN
T3010869 RS41 2022-07-04 12:48:50 49.7562 12.922 38 ° 22 km/h 604 m -12.7 m/s 402.700 MHz Stříbro (CZ) 0.00 km FOUND
T3010777 RS41 2022-07-04 00:58:05 49.8168 13.4847 35 ° 9 km/h 435 m -7.5 m/s 402.70 MHz Třemošná (CZ) 0.00 km LOST
T3010775 RS41 2022-07-03 12:48:35 49.7038 12.6637 52 ° 19 km/h 752 m -13.4 m/s 402.70 MHz Tachov (CZ) 0.00 km FOUND
T3010908 RS41 2022-07-03 01:13:07 49.9394 12.4167 311 ° 19 km/h 771 m -7.3 m/s 402.700 MHz Cheb (CZ) 0.00 km UNKNOWN
T3010861 RS41 2022-07-02 12:36:44 49.4857 12.4515 287 ° 13 km/h 1048 m -11.7 m/s 402.70 MHz Weiden in der Oberpfalz (DE) 0.00 km UNKNOWN
T3010868 RS41 2022-07-02 00:58:51 49.6248 12.7848 75 ° 19 km/h 641 m -12.2 m/s 402.700 MHz Stříbro (CZ) 0.00 km FOUND
T3010860 RS41-SGP 2022-07-01 12:51:00 50.3728 12.1464 77 ° 26 km/h 752 m -5.1 m/s 402.700 MHz Plauen (DE) 0.00 km FOUND
T3010863 RS41 2022-07-01 01:09:00 50.0167 11.8981 84 ° 20 km/h 909 m -4.1 m/s 402.70 MHz Bayreuth (DE) 0.00 km UNKNOWN
T3020311 RS41 2022-06-30 12:50:30 49.9933 11.8768 348 ° 11 km/h 928 m -11.4 m/s 402.70 MHz Bayreuth (DE) 0.00 km FOUND
T3010859 RS41 2022-06-30 01:00:57 49.753 11.729 15 ° 15 km/h 631 m -7.7 m/s 404.90 MHz Bayreuth (DE) 0.00 km FOUND
T3020299 RS41 2022-06-29 13:20:38 49.9342 11.8186 35 ° 26 km/h 5304 m -6.1 m/s 402.70 MHz Bayreuth (DE) 0.00 km UNKNOWN
T3020607 RS41 2022-06-29 00:49:33 49.952 11.8775 230 ° 15 km/h 799 m -4.1 m/s 402.70 MHz Bayreuth (DE) 0.00 km UNKNOWN
T3020300 RS41 2022-06-28 12:52:00 49.9409 12.3813 190 ° 7 km/h 744 m -8.4 m/s 402.70 MHz Cheb (CZ) 0.00 km FOUND
T3010870 RS41 2022-06-28 01:09:00 50.1405 12.1876 154 ° 9 km/h 662 m -7.5 m/s 402.70 MHz Aš (CZ) 0.00 km FOUND
T3010897 RS41 2022-06-27 12:51:00 49.9671 12.5441 145 ° 13 km/h 773 m -8.8 m/s 402.70 MHz Mariánské Lázně (CZ) 0.00 km FOUND
T3010867 RS41 2022-06-27 00:53:00 49.9244 12.2998 289 ° 24 km/h 647 m -7.3 m/s 402.70 MHz Cheb (CZ) 0.00 km FOUND
T3010776 RS41 2022-06-26 13:03:54 49.8162 12.4089 15 ° 13 km/h 713 m -2.9 m/s 402.70 MHz Tachov (CZ) 0.00 km FOUND
T3010864 RS41 2022-06-25 12:56:09 49.5608 12.1723 149 ° 6 km/h 662 m -5.8 m/s 402.70 MHz Weiden in der Oberpfalz (DE) 0.00 km FOUND
T3010862 RS41 2022-06-25 00:54:04 49.7217 11.9149 101 ° 41 km/h 792 m -6.4 m/s 402.70 MHz Weiden in der Oberpfalz (DE) 0.00 km UNKNOWN
T3020294 RS41 2022-06-24 13:09:00 50.0805 12.2043 323 ° 2 km/h 579 m -5.0 m/s 402.70 MHz Františkovy Lázně (CZ) 0.00 km FOUND
T3020609 RS41 2022-06-24 00:50:18 49.5698 12.0018 325 ° 22 km/h 858 m -8.2 m/s 402.70 MHz Weiden in der Oberpfalz (DE) 0.00 km FOUND
T3010896 RS41 2022-06-23 12:43:23 49.3543 12.0678 23 ° 13 km/h 500 m -3.8 m/s 402.70 MHz Schwandorf (DE) 0.00 km FOUND
T3010898 RS41 2022-06-23 01:03:15 49.2115 12.4156 92 ° 19 km/h 759 m -3.8 m/s 402.70 MHz Schwandorf (DE) 0.00 km LOST
T3020611 RS41-SGP 2022-06-22 12:52:16 49.4372 12.7911 39 ° 9 km/h 799 m -6.9 m/s 402.700 MHz Domažlice (CZ) 0.00 km FOUND
T3020608 RS41 2022-06-22 00:50:56 49.3624 13.285 297 ° 13 km/h 576 m -3.4 m/s 402.70 MHz Klatovy (CZ) 0.00 km UNKNOWN
T3020610 RS41 2022-06-21 12:43:58 49.2476 12.9739 324 ° 2 km/h 1022 m -8.8 m/s 402.700 MHz Kdyně (CZ) 0.00 km FOUND
T3020817 RS41-SGP 2022-06-21 01:02:04 49.1515 14.2064 171 ° 31 km/h 1287 m -3.5 m/s 402.700 MHz Vodňany (CZ) 0.00 km FOUND
T3020289 RS41 2022-06-20 12:55:22 49.9027 13.311 89 ° 20 km/h 848 m -5.7 m/s 402.70 MHz Třemošná (CZ) 0.00 km UNKNOWN
T3020785 RS41 2022-06-20 00:51:41 49.6658 12.5558 266 ° 20 km/h 781 m -11.3 m/s 402.70 MHz Tachov (CZ) 0.00 km FOUND
T3020782 RS41 2022-06-19 12:47:20 49.6417 12.5653 97 ° 19 km/h 835 m -12.5 m/s 402.70 MHz Tachov (CZ) 0.00 km FOUND
T3020784 RS41 2022-06-19 00:57:53 49.5263 12.4301 347 ° 24 km/h 992 m -12.0 m/s 402.70 MHz Weiden in der Oberpfalz (DE) 0.00 km FOUND
T3020781 RS41 2022-06-18 12:55:44 49.1912 12.2234 50 ° 19 km/h 705 m -4.5 m/s 402.70 MHz Schwandorf (DE) 0.00 km FOUND
T3020443 RS41 2022-06-18 01:09:49 48.6708 12.1269 32 ° 24 km/h 565 m -2.5 m/s 402.70 MHz Landshut (DE) 0.00 km UNKNOWN
T3020849 RS41 2022-06-17 12:48:49 48.5667 11.8427 139 ° 7 km/h 644 m -6.5 m/s 402.700 MHz Freising (DE) 0.00 km FOUND
T3020841 RS41 2022-06-17 01:13:34 48.64 12.8149 217 ° 4 km/h 847 m -6.4 m/s 402.70 MHz Deggendorf (DE) 0.00 km FOUND
T3020843 RS41 2022-06-16 12:53:15 48.876 12.8622 114 ° 22 km/h 742 m -5.4 m/s 402.70 MHz Deggendorf (DE) 0.00 km FOUND
T3020820 RS41 2022-06-16 00:53:27 49.1801 12.3578 31 ° 26 km/h 916 m -10.1 m/s 402.701 MHz Schwandorf (DE) 0.00 km FOUND
T3020786 RS41 2022-06-15 12:56:50 49.051 12.2529 308 ° 17 km/h 763 m -6.4 m/s 402.700 MHz Regensburg (DE) 0.00 km FOUND
T3020824 RS41 2022-06-15 01:13:58 49.1413 12.6794 26 ° 7 km/h 992 m -3.8 m/s 402.70 MHz Straubing (DE) 0.00 km LOST
T3020826 RS41 2022-06-14 12:37:33 49.0533 12.4615 211 ° 4 km/h 1010 m -13.3 m/s 402.70 MHz Straubing (DE) 0.00 km FOUND
T3020777 RS41 2022-06-14 00:55:49 48.957 12.6983 154 ° 4 km/h 996 m -3.0 m/s 402.700 MHz Straubing (DE) 0.00 km FOUND
T3020845 RS41 2022-06-13 12:42:07 49.228 13.3358 93 ° 31 km/h 957 m -10.1 m/s 402.700 MHz Sušice (CZ) 0.00 km UNKNOWN
T3020851 RS41-SGP 2022-06-13 00:56:14 49.5347 13.0948 50 ° 24 km/h 669 m -3.0 m/s 402.70 MHz Holýšov (CZ) 0.00 km FOUND
T3020775 RS41 2022-06-12 12:52:34 49.3508 12.6073 55 ° 11 km/h 1092 m -4.1 m/s 402.700 MHz Domažlice (CZ) 0.00 km UNKNOWN
T3020844 RS41 2022-06-12 00:48:17 49.1849 12.343 115 ° 2 km/h 1030 m -6.9 m/s 402.70 MHz Schwandorf (DE) 0.00 km FOUND
T3020848 RS41 2022-06-11 13:00:27 49.2047 12.2113 106 ° 11 km/h 636 m -3.2 m/s 402.70 MHz Schwandorf (DE) 0.00 km FOUND
T3020846 RS41 2022-06-11 00:53:09 49.1066 11.9987 195 ° 2 km/h 558 m -9.3 m/s 402.700 MHz Regensburg (DE) 0.00 km FOUND
T3020852 RS41 2022-06-10 12:54:20 48.843 11.7646 63 ° 13 km/h 448 m -10.2 m/s 402.70 MHz Ingolstadt (DE) 0.00 km FOUND
T3020819 RS41 2022-06-10 01:01:23 49.2789 11.9406 170 ° 26 km/h 814 m -4.7 m/s 402.70 MHz Schwandorf (DE) 0.00 km FOUND
T3020827 RS41 2022-06-09 13:00:48 49.6172 11.9289 119 ° 22 km/h 808 m -3.1 m/s 402.70 MHz Weiden in der Oberpfalz (DE) 0.00 km FOUND
T3020471 RS41 2022-06-09 01:22:06 49.8768 11.9777 62 ° 19 km/h 687 m -4.2 m/s 402.701 MHz Weiden in der Oberpfalz (DE) 0.00 km FOUND
T3020472 RS41 2022-06-08 12:44:00 49.5346 12.2686 14 ° 13 km/h 763 m -17.1 m/s 402.70 MHz Weiden in der Oberpfalz (DE) 0.00 km FOUND
T3020542 RS41 2022-06-08 01:02:26 49.6471 12.2099 99 ° 13 km/h 671 m -9.3 m/s 402.70 MHz Weiden in der Oberpfalz (DE) 0.00 km FOUND
T3020474 RS41 2022-06-07 13:00:25 49.9076 12.466 96 ° 15 km/h 731 m -2.4 m/s 402.70 MHz Tachov (CZ) 0.00 km FOUND
T3020543 RS41 2022-06-07 01:28:06 49.8675 13.0654 86 ° 13 km/h 660 m -3.9 m/s 402.70 MHz Stříbro (CZ) 0.00 km UNKNOWN
T3020541 RS41 2022-06-06 12:47:16 49.7376 12.5839 56 ° 20 km/h 842 m -13.7 m/s 402.70 MHz Tachov (CZ) 0.00 km FOUND
T3020470 RS41 2022-06-06 00:53:01 49.6939 12.3877 102 ° 31 km/h 728 m -2.0 m/s 402.700 MHz Weiden in der Oberpfalz (DE) 0.00 km NEED ATTENTION
T3010349 RS41 2022-06-05 12:37:02 49.7396 12.5538 288 ° 20 km/h 789 m -8.2 m/s 402.70 MHz Tachov (CZ) 0.00 km UNKNOWN
T3020561 RS41 2022-06-05 01:13:42 49.3104 13.0469 305 ° 11 km/h 607 m -4.0 m/s 402.70 MHz Kdyně (CZ) 0.00 km UNKNOWN
T3010841 RS41 2022-06-04 12:58:13 49.5223 13.4463 137 ° 13 km/h 642 m -5.1 m/s 402.70 MHz Přeštice (CZ) 0.00 km UNKNOWN
T3010838 RS41-SGP 2022-06-04 00:45:19 49.5195 13.1768 39 ° 7 km/h 568 m -4.3 m/s 402.70 MHz Holýšov (CZ) 0.00 km FOUND
T3010585 RS41-SGP 2022-06-03 12:45:57 49.5281 13.1839 302 ° 17 km/h 575 m -2.6 m/s 402.70 MHz Holýšov (CZ) 0.00 km FOUND
T3020893 RS41 2022-06-03 00:46:59 49.4332 13.4586 273 ° 20 km/h 686 m -10.1 m/s 402.70 MHz Klatovy (CZ) 0.00 km UNKNOWN
T3020780 RS41 2022-06-02 12:48:11 49.4041 13.4303 114 ° 9 km/h 636 m -7.4 m/s 402.70 MHz Klatovy (CZ) 0.00 km UNKNOWN
T3020776 RS41 2022-06-02 01:14:46 49.6562 14.1683 156 ° 11 km/h 1190 m -3.9 m/s 402.70 MHz Příbram (CZ) 0.00 km UNKNOWN
T3020894 RS41 2022-06-01 12:50:37 49.5985 13.6292 80 ° 15 km/h 702 m -7.9 m/s 402.70 MHz Starý Plzenec (CZ) 0.00 km UNKNOWN
T3020473 RS41 2022-06-01 00:30:13 49.6377 13.8538 84 ° 26 km/h 1569 m -9.0 m/s 402.701 MHz Příbram (CZ) 0.00 km UNKNOWN
T3010895 RS41 2022-05-31 12:57:16 49.771 13.4432 32 ° 7 km/h 818 m -8.2 m/s 402.70 MHz Plzeň (CZ) 0.00 km UNKNOWN
T3020612 RS41 2022-05-07 12:34:18 49.4703 12.1091 266 ° 13 km/h 628 m -3.4 m/s 402.70 MHz Schwandorf (DE) 0.00 km FOUND
T2940475 RS41 2022-05-07 00:54:09 49.4082 12.1069 222 ° 9 km/h 500 m -8.4 m/s 402.70 MHz Schwandorf (DE) 0.00 km FOUND
T2940441 RS41 2022-05-06 12:29:36 49.5008 12.1448 213 ° 15 km/h 750 m -11.2 m/s 402.70 MHz Weiden in der Oberpfalz (DE) 0.00 km FOUND
T3020619 RS41 2022-05-06 00:52:16 49.5207 12.3564 262 ° 39 km/h 1159 m -4.5 m/s 402.70 MHz Weiden in der Oberpfalz (DE) 0.00 km FOUND
T3020036 RS41 2022-05-05 13:02:28 49.585 12.4122 121 ° 11 km/h 914 m -6.0 m/s 402.700 MHz Weiden in der Oberpfalz (DE) 0.00 km FOUND
T3010900 RS41 2022-05-05 00:49:23 49.5869 12.344 19 ° 15 km/h 765 m -3.2 m/s 402.70 MHz Weiden in der Oberpfalz (DE) 0.00 km NEED ATTENTION
T3020620 RS41 2022-05-04 12:53:25 49.6449 12.0266 265 ° 9 km/h 809 m -5.7 m/s 402.70 MHz Weiden in der Oberpfalz (DE) 0.00 km FOUND
T3020622 RS41 2022-05-04 00:28:27 49.4118 11.8 279 ° 26 km/h 875 m -4.6 m/s 402.70 MHz Amberg (DE) 0.00 km FOUND
T3010899 RS41 2022-05-03 12:35:08 49.4176 11.7212 185 ° 9 km/h 1042 m -8.6 m/s 402.70 MHz Sulzbach-Rosenberg (DE) 0.00 km FOUND
T3020623 RS41 2022-05-03 00:48:52 49.4351 11.8067 304 ° 15 km/h 755 m -3.5 m/s 402.700 MHz Amberg (DE) 0.00 km FOUND
T3020292 RS41 2022-05-02 12:45:41 49.4747 11.7797 233 ° 4 km/h 889 m -3.4 m/s 402.700 MHz Sulzbach-Rosenberg (DE) 0.00 km FOUND
T3020293 RS41 2022-05-02 00:26:19 49.3612 11.777 258 ° 2 km/h 885 m -5.2 m/s 402.70 MHz Amberg (DE) 0.00 km FOUND
T3020286 RS41 2022-05-01 12:38:42 49.4101 11.8361 213 ° 6 km/h 849 m -5.6 m/s 402.70 MHz Amberg (DE) 0.00 km FOUND
T3010029 RS41 2022-05-01 00:57:37 49.4981 12.015 229 ° 15 km/h 724 m -5.3 m/s 402.701 MHz Amberg (DE) 0.00 km FOUND
T3010028 RS41 2022-04-30 12:35:13 49.6669 12.155 229 ° 7 km/h 660 m -7.2 m/s 402.700 MHz Weiden in der Oberpfalz (DE) 0.00 km FOUND
T2940443 RS41 2022-04-30 00:58:23 49.5298 12.4086 277 ° 9 km/h 1013 m -3.8 m/s 402.70 MHz Weiden in der Oberpfalz (DE) 0.00 km FOUND
T2940431 RS41 2022-04-29 13:15:08 49.1014 12.3573 227 ° 9 km/h 710 m -5.2 m/s 402.70 MHz Regensburg (DE) 0.00 km FOUND
T2950815 RS41 2022-04-29 01:14:12 48.7308 12.1731 317 ° 11 km/h 619 m -3.6 m/s 402.70 MHz Landshut (DE) 0.00 km UNKNOWN
T3010026 RS41 2022-04-28 12:41:03 48.8281 11.8843 153 ° 6 km/h 448 m -3.9 m/s 402.700 MHz Regensburg (DE) 0.00 km FOUND
T3010027 RS41 2022-04-28 01:03:48 49.0233 12.052 226 ° 4 km/h 561 m -3.6 m/s 402.70 MHz Regensburg (DE) 0.00 km FOUND
T3010025 RS41 2022-04-27 12:45:52 49.2139 12.0691 255 ° 15 km/h 787 m -6.2 m/s 402.700 MHz Schwandorf (DE) 0.00 km FOUND
T2950796 RS41 2022-04-27 01:07:16 49.4109 11.8729 200 ° 11 km/h 830 m -4.1 m/s 402.700 MHz Amberg (DE) 0.00 km FOUND
T2950708 RS41 2022-04-26 12:36:00 49.7055 12.2916 260 ° 20 km/h 571 m -11.6 m/s 402.700 MHz Weiden in der Oberpfalz (DE) 0.00 km FOUND
T3010031 RS41 2022-04-26 00:26:28 49.5896 12.4266 335 ° 11 km/h 1316 m -11.9 m/s 402.70 MHz Weiden in der Oberpfalz (DE) 0.00 km FOUND
T3010086 RS41 2022-04-25 12:49:06 49.3678 12.7569 108 ° 13 km/h 920 m -3.4 m/s 402.700 MHz Domažlice (CZ) 0.00 km UNKNOWN
T3010032 RS41 2022-04-25 00:22:25 49.343 12.4265 115 ° 20 km/h 1070 m -4.2 m/s 402.70 MHz Schwandorf (DE) 0.00 km UNKNOWN
T2851264 RS41 2022-04-24 12:46:23 49.6457 11.623 29 ° 22 km/h 1023 m -10.8 m/s 402.700 MHz Sulzbach-Rosenberg (DE) 0.00 km FOUND
T2950798 RS41 2022-04-24 00:40:31 49.7578 12.2207 266 ° 24 km/h 694 m -6.9 m/s 402.700 MHz Weiden in der Oberpfalz (DE) 0.00 km FOUND
T3010036 RS41 2022-04-23 12:49:56 49.7591 11.8069 258 ° 30 km/h 565 m -6.5 m/s 402.700 MHz Weiden in der Oberpfalz (DE) 0.00 km FOUND
T3010035 RS41 2022-04-23 00:32:51 49.6476 12.0331 281 ° 33 km/h 760 m -8.3 m/s 402.70 MHz Weiden in der Oberpfalz (DE) 0.00 km FOUND
T2951032 RS41 2022-04-22 12:52:15 49.8088 12.0459 261 ° 37 km/h 747 m -6.5 m/s 402.700 MHz Weiden in der Oberpfalz (DE) 0.00 km FOUND
T2930581 RS41 2022-04-22 00:13:39 49.544 11.9714 258 ° 39 km/h 652 m -11.5 m/s 402.700 MHz Amberg (DE) 0.00 km FOUND
T2851261 RS41 2022-04-21 12:50:25 49.4929 11.1375 256 ° 24 km/h 429 m -4.0 m/s 402.70 MHz Nürnberg (DE) 0.00 km FOUND
T3010085 RS41 2022-04-21 00:57:09 49.1705 11.4376 243 ° 24 km/h 974 m -4.0 m/s 402.700 MHz Neumarkt in der Oberpfalz (DE) 0.00 km UNKNOWN
T3010030 RS41 2022-04-20 12:22:50 49.1655 11.6171 218 ° 9 km/h 772 m -5.3 m/s 402.70 MHz Neumarkt in der Oberpfalz (DE) 0.00 km FOUND
T2940434 RS41 2022-04-20 01:07:34 48.9136 11.5752 316 ° 4 km/h 549 m -3.3 m/s 402.700 MHz Ingolstadt (DE) 0.00 km FOUND
T2950809 RS41 2022-04-19 13:08:54 48.4874 11.7861 148 ° 28 km/h 572 m -5.0 m/s 402.700 MHz Freising (DE) 0.00 km UNKNOWN
T2940465 RS41 2022-04-19 00:44:50 48.4892 11.7647 83 ° 17 km/h 608 m -3.4 m/s 402.70 MHz Freising (DE) 0.00 km UNKNOWN
T2940436 RS41 2022-04-18 13:06:04 48.5517 11.1691 296 ° 7 km/h 511 m -4.0 m/s 402.700 MHz Aichach (DE) 0.00 km FOUND
T2940467 RS41 2022-04-18 00:32:57 48.7956 11.2332 250 ° 13 km/h 444 m -5.1 m/s 402.70 MHz Neuburg an der Donau (DE) 0.00 km FOUND
T2930661 RS41 2022-04-17 13:16:42 48.3937 10.9925 259 ° 28 km/h 599 m -4.1 m/s 402.70 MHz Augsburg (DE) 0.00 km FOUND
T2930662 RS41-SGP 2022-04-17 00:49:44 48.5534 11.1159 261 ° 15 km/h 540 m -6.7 m/s 402.70 MHz Aichach (DE) 0.00 km FOUND
T2940468 RS41 2022-04-16 12:39:03 48.5619 11.1198 222 ° 13 km/h 549 m -9.3 m/s 402.700 MHz Aichach (DE) 0.00 km FOUND
T3010087 RS41 2022-04-16 00:40:04 48.4568 12.5036 244 ° 15 km/h 1135 m -5.3 m/s 402.700 MHz Landshut (DE) 0.00 km FOUND
T2940433 RS41 2022-04-15 12:29:37 48.6954 12.8347 114 ° 22 km/h 1120 m -5.1 m/s 402.700 MHz Deggendorf (DE) 0.00 km FOUND
T2851266 RS41 2022-04-15 01:11:13 49.0971 12.8428 173 ° 15 km/h 1362 m -4.6 m/s 402.70 MHz Deggendorf (DE) 0.00 km UNKNOWN
T2851265 RS41 2022-04-14 12:55:29 49.4474 12.392 159 ° 9 km/h 1064 m -7.1 m/s 402.700 MHz Schwandorf (DE) 0.00 km FOUND
T2950793 RS41 2022-04-14 00:55:30 49.42 12.3314 41 ° 6 km/h 831 m -4.4 m/s 402.70 MHz Schwandorf (DE) 0.00 km FOUND
T2940437 RS41 2022-04-13 12:48:08 49.3927 12.1192 262 ° 9 km/h 436 m -6.2 m/s 402.700 MHz Schwandorf (DE) 0.00 km FOUND
T2940438 RS41 2022-04-13 01:07:44 49.2582 12.5019 8 ° 2 km/h 756 m -3.8 m/s 402.70 MHz Schwandorf (DE) 0.00 km UNKNOWN
T2940435 RS41 2022-04-12 12:57:58 49.1188 13.0652 26 ° 11 km/h 1266 m -3.3 m/s 402.70 MHz Kdyně (CZ) 0.00 km UNKNOWN
T3010621 RS41 2022-04-12 00:30:31 48.8722 13.0911 288 ° 24 km/h 1180 m -12.5 m/s 402.70 MHz Deggendorf (DE) 0.00 km UNKNOWN
T3020567 RS41 2022-04-11 12:52:54 48.4973 13.7235 282 ° 19 km/h 691 m -4.7 m/s 402.70 MHz Natternbach (AT) 0.00 km UNKNOWN
T3020569 RS41 2022-04-11 01:10:26 48.0963 14.0913 59 ° 22 km/h 477 m -4.1 m/s 402.70 MHz Sattledt (AT) 0.00 km FOUND
T3020570 RS41 2022-04-10 12:59:45 48.5062 13.7956 128 ° 33 km/h 789 m -3.2 m/s 402.700 MHz Sarleinsbach (AT) 0.00 km FOUND
T3020279 RS41 2022-04-10 00:50:46 49.1312 13.5646 110 ° 43 km/h 1247 m -4.2 m/s 402.700 MHz Sušice (CZ) 0.00 km UNKNOWN
T3010622 RS41 2022-04-09 12:54:18 49.5671 14.0553 107 ° 30 km/h 839 m -4.8 m/s 402.700 MHz Příbram (CZ) 0.00 km UNKNOWN
T3010604 RS41 2022-04-09 01:29:15 49.793 15.2608 77 ° 7 km/h 1093 m -4.8 m/s 402.70 MHz Čáslav (CZ) 0.00 km UNKNOWN
T3020377 RS41 2022-04-08 12:22:34 49.477 14.67 69 ° 33 km/h 849 m -6.7 m/s 402.70 MHz Tábor (CZ) 0.00 km FOUND
T3020440 RS41 2022-04-08 00:36:58 49.0756 14.9419 84 ° 35 km/h 562 m -4.2 m/s 402.70 MHz Jindřichŭv Hradec (CZ) 0.00 km FOUND
T3010619 RS41-SGP 2022-04-07 12:29:22 49.2802 13.9472 75 ° 93 km/h 2405 m -6.9 m/s 402.701 MHz Strakonice (CZ) 0.00 km FOUND
T3010620 RS41-SGP 2022-04-07 00:59:25 49.4727 13.9112 87 ° 46 km/h 1020 m -4.1 m/s 402.70 MHz Blatná (CZ) 0.00 km FOUND
T3010601 RS41 2022-04-06 12:52:16 49.3946 13.7314 64 ° 52 km/h 1172 m -3.6 m/s 402.70 MHz Horažďovice (CZ) 0.00 km UNKNOWN
T3020439 RS41 2022-04-06 00:48:35 49.0261 13.8565 87 ° 57 km/h 1359 m -3.1 m/s 402.700 MHz Vimperk (CZ) 0.00 km UNKNOWN
T3020277 RS41 2022-04-05 12:42:31 48.8955 14.0643 80 ° 65 km/h 1216 m -6.7 m/s 402.70 MHz Prachatice (CZ) 0.00 km UNKNOWN
T3020441 RS41 2022-04-05 01:00:18 48.5112 13.7784 90 ° 41 km/h 757 m -5.2 m/s 402.70 MHz Sarleinsbach (AT) 0.00 km UNKNOWN
T3010624 RS41 2022-04-04 12:51:24 48.5193 12.8643 60 ° 24 km/h 931 m -4.2 m/s 402.70 MHz Braunau am Inn (AT) 0.00 km FOUND
T3020442 RS41 2022-04-04 00:38:32 48.794 12.7364 111 ° 20 km/h 793 m -8.2 m/s 402.700 MHz Straubing (DE) 0.00 km FOUND
T3010596 RS41 2022-04-03 12:45:09 49.0789 12.926 111 ° 2 km/h 1330 m -5.8 m/s 402.70 MHz Deggendorf (DE) 0.00 km FOUND
T3010623 RS41 2022-04-03 01:02:09 49.0152 12.6288 206 ° 26 km/h 1155 m -3.7 m/s 402.70 MHz Straubing (DE) 0.00 km FOUND
T3010603 RS41 2022-04-02 12:12:59 49.3393 11.9368 202 ° 28 km/h 807 m -11.3 m/s 402.70 MHz Amberg (DE) 0.00 km FOUND
T3010598 RS41 2022-04-02 01:03:30 49.4442 12.4933 234 ° 52 km/h 1310 m -4.3 m/s 402.70 MHz Schwandorf (DE) 0.00 km FOUND
T3010595 RS41 2022-04-01 12:34:37 49.7318 12.5743 232 ° 26 km/h 844 m -3.2 m/s 402.70 MHz Tachov (CZ) 0.00 km NEED ATTENTION
T3010606 RS41 2022-04-01 00:55:16 49.8932 13.4713 266 ° 39 km/h 903 m -3.2 m/s 402.70 MHz Třemošná (CZ) 0.00 km LOST
T3010605 RS41 2022-03-31 13:01:45 49.8101 14.0803 258 ° 19 km/h 757 m -4.2 m/s 404.90 MHz Dobříš (CZ) 0.00 km UNKNOWN
T2950477 RS41 2022-03-31 00:36:31 49.3514 14.0366 40 ° 4 km/h 1178 m -8.1 m/s 402.70 MHz Písek (CZ) 0.00 km UNKNOWN
T2950476 RS41 2022-03-30 12:39:31 49.5667 14.058 9 ° 11 km/h 756 m -5.2 m/s 402.70 MHz Příbram (CZ) 0.00 km UNKNOWN
T2950479 RS41 2022-03-30 00:37:34 49.0881 14.0375 88 ° 15 km/h 1381 m -6.9 m/s 402.70 MHz Prachatice (CZ) 0.00 km LOST
T3020082 RS41 2022-03-29 12:58:39 49.0514 13.8633 81 ° 35 km/h 1064 m -12.8 m/s 402.70 MHz Vimperk (CZ) 0.00 km UNKNOWN
T3020080 RS41 2022-03-29 00:50:42 48.8814 13.8611 92 ° 37 km/h 1217 m -3.7 m/s 402.70 MHz Prachatice (CZ) 0.00 km UNKNOWN
T3020072 RS41 2022-03-28 12:39:47 49.23 13.0344 47 ° 15 km/h 903 m -9.4 m/s 402.700 MHz Kdyně (CZ) 0.00 km UNKNOWN
T3020071 RS41 2022-03-28 01:14:08 48.9328 12.6401 316 ° 15 km/h 476 m -9.5 m/s 402.700 MHz Straubing (DE) 0.00 km FOUND
T2950475 RS41 2022-03-27 12:46:58 49.0292 12.2929 267 ° 2 km/h 669 m -11.4 m/s 402.700 MHz Regensburg (DE) 0.00 km UNKNOWN
T3020083 RS41 2022-03-27 00:42:52 48.9663 12.3698 253 ° 26 km/h 681 m -8.4 m/s 402.70 MHz Straubing (DE) 0.00 km FOUND
T3020068 RS41 2022-03-26 12:25:38 49.1628 11.9082 239 ° 7 km/h 586 m -12.6 m/s 402.70 MHz Regensburg (DE) 0.00 km FOUND
T2950549 RS41 2022-03-26 00:57:01 49.1201 12.1427 235 ° 26 km/h 534 m -4.6 m/s 402.70 MHz Regensburg (DE) 0.00 km FOUND
T2950478 RS41 2022-03-25 12:53:40 49.1933 12.475 219 ° 15 km/h 908 m -8.1 m/s 402.70 MHz Schwandorf (DE) 0.00 km FOUND
T3020069 RS41 2022-03-25 01:00:21 49.2669 12.5018 270 ° 26 km/h 834 m -3.2 m/s 402.700 MHz Schwandorf (DE) 0.00 km NEED ATTENTION
T2950480 RS41 2022-03-24 12:42:37 49.3891 12.3431 200 ° 2 km/h 1381 m -5.2 m/s 402.70 MHz Schwandorf (DE) 0.00 km FOUND
T3020067 RS41 2022-03-24 00:42:03 49.4186 12.2144 259 ° 13 km/h 617 m -9.5 m/s 402.70 MHz Schwandorf (DE) 0.00 km FOUND
T3020070 RS41 2022-03-23 18:43:08 49.5139 12.1441 165 ° 11 km/h 736 m -3.8 m/s 402.700 MHz Weiden in der Oberpfalz (DE) 0.00 km FOUND
T2950990 RS41 2022-03-23 12:42:53 49.5512 11.9811 263 ° 4 km/h 665 m -8.5 m/s 402.700 MHz Amberg (DE) 0.00 km FOUND
T2950550 RS41 2022-03-23 07:04:34 49.5863 11.8149 355 ° 4 km/h 802 m -3.2 m/s 402.70 MHz Sulzbach-Rosenberg (DE) 0.00 km FOUND
T2950541 RS41-SGP 2022-03-23 01:14:31 49.6855 11.7939 327 ° 19 km/h 911 m -5.9 m/s 402.70 MHz Sulzbach-Rosenberg (DE) 0.00 km LOST
T2940545 RS41 2022-03-22 18:36:30 49.7331 11.632 288 ° 22 km/h 823 m -7.1 m/s 402.70 MHz Bayreuth (DE) 0.00 km FOUND
T2950985 RS41 2022-03-22 13:07:08 49.6354 11.3917 312 ° 11 km/h 715 m -7.0 m/s 402.700 MHz Lauf an der Pegnitz (DE) 0.00 km FOUND
T2950546 RS41 2022-03-22 06:48:39 49.5622 11.5072 291 ° 28 km/h 764 m -8.9 m/s 402.70 MHz Lauf an der Pegnitz (DE) 0.00 km FOUND
T2950548 RS41 2022-03-22 01:05:47 49.6948 11.5447 331 ° 33 km/h 951 m -3.3 m/s 402.70 MHz Sulzbach-Rosenberg (DE) 0.00 km FOUND
T2950547 RS41 2022-03-21 18:53:00 49.5927 11.591 295 ° 31 km/h 929 m -4.0 m/s 402.70 MHz Sulzbach-Rosenberg (DE) 0.00 km FOUND
T2950784 RS41 2022-03-21 12:54:44 49.5291 11.5127 309 ° 22 km/h 760 m -5.3 m/s 402.700 MHz Lauf an der Pegnitz (DE) 0.00 km FOUND
T2950542 RS41 2022-03-21 06:52:50 49.5992 11.5957 324 ° 24 km/h 900 m -10.1 m/s 402.70 MHz Sulzbach-Rosenberg (DE) 0.00 km FOUND
T2950987 RS41 2022-03-21 00:39:00 49.6622 11.4962 321 ° 22 km/h 935 m -7.9 m/s 402.700 MHz Lauf an der Pegnitz (DE) 0.00 km FOUND
T2950544 RS41 2022-03-20 18:22:30 49.7019 11.4827 288 ° 43 km/h 928 m -5.8 m/s 402.70 MHz Lauf an der Pegnitz (DE) 0.00 km LOST
T2940424 RS41 2022-03-20 12:37:00 49.712 11.4933 293 ° 31 km/h 782 m -5.5 m/s 402.700 MHz Bayreuth (DE) 0.00 km FOUND
T2950545 RS41 2022-03-20 06:22:30 49.7232 11.5627 286 ° 48 km/h 792 m -8.6 m/s 402.70 MHz Bayreuth (DE) 0.00 km FOUND
T2950239 RS41 2022-03-20 00:38:22 50.0305 11.3034 292 ° 59 km/h 751 m -3.0 m/s 402.70 MHz Kulmbach (DE) 0.00 km FOUND
T2950939 RS41 2022-03-19 18:24:35 49.8394 11.2129 265 ° 52 km/h 929 m -4.2 m/s 402.70 MHz Bamberg (DE) 0.00 km FOUND
T2950986 RS41 2022-03-19 12:40:34 49.1699 11.6973 246 ° 26 km/h 1017 m -3.5 m/s 402.70 MHz Neumarkt in der Oberpfalz (DE) 0.00 km FOUND
T2950905 RS41 2022-03-19 06:24:07 48.9206 11.3213 233 ° 35 km/h 617 m -4.2 m/s 402.700 MHz Ingolstadt (DE) 0.00 km NEED ATTENTION
T2950989 RS41 2022-03-19 00:41:23 49.1213 11.4488 257 ° 65 km/h 872 m -4.1 m/s 402.700 MHz Neumarkt in der Oberpfalz (DE) 0.00 km LOST
T2950543 RS41 2022-03-18 19:09:28 48.9863 11.8966 225 ° 17 km/h 559 m -6.4 m/s 402.70 MHz Regensburg (DE) 0.00 km NEED ATTENTION
T2950968 RS41 2022-03-18 13:11:44 49.0507 12.1092 228 ° 20 km/h 580 m -13.5 m/s 402.70 MHz Regensburg (DE) 0.00 km FOUND
T2950902 RS41 2022-03-18 07:02:40 48.9879 12.2023 229 ° 39 km/h 604 m -9.5 m/s 402.70 MHz Regensburg (DE) 0.00 km FOUND
T2950940 RS41 2022-03-18 01:13:10 49.073 12.3802 230 ° 33 km/h 738 m -4.9 m/s 402.70 MHz Regensburg (DE) 0.00 km UNKNOWN
T2950486 RS41 2022-03-17 19:23:13 49.018 12.4064 345 ° 4 km/h 1278 m -5.7 m/s 402.70 MHz Straubing (DE) 0.00 km NEED ATTENTION
T2950524 RS41 2022-03-17 13:25:11 49.1457 12.4372 3 ° 6 km/h 968 m -4.0 m/s 404.90 MHz Regensburg (DE) 0.00 km FOUND
T2950941 RS41 2022-03-17 07:44:59 48.7597 12.3222 290 ° 31 km/h 681 m -2.9 m/s 402.700 MHz Straubing (DE) 0.00 km FOUND
T2950923 RS41 2022-03-17 00:54:21 48.8551 12.2879 288 ° 52 km/h 680 m -9.6 m/s 402.70 MHz Straubing (DE) 0.00 km FOUND
T2950527 RS41 2022-03-16 19:09:08 48.6449 12.421 287 ° 41 km/h 860 m -5.6 m/s 402.700 MHz Landshut (DE) 0.00 km FOUND
T2950938 RS41 2022-03-16 13:16:38 48.6488 12.535 290 ° 17 km/h 956 m -5.4 m/s 402.700 MHz Straubing (DE) 0.00 km FOUND
T2950484 RS41 2022-03-16 07:27:27 48.2982 12.9613 75 ° 6 km/h 534 m -4.6 m/s 402.70 MHz Braunau am Inn (AT) 0.00 km FOUND
T2950663 RS41 2022-03-16 01:23:23 48.1682 13.4283 110 ° 35 km/h 600 m -11.0 m/s 402.70 MHz Lohnsburg (AT) 0.00 km FOUND
T2950937 RS41 2022-03-15 22:00:30 48.3179 16.8427 133 ° 111 km/h 11849 m 0.2 m/s 402.700 MHz Marchegg (AT) 0.00 km UNKNOWN
T2950526 RS41 2022-03-15 20:12:08 48.6795 13.8944 78 ° 30 km/h 903 m -4.7 m/s 404.90 MHz Ulrichsberg (AT) 0.00 km UNKNOWN
T2950967 RS41 2022-03-15 13:00:01 49.0241 13.2607 99 ° 28 km/h 1278 m -16.1 m/s 402.70 MHz Sušice (CZ) 0.00 km UNKNOWN
T2950901 RS41 2022-03-15 07:27:48 48.8889 13.3417 302 ° 20 km/h 1173 m -5.5 m/s 402.700 MHz Deggendorf (DE) 0.00 km FOUND
T2950924 RS41 2022-03-15 01:13:20 48.8115 13.2825 267 ° 9 km/h 762 m -6.0 m/s 402.700 MHz Deggendorf (DE) 0.00 km UNKNOWN
T2950906 RS41 2022-03-14 19:22:45 48.7824 13.6352 49 ° 6 km/h 1026 m -4.8 m/s 402.700 MHz Ulrichsberg (AT) 0.00 km FOUND
T2950942 RS41 2022-03-14 13:06:25 49.4703 12.8675 52 ° 22 km/h 822 m -12.3 m/s 404.901 MHz Domažlice (CZ) 0.00 km FOUND
T2950525 RS41 2022-03-14 07:26:17 49.4401 12.4577 113 ° 46 km/h 979 m -4.0 m/s 402.701 MHz Schwandorf (DE) 0.00 km FOUND
T3020911 RS41 2022-03-14 01:11:46 49.306 12.2241 276 ° 17 km/h 593 m -9.5 m/s 402.70 MHz Schwandorf (DE) 0.00 km FOUND
T3020946 RS41 2022-03-13 19:01:01 49.2791 12.1247 270 ° 26 km/h 583 m -10.5 m/s 402.700 MHz Schwandorf (DE) 0.00 km FOUND
T3020943 RS41 2022-03-13 13:10:54 49.4169 12.0595 277 ° 9 km/h 542 m -7.9 m/s 402.700 MHz Schwandorf (DE) 0.00 km FOUND
T1320274 RS41 2022-03-13 07:03:23 49.1703 12.1039 258 ° 9 km/h 486 m -6.2 m/s 402.700 MHz Schwandorf (DE) 0.00 km FOUND
T1330563 RS41 2022-03-13 00:57:21 49.072 12.1931 306 ° 35 km/h 753 m -12.5 m/s 402.70 MHz Regensburg (DE) 0.00 km FOUND
T1330562 RS41 2022-03-12 18:58:36 48.9264 12.5279 328 ° 28 km/h 1654 m -16.2 m/s 402.70 MHz Straubing (DE) 0.00 km FOUND
T1320295 RS41 2022-03-12 12:59:20 49.0948 12.5663 318 ° 13 km/h 1057 m -6.8 m/s 402.700 MHz Straubing (DE) 0.00 km FOUND
T1340146 RS41 2022-03-12 07:03:39 49.053 12.5996 325 ° 41 km/h 1106 m -10.7 m/s 402.700 MHz Straubing (DE) 0.00 km NEED ATTENTION
T1310323 RS41 2022-03-12 00:55:49 49.1193 12.5143 298 ° 31 km/h 1081 m -10.5 m/s 402.700 MHz Straubing (DE) 0.00 km FOUND
T1310322 RS41 2022-03-11 19:04:50 49.1236 12.6699 300 ° 67 km/h 1144 m -7.4 m/s 402.70 MHz Straubing (DE) 0.00 km NEED ATTENTION
T1310452 RS41 2022-03-11 12:46:25 49.2525 12.4776 254 ° 20 km/h 840 m -12.4 m/s 402.700 MHz Schwandorf (DE) 0.00 km NEED ATTENTION
T1310453 RS41 2022-03-11 07:16:04 49.2282 13.0607 307 ° 7 km/h 991 m -8.2 m/s 402.70 MHz Kdyně (CZ) 0.00 km UNKNOWN
T3021035 RS41 2022-03-11 00:57:42 49.3897 13.146 291 ° 39 km/h 729 m -10.7 m/s 402.70 MHz Kdyně (CZ) 0.00 km UNKNOWN
T3020942 RS41 2022-03-10 19:12:05 49.3845 13.3376 264 ° 30 km/h 511 m -9.1 m/s 402.70 MHz Klatovy (CZ) 0.00 km FOUND
T3020939 RS41 2022-03-10 12:56:16 49.5569 13.259 296 ° 20 km/h 553 m -12.7 m/s 402.70 MHz Přeštice (CZ) 0.00 km FOUND
T1310469 RS41 2022-03-10 07:08:22 49.4383 13.1373 282 ° 9 km/h 677 m -6.4 m/s 402.70 MHz Kdyně (CZ) 0.00 km FOUND
T3021054 RS41 2022-03-10 00:57:49 49.3881 12.899 228 ° 4 km/h 626 m -10.4 m/s 402.700 MHz Domažlice (CZ) 0.00 km FOUND
T3030007 RS41 2022-03-09 18:58:50 49.258 12.7849 244 ° 11 km/h 567 m -10.8 m/s 402.700 MHz Domažlice (CZ) 0.00 km UNKNOWN
T3030009 RS41 2022-03-09 13:15:35 49.2048 12.5036 244 ° 2 km/h 822 m -6.6 m/s 404.90 MHz Schwandorf (DE) 0.00 km FOUND
T3021051 RS41 2022-03-09 07:21:14 49.037 12.2744 323 ° 19 km/h 638 m -4.9 m/s 402.700 MHz Regensburg (DE) 0.00 km FOUND
T3021053 RS41 2022-03-09 01:22:00 49.0217 12.3531 320 ° 13 km/h 686 m -9.0 m/s 402.700 MHz Regensburg (DE) 0.00 km FOUND
T3020944 RS41 2022-03-08 19:32:34 48.9614 11.9736 286 ° 6 km/h 592 m -3.3 m/s 402.700 MHz Regensburg (DE) 0.00 km FOUND
T3021052 RS41 2022-03-08 12:58:12 49.0947 11.9827 343 ° 13 km/h 572 m -6.6 m/s 402.70 MHz Regensburg (DE) 0.00 km NEED ATTENTION
T3021033 RS41 2022-03-08 07:28:23 48.7328 11.9128 277 ° 35 km/h 654 m -4.6 m/s 402.700 MHz Landshut (DE) 0.00 km UNKNOWN
T3030037 RS41-SGP 2022-03-08 01:11:32 48.7701 11.7147 256 ° 19 km/h 735 m -7.0 m/s 402.70 MHz Ingolstadt (DE) 0.00 km FOUND
T3010561 RS41 2022-03-07 19:24:28 48.5165 11.6598 267 ° 24 km/h 1082 m -6.0 m/s 402.700 MHz Pfaffenhofen an der Ilm (DE) 0.00 km UNKNOWN
T3030040 RS41 2022-03-07 13:17:45 48.6995 11.706 284 ° 7 km/h 871 m -5.5 m/s 402.700 MHz Ingolstadt (DE) 0.00 km FOUND
T3021038 RS41 2022-03-07 07:05:34 48.6653 11.7386 240 ° 22 km/h 806 m -9.9 m/s 402.70 MHz Pfaffenhofen an der Ilm (DE) 0.00 km FOUND
T3021056 RS41 2022-03-07 01:41:49 48.4028 11.6087 246 ° 20 km/h 756 m -4.4 m/s 402.70 MHz Freising (DE) 0.00 km UNKNOWN
T3021055 RS41 2022-03-06 19:03:59 48.7314 11.7523 222 ° 19 km/h 860 m -3.3 m/s 404.90 MHz Ingolstadt (DE) 0.00 km UNKNOWN
T3030041 RS41 2022-03-06 13:21:21 48.4704 11.6987 212 ° 13 km/h 586 m -7.6 m/s 402.70 MHz Freising (DE) 0.00 km FOUND
T3030038 RS41 2022-03-06 07:00:53 48.6343 11.4801 274 ° 31 km/h 943 m -12.2 m/s 402.70 MHz Pfaffenhofen an der Ilm (DE) 0.00 km FOUND
T3021036 RS41 2022-03-06 01:26:21 48.503 11.2245 270 ° 39 km/h 972 m -4.8 m/s 402.700 MHz Aichach (DE) 0.00 km FOUND
T3020908 RS41 2022-03-05 19:09:00 48.3641 11.607 268 ° 37 km/h 794 m -14.5 m/s 402.70 MHz Unterschleißheim (DE) 0.00 km FOUND
T3020889 RS41 2022-03-05 12:57:13 48.6336 11.5226 271 ° 22 km/h 1166 m -14.1 m/s 402.70 MHz Pfaffenhofen an der Ilm (DE) 0.00 km FOUND
T3020823 RS41 2022-03-05 06:57:30 48.6101 11.6603 279 ° 31 km/h 885 m -9.8 m/s 402.70 MHz Pfaffenhofen an der Ilm (DE) 0.00 km FOUND
T3020445 RS41 2022-03-05 01:19:51 48.4485 11.68 271 ° 24 km/h 605 m -9.2 m/s 402.70 MHz Freising (DE) 0.00 km UNKNOWN
T3020368 RS41 2022-03-04 19:15:48 48.4764 11.6921 265 ° 19 km/h 600 m -6.2 m/s 402.70 MHz Freising (DE) 0.00 km FOUND
T3020371 RS41 2022-03-04 12:56:30 48.6323 11.4402 247 ° 15 km/h 969 m -11.4 m/s 402.70 MHz Pfaffenhofen an der Ilm (DE) 0.00 km FOUND
T3010526 RS41 2022-03-04 07:06:30 48.4593 11.493 256 ° 26 km/h 665 m -6.9 m/s 402.70 MHz Pfaffenhofen an der Ilm (DE) 0.00 km FOUND
T3040525 RS41 2022-03-04 01:23:00 48.4967 11.6683 276 ° 19 km/h 1220 m -9.4 m/s 402.70 MHz Freising (DE) 0.00 km FOUND
T3040632 RS41 2022-03-03 19:08:30 48.6931 12.1266 237 ° 35 km/h 975 m -7.6 m/s 402.70 MHz Landshut (DE) 0.00 km UNKNOWN
T3010617 RS41 2022-03-03 13:11:46 48.6365 12.6217 178 ° 15 km/h 1009 m -6.2 m/s 402.70 MHz Straubing (DE) 0.00 km FOUND
T3010525 RS41 2022-03-03 07:06:30 48.8013 12.3452 74 ° 9 km/h 760 m -13.5 m/s 402.70 MHz Straubing (DE) 0.00 km FOUND
T3040480 RS41 2022-03-03 01:15:00 48.9167 12.0127 271 ° 9 km/h 602 m -4.9 m/s 402.70 MHz Regensburg (DE) 0.00 km FOUND
T3040541 RS41 2022-03-02 19:16:47 48.9185 12.1708 239 ° 6 km/h 910 m -6.1 m/s 402.700 MHz Regensburg (DE) 0.00 km FOUND
T3020369 RS41 2022-03-02 13:03:30 48.9268 12.3201 322 ° 6 km/h 739 m -3.8 m/s 402.70 MHz Regensburg (DE) 0.00 km FOUND
T3010616 RS41 2022-03-02 07:05:00 48.842 12.2555 308 ° 19 km/h 628 m -5.9 m/s 402.70 MHz Regensburg (DE) 0.00 km FOUND
T3020367 RS41 2022-03-02 01:21:00 48.8341 12.118 267 ° 20 km/h 566 m -9.8 m/s 402.70 MHz Regensburg (DE) 0.00 km FOUND
T3010615 RS41 2022-03-01 19:17:33 48.7516 11.8088 286 ° 30 km/h 665 m -4.9 m/s 402.700 MHz Ingolstadt (DE) 0.00 km UNKNOWN
T3040469 RS41 2022-03-01 13:04:00 48.7838 11.7593 278 ° 13 km/h 666 m -5.0 m/s 402.700 MHz Ingolstadt (DE) 0.00 km FOUND
T3010541 RS41 2022-03-01 07:04:00 48.8542 11.6472 297 ° 22 km/h 652 m -7.9 m/s 402.70 MHz Ingolstadt (DE) 0.00 km FOUND
T3020825 RS41 2022-03-01 00:56:31 48.7779 11.423 309 ° 41 km/h 763 m -10.6 m/s 402.700 MHz Ingolstadt (DE) 0.00 km UNKNOWN
T3020821 RS41 2022-02-28 18:51:00 48.7271 11.4825 264 ° 26 km/h 1227 m -13.3 m/s 402.70 MHz Ingolstadt (DE) 0.00 km FOUND
T3030011 RS41 2022-02-28 12:59:01 48.8712 11.5204 217 ° 9 km/h 769 m -8.5 m/s 402.700 MHz Ingolstadt (DE) 0.00 km NEED ATTENTION
T3020768 RS41 2022-02-28 07:08:00 48.8891 11.4827 277 ° 20 km/h 820 m -7.1 m/s 402.700 MHz Ingolstadt (DE) 0.00 km UNKNOWN
T3020891 RS41 2022-02-28 00:51:00 49.152 11.4124 300 ° 26 km/h 1163 m -12.3 m/s 402.700 MHz Neumarkt in der Oberpfalz (DE) 0.00 km LOST
T3020890 RS41 2022-02-27 18:59:30 49.137 11.2177 287 ° 35 km/h 1338 m -13.0 m/s 402.70 MHz Roth bei Nürnberg (DE) 0.00 km FOUND
T3020892 RS41 2022-02-27 12:39:07 49.051 10.8826 274 ° 28 km/h 707 m -10.4 m/s 402.700 MHz Roth bei Nürnberg (DE) 0.00 km FOUND
T3010527 RS41 2022-02-27 06:54:42 49.0853 11.0208 285 ° 44 km/h 1315 m -10.9 m/s 402.700 MHz Roth bei Nürnberg (DE) 0.00 km FOUND
T1340145 RS41 2022-02-27 01:24:16 48.9339 10.9926 276 ° 33 km/h 967 m -5.8 m/s 402.70 MHz Neuburg an der Donau (DE) 0.00 km UNKNOWN
T1310466 RS41 2022-02-26 19:08:00 48.8751 11.4532 231 ° 19 km/h 889 m -6.2 m/s 402.70 MHz Ingolstadt (DE) 0.00 km FOUND
T3010647 RS41 2022-02-26 13:04:00 48.7331 11.6786 173 ° 9 km/h 892 m -9.8 m/s 402.70 MHz Ingolstadt (DE) 0.00 km UNKNOWN
T1330564 RS41 2022-02-26 07:00:37 48.7531 12.0058 115 ° 24 km/h 545 m -10.7 m/s 402.700 MHz Landshut (DE) 0.00 km UNKNOWN
T1310472 RS41 2022-02-26 01:18:53 48.9764 12.7279 151 ° 35 km/h 1099 m -9.3 m/s 402.700 MHz Straubing (DE) 0.00 km FOUND
T3010614 RS41 2022-02-25 19:20:17 49.2738 13.5606 100 ° 37 km/h 852 m -9.0 m/s 402.700 MHz Sušice (CZ) 0.00 km UNKNOWN
T3010546 RS41 2022-02-25 13:06:09 49.6283 13.9026 85 ° 43 km/h 728 m -5.9 m/s 402.700 MHz Příbram (CZ) 0.00 km UNKNOWN
T3010542 RS41 2022-02-25 07:00:41 49.6979 14.0479 71 ° 26 km/h 603 m -10.0 m/s 402.700 MHz Příbram (CZ) 0.00 km LOST
T3010613 RS41 2022-02-25 01:17:24 49.8716 14.2795 81 ° 17 km/h 438 m -3.2 m/s 402.70 MHz Mníšek pod Brdy (CZ) 0.00 km UNKNOWN
T1310473 RS41 2022-02-24 19:38:21 49.9482 14.1885 35 ° 30 km/h 479 m -7.6 m/s 402.70 MHz Beroun (CZ) 0.00 km FOUND
T3040516 RS41 2022-02-24 13:04:49 49.8971 13.8544 81 ° 13 km/h 613 m -8.9 m/s 402.70 MHz Hořovice (CZ) 0.00 km UNKNOWN
T3040544 RS41 2022-02-24 07:05:12 49.5984 13.645 317 ° 7 km/h 597 m -6.7 m/s 402.700 MHz Rokycany (CZ) 0.00 km UNKNOWN
T3020749 RS41 2022-02-24 01:12:56 49.5531 13.564 320 ° 35 km/h 573 m -8.4 m/s 402.70 MHz Přeštice (CZ) 0.00 km UNKNOWN
T1340036 RS41 2022-02-23 19:07:43 48.8372 13.6869 104 ° 19 km/h 1292 m -8.3 m/s 402.70 MHz Ulrichsberg (AT) 0.00 km UNKNOWN
T3020783 RS41 2022-02-23 12:48:31 48.8413 13.2752 145 ° 48 km/h 2252 m -11.9 m/s 402.700 MHz Deggendorf (DE) 0.00 km UNKNOWN
T3020361 RS41 2022-02-23 07:10:34 48.6572 13.6239 131 ° 46 km/h 942 m -9.7 m/s 402.700 MHz Esternberg (AT) 0.00 km UNKNOWN
T3020818 RS41 2022-02-23 00:39:17 48.2643 13.9473 84 ° 39 km/h 463 m -2.8 m/s 402.700 MHz Sankt Marienkirchen an der Polsenz (AT) 0.00 km NEED ATTENTION
T3020778 RS41 2022-02-22 19:16:35 48.6483 13.825 88 ° 39 km/h 1003 m -6.2 m/s 402.700 MHz Ulrichsberg (AT) 0.00 km UNKNOWN
T3010643 RS41 2022-02-22 13:10:09 48.389 13.1616 100 ° 33 km/h 730 m -7.7 m/s 402.700 MHz Sankt Peter (AT) 0.00 km UNKNOWN
T3010544 RS41 2022-02-22 06:56:35 48.1213 12.7992 107 ° 24 km/h 570 m -10.7 m/s 402.700 MHz Hochburg-Ach (AT) 0.00 km UNKNOWN
T3010362 RS41 2022-02-22 01:13:13 48.3804 13.3444 93 ° 33 km/h 418 m -11.3 m/s 402.700 MHz Schärding (AT) 0.00 km UNKNOWN
T3040542 RS41-SGP 2022-02-21 18:54:28 49.1912 13.6501 69 ° 70 km/h 1088 m -8.5 m/s 402.700 MHz Sušice (CZ) 0.00 km FOUND
T3020822 RS41 2022-02-21 13:19:45 49.5139 14.2383 79 ° 46 km/h 675 m -3.0 m/s 402.700 MHz Milevsko (CZ) 0.00 km UNKNOWN
T3020779 RS41 2022-02-21 07:32:31 49.8387 14.4715 103 ° 28 km/h 438 m -11.6 m/s 402.700 MHz Týnec nad Sázavou (CZ) 0.00 km UNKNOWN
T3021037 RS41 2022-02-21 01:22:54 49.4843 14.5912 47 ° 46 km/h 769 m -6.7 m/s 402.700 MHz Tábor (CZ) 0.00 km UNKNOWN
T3021034 RS41 2022-02-20 19:19:35 48.8696 14.0445 63 ° 61 km/h 1207 m -10.8 m/s 402.70 MHz Prachatice (CZ) 0.00 km UNKNOWN
T3040477 RS41 2022-02-20 13:18:03 48.894 14.1802 63 ° 48 km/h 977 m -5.4 m/s 402.70 MHz Český Krumlov (CZ) 0.00 km UNKNOWN
T3040638 RS41 2022-02-20 07:26:38 48.6309 14.2732 71 ° 57 km/h 887 m -6.0 m/s 402.70 MHz Vorderweissenbach (AT) 0.00 km UNKNOWN
T3010648 RS41 2022-02-20 01:37:58 49.7013 14.9906 33 ° 35 km/h 580 m -5.0 m/s 402.70 MHz Vlašim (CZ) 0.00 km UNKNOWN
T3010645 RS41 2022-02-19 19:07:57 49.6757 14.6342 64 ° 31 km/h 559 m -11.1 m/s 402.700 MHz Benešov (CZ) 0.00 km UNKNOWN
T3010646 RS41 2022-02-19 13:03:19 49.8915 15.1178 88 ° 54 km/h 542 m -7.5 m/s 402.70 MHz Kutná Hora (CZ) 0.00 km NEED ATTENTION
T3010644 RS41 2022-02-19 07:26:29 49.9562 15.7912 90 ° 100 km/h 1038 m -5.8 m/s 402.700 MHz Chrudim (CZ) 0.00 km FOUND
T3010543 RS41 2022-02-19 01:27:38 50.1496 16 89 ° 100 km/h 1845 m -5.0 m/s 402.700 MHz Týniště nad Orlicí (CZ) 0.00 km UNKNOWN
T3010528 RS41 2022-02-18 19:32:16 49.6022 15.5294 59 ° 65 km/h 927 m -8.0 m/s 402.70 MHz Havlíčkŭv Brod (CZ) 0.00 km UNKNOWN
T3020362 RS41 2022-02-18 13:12:39 49.17 14.6334 37 ° 37 km/h 962 m -8.0 m/s 402.70 MHz Veselí nad Lužnicí (CZ) 0.00 km FOUND
T3010545 RS41 2022-02-18 07:05:43 48.6682 14.3923 100 ° 30 km/h 931 m -12.7 m/s 402.700 MHz Kaplice (CZ) 0.00 km UNKNOWN
T1310463 RS41 2022-02-18 01:17:04 48.3859 14.7117 101 ° 20 km/h 739 m -5.1 m/s 402.700 MHz Unterweissenbach (AT) 0.00 km UNKNOWN
T1310468 RS41 2022-02-17 20:03:10 48.0973 15.4334 96 ° 19 km/h 482 m -11.5 m/s 402.70 MHz Kilb (AT) 0.00 km FOUND
T1330592 RS41 2022-02-17 13:35:06 48.2917 15.5153 130 ° 41 km/h 632 m -5.4 m/s 402.700 MHz Paudorf (AT) 0.00 km NEED ATTENTION
T1310470 RS41 2022-02-17 07:16:00 48.4381 14.7613 117 ° 37 km/h 867 m -1.8 m/s 402.700 MHz Unterweissenbach (AT) 0.00 km UNKNOWN
T1310467 RS41 2022-02-17 01:22:08 48.4279 14.3032 82 ° 41 km/h 877 m -5.8 m/s 402.700 MHz Hellmonsödt (AT) 0.00 km FOUND
T1310324 RS41 2022-02-16 19:12:20 48.1648 13.6603 77 ° 46 km/h 569 m -8.1 m/s 402.70 MHz Haag am Hausruck (AT) 0.00 km UNKNOWN
T1310465 RS41 2022-02-16 13:02:50 48.3539 13.7162 73 ° 31 km/h 551 m -7.7 m/s 402.70 MHz Peuerbach (AT) 0.00 km UNKNOWN
T1250596 RS41 2022-02-16 07:08:28 48.3575 14.0278 339 ° 6 km/h 375 m -11.4 m/s 402.70 MHz Aschach an der Donau (AT) 0.00 km FOUND
T1321030 RS41 2022-02-16 01:09:22 48.6907 13.7967 81 ° 33 km/h 918 m -4.1 m/s 402.70 MHz Ulrichsberg (AT) 0.00 km UNKNOWN
T1310464 RS41-SGP 2022-02-15 18:58:17 49.2075 14.3393 100 ° 31 km/h 1167 m -11.8 m/s 402.70 MHz Týn nad Vltavou (CZ) 0.00 km FOUND
T1310456 RS41 2022-02-15 13:17:28 49.7666 14.7833 74 ° 17 km/h 575 m -5.3 m/s 402.70 MHz Benešov (CZ) 0.00 km UNKNOWN
T1310321 RS41 2022-02-15 07:19:21 49.8119 14.692 56 ° 11 km/h 496 m -6.1 m/s 402.700 MHz Benešov (CZ) 0.00 km UNKNOWN
T1310455 RS41 2022-02-15 01:16:27 49.7895 14.4643 45 ° 13 km/h 511 m -9.1 m/s 402.70 MHz Týnec nad Sázavou (CZ) 0.00 km UNKNOWN
T1320401 RS41 2022-02-14 19:31:07 49.5949 14.5268 350 ° 37 km/h 632 m -6.8 m/s 402.70 MHz Sedlčany (CZ) 0.00 km FOUND
T1320271 RS41 2022-02-14 13:03:15 49.6154 13.878 348 ° 24 km/h 897 m -9.9 m/s 402.70 MHz Příbram (CZ) 0.00 km UNKNOWN
T1320250 RS41 2022-02-14 06:48:47 49.4083 13.6548 33 ° 20 km/h 885 m -12.5 m/s 402.70 MHz Horažďovice (CZ) 0.00 km UNKNOWN
T1320251 RS41-SGP 2022-02-14 00:50:32 49.3017 13.7149 28 ° 15 km/h 971 m -13.2 m/s 402.700 MHz Horažďovice (CZ) 0.00 km NEED ATTENTION
T1320275 RS41-SGP 2022-02-13 19:14:16 49.1918 14.3528 328 ° 20 km/h 950 m -3.8 m/s 402.700 MHz Týn nad Vltavou (CZ) 0.00 km FOUND
T1320219 RS41 2022-02-13 12:56:48 49.4142 14.2663 13 ° 6 km/h 848 m -11.4 m/s 402.70 MHz Milevsko (CZ) 0.00 km FOUND
T1310449 RS41 2022-02-13 07:06:09 49.3593 14.5768 347 ° 30 km/h 653 m -11.8 m/s 402.700 MHz Sezimovo Ústí (CZ) 0.00 km UNKNOWN
T1310444 RS41 2022-02-13 01:14:55 49.4382 14.3468 346 ° 31 km/h 777 m -4.6 m/s 402.700 MHz Milevsko (CZ) 0.00 km UNKNOWN
T1320296 RS41 2022-02-12 19:08:12 49.3044 14.8311 320 ° 39 km/h 646 m -11.2 m/s 402.70 MHz Soběslav (CZ) 0.00 km LOST
T1320273 RS41-SGP 2022-02-12 13:07:24 49.3471 14.0592 324 ° 17 km/h 938 m -3.7 m/s 402.70 MHz Písek (CZ) 0.00 km FOUND
T1250595 RS41 2022-02-12 07:49:01 49.0289 15.0712 223 ° 7 km/h 691 m -7.2 m/s 402.70 MHz Litschau (AT) 0.00 km FOUND
T1320248 RS41 2022-02-12 01:31:33 48.9353 14.7529 129 ° 26 km/h 576 m -8.6 m/s 402.700 MHz Třeboň (CZ) 0.00 km UNKNOWN
T1320252 RS41 2022-02-11 19:26:02 49.1905 15.6066 98 ° 31 km/h 688 m -4.8 m/s 402.70 MHz Telč (CZ) 0.00 km UNKNOWN
T1320272 RS41 2022-02-11 13:04:56 49.656 15.6861 127 ° 43 km/h 1199 m -12.8 m/s 404.90 MHz Chotěboř (CZ) 0.00 km UNKNOWN
T1320276 RS41 2022-02-11 06:44:54 49.8167 15.2396 75 ° 52 km/h 1008 m -13.2 m/s 402.700 MHz Kutná Hora (CZ) 0.00 km UNKNOWN
T1320855 RS41 2022-02-11 01:01:44 49.9599 15.8486 80 ° 26 km/h 1412 m -7.1 m/s 402.70 MHz Chrudim (CZ) 0.00 km FOUND
T1320147 RS41 2022-02-10 19:16:46 50.0246 16.2622 114 ° 54 km/h 1501 m -7.0 m/s 402.70 MHz Choceň (CZ) 0.00 km FOUND
T1310348 RS41 2022-02-10 12:57:38 49.9883 14.9748 51 ° 28 km/h 549 m -8.1 m/s 402.701 MHz Český Brod (CZ) 0.00 km FOUND
T1320148 RS41 2022-02-10 07:09:50 49.7879 15.2411 51 ° 31 km/h 987 m -6.5 m/s 402.70 MHz Čáslav (CZ) 0.00 km UNKNOWN
T1250600 RS41 2022-02-10 01:01:22 49.5493 14.784 92 ° 26 km/h 915 m -7.1 m/s 402.700 MHz Tábor (CZ) 0.00 km UNKNOWN
T1250568 RS41 2022-02-09 19:30:19 49.0823 14.872 87 ° 9 km/h 538 m -3.7 m/s 402.70 MHz Třeboň (CZ) 0.00 km FOUND
T1320149 RS41 2022-02-09 13:17:56 49.0523 14.4753 102 ° 17 km/h 706 m -6.0 m/s 402.70 MHz Hluboká nad Vltavou (CZ) 0.00 km FOUND
T1320359 RS41 2022-02-09 07:16:08 48.861 14.2482 69 ° 17 km/h 863 m -7.6 m/s 402.70 MHz Český Krumlov (CZ) 0.00 km UNKNOWN
T1320150 RS41 2022-02-09 01:32:55 48.5927 14.0445 95 ° 30 km/h 917 m -7.4 m/s 402.70 MHz Haslach an der Mühl (AT) 0.00 km UNKNOWN
T1320573 RS41 2022-02-08 19:31:22 48.4355 13.9008 109 ° 35 km/h 662 m -5.8 m/s 402.70 MHz Altenfelden (AT) 0.00 km UNKNOWN
T1320572 RS41 2022-02-08 13:30:15 48.0766 13.475 87 ° 39 km/h 784 m -5.0 m/s 402.70 MHz Neukirchen an der Vöckla (AT) 0.00 km FOUND
T1310811 RS41 2022-02-08 07:26:29 47.7594 13.2326 91 ° 50 km/h 1350 m -4.9 m/s 402.700 MHz Faistenau (AT) 0.00 km UNKNOWN
T1320575 RS41 2022-02-08 01:28:31 47.6451 13.3393 132 ° 41 km/h 1773 m -4.8 m/s 402.70 MHz Abtenau (AT) 0.00 km UNKNOWN
T1320337 RS41 2022-02-07 19:15:25 47.5583 13.2707 127 ° 61 km/h 2119 m -3.6 m/s 402.70 MHz Abtenau (AT) 0.00 km UNKNOWN
T1320339 RS41 2022-02-07 12:53:28 48.0333 13.3478 113 ° 50 km/h 863 m -13.0 m/s 402.70 MHz Pöndorf (AT) 0.00 km FOUND
T1320338 RS41 2022-02-07 07:29:38 48.2982 14.3742 94 ° 26 km/h 529 m -5.9 m/s 402.700 MHz Steyregg (AT) 0.00 km LOST
T1310865 RS41 2022-02-07 01:30:32 48.9625 15.0253 98 ° 15 km/h 658 m -3.1 m/s 402.70 MHz Litschau (AT) 0.00 km FOUND
T1310870 RS41 2022-02-06 19:21:17 49.3065 15.1018 81 ° 39 km/h 734 m -7.2 m/s 402.700 MHz Pelhřimov (CZ) 0.00 km UNKNOWN
T1320399 RS41 2022-02-06 13:31:07 49.1824 15.2648 66 ° 50 km/h 818 m -3.2 m/s 402.700 MHz Telč (CZ) 0.00 km LOST
T1320145 RS41 2022-02-06 07:15:18 49.0606 14.7065 53 ° 50 km/h 679 m -6.8 m/s 402.70 MHz Třeboň (CZ) 0.00 km LOST
T1310857 RS41 2022-02-06 01:43:03 48.7679 14.8296 93 ° 39 km/h 710 m -4.3 m/s 402.700 MHz Weitra (AT) 0.00 km LOST
T1310827 RS41 2022-02-05 19:08:58 48.752 14.1629 79 ° 54 km/h 1034 m -11.9 m/s 402.70 MHz Český Krumlov (CZ) 0.00 km UNKNOWN
T1320854 RS41 2022-02-05 13:30:24 48.6363 14.5966 115 ° 35 km/h 916 m -2.7 m/s 402.70 MHz Rainbach im Mühlkreis (AT) 0.00 km UNKNOWN
T1310867 RS41 2022-02-05 07:25:12 48.8888 15.2665 95 ° 31 km/h 566 m -5.8 m/s 402.700 MHz Waidhofen an der Thaya (AT) 0.00 km NEED ATTENTION
T1320864 RS41 2022-02-05 01:07:07 49.2924 15.0126 73 ° 31 km/h 760 m -4.3 m/s 402.70 MHz Jindřichŭv Hradec (CZ) 0.00 km FOUND
T1320853 RS41-SGP 2022-02-04 19:01:18 49.3147 14.2871 77 ° 39 km/h 974 m -3.1 m/s 402.70 MHz Písek (CZ) 0.00 km FOUND
T1320146 RS41 2022-02-04 13:26:25 48.8652 14.8566 80 ° 24 km/h 574 m -7.8 m/s 402.70 MHz Trhové Sviny (CZ) 0.00 km FOUND
T1250587 RS41 2022-02-04 07:17:39 48.4942 14.8523 78 ° 43 km/h 1055 m -5.4 m/s 402.700 MHz Unterweissenbach (AT) 0.00 km UNKNOWN
T1320574 RS41 2022-02-04 01:11:11 48.4244 14.7625 44 ° 6 km/h 829 m -3.1 m/s 402.70 MHz Unterweissenbach (AT) 0.00 km FOUND
T1320571 RS41 2022-02-03 19:02:07 48.4384 15.0143 18 ° 30 km/h 1042 m -11.8 m/s 402.70 MHz Königswiesen (AT) 0.00 km UNKNOWN
T1321032 RS41 2022-02-03 13:20:35 48.1331 15.3272 58 ° 6 km/h 372 m -8.4 m/s 402.70 MHz Mank (AT) 0.00 km FOUND
T1320862 RS41 2022-02-03 07:13:28 47.5429 14.0347 127 ° 50 km/h 2211 m -4.0 m/s 402.70 MHz Stainach (AT) 0.00 km LOST
T1250598 RS41 2022-02-03 01:23:25 47.2728 14.9617 148 ° 41 km/h 1604 m -1.7 m/s 402.70 MHz Sankt Michael in Obersteiermark (AT) 0.00 km UNKNOWN
T1231110 RS41 2022-02-02 19:18:00 47.0896 15.1905 140 ° 19 km/h 573 m -4.1 m/s 402.70 MHz Stallhofen (AT) 0.00 km FOUND
T1320342 RS41 2022-02-02 13:13:02 46.9432 15.0604 119 ° 39 km/h 1272 m -5.3 m/s 402.700 MHz Ligist (AT) 0.00 km FOUND
T1320360 RS41 2022-02-02 08:04:30 46.0601 15.5975 121 ° 13 km/h 526 m -3.3 m/s 402.700 MHz Kozje (SI) 0.00 km FOUND
T1320340 RS41 2022-02-02 01:16:59 46.8646 15.2317 281 ° 7 km/h 498 m -3.5 m/s 402.700 MHz Stainz (AT) 0.00 km FOUND
T1320397 RS41 2022-02-01 19:51:15 46.9678 16.0885 30 ° 19 km/h 383 m -4.3 m/s 402.70 MHz Jennersdorf (AT) 0.00 km FOUND
T1310853 RS41 2022-02-01 13:01:35 47.7989 15.3812 117 ° 35 km/h 1151 m -11.2 m/s 402.70 MHz Mariazell (AT) 0.00 km UNKNOWN
T1310799 RS41 2022-02-01 07:01:36 47.2188 14.0557 150 ° 93 km/h 2633 m -8.7 m/s 402.700 MHz Murau (AT) 0.00 km UNKNOWN
T1320629 RS41 2022-02-01 01:15:29 47.6718 14.722 92 ° 11 km/h 685 m -6.7 m/s 402.700 MHz Landl (AT) 0.00 km UNKNOWN
T1310895 RS41 2022-01-31 19:40:23 48.1902 16.1588 60 ° 4 km/h 452 m -2.0 m/s 402.700 MHz Purkersdorf (AT) 0.00 km NEED ATTENTION
T1320628 RS41 2022-01-31 13:10:41 49.002 15.7915 93 ° 26 km/h 554 m -8.3 m/s 402.700 MHz Moravské Budějovice (CZ) 0.00 km FOUND
T1310372 RS41 2022-01-31 06:47:35 49.0968 14.9451 87 ° 2 km/h 532 m -1.7 m/s 402.700 MHz Jindřichŭv Hradec (CZ) 0.00 km LOST
T1310371 RS41 2022-01-31 00:57:19 48.7482 14.8237 122 ° 19 km/h 700 m -2.3 m/s 402.700 MHz Weitra (AT) 0.00 km FOUND
T1231073 RS41 2022-01-30 19:13:06 48.1382 14.818 118 ° 41 km/h 391 m -5.3 m/s 402.700 MHz Ardagger Markt (AT) 0.00 km NEED ATTENTION
T1231074 RS41 2022-01-30 13:07:24 48.0482 14.8345 113 ° 70 km/h 505 m -8.4 m/s 402.700 MHz Neuhofen an der Ybbs (AT) 0.00 km LOST
T1310362 RS41 2022-01-30 07:18:06 47.7545 15.3116 174 ° 7 km/h 950 m -7.1 m/s 402.700 MHz Mariazell (AT) 0.00 km UNKNOWN
T1310366 RS41 2022-01-30 01:13:22 48.0808 15.3552 64 ° 30 km/h 424 m -3.3 m/s 402.700 MHz Mank (AT) 0.00 km FOUND
T1240344 RS41 2022-01-29 19:19:39 48.2299 14.5317 87 ° 44 km/h 322 m -6.6 m/s 402.70 MHz Mauthausen (AT) 0.00 km FOUND
T1310367 RS41 2022-01-29 12:59:38 48.3942 13.7973 87 ° 35 km/h 612 m -13.9 m/s 402.70 MHz Natternbach (AT) 0.00 km UNKNOWN
T1320626 RS41 2022-01-29 07:10:14 48.0267 13.5872 91 ° 30 km/h 674 m -3.9 m/s 402.70 MHz Timelkam (AT) 0.00 km UNKNOWN
T1231108 RS41 2022-01-29 01:13:30 48.0555 13.3526 85 ° 39 km/h 831 m -8.4 m/s 402.70 MHz Pöndorf (AT) 0.00 km UNKNOWN
T1240343 RS41 2022-01-28 18:57:17 48.098 13.149 89 ° 24 km/h 586 m -8.3 m/s 402.700 MHz Mattighofen (AT) 0.00 km FOUND
T1310817 RS41 2022-01-28 13:05:59 48.111 13.456 112 ° 46 km/h 800 m -4.7 m/s 402.700 MHz Waldzell (AT) 0.00 km NEED ATTENTION
T1310801 RS41 2022-01-28 07:09:01 48.6319 14.0552 105 ° 52 km/h 999 m -6.2 m/s 402.70 MHz Haslach an der Mühl (AT) 0.00 km UNKNOWN
T1310866 RS41 2022-01-28 01:31:11 48.8418 15.1385 102 ° 24 km/h 693 m -3.5 m/s 402.70 MHz Heidenreichstein (AT) 0.00 km FOUND
T1310377 RS41-SGP 2022-01-27 18:54:13 49.0321 14.1032 114 ° 65 km/h 1112 m -13.5 m/s 402.70 MHz Prachatice (CZ) 0.00 km FOUND
T1231067 RS41 2022-01-27 13:11:14 48.8674 13.805 85 ° 39 km/h 1185 m -8.7 m/s 402.700 MHz Vimperk (CZ) 0.00 km UNKNOWN
T1310365 RS41 2022-01-27 07:32:44 48.4583 13.7852 91 ° 30 km/h 678 m -3.9 m/s 404.90 MHz Natternbach (AT) 0.00 km UNKNOWN
T1240345 RS41 2022-01-27 01:06:47 48.4263 12.7243 99 ° 22 km/h 667 m -6.2 m/s 402.700 MHz Braunau am Inn (AT) 0.00 km FOUND
T1310378 RS41 2022-01-26 19:15:03 48.1868 12.7099 122 ° 20 km/h 511 m -4.1 m/s 402.700 MHz Hochburg-Ach (AT) 0.00 km FOUND
T1310822 RS41 2022-01-26 13:18:17 48.5288 13.6762 101 ° 35 km/h 668 m -3.6 m/s 402.700 MHz Esternberg (AT) 0.00 km UNKNOWN
T1310834 RS41 2022-01-26 06:54:59 48.6056 13.531 106 ° 15 km/h 927 m -11.2 m/s 402.700 MHz Esternberg (AT) 0.00 km LOST
T1310820 RS41 2022-01-26 01:07:55 48.6217 13.7281 78 ° 15 km/h 911 m -5.4 m/s 402.70 MHz Esternberg (AT) 0.00 km UNKNOWN
T1310856 RS41 2022-01-25 19:27:17 48.3803 13.7746 116 ° 22 km/h 544 m -4.6 m/s 402.700 MHz Natternbach (AT) 0.00 km UNKNOWN
T1310830 RS41 2022-01-25 13:13:29 48.4847 13.3396 120 ° 9 km/h 691 m -3.5 m/s 402.70 MHz Schärding (AT) 0.00 km UNKNOWN
T1231066 RS41 2022-01-25 07:42:14 48.6651 13.1764 96 ° 9 km/h 799 m -12.5 m/s 404.90 MHz Passau (DE) 0.00 km FOUND
T1310819 RS41 2022-01-25 06:35:29 48.6541 12.0451 16 ° 6 km/h 689 m -3.1 m/s 402.70 MHz Landshut (DE) 0.00 km UNKNOWN
T1231109 RS41 2022-01-25 01:00:09 48.6173 13.0432 152 ° 22 km/h 1290 m -8.4 m/s 402.700 MHz Deggendorf (DE) 0.00 km FOUND
T1310803 RS41 2022-01-24 19:15:12 48.5165 13.0225 319 ° 15 km/h 860 m -4.0 m/s 402.70 MHz Braunau am Inn (AT) 0.00 km FOUND
T1320630 RS41 2022-01-24 13:05:42 48.6128 12.5653 305 ° 15 km/h 871 m -12.2 m/s 402.70 MHz Straubing (DE) 0.00 km FOUND
T1310821 RS41 2022-01-24 07:25:53 48.3542 12.7977 331 ° 11 km/h 748 m -10.9 m/s 402.70 MHz Braunau am Inn (AT) 0.00 km FOUND
T1240957 RS41 2022-01-24 01:22:20 48.4464 12.4878 169 ° 6 km/h 872 m -5.1 m/s 402.700 MHz Waldkraiburg (DE) 0.00 km FOUND
T1310804 RS41 2022-01-23 18:58:15 48.6023 12.4921 152 ° 15 km/h 796 m -6.7 m/s 402.70 MHz Landshut (DE) 0.00 km FOUND
T1240959 RS41 2022-01-23 13:12:07 48.4685 12.3858 141 ° 15 km/h 899 m -5.3 m/s 402.70 MHz Landshut (DE) 0.00 km FOUND
T1240955 RS41 2022-01-23 07:02:26 48.3996 12.7122 131 ° 26 km/h 963 m -12.1 m/s 402.70 MHz Braunau am Inn (AT) 0.00 km FOUND
T1320591 RS41 2022-01-23 01:15:19 48.1723 13.1626 82 ° 15 km/h 519 m -4.8 m/s 402.700 MHz Mauerkirchen (AT) 0.00 km UNKNOWN
T1320585 RS41 2022-01-22 19:25:00 47.7189 13.0146 2 ° 4 km/h 1493 m -3.7 m/s 402.70 MHz Grödig (AT) 0.00 km UNKNOWN
T1240973 RS41 2022-01-22 13:09:01 47.7742 13.5681 131 ° 48 km/h 1653 m -4.9 m/s 402.70 MHz Bad Ischl (AT) 0.00 km UNKNOWN
T1310818 RS41 2022-01-22 07:27:58 47.3489 14.0899 150 ° 80 km/h 2700 m -10.4 m/s 402.700 MHz Irdning (AT) 0.00 km UNKNOWN
T1320595 RS41 2022-01-22 01:15:32 47.2738 13.577 166 ° 104 km/h 3382 m -4.0 m/s 402.70 MHz Radstadt (AT) 0.00 km UNKNOWN
T1320550 RS41-SGP 2022-01-21 19:10:46 47.2034 13.6307 159 ° 109 km/h 3412 m -6.8 m/s 402.700 MHz Mariapfarr (AT) 0.00 km UNKNOWN
T1311019 RS41 2022-01-21 12:47:02 47.7631 13.6751 101 ° 59 km/h 1502 m -13.3 m/s 402.70 MHz Bad Ischl (AT) 0.00 km UNKNOWN
T1310854 RS41 2022-01-21 07:21:25 47.2392 14.0506 142 ° 59 km/h 2662 m -6.0 m/s 402.70 MHz Murau (AT) 0.00 km UNKNOWN
T1320589 RS41 2022-01-21 01:15:48 47.355 14.7318 148 ° 61 km/h 2050 m -15.6 m/s 402.70 MHz Spielberg bei Knittelfeld (AT) 0.00 km UNKNOWN
T1320552 RS41 2022-01-20 19:08:24 47.6102 15.4183 139 ° 85 km/h 1761 m -11.2 m/s 402.70 MHz Mitterdorf im Mürztal (AT) 0.00 km NEED ATTENTION
T1320593 RS41 2022-01-20 13:21:15 47.9196 15.7009 165 ° 4 km/h 957 m -2.8 m/s 402.700 MHz Sankt Veit an der Gölsen (AT) 0.00 km UNKNOWN
T1320592 RS41 2022-01-20 07:15:56 48.4498 15.5744 67 ° 22 km/h 444 m -8.8 m/s 402.700 MHz Krems an der Donau (AT) 0.00 km LOST
T1311025 RS41 2022-01-20 01:06:02 48.9461 15.4469 82 ° 48 km/h 659 m -6.2 m/s 402.700 MHz Raabs an der Thaya (AT) 0.00 km FOUND
T1311016 RS41 2022-01-19 19:09:55 48.9632 15.8696 73 ° 13 km/h 529 m -5.6 m/s 402.70 MHz Moravské Budějovice (CZ) 0.00 km UNKNOWN
T1310182 RS41 2022-01-19 13:23:57 49.0098 15.2339 334 ° 11 km/h 666 m -9.2 m/s 402.70 MHz Litschau (AT) 0.00 km UNKNOWN
T1311022 RS41 2022-01-19 07:00:08 48.7628 14.7976 352 ° 7 km/h 771 m -11.0 m/s 402.70 MHz Weitra (AT) 0.00 km UNKNOWN
T1310445 RS41 2022-01-19 01:19:54 48.4683 14.2388 250 ° 6 km/h 768 m -4.3 m/s 402.70 MHz Oberneukirchen (AT) 0.00 km FOUND
T1240958 RS41 2022-01-18 19:22:53 48.0755 14.5002 67 ° 6 km/h 447 m -6.0 m/s 402.700 MHz Haidershofen (AT) 0.00 km FOUND
T1311017 RS41 2022-01-18 13:17:04 48.0636 14.5008 109 ° 19 km/h 477 m -5.2 m/s 402.70 MHz Behamberg (AT) 0.00 km UNKNOWN
T1310183 RS41 2022-01-18 07:04:13 48.0702 14.1437 117 ° 17 km/h 491 m -12.2 m/s 402.70 MHz Kremsmünster (AT) 0.00 km UNKNOWN
T1240974 RS41 2022-01-18 01:37:20 47.5648 14.6181 143 ° 41 km/h 2035 m -2.2 m/s 402.700 MHz Admont (AT) 0.00 km UNKNOWN
T1250280 RS41 2022-01-17 19:13:00 47.6344 14.8498 138 ° 91 km/h 3234 m -12.0 m/s 402.700 MHz Landl (AT) 0.00 km UNKNOWN
T1250233 RS41 2022-01-17 12:57:36 47.8165 13.6591 48 ° 46 km/h 1453 m -14.8 m/s 402.700 MHz Ebensee (AT) 0.00 km UNKNOWN
T1250230 RS41 2022-01-17 07:18:56 47.8388 14.6956 132 ° 54 km/h 1076 m -9.5 m/s 402.70 MHz Weyer Markt (AT) 0.00 km UNKNOWN
T1310512 RS41 2022-01-17 01:13:17 48.3046 14.6682 98 ° 24 km/h 605 m -9.7 m/s 402.70 MHz Tragwein (AT) 0.00 km UNKNOWN
T1240972 RS41 2022-01-16 19:18:43 48.6798 15.5264 112 ° 50 km/h 581 m -5.8 m/s 402.700 MHz Horn (AT) 0.00 km FOUND
T1250188 RS41 2022-01-16 13:06:27 49.0471 15.3157 93 ° 35 km/h 810 m -12.2 m/s 402.70 MHz Dačice (CZ) 0.00 km FOUND
T1310513 RS41 2022-01-16 07:07:48 48.8858 14.8727 320 ° 15 km/h 610 m -5.4 m/s 402.700 MHz Litschau (AT) 0.00 km FOUND
T1310516 RS41 2022-01-16 01:17:43 48.5215 14.8878 355 ° 13 km/h 1027 m -6.6 m/s 402.70 MHz Grossgerungs (AT) 0.00 km UNKNOWN
T1250126 RS41 2022-01-15 19:31:43 47.9801 15.0256 260 ° 7 km/h 696 m -7.8 m/s 402.70 MHz Gaming (AT) 0.00 km UNKNOWN
T1310514 RS41 2022-01-15 13:14:31 48.1308 14.1164 247 ° 11 km/h 437 m -4.8 m/s 402.70 MHz Weisskirchen an der Traun (AT) 0.00 km UNKNOWN
T1310482 RS41 2022-01-15 07:03:58 47.858 14.2815 131 ° 7 km/h 1124 m -10.8 m/s 402.70 MHz Molln (AT) 0.00 km UNKNOWN
T1310983 RS41 2022-01-15 01:09:40 47.6832 14.0645 128 ° 33 km/h 1719 m -9.2 m/s 402.700 MHz Stainach (AT) 0.00 km UNKNOWN
T1250121 RS41 2022-01-14 19:27:31 47.4159 14.4752 150 ° 41 km/h 2074 m -6.7 m/s 402.70 MHz Trieben (AT) 0.00 km UNKNOWN
T1250279 RS41 2022-01-14 13:17:58 47.8013 13.9735 113 ° 31 km/h 1644 m -7.8 m/s 402.700 MHz Scharnstein (AT) 0.00 km UNKNOWN
T1250277 RS41 2022-01-14 07:09:12 47.9208 13.2225 73 ° 19 km/h 888 m -6.4 m/s 402.700 MHz Neumarkt am Wallersee (AT) 0.00 km UNKNOWN
T1250281 RS41 2022-01-14 01:20:10 47.9519 13.1391 27 ° 22 km/h 770 m -9.7 m/s 402.700 MHz Köstendorf (AT) 0.00 km FOUND
T1250278 RS41 2022-01-13 19:27:00 48.0476 12.232 186 ° 7 km/h 641 m -4.2 m/s 402.700 MHz Waldkraiburg (DE) 0.00 km FOUND
T1250234 RS41 2022-01-13 13:31:00 48.0316 11.5178 250 ° 9 km/h 682 m -4.5 m/s 404.900 MHz Unterhaching (DE) 0.00 km NEED ATTENTION
T1240610 RS41 2022-01-13 07:16:00 48.1278 11.5606 337 ° 4 km/h 642 m -13.2 m/s 402.70 MHz München (DE) 0.00 km FOUND
T1250229 RS41 2022-01-13 01:20:00 48.0837 11.4645 304 ° 6 km/h 676 m -5.6 m/s 402.700 MHz Germering (DE) 0.00 km FOUND
T1250187 RS41 2022-01-12 18:59:39 48.2855 11.5449 246 ° 7 km/h 681 m -13.5 m/s 402.70 MHz Unterschleißheim (DE) 0.00 km UNKNOWN
T1250215 RS41 2022-01-12 13:11:34 48.5541 12.1403 120 ° 4 km/h 650 m -10.6 m/s 404.900 MHz Landshut (DE) 0.00 km UNKNOWN
T1240960 RS41 2022-01-12 07:17:54 48.5995 12.2126 158 ° 4 km/h 699 m -5.9 m/s 402.700 MHz Landshut (DE) 0.00 km UNKNOWN
T1250232 RS41 2022-01-12 01:11:58 48.6177 12.0197 218 ° 6 km/h 646 m -9.3 m/s 402.700 MHz Landshut (DE) 0.00 km UNKNOWN
T1250123 RS41 2022-01-11 19:03:34 48.6322 12.1527 200 ° 9 km/h 640 m -3.7 m/s 402.700 MHz Landshut (DE) 0.00 km UNKNOWN
T1240723 RS41 2022-01-11 13:00:38 48.72 11.8825 195 ° 13 km/h 529 m -6.6 m/s 402.700 MHz Landshut (DE) 0.00 km NEED ATTENTION
T1310995 RS41 2022-01-11 07:36:54 48.6296 12.0952 218 ° 13 km/h 633 m -4.1 m/s 402.70 MHz Landshut (DE) 0.00 km UNKNOWN
T1250212 RS41 2022-01-11 01:18:00 48.8155 12.4425 203 ° 20 km/h 661 m -6.3 m/s 402.700 MHz Straubing (DE) 0.00 km FOUND
T1250122 RS41 2022-01-10 21:11:39 48.8767 14.4483 143 ° 24 km/h 683 m -2.9 m/s 402.700 MHz České Budějovice (CZ) 0.00 km UNKNOWN
T1310484 RS41 2022-01-10 13:02:00 48.9907 12.3681 171 ° 24 km/h 693 m -5.0 m/s 402.70 MHz Regensburg (DE) 0.00 km LOST
T1310494 RS41-SGP 2022-01-10 07:10:15 49.1863 13.4942 158 ° 17 km/h 1114 m -12.0 m/s 402.70 MHz Sušice (CZ) 0.00 km FOUND
T1310980 RS41 2022-01-10 01:11:59 49.4161 13.549 102 ° 22 km/h 784 m -6.4 m/s 402.700 MHz Horažďovice (CZ) 0.00 km UNKNOWN
T1310993 RS41 2022-01-09 19:06:26 49.4482 13.5658 81 ° 43 km/h 712 m -7.1 m/s 402.700 MHz Horažďovice (CZ) 0.00 km UNKNOWN
T1250124 RS41 2022-01-09 13:22:09 49.7552 14.2159 72 ° 33 km/h 488 m -8.1 m/s 402.700 MHz Dobříš (CZ) 0.00 km UNKNOWN
T1310485 RS41 2022-01-09 07:17:53 49.7316 14.2149 351 ° 22 km/h 556 m -9.6 m/s 402.700 MHz Dobříš (CZ) 0.00 km UNKNOWN
T1320584 RS41 2022-01-09 01:08:06 49.568 14.2241 339 ° 30 km/h 558 m -4.7 m/s 402.700 MHz Milevsko (CZ) 0.00 km UNKNOWN
T1311020 RS41-SGP 2022-01-08 19:20:32 48.9432 14.4379 91 ° 19 km/h 1066 m -5.2 m/s 402.70 MHz České Budějovice (CZ) 0.00 km FOUND
T1311026 RS41-SGP 2022-01-08 13:20:49 49.0342 14.1 75 ° 43 km/h 1132 m -8.7 m/s 402.70 MHz Prachatice (CZ) 0.00 km FOUND
T1311015 RS41 2022-01-08 07:18:32 49.785 14.3991 357 ° 15 km/h 445 m -6.8 m/s 402.700 MHz Mníšek pod Brdy (CZ) 0.00 km UNKNOWN
T1311024 RS41 2022-01-08 01:19:47 50.1855 14.6169 24 ° 28 km/h 272 m -4.6 m/s 402.700 MHz Brandýs nad Labem-Stará Boleslav (CZ) 0.00 km FOUND
T1310071 RS41 2022-01-07 18:49:14 49.9313 13.6014 42 ° 17 km/h 461 m -9.0 m/s 402.70 MHz Třemošná (CZ) 0.00 km UNKNOWN
T1240986 RS41 2022-01-07 13:01:36 49.8275 14.1098 3 ° 31 km/h 760 m -9.0 m/s 402.70 MHz Dobříš (CZ) 0.00 km UNKNOWN
T1240985 RS41 2022-01-07 06:55:59 49.4102 13.7352 51 ° 22 km/h 898 m -12.7 m/s 402.70 MHz Horažďovice (CZ) 0.00 km UNKNOWN
T1240738 RS41 2022-01-07 01:07:30 48.9976 13.6381 72 ° 30 km/h 1365 m -7.6 m/s 402.700 MHz Vimperk (CZ) 0.00 km UNKNOWN
T1240616 RS41 2022-01-06 19:01:06 48.6285 13.4087 125 ° 6 km/h 934 m -9.8 m/s 402.700 MHz Passau (DE) 0.00 km UNKNOWN
T1241032 RS41 2022-01-06 13:15:28 48.5575 13.9865 143 ° 31 km/h 831 m -4.7 m/s 402.700 MHz Rohrbach (AT) 0.00 km FOUND
T1240617 RS41 2022-01-06 06:55:11 48.9196 14.3894 73 ° 37 km/h 735 m -13.4 m/s 402.700 MHz České Budějovice (CZ) 0.00 km UNKNOWN
T1240988 RS41 2022-01-06 01:29:58 49.449 15.5569 91 ° 61 km/h 847 m -5.0 m/s 402.70 MHz Jihlava (CZ) 0.00 km UNKNOWN
T1240987 RS41 2022-01-05 19:26:20 49.7618 16.074 83 ° 63 km/h 1065 m -3.8 m/s 402.70 MHz Skuteč (CZ) 0.00 km UNKNOWN
T1240990 RS41-SGP 2022-01-05 12:54:08 49.9866 15.4391 104 ° 35 km/h 617 m -10.9 m/s 402.700 MHz Čáslav (CZ) 0.00 km FOUND
T1240608 RS41-SGP 2022-01-05 07:02:57 50.0073 15.625 91 ° 52 km/h 1108 m -10.2 m/s 402.701 MHz Přelouč (CZ) 0.00 km FOUND
T1240969 RS41 2022-01-05 01:11:03 50.0822 16.1691 109 ° 33 km/h 1672 m -9.0 m/s 402.70 MHz Kostelec nad Orlicí (CZ) 0.00 km UNKNOWN
T1240956 RS41 2022-01-04 19:27:28 49.716 16.5055 98 ° 54 km/h 1052 m -8.5 m/s 402.70 MHz Svitavy (CZ) 0.00 km UNKNOWN
T1310511 RS41 2022-01-04 13:31:37 49.5383 16.4383 27 ° 44 km/h 839 m -5.7 m/s 402.701 MHz Letovice (CZ) 0.00 km UNKNOWN
T1311004 RS41 2022-01-04 07:06:54 49.0634 15.5434 39 ° 15 km/h 600 m -10.1 m/s 402.700 MHz Dačice (CZ) 0.00 km UNKNOWN
T1311018 RS41 2022-01-04 01:48:30 48.44 16.5937 355 ° 11 km/h 252 m -2.7 m/s 402.701 MHz Gaweinstal (AT) 0.00 km FOUND
T1311006 RS41 2022-01-03 19:01:02 48.691 15.2755 82 ° 33 km/h 731 m -12.6 m/s 404.90 MHz Vitis (AT) 0.00 km FOUND
T1240614 RS41 2022-01-03 13:07:26 48.8012 15.4393 108 ° 35 km/h 636 m -8.6 m/s 402.701 MHz Groß-Siegharts (AT) 0.00 km FOUND
T1240618 RS41 2022-01-03 07:22:59 48.8356 15.9686 103 ° 31 km/h 468 m -8.2 m/s 402.700 MHz Znojmo (CZ) 0.00 km UNKNOWN
T1240613 RS41 2022-01-03 00:49:58 49.2765 15.4745 92 ° 41 km/h 751 m -8.6 m/s 402.70 MHz Třešť (CZ) 0.00 km UNKNOWN
T1240607 RS41 2022-01-02 19:16:24 49.3702 15.8889 81 ° 44 km/h 709 m -6.3 m/s 402.701 MHz Velké Meziříčí (CZ) 0.00 km UNKNOWN
T1241028 RS41 2022-01-02 13:12:37 49.5108 15.0507 73 ° 35 km/h 892 m -12.2 m/s 402.70 MHz Pelhřimov (CZ) 0.00 km UNKNOWN
T1240615 RS41 2022-01-02 07:34:38 49.11 15.0158 43 ° 15 km/h 642 m -10.4 m/s 402.70 MHz Jindřichŭv Hradec (CZ) 0.00 km FOUND
T1240609 RS41-SGP 2022-01-02 01:11:06 49.093 14.2795 27 ° 6 km/h 797 m -10.0 m/s 402.70 MHz Vodňany (CZ) 0.00 km UNKNOWN
T1241031 RS41 2022-01-01 19:15:08 48.7768 13.9156 158 ° 6 km/h 1064 m -3.4 m/s 402.700 MHz Ulrichsberg (AT) 0.00 km UNKNOWN
T1250862 RS41 2022-01-01 13:04:04 48.7718 13.8211 103 ° 17 km/h 1379 m -7.2 m/s 402.701 MHz Ulrichsberg (AT) 0.00 km UNKNOWN
T1241037 RS41 2022-01-01 07:00:37 48.55 13.738 99 ° 43 km/h 868 m -13.1 m/s 402.701 MHz Sarleinsbach (AT) 0.00 km UNKNOWN
T1241035 RS41 2022-01-01 01:31:00 48.1766 14.2397 272 ° 20 km/h 358 m -2.1 m/s 402.70 MHz Sankt Marien (AT) 0.00 km NEED ATTENTION
T1241049 RS41 2021-12-31 19:23:30 48.7604 14.7998 79 ° 44 km/h 737 m -4.2 m/s 402.701 MHz Weitra (AT) 0.00 km UNKNOWN
T1241046 RS41 2021-12-31 12:54:37 49.0722 14.051 89 ° 24 km/h 1116 m -10.7 m/s 402.700 MHz Prachatice (CZ) 0.00 km FOUND
T1340592 RS41 2021-12-31 06:52:20 48.7455 13.8913 74 ° 41 km/h 1190 m -8.9 m/s 402.70 MHz Ulrichsberg (AT) 0.00 km UNKNOWN
T1340589 RS41 2021-12-31 01:24:54 48.3214 14.3379 46 ° 7 km/h 317 m -5.3 m/s 402.70 MHz Linz (AT) 0.00 km FOUND
T1241033 RS41 2021-12-30 19:13:46 48.22 14.0904 98 ° 22 km/h 386 m -6.8 m/s 402.70 MHz Marchtrenk (AT) 0.00 km FOUND
T1241036 RS41 2021-12-30 12:58:16 48.2114 13.8462 95 ° 37 km/h 514 m -13.5 m/s 402.700 MHz Schlüsslberg (AT) 0.00 km UNKNOWN
T1241034 RS41 2021-12-30 07:20:46 47.7291 14.1292 346 ° 33 km/h 1903 m -4.1 m/s 402.700 MHz Windischgarsten (AT) 0.00 km UNKNOWN
T1240716 RS41 2021-12-30 00:43:18 48.1235 13.5461 75 ° 39 km/h 797 m -9.9 m/s 402.70 MHz Eberschwang (AT) 0.00 km UNKNOWN
T1340590 RS41 2021-12-29 19:16:53 47.6584 14.2138 176 ° 7 km/h 1817 m -4.8 m/s 402.70 MHz Spital am Pyhrn (AT) 0.00 km UNKNOWN
T1340594 RS41 2021-12-29 12:20:07 48.1568 13.3937 93 ° 48 km/h 755 m -8.3 m/s 402.70 MHz Lohnsburg (AT) 0.00 km FOUND
T1240715 RS41 2021-12-29 07:20:57 47.8243 14.5402 107 ° 31 km/h 1187 m -5.3 m/s 402.70 MHz Grossraming (AT) 0.00 km UNKNOWN
T1340593 RS41 2021-12-29 02:09:25 48.5257 16.0177 24 ° 15 km/h 404 m -10.2 m/s 402.701 MHz Ziersdorf (AT) 0.00 km FOUND
T1241038 RS41 2021-12-28 19:07:19 49.2031 14.2666 66 ° 59 km/h 1051 m -14.3 m/s 402.701 MHz Vodňany (CZ) 0.00 km FOUND
T1340591 RS41 2021-12-28 12:55:03 49.2108 13.986 24 ° 20 km/h 962 m -7.2 m/s 402.70 MHz Strakonice (CZ) 0.00 km FOUND
T1241048 RS41 2021-12-28 07:24:11 49.1728 14.7709 306 ° 22 km/h 572 m -6.4 m/s 402.701 MHz Veselí nad Lužnicí (CZ) 0.00 km LOST
T1241047 RS41 2021-12-28 01:17:03 49.2551 14.6409 318 ° 22 km/h 590 m -5.9 m/s 402.70 MHz Soběslav (CZ) 0.00 km UNKNOWN
T1240975 RS41 2021-12-27 19:32:56 48.875 15.0021 297 ° 17 km/h 587 m -5.3 m/s 402.70 MHz Litschau (AT) 0.00 km FOUND
T1241027 RS41 2021-12-27 12:50:05 48.9295 14.4433 40 ° 13 km/h 1108 m -12.2 m/s 402.700 MHz České Budějovice (CZ) 0.00 km FOUND
T1241045 RS41 2021-12-27 07:31:10 48.9622 14.7031 324 ° 15 km/h 571 m -3.8 m/s 402.70 MHz Třeboň (CZ) 0.00 km UNKNOWN
T1240831 RS41 2021-12-27 01:20:07 49.0328 14.9308 302 ° 13 km/h 569 m -3.6 m/s 402.70 MHz Třeboň (CZ) 0.00 km FOUND
T1240971 RS41 2021-12-26 19:17:10 48.9798 14.7972 298 ° 17 km/h 556 m -5.4 m/s 402.70 MHz Třeboň (CZ) 0.00 km FOUND
T1311005 RS41 2021-12-26 13:16:25 49.1323 14.9369 253 ° 15 km/h 611 m -5.7 m/s 402.700 MHz Jindřichŭv Hradec (CZ) 0.00 km FOUND
T1311023 RS41 2021-12-26 07:15:54 49.118 15.1403 275 ° 28 km/h 767 m -5.8 m/s 402.70 MHz Jindřichŭv Hradec (CZ) 0.00 km UNKNOWN
T1240970 RS41 2021-12-26 00:58:22 49.2361 15.2345 267 ° 26 km/h 741 m -11.5 m/s 402.70 MHz Telč (CZ) 0.00 km UNKNOWN
T1310498 RS41 2021-12-25 19:10:38 49.1194 15.4839 248 ° 28 km/h 639 m -6.8 m/s 402.70 MHz Dačice (CZ) 0.00 km UNKNOWN
T1240967 RS41 2021-12-25 12:58:42 49.3157 15.1698 209 ° 19 km/h 730 m -8.0 m/s 402.70 MHz Pelhřimov (CZ) 0.00 km UNKNOWN
T1240612 RS41 2021-12-25 06:29:26 49.3013 14.2474 249 ° 30 km/h 870 m -5.4 m/s 402.700 MHz Písek (CZ) 0.00 km FOUND
T1240989 RS41 2021-12-25 01:09:41 49.3362 16.5722 98 ° 11 km/h 623 m -13.2 m/s 402.70 MHz Kuřim (CZ) 0.00 km FOUND
T1240968 RS41 2021-12-24 19:17:00 49.1411 16.8668 56 ° 37 km/h 307 m -4.5 m/s 402.70 MHz Slavkov u Brna (CZ) 0.00 km FOUND
T1240611 RS41 2021-12-24 13:19:40 49.3578 16.9866 90 ° 35 km/h 605 m -4.3 m/s 402.70 MHz Vyškov (CZ) 0.00 km NEED ATTENTION
S3130374 RS41 2021-12-24 07:18:43 48.8249 15.8654 91 ° 33 km/h 488 m -5.4 m/s 402.70 MHz Retz (AT) 0.00 km FOUND
S3130277 RS41 2021-12-24 00:47:11 48.6167 15.1418 111 ° 48 km/h 679 m -8.8 m/s 402.701 MHz Zwettl (AT) 0.00 km FOUND
S3130266 RS41 2021-12-23 18:20:21 48.4558 13.5554 101 ° 9 km/h 636 m -12.0 m/s 402.70 MHz Münzkirchen (AT) 0.00 km UNKNOWN
S3130154 RS41 2021-12-23 13:07:58 48.1543 14.9712 104 ° 11 km/h 418 m -4.1 m/s 402.70 MHz Sankt Georgen am Ybbsfelde (AT) 0.00 km FOUND
S3130378 RS41 2021-12-23 06:18:45 48.5973 13.1822 310 ° 11 km/h 614 m -10.2 m/s 402.700 MHz Passau (DE) 0.00 km UNKNOWN
S3130269 RS41 2021-12-23 01:05:33 48.167 14.5072 284 ° 19 km/h 369 m -9.0 m/s 402.701 MHz Sankt Valentin (AT) 0.00 km FOUND
S3130158 RS41 2021-12-22 18:51:13 48.4358 14.5928 252 ° 11 km/h 741 m -10.7 m/s 402.70 MHz Gutau (AT) 0.00 km UNKNOWN
S3120583 RS41 2021-12-22 13:13:00 48.3425 14.7254 287 ° 11 km/h 637 m -5.3 m/s 402.70 MHz Tragwein (AT) 0.00 km UNKNOWN
S3130359 RS41 2021-12-22 07:46:00 48.5594 14.5068 243 ° 13 km/h 827 m -11.5 m/s 404.90 MHz Rainbach im Mühlkreis (AT) 0.00 km FOUND
S3130357 RS41 2021-12-22 06:52:31 48.2637 12.7661 241 ° 6 km/h 464 m -3.0 m/s 402.70 MHz Hochburg-Ach (AT) 0.00 km UNKNOWN
S3130159 RS41 2021-12-22 01:01:58 48.5689 14.6502 200 ° 7 km/h 1030 m -12.4 m/s 402.70 MHz Sankt Oswald bei Freistadt (AT) 0.00 km FOUND
S3130316 RS41 2021-12-21 19:09:49 48.6006 14.5758 222 ° 17 km/h 946 m -5.1 m/s 404.90 MHz Rainbach im Mühlkreis (AT) 0.00 km FOUND
S3130375 RS41 2021-12-21 13:03:33 48.7658 14.4284 246 ° 4 km/h 871 m -5.6 m/s 402.70 MHz Kaplice (CZ) 0.00 km UNKNOWN
S3130267 RS41 2021-12-21 07:19:25 48.5449 14.816 275 ° 11 km/h 1040 m -7.0 m/s 402.70 MHz Grossgerungs (AT) 0.00 km UNKNOWN
S3130347 RS41 2021-12-21 01:24:02 48.2227 14.5586 157 ° 6 km/h 300 m -4.5 m/s 404.90 MHz Sankt Pantaleon (AT) 0.00 km FOUND
S3130356 RS41 2021-12-20 18:59:11 48.317 14.3817 96 ° 13 km/h 445 m -7.6 m/s 402.70 MHz Steyregg (AT) 0.00 km FOUND
S3130161 RS41 2021-12-20 12:42:45 48.4335 14.006 120 ° 15 km/h 606 m -12.7 m/s 402.70 MHz Sankt Martin im Mühlkreis (AT) 0.00 km FOUND
S3130151 RS41 2021-12-20 06:59:27 48.3595 14.3835 92 ° 15 km/h 548 m -13.1 m/s 402.70 MHz Gallneukirchen (AT) 0.00 km FOUND
S3130355 RS41 2021-12-20 01:18:13 48.3653 14.8921 97 ° 31 km/h 885 m -12.2 m/s 402.70 MHz Königswiesen (AT) 0.00 km UNKNOWN
S3130160 RS41 2021-12-19 19:31:32 48.207 14.6555 78 ° 28 km/h 294 m -4.6 m/s 402.70 MHz Naarn im Machland (AT) 0.00 km FOUND
S3130162 RS41 2021-12-19 13:25:42 48.4962 14.0816 122 ° 35 km/h 736 m -3.9 m/s 402.700 MHz Herzogsdorf (AT) 0.00 km FOUND
S3130376 RS41 2021-12-19 06:58:48 48.8133 13.2775 132 ° 9 km/h 845 m -14.7 m/s 402.70 MHz Deggendorf (DE) 0.00 km UNKNOWN
S3130157 RS41 2021-12-19 01:25:24 48.7006 13.2797 113 ° 35 km/h 1298 m -4.4 m/s 402.700 MHz Passau (DE) 0.00 km FOUND
S3130288 RS41 2021-12-18 18:57:02 48.775 12.8276 135 ° 15 km/h 857 m -12.8 m/s 402.70 MHz Deggendorf (DE) 0.00 km FOUND
S3130285 RS41 2021-12-18 12:56:14 48.8942 12.3701 114 ° 6 km/h 878 m -5.4 m/s 402.701 MHz Straubing (DE) 0.00 km FOUND
S3130265 RS41 2021-12-18 06:47:48 48.8113 12.1187 55 ° 11 km/h 532 m -10.9 m/s 402.700 MHz Regensburg (DE) 0.00 km FOUND
S3130268 RS41 2021-12-18 01:28:24 48.4208 11.9322 271 ° 7 km/h 647 m -5.0 m/s 402.701 MHz Erding (DE) 0.00 km FOUND
S3130377 RS41 2021-12-17 18:47:33 48.6554 11.8435 131 ° 13 km/h 572 m -14.3 m/s 402.70 MHz Landshut (DE) 0.00 km FOUND
S3050733 RS41 2021-12-17 12:45:18 48.6495 11.6878 142 ° 4 km/h 542 m -12.0 m/s 402.70 MHz Pfaffenhofen an der Ilm (DE) 0.00 km FOUND
S3050745 RS41 2021-12-17 07:10:24 48.3742 12.1187 115 ° 6 km/h 710 m -11.0 m/s 402.70 MHz Erding (DE) 0.00 km UNKNOWN
S3120880 RS41 2021-12-17 01:22:43 48.3507 11.9467 201 ° 6 km/h 653 m -3.9 m/s 402.70 MHz Erding (DE) 0.00 km FOUND
S3120879 RS41 2021-12-16 19:10:17 48.3672 12.0958 150 ° 13 km/h 867 m -3.8 m/s 402.70 MHz Erding (DE) 0.00 km UNKNOWN
S3050747 RS41 2021-12-16 13:15:39 48.3668 12.2984 109 ° 13 km/h 822 m -5.6 m/s 402.70 MHz Waldkraiburg (DE) 0.00 km UNKNOWN
S3050750 RS41 2021-12-16 07:25:15 48.3234 12.7496 65 ° 15 km/h 616 m -4.4 m/s 402.70 MHz Braunau am Inn (AT) 0.00 km FOUND
S3130282 RS41 2021-12-16 01:05:11 48.5697 13.0695 137 ° 6 km/h 883 m -9.8 m/s 402.70 MHz Passau (DE) 0.00 km FOUND
S3050746 RS41 2021-12-15 18:56:31 48.7404 12.8248 265 ° 6 km/h 939 m -8.8 m/s 402.70 MHz Deggendorf (DE) 0.00 km FOUND
S3130373 RS41 2021-12-15 13:04:52 48.7588 12.7317 16 ° 4 km/h 869 m -11.4 m/s 404.90 MHz Straubing (DE) 0.00 km FOUND
S3130286 RS41 2021-12-15 07:08:40 48.5741 12.2778 202 ° 2 km/h 722 m -6.3 m/s 402.700 MHz Landshut (DE) 0.00 km FOUND
S3050748 RS41 2021-12-15 01:07:02 48.4013 12.1671 162 ° 9 km/h 748 m -7.1 m/s 402.70 MHz Landshut (DE) 0.00 km UNKNOWN
S3130287 RS41 2021-12-14 19:22:16 48.1418 12.5582 73 ° 4 km/h 552 m -3.0 m/s 402.700 MHz Waldkraiburg (DE) 0.00 km FOUND
S3140283 RS41 2021-12-14 13:02:19 48.4993 13.0445 93 ° 11 km/h 630 m -5.5 m/s 402.70 MHz Braunau am Inn (AT) 0.00 km FOUND
S3131350 RS41 2021-12-14 07:12:47 48.5763 13.5795 76 ° 41 km/h 1369 m -11.4 m/s 402.70 MHz Esternberg (AT) 0.00 km UNKNOWN
S3131611 RS41 2021-12-14 01:03:41 48.7113 13.1916 59 ° 7 km/h 1515 m -9.1 m/s 402.70 MHz Deggendorf (DE) 0.00 km LOST
S3140302 RS41 2021-12-13 19:04:34 48.7924 13.3746 163 ° 15 km/h 1688 m -12.3 m/s 402.70 MHz Passau (DE) 0.00 km UNKNOWN
S3140303 RS41 2021-12-13 13:02:20 48.9657 13.275 173 ° 28 km/h 1373 m -9.9 m/s 402.70 MHz Deggendorf (DE) 0.00 km UNKNOWN
S3131208 RS41 2021-12-13 07:02:51 48.9182 13.2896 159 ° 35 km/h 1668 m -6.5 m/s 402.701 MHz Deggendorf (DE) 0.00 km UNKNOWN
S3131211 RS41 2021-12-13 01:18:37 48.7527 13.0151 104 ° 26 km/h 786 m -3.1 m/s 402.701 MHz Deggendorf (DE) 0.00 km FOUND
S3140304 RS41 2021-12-12 19:11:52 48.6147 13.1732 76 ° 13 km/h 582 m -5.7 m/s 402.70 MHz Passau (DE) 0.00 km LOST
S3140288 RS41 2021-12-12 13:06:37 48.768 13.1895 98 ° 26 km/h 1189 m -9.6 m/s 402.70 MHz Deggendorf (DE) 0.00 km FOUND
S3131209 RS41 2021-12-12 07:31:10 48.6055 13.3222 103 ° 30 km/h 750 m -8.7 m/s 402.70 MHz Passau (DE) 0.00 km FOUND
S3120801 RS41 2021-12-12 01:24:33 48.7121 13.0275 104 ° 24 km/h 757 m -8.5 m/s 402.70 MHz Deggendorf (DE) 0.00 km FOUND
S3120799 RS41 2021-12-11 19:09:43 49.1715 13.3144 97 ° 28 km/h 1127 m -10.4 m/s 402.70 MHz Sušice (CZ) 0.00 km UNKNOWN
S3140127 RS41 2021-12-11 13:28:40 49.4182 13.5297 120 ° 15 km/h 737 m -11.3 m/s 402.701 MHz Horažďovice (CZ) 0.00 km UNKNOWN
S3120764 RS41 2021-12-11 07:25:18 49.4381 13.2981 100 ° 6 km/h 503 m -7.6 m/s 402.701 MHz Klatovy (CZ) 0.00 km UNKNOWN
S3120569 RS41 2021-12-11 01:25:25 49.5293 13.3858 324 ° 15 km/h 572 m -4.8 m/s 402.70 MHz Přeštice (CZ) 0.00 km UNKNOWN
S3140128 RS41 2021-12-10 19:06:10 49.5337 13.3209 308 ° 6 km/h 492 m -12.6 m/s 402.70 MHz Přeštice (CZ) 0.00 km UNKNOWN
S3140144 RS41 2021-12-10 12:59:26 49.5507 13.1591 280 ° 11 km/h 532 m -11.2 m/s 402.700 MHz Holýšov (CZ) 0.00 km FOUND
S3120566 RS41 2021-12-10 07:12:27 49.5144 13.2353 348 ° 7 km/h 552 m -5.8 m/s 402.70 MHz Přeštice (CZ) 0.00 km UNKNOWN
S3120763 RS41 2021-12-10 01:19:53 49.6978 12.7487 40 ° 13 km/h 580 m -7.2 m/s 402.70 MHz Tachov (CZ) 0.00 km FOUND
S3120804 RS41 2021-12-09 19:10:39 49.7187 12.7309 86 ° 22 km/h 582 m -8.2 m/s 402.701 MHz Tachov (CZ) 0.00 km FOUND
S3140284 RS41 2021-12-09 13:00:09 49.9437 12.7658 96 ° 11 km/h 715 m -12.1 m/s 402.701 MHz Mariánské Lázně (CZ) 0.00 km FOUND
S3120568 RS41 2021-12-09 06:55:41 49.8896 12.6502 337 ° 4 km/h 600 m -10.7 m/s 402.700 MHz Planá (CZ) 0.00 km UNKNOWN
S3141040 RS41 2021-12-09 01:14:30 50.3751 12.6941 337 ° 13 km/h 1003 m -5.1 m/s 402.701 MHz Nejdek (CZ) 0.00 km FOUND
S3140285 RS41 2021-12-08 19:12:30 50.3258 13.0507 234 ° 7 km/h 811 m -11.8 m/s 402.70 MHz Ostrov (CZ) 0.00 km UNKNOWN
S3141042 RS41 2021-12-08 13:06:50 50.1282 13.5163 263 ° 15 km/h 624 m -7.0 m/s 402.70 MHz Podbořany (CZ) 0.00 km UNKNOWN
S3141039 RS41 2021-12-08 06:52:54 49.7092 13.3891 253 ° 7 km/h 405 m -10.5 m/s 402.701 MHz Plzeň (CZ) 0.00 km UNKNOWN
S3140286 RS41 2021-12-08 01:02:56 49.3395 13.6333 313 ° 33 km/h 771 m -11.8 m/s 402.70 MHz Horažďovice (CZ) 0.00 km UNKNOWN
S3131349 RS41 2021-12-07 19:10:46 48.6752 13.9088 90 ° 11 km/h 1057 m -9.3 m/s 402.70 MHz Ulrichsberg (AT) 0.00 km UNKNOWN
S3131360 RS41 2021-12-07 12:51:06 49.1243 13.3653 78 ° 41 km/h 1223 m -13.0 m/s 402.70 MHz Sušice (CZ) 0.00 km UNKNOWN
S3131347 RS41 2021-12-07 06:58:54 49.1104 13.4354 51 ° 28 km/h 1150 m -7.2 m/s 402.700 MHz Sušice (CZ) 0.00 km UNKNOWN
S3140287 RS41 2021-12-07 01:21:31 48.8989 13.6273 69 ° 13 km/h 1284 m -5.2 m/s 402.701 MHz Vimperk (CZ) 0.00 km UNKNOWN
S3131207 RS41 2021-12-06 18:53:19 48.6391 13.0885 127 ° 57 km/h 657 m -8.5 m/s 402.700 MHz Deggendorf (DE) 0.00 km UNKNOWN
S3131612 RS41 2021-12-06 12:53:30 48.8556 13.1082 160 ° 20 km/h 1259 m -10.4 m/s 402.70 MHz Deggendorf (DE) 0.00 km UNKNOWN
S3131212 RS41 2021-12-06 07:07:06 48.9598 13.1802 137 ° 19 km/h 1509 m -3.3 m/s 402.701 MHz Deggendorf (DE) 0.00 km UNKNOWN
S3120767 RS41 2021-12-06 01:29:41 49.1998 13.2083 65 ° 7 km/h 988 m -3.5 m/s 402.701 MHz Klatovy (CZ) 0.00 km UNKNOWN
S3120567 RS41 2021-12-05 19:05:48 49.3265 13.4368 127 ° 17 km/h 839 m -8.2 m/s 402.700 MHz Sušice (CZ) 0.00 km UNKNOWN
S3140130 RS41 2021-12-05 13:26:36 49.5998 14.4471 57 ° 11 km/h 486 m -10.7 m/s 402.70 MHz Sedlčany (CZ) 0.00 km UNKNOWN
S3140129 RS41 2021-12-05 07:16:39 49.6046 14.1568 88 ° 28 km/h 601 m -5.5 m/s 402.701 MHz Příbram (CZ) 0.00 km UNKNOWN
S3131345 RS41 2021-12-05 00:58:16 49.5719 14.2016 99 ° 39 km/h 716 m -9.2 m/s 402.701 MHz Milevsko (CZ) 0.00 km UNKNOWN
S3131382 RS41 2021-12-04 20:10:50 49.4809 15.2419 9 ° 37 km/h 859 m -2.5 m/s 402.70 MHz Pelhřimov (CZ) 0.00 km UNKNOWN
S3120766 RS41 2021-12-04 13:02:58 49.1012 15.0579 340 ° 20 km/h 628 m -3.4 m/s 402.700 MHz Jindřichŭv Hradec (CZ) 0.00 km FOUND
S3120802 RS41 2021-12-04 07:27:04 48.9701 15.297 34 ° 4 km/h 608 m -2.0 m/s 402.70 MHz Dačice (CZ) 0.00 km FOUND
S3140394 RS41 2021-12-04 00:58:20 48.9163 14.5577 21 ° 22 km/h 641 m -3.5 m/s 402.70 MHz České Budějovice (CZ) 0.00 km UNKNOWN
S3140774 RS41 2021-12-03 19:03:58 48.7065 14.6235 37 ° 35 km/h 954 m -9.6 m/s 402.70 MHz Kaplice (CZ) 0.00 km UNKNOWN
S3140037 RS41 2021-12-03 13:03:11 48.872 14.274 64 ° 28 km/h 1120 m -5.3 m/s 402.70 MHz Český Krumlov (CZ) 0.00 km UNKNOWN
S3131358 RS41 2021-12-03 07:25:58 48.805 14.7572 63 ° 17 km/h 580 m -3.9 m/s 402.701 MHz Trhové Sviny (CZ) 0.00 km UNKNOWN
S3131389 RS41 2021-12-03 00:59:23 49.3466 14.7885 151 ° 30 km/h 913 m -13.9 m/s 402.701 MHz Sezimovo Ústí (CZ) 0.00 km UNKNOWN
S3131391 RS41 2021-12-02 19:12:37 49.7618 15.1753 172 ° 26 km/h 647 m -5.2 m/s 402.700 MHz Světlá nad Sázavou (CZ) 0.00 km UNKNOWN
S3131387 RS41 2021-12-02 13:18:01 50.0287 15.5674 120 ° 13 km/h 618 m -11.6 m/s 402.70 MHz Přelouč (CZ) 0.00 km FOUND
S3131362 RS41 2021-12-02 07:14:49 49.867 15.4608 94 ° 35 km/h 738 m -11.2 m/s 402.700 MHz Čáslav (CZ) 0.00 km FOUND
S3120672 RS41 2021-12-02 01:22:54 49.9673 15.9727 85 ° 63 km/h 1170 m -7.2 m/s 402.700 MHz Holice (CZ) 0.00 km FOUND
S3131348 RS41 2021-12-01 19:05:40 49.8839 15.6076 73 ° 81 km/h 1204 m -8.1 m/s 402.70 MHz Chrudim (CZ) 0.00 km NEED ATTENTION
S3131614 RS41 2021-12-01 12:51:13 49.6391 14.8606 58 ° 59 km/h 924 m -13.7 m/s 402.700 MHz Vlašim (CZ) 0.00 km UNKNOWN
S3131384 RS41 2021-12-01 07:09:48 49.0223 14.9791 37 ° 22 km/h 634 m -7.3 m/s 402.700 MHz Litschau (AT) 0.00 km FOUND
S3131390 RS41 2021-12-01 01:22:15 48.473 15.2934 85 ° 52 km/h 824 m -4.2 m/s 402.70 MHz Gföhl (AT) 0.00 km FOUND
S3131372 RS41 2021-11-30 19:30:19 48.2789 15.7019 100 ° 35 km/h 275 m -2.5 m/s 402.700 MHz Herzogenburg (AT) 0.00 km FOUND
S3120685 RS41 2021-11-30 13:15:36 48.3541 14.7248 70 ° 37 km/h 658 m -9.2 m/s 402.70 MHz Tragwein (AT) 0.00 km UNKNOWN
S3140391 RS41 2021-11-30 07:01:04 48.3414 13.8142 69 ° 48 km/h 495 m -4.6 m/s 402.70 MHz Peuerbach (AT) 0.00 km UNKNOWN
S3131346 RS41 2021-11-30 01:10:38 48.5618 13.7092 106 ° 46 km/h 824 m -4.7 m/s 402.700 MHz Esternberg (AT) 0.00 km UNKNOWN
S3131357 RS41 2021-11-29 19:21:54 48.9416 14.2546 87 ° 39 km/h 821 m -5.8 m/s 402.70 MHz Český Krumlov (CZ) 0.00 km UNKNOWN
S3140407 RS41 2021-11-29 13:15:21 49.3405 14.0742 103 ° 28 km/h 750 m -4.7 m/s 402.70 MHz Písek (CZ) 0.00 km FOUND
S3140396 RS41 2021-11-29 07:26:06 49.4894 14.4593 114 ° 24 km/h 705 m -5.4 m/s 402.70 MHz Milevsko (CZ) 0.00 km UNKNOWN
S3120800 RS41 2021-11-29 01:20:48 49.7624 14.4404 327 ° 2 km/h 479 m -1.7 m/s 402.70 MHz Sedlčany (CZ) 0.00 km UNKNOWN
S3140081 RS41 2021-11-28 19:26:55 49.8604 14.3992 130 ° 7 km/h 303 m -4.0 m/s 402.70 MHz Mníšek pod Brdy (CZ) 0.00 km UNKNOWN
S3131386 RS41 2021-11-28 13:30:17 50.1975 14.8037 154 ° 11 km/h 258 m -4.0 m/s 402.700 MHz Lysá nad Labem (CZ) 0.00 km UNKNOWN
S3120662 RS41 2021-11-28 07:21:49 50.2937 14.306 258 ° 9 km/h 314 m -3.2 m/s 402.700 MHz Kralupy nad Vltavou (CZ) 0.00 km UNKNOWN
S3140398 RS41 2021-11-28 01:26:01 50.4869 15.2529 354 ° 9 km/h 454 m -4.5 m/s 402.70 MHz Jičín (CZ) 0.00 km UNKNOWN
S3120663 RS41 2021-11-27 19:10:14 50.3742 14.8467 310 ° 19 km/h 329 m -5.7 m/s 402.70 MHz Mladá Boleslav (CZ) 0.00 km UNKNOWN
S3120700 RS41 2021-11-27 13:21:14 50.5758 14.871 320 ° 22 km/h 448 m -3.8 m/s 402.70 MHz Mnichovo Hradiště (CZ) 0.00 km UNKNOWN
S3120620 RS41 2021-11-27 07:09:10 50.2654 14.84 304 ° 17 km/h 286 m -3.9 m/s 402.700 MHz Benátky nad Jizerou (CZ) 0.00 km UNKNOWN
S3140405 RS41 2021-11-27 00:54:00 50.0749 14.6284 24 ° 19 km/h 328 m -11.2 m/s 402.70 MHz Úvaly (CZ) 0.00 km FOUND
S3140356 RS41 2021-11-26 19:28:48 50.2544 15.0047 66 ° 11 km/h 271 m -4.6 m/s 402.70 MHz Nymburk (CZ) 0.00 km UNKNOWN
S3120667 RS41 2021-11-26 13:27:11 50.5089 15.1357 133 ° 6 km/h 434 m -4.5 m/s 402.70 MHz Turnov (CZ) 0.00 km UNKNOWN
S3140360 RS41 2021-11-26 07:37:47 50.3259 15.6708 152 ° 6 km/h 454 m -7.4 m/s 402.70 MHz Hořice (CZ) 0.00 km FOUND
S3140355 RS41 2021-11-26 01:37:44 50.1457 15.0359 27 ° 15 km/h 280 m -3.6 m/s 402.70 MHz Nymburk (CZ) 0.00 km UNKNOWN
S3140412 RS41 2021-11-25 19:15:16 49.9254 14.6936 49 ° 11 km/h 514 m -10.4 m/s 402.70 MHz Říčany (CZ) 0.00 km UNKNOWN
S3131388 RS41 2021-11-25 12:56:22 49.6624 14.2452 20 ° 7 km/h 569 m -10.6 m/s 402.700 MHz Sedlčany (CZ) 0.00 km UNKNOWN
S3120690 RS41 2021-11-25 07:25:36 49.7923 14.3269 339 ° 7 km/h 458 m -5.0 m/s 402.70 MHz Mníšek pod Brdy (CZ) 0.00 km UNKNOWN
S3140042 RS41 2021-11-25 01:13:08 49.824 13.4687 337 ° 9 km/h 458 m -11.8 m/s 402.70 MHz Třemošná (CZ) 0.00 km UNKNOWN
S3140083 RS41 2021-11-24 19:02:27 49.5064 13.3811 305 ° 19 km/h 617 m -8.9 m/s 402.70 MHz Přeštice (CZ) 0.00 km UNKNOWN
S3140082 RS41 2021-11-24 13:12:55 49.3855 13.1558 290 ° 28 km/h 711 m -6.1 m/s 402.700 MHz Kdyně (CZ) 0.00 km UNKNOWN
S3140080 RS41 2021-11-24 07:07:04 49.1051 13.2482 286 ° 4 km/h 1308 m -6.7 m/s 402.70 MHz Sušice (CZ) 0.00 km UNKNOWN
S3131385 RS41 2021-11-24 01:13:29 49.0259 13.0473 330 ° 9 km/h 1300 m -5.4 m/s 402.700 MHz Deggendorf (DE) 0.00 km NEED ATTENTION
S3131359 RS41 2021-11-23 19:04:30 48.9597 12.9737 297 ° 13 km/h 1178 m -6.7 m/s 402.701 MHz Deggendorf (DE) 0.00 km UNKNOWN
S3120687 RS41 2021-11-23 13:17:16 48.9492 12.6736 199 ° 2 km/h 961 m -4.8 m/s 402.70 MHz Straubing (DE) 0.00 km UNKNOWN
S3140392 RS41 2021-11-23 07:16:22 48.9203 12.9337 119 ° 6 km/h 1214 m -9.5 m/s 404.900 MHz Deggendorf (DE) 0.00 km FOUND
S3140040 RS41 2021-11-23 00:54:55 48.954 12.7274 72 ° 9 km/h 1262 m -12.6 m/s 402.70 MHz Straubing (DE) 0.00 km UNKNOWN
S3140041 RS41 2021-11-22 19:23:50 48.997 13.6868 216 ° 31 km/h 1531 m -4.3 m/s 402.70 MHz Vimperk (CZ) 0.00 km UNKNOWN
S3140079 RS41 2021-11-22 13:35:11 49.2741 13.8365 201 ° 28 km/h 1077 m -8.9 m/s 402.70 MHz Strakonice (CZ) 0.00 km UNKNOWN
S3140025 RS41 2021-11-22 07:25:48 49.3404 13.9871 213 ° 31 km/h 915 m -6.8 m/s 402.70 MHz Strakonice (CZ) 0.00 km FOUND
S3140061 RS41 2021-11-22 00:57:27 49.5239 13.6313 157 ° 11 km/h 743 m -11.7 m/s 402.700 MHz Blatná (CZ) 0.00 km UNKNOWN
S3140027 RS41 2021-11-21 19:19:14 49.4222 14.1844 114 ° 11 km/h 722 m -5.3 m/s 402.70 MHz Písek (CZ) 0.00 km UNKNOWN
S3140038 RS41 2021-11-21 13:17:38 49.469 14.138 118 ° 11 km/h 629 m -11.1 m/s 402.700 MHz Milevsko (CZ) 0.00 km UNKNOWN
S3140030 RS41 2021-11-21 07:15:46 49.4147 14.2718 148 ° 26 km/h 627 m -5.5 m/s 402.70 MHz Milevsko (CZ) 0.00 km UNKNOWN
S3140026 RS41 2021-11-21 01:15:43 49.4225 14.2773 60 ° 7 km/h 759 m -4.7 m/s 402.70 MHz Milevsko (CZ) 0.00 km UNKNOWN
S3120781 RS41 2021-11-20 19:03:49 49.161 13.8643 117 ° 13 km/h 1131 m -7.9 m/s 402.70 MHz Strakonice (CZ) 0.00 km UNKNOWN
S3120719 RS41 2021-11-20 13:09:58 49.0757 13.6547 100 ° 4 km/h 1251 m -5.8 m/s 402.70 MHz Vimperk (CZ) 0.00 km UNKNOWN
S3120747 RS41 2021-11-20 07:13:53 48.754 13.5297 139 ° 20 km/h 1150 m -7.2 m/s 402.700 MHz Passau (DE) 0.00 km UNKNOWN
S3120783 RS41 2021-11-20 00:54:33 48.8116 13.11 128 ° 26 km/h 1101 m -13.3 m/s 402.70 MHz Deggendorf (DE) 0.00 km UNKNOWN
S3120785 RS41 2021-11-19 19:08:35 48.6133 12.9613 99 ° 19 km/h 822 m -3.1 m/s 402.70 MHz Deggendorf (DE) 0.00 km FOUND
S3130660 RS41 2021-11-19 13:15:07 48.5846 12.6787 93 ° 20 km/h 953 m -7.1 m/s 402.70 MHz Straubing (DE) 0.00 km FOUND
S3120746 RS41 2021-11-19 07:07:37 48.4265 12.3277 102 ° 31 km/h 941 m -4.1 m/s 402.70 MHz Landshut (DE) 0.00 km FOUND
S3130657 RS41 2021-11-19 00:51:35 48.5283 12.405 100 ° 35 km/h 1458 m -13.0 m/s 402.700 MHz Landshut (DE) 0.00 km UNKNOWN
S3130656 RS41 2021-11-18 19:09:35 48.39 12.6564 86 ° 30 km/h 1066 m -5.9 m/s 402.70 MHz Waldkraiburg (DE) 0.00 km FOUND
S3120750 RS41 2021-11-18 12:59:15 48.5488 12.3392 90 ° 19 km/h 1284 m -6.8 m/s 402.700 MHz Landshut (DE) 0.00 km FOUND
S3140084 RS41 2021-11-18 06:39:23 48.5097 11.9829 126 ° 17 km/h 939 m -9.6 m/s 402.700 MHz Landshut (DE) 0.00 km UNKNOWN
S3140062 RS41 2021-11-18 01:24:06 48.9144 13.0689 109 ° 22 km/h 1224 m -3.3 m/s 402.70 MHz Deggendorf (DE) 0.00 km FOUND
S3140028 RS41 2021-11-17 19:07:48 49.2381 13.3189 85 ° 33 km/h 949 m -13.2 m/s 402.700 MHz Sušice (CZ) 0.00 km UNKNOWN
S3120745 RS41 2021-11-17 13:02:30 49.5391 13.0947 57 ° 20 km/h 541 m -9.0 m/s 402.70 MHz Holýšov (CZ) 0.00 km FOUND
S3120717 RS41 2021-11-17 07:33:57 49.4628 13.2423 102 ° 7 km/h 536 m -10.4 m/s 402.70 MHz Klatovy (CZ) 0.00 km FOUND
S3140029 RS41 2021-11-17 01:05:21 49.6306 12.8205 32 ° 11 km/h 610 m -4.9 m/s 402.70 MHz Stříbro (CZ) 0.00 km FOUND
S3140039 RS41 2021-11-16 18:59:50 49.5831 12.5574 313 ° 11 km/h 849 m -9.2 m/s 402.70 MHz Tachov (CZ) 0.00 km FOUND
S3120784 RS41 2021-11-16 13:00:31 49.6597 12.6379 290 ° 11 km/h 816 m -10.5 m/s 402.70 MHz Tachov (CZ) 0.00 km FOUND
S3120578 RS41 2021-11-16 06:42:30 49.585 11.9992 259 ° 26 km/h 794 m -9.8 m/s 402.70 MHz Weiden in der Oberpfalz (DE) 0.00 km FOUND
S3050355 RS41 2021-11-16 01:18:30 49.6031 12.4418 254 ° 30 km/h 946 m -11.0 m/s 402.70 MHz Weiden in der Oberpfalz (DE) 0.00 km UNKNOWN
S3050377 RS41 2021-11-15 19:15:33 49.5427 12.5688 280 ° 24 km/h 909 m -4.8 m/s 402.70 MHz Domažlice (CZ) 0.00 km FOUND
S3120749 RS41 2021-11-15 13:33:53 49.7379 12.2691 285 ° 13 km/h 568 m -3.1 m/s 402.70 MHz Weiden in der Oberpfalz (DE) 0.00 km FOUND
S3120748 RS41 2021-11-15 07:01:33 49.5847 11.2479 271 ° 19 km/h 687 m -10.4 m/s 402.700 MHz Lauf an der Pegnitz (DE) 0.00 km LOST
S3120716 RS41 2021-11-15 01:49:04 49.4462 11.7974 284 ° 24 km/h 1108 m -10.2 m/s 402.700 MHz Amberg (DE) 0.00 km FOUND
S3120715 RS41 2021-11-14 19:08:13 49.3506 11.9259 224 ° 19 km/h 700 m -13.5 m/s 402.70 MHz Amberg (DE) 0.00 km FOUND
S3140980 RS41 2021-11-14 13:14:00 49.4879 12.0179 241 ° 24 km/h 739 m -12.0 m/s 402.70 MHz Amberg (DE) 0.00 km FOUND
D315329 2021-11-14 11:41:07 49.4852 11.702 316 ° 31 km/h 2590 m -3.3 m/s 403.248 MHz Sulzbach-Rosenberg (DE) 0.00 km FOUND
S3140962 RS41 2021-11-14 07:09:31 49.5055 12.1297 271 ° 31 km/h 836 m -9.4 m/s 402.70 MHz Weiden in der Oberpfalz (DE) 0.00 km FOUND
S3140856 RS41 2021-11-14 02:21:30 49.8189 12.3141 261 ° 7 km/h 639 m -6.3 m/s 402.70 MHz Weiden in der Oberpfalz (DE) 0.00 km FOUND
S3140961 RS41 2021-11-13 19:02:22 49.6062 12.5458 62 ° 22 km/h 1051 m -16.6 m/s 402.70 MHz Tachov (CZ) 0.00 km UNKNOWN
S3140981 RS41 2021-11-13 13:17:07 49.8594 12.7804 120 ° 6 km/h 664 m -7.6 m/s 402.70 MHz Planá (CZ) 0.00 km FOUND
S3131701 RS41 2021-11-13 07:26:11 49.7193 12.8071 61 ° 4 km/h 550 m -3.1 m/s 402.70 MHz Stříbro (CZ) 0.00 km FOUND
S3120623 RS41 2021-11-13 01:32:36 49.7361 12.9624 356 ° 7 km/h 493 m -4.4 m/s 402.70 MHz Stříbro (CZ) 0.00 km LOST
S3131702 RS41 2021-11-12 19:21:43 49.5839 12.9235 301 ° 7 km/h 594 m -5.2 m/s 402.700 MHz Holýšov (CZ) 0.00 km FOUND
S3131562 RS41 2021-11-12 13:10:53 49.6186 12.7613 289 ° 7 km/h 685 m -5.1 m/s 402.70 MHz Tachov (CZ) 0.00 km NEED ATTENTION
S3131694 RS41 2021-11-12 07:13:26 49.5781 12.7676 295 ° 11 km/h 677 m -5.5 m/s 402.70 MHz Domažlice (CZ) 0.00 km FOUND
S3131454 RS41 2021-11-12 00:46:49 49.5475 12.4621 196 ° 4 km/h 911 m -13.4 m/s 402.70 MHz Weiden in der Oberpfalz (DE) 0.00 km FOUND
S3131411 RS41 2021-11-11 19:00:31 49.5211 12.6056 272 ° 9 km/h 885 m -6.4 m/s 402.700 MHz Domažlice (CZ) 0.00 km UNKNOWN
S3131398 RS41 2021-11-11 12:55:14 49.5773 12.5274 68 ° 9 km/h 872 m -8.2 m/s 402.701 MHz Tachov (CZ) 0.00 km FOUND
S3131691 RS41 2021-11-11 07:13:35 49.628 12.8212 321 ° 9 km/h 639 m -5.2 m/s 402.700 MHz Stříbro (CZ) 0.00 km FOUND
S3131696 RS41 2021-11-11 02:04:37 49.7768 13.1538 282 ° 9 km/h 460 m -8.0 m/s 404.90 MHz Nýřany (CZ) 0.00 km LOST
S3131700 RS41 2021-11-11 01:08:54 49.8161 13.0778 161 ° 4 km/h 479 m -5.7 m/s 402.70 MHz Stříbro (CZ) 0.00 km FOUND
S3131692 RS41 2021-11-10 18:53:13 49.8196 12.8755 257 ° 4 km/h 619 m -9.5 m/s 402.70 MHz Planá (CZ) 0.00 km FOUND
S3131704 RS41 2021-11-10 13:00:31 49.9485 12.9165 323 ° 9 km/h 782 m -11.8 m/s 404.90 MHz Planá (CZ) 0.00 km FOUND
S3131689 RS41 2021-11-10 07:23:30 49.8574 13.1347 307 ° 6 km/h 552 m -6.2 m/s 402.70 MHz Stříbro (CZ) 0.00 km FOUND
S3140986 RS41 2021-11-10 01:29:37 49.8005 13.0446 230 ° 15 km/h 547 m -13.4 m/s 402.70 MHz Stříbro (CZ) 0.00 km LOST
S3140853 RS41 2021-11-09 19:22:38 49.7856 12.3938 298 ° 67 km/h 856 m -3.2 m/s 402.70 MHz Tachov (CZ) 0.00 km UNKNOWN
S3131449 RS41 2021-11-09 13:01:30 49.4805 12.0079 275 ° 24 km/h 756 m -11.6 m/s 402.700 MHz Amberg (DE) 0.00 km FOUND
S3140855 RS41 2021-11-09 07:02:30 49.0606 11.9929 273 ° 7 km/h 558 m -7.7 m/s 402.70 MHz Regensburg (DE) 0.00 km FOUND
S3140857 RS41 2021-11-09 01:13:11 48.7807 12.077 354 ° 13 km/h 1513 m -4.3 m/s 402.700 MHz Regensburg (DE) 0.00 km UNKNOWN
S3140963 RS41 2021-11-08 19:08:57 48.6333 12.1962 242 ° 2 km/h 972 m -6.5 m/s 402.700 MHz Landshut (DE) 0.00 km UNKNOWN
S3140984 RS41 2021-11-08 12:59:30 48.9779 12.4465 104 ° 17 km/h 1563 m -9.8 m/s 402.70 MHz Straubing (DE) 0.00 km LOST
S3140979 RS41 2021-11-08 07:15:39 48.8974 12.8113 121 ° 22 km/h 1635 m -5.7 m/s 402.70 MHz Deggendorf (DE) 0.00 km LOST
S3140854 RS41 2021-11-08 01:29:36 49.2665 14.0199 101 ° 44 km/h 839 m -6.2 m/s 402.70 MHz Strakonice (CZ) 0.00 km LOST
S3120701 RS41 2021-11-07 19:24:58 49.1891 14.13 108 ° 46 km/h 1094 m -10.2 m/s 402.70 MHz Vodňany (CZ) 0.00 km FOUND
S3131688 RS41 2021-11-07 13:16:23 49.3513 13.9671 74 ° 15 km/h 916 m -3.6 m/s 402.70 MHz Blatná (CZ) 0.00 km FOUND
S3120624 RS41 2021-11-07 07:26:56 49.1526 13.4573 61 ° 44 km/h 1002 m -8.3 m/s 402.70 MHz Sušice (CZ) 0.00 km UNKNOWN
S3131690 RS41 2021-11-07 01:10:00 49.1919 12.6045 45 ° 30 km/h 781 m -9.1 m/s 402.70 MHz Straubing (DE) 0.00 km FOUND
S3131693 RS41 2021-11-06 19:19:30 49.0894 12.1115 29 ° 17 km/h 777 m -6.6 m/s 402.700 MHz Regensburg (DE) 0.00 km FOUND
S3131698 RS41 2021-11-06 13:02:00 49.1329 11.9248 357 ° 9 km/h 638 m -11.1 m/s 402.70 MHz Regensburg (DE) 0.00 km FOUND
S3131681 RS41 2021-11-06 07:08:30 49.0522 11.9528 165 ° 2 km/h 556 m -6.7 m/s 402.700 MHz Regensburg (DE) 0.00 km FOUND
S3131695 RS41 2021-11-06 01:28:00 49.1292 12.1355 107 ° 9 km/h 943 m -3.5 m/s 402.700 MHz Regensburg (DE) 0.00 km FOUND
S3120699 RS41 2021-11-05 19:08:00 49.209 12.2773 132 ° 19 km/h 981 m -9.2 m/s 402.700 MHz Schwandorf (DE) 0.00 km FOUND
S3140477 RS41 2021-11-05 13:18:30 49.3778 12.3707 96 ° 15 km/h 866 m -3.7 m/s 402.70 MHz Schwandorf (DE) 0.00 km FOUND
S3140420 RS41 2021-11-05 07:18:57 49.5658 12.6072 66 ° 31 km/h 827 m -8.3 m/s 402.700 MHz Tachov (CZ) 0.00 km FOUND
S3131448 RS41 2021-11-05 01:33:28 49.9351 12.8998 73 ° 24 km/h 747 m -7.4 m/s 402.700 MHz Planá (CZ) 0.00 km FOUND
S3131451 RS41 2021-11-04 19:30:13 49.8211 13.2182 66 ° 30 km/h 509 m -6.1 m/s 402.70 MHz Nýřany (CZ) 0.00 km UNKNOWN
S3140393 RS41 2021-11-04 13:11:50 49.9806 13.0254 63 ° 37 km/h 771 m -4.4 m/s 402.700 MHz Mariánské Lázně (CZ) 0.00 km FOUND
S3140413 RS41 2021-11-04 07:47:30 50.1338 12.7805 112 ° 35 km/h 900 m -9.2 m/s 402.700 MHz Horní Slavkov (CZ) 0.00 km FOUND
S3140476 RS41 2021-11-04 00:56:00 50.2836 12.8104 252 ° 22 km/h 805 m -3.0 m/s 402.700 MHz Chodov (CZ) 0.00 km FOUND
S3140406 RS41 2021-11-03 19:11:46 50.1422 13.0215 257 ° 30 km/h 917 m -11.7 m/s 402.70 MHz Karlovy Vary (CZ) 0.00 km UNKNOWN
S3140410 RS41 2021-11-03 13:10:47 49.9609 13.5258 272 ° 19 km/h 506 m -12.8 m/s 402.70 MHz Třemošná (CZ) 0.00 km UNKNOWN
S3140404 RS41 2021-11-03 07:07:42 49.7804 13.5491 271 ° 9 km/h 551 m -10.7 m/s 402.70 MHz Rokycany (CZ) 0.00 km FOUND
S3131393 RS41 2021-11-03 01:31:19 49.6175 14.1937 24 ° 31 km/h 604 m -6.6 m/s 402.700 MHz Příbram (CZ) 0.00 km UNKNOWN
S3131395 RS41 2021-11-02 19:34:19 49.6708 13.6353 29 ° 20 km/h 627 m -9.3 m/s 402.700 MHz Rokycany (CZ) 0.00 km UNKNOWN
S3131394 RS41 2021-11-02 12:51:14 49.7197 12.9352 75 ° 22 km/h 582 m -7.9 m/s 402.70 MHz Stříbro (CZ) 0.00 km FOUND
S3131447 RS41 2021-11-02 07:16:07 49.8352 13.0322 80 ° 19 km/h 548 m -6.7 m/s 402.70 MHz Stříbro (CZ) 0.00 km UNKNOWN
S3131453 RS41 2021-11-02 00:59:00 50.1572 12.8509 74 ° 28 km/h 891 m -8.9 m/s 402.700 MHz Horní Slavkov (CZ) 0.00 km LOST
S3131412 RS41 2021-11-01 19:17:20 50.2385 13.2828 106 ° 20 km/h 720 m -4.0 m/s 402.70 MHz Podbořany (CZ) 0.00 km UNKNOWN
S3131452 RS41 2021-11-01 13:15:41 50.0613 13.5381 110 ° 2 km/h 603 m -9.4 m/s 402.700 MHz Rakovník (CZ) 0.00 km UNKNOWN
S3131413 RS41 2021-11-01 06:52:03 49.7959 13.3522 112 ° 2 km/h 497 m -15.8 m/s 402.70 MHz Třemošná (CZ) 0.00 km UNKNOWN
S3131456 RS41 2021-11-01 01:11:16 49.7049 13.7035 36 ° 6 km/h 659 m -9.8 m/s 402.70 MHz Rokycany (CZ) 0.00 km UNKNOWN
S3131397 RS41 2021-10-31 19:23:18 49.7264 13.6699 311 ° 20 km/h 601 m -5.0 m/s 402.70 MHz Rokycany (CZ) 0.00 km UNKNOWN
S3131458 RS41 2021-10-31 13:15:25 49.8685 13.6607 279 ° 26 km/h 762 m -6.3 m/s 402.70 MHz Rokycany (CZ) 0.00 km UNKNOWN
S3131457 RS41 2021-10-31 07:09:27 49.7849 13.9608 347 ° 19 km/h 575 m -4.0 m/s 402.70 MHz Hořovice (CZ) 0.00 km UNKNOWN
S3140995 RS41 2021-10-31 01:17:05 49.9716 14.2048 309 ° 11 km/h 474 m -6.3 m/s 402.70 MHz Rudná (CZ) 0.00 km FOUND
S3140952 RS41 2021-10-30 18:20:49 50.0836 12.8482 6 ° 24 km/h 864 m -13.4 m/s 402.700 MHz Horní Slavkov (CZ) 0.00 km FOUND
S3140949 RS41 2021-10-30 13:02:59 50.2545 13.6672 307 ° 19 km/h 723 m -11.7 m/s 402.70 MHz Žatec (CZ) 0.00 km UNKNOWN
T1320166 RS41 2021-10-30 06:54:00 50.5696 12.7603 318 ° 26 km/h 681 m -4.4 m/s 402.70 MHz Annaberg-Buchholz (DE) 0.00 km FOUND
S3140877 RS41 2021-10-30 00:52:20 50.2676 13.5519 293 ° 15 km/h 822 m -14.5 m/s 402.70 MHz Žatec (CZ) 0.00 km UNKNOWN
S3140991 RS41 2021-10-29 19:31:43 50.456 13.8029 300 ° 31 km/h 598 m -5.6 m/s 402.70 MHz Bílina (CZ) 0.00 km UNKNOWN
S3140950 RS41 2021-10-29 13:22:14 50.471 13.302 297 ° 22 km/h 918 m -7.0 m/s 402.700 MHz Chomutov (CZ) 0.00 km FOUND
T1310009 RS41 2021-10-29 07:15:53 50.2518 13.314 260 ° 13 km/h 773 m -10.7 m/s 402.700 MHz Podbořany (CZ) 0.00 km UNKNOWN
S3140992 RS41 2021-10-29 01:00:32 50.2148 12.9641 357 ° 13 km/h 938 m -12.2 m/s 402.70 MHz Karlovy Vary (CZ) 0.00 km FOUND
S3140881 RS41 2021-10-28 19:57:33 50.4223 13.0903 346 ° 33 km/h 964 m -5.3 m/s 402.70 MHz Klášterec nad Ohří (CZ) 0.00 km UNKNOWN
S3140994 RS41 2021-10-28 13:14:35 50.1306 12.9413 343 ° 19 km/h 907 m -4.5 m/s 402.70 MHz Horní Slavkov (CZ) 0.00 km FOUND
S3131450 RS41 2021-10-28 07:09:25 49.7788 13.0722 284 ° 4 km/h 549 m -10.6 m/s 402.700 MHz Stříbro (CZ) 0.00 km UNKNOWN
S3140996 RS41 2021-10-28 01:04:24 49.6488 13.1854 252 ° 6 km/h 479 m -10.7 m/s 402.70 MHz Nýřany (CZ) 0.00 km FOUND
S3140957 RS41 2021-10-27 19:26:59 49.4705 13.3252 180 ° 2 km/h 510 m -9.4 m/s 402.700 MHz Klatovy (CZ) 0.00 km UNKNOWN
S3140993 RS41 2021-10-27 13:04:55 49.4485 13.0903 76 ° 15 km/h 620 m -6.1 m/s 402.70 MHz Kdyně (CZ) 0.00 km UNKNOWN
T1310011 RS41 2021-10-27 07:03:30 49.2235 13.1046 301 ° 2 km/h 1093 m -1.6 m/s 402.70 MHz Kdyně (CZ) 0.00 km UNKNOWN
T1510283 RS41 2021-10-27 01:04:22 49.0471 13.0485 97 ° 31 km/h 1502 m -12.5 m/s 402.70 MHz Deggendorf (DE) 0.00 km UNKNOWN
T1310451 RS41 2021-10-26 19:04:00 48.984 13.125 104 ° 35 km/h 1764 m -5.0 m/s 402.70 MHz Deggendorf (DE) 0.00 km UNKNOWN
S3140953 RS41 2021-10-26 13:17:19 50.0104 14.4777 58 ° 17 km/h 380 m -9.6 m/s 402.70 MHz Jesenice (CZ) 0.00 km FOUND
S3140951 RS41 2021-10-26 07:11:59 50.0397 14.1445 24 ° 6 km/h 436 m -7.3 m/s 402.70 MHz Rudná (CZ) 0.00 km UNKNOWN
S3140959 RS41 2021-10-26 00:59:53 50.0715 13.8841 47 ° 9 km/h 570 m -7.1 m/s 402.70 MHz Nové Strašecí (CZ) 0.00 km UNKNOWN
S3140902 RS41 2021-10-25 19:25:18 50.1761 14.2201 329 ° 11 km/h 428 m -8.0 m/s 402.700 MHz Kladno (CZ) 0.00 km UNKNOWN
S3141003 RS41 2021-10-25 13:14:47 50.2603 14.0608 308 ° 9 km/h 455 m -6.4 m/s 402.70 MHz Slaný (CZ) 0.00 km UNKNOWN
S3140954 RS41 2021-10-25 07:35:55 50.212 13.8297 349 ° 11 km/h 558 m -3.5 m/s 402.70 MHz Nové Strašecí (CZ) 0.00 km UNKNOWN
S3140960 RS41 2021-10-25 01:22:17 49.9973 13.651 287 ° 15 km/h 521 m -5.2 m/s 402.70 MHz Rakovník (CZ) 0.00 km UNKNOWN
S3140955 RS41 2021-10-24 18:53:34 49.6053 12.5128 284 ° 26 km/h 809 m -4.7 m/s 402.70 MHz Tachov (CZ) 0.00 km UNKNOWN
T1320163 RS41 2021-10-24 13:05:34 49.432 12.7669 245 ° 28 km/h 909 m -8.0 m/s 402.70 MHz Domažlice (CZ) 0.00 km FOUND
T1320881 RS41 2021-10-24 07:08:30 49.034 12.3965 317 ° 7 km/h 1453 m -3.7 m/s 402.70 MHz Regensburg (DE) 0.00 km UNKNOWN
T1320876 RS41 2021-10-24 01:29:33 48.9886 13.8923 312 ° 17 km/h 1343 m -6.0 m/s 402.70 MHz Prachatice (CZ) 0.00 km UNKNOWN
T1320168 RS41 2021-10-23 19:10:55 48.876 13.9463 199 ° 17 km/h 1367 m -11.1 m/s 402.70 MHz Prachatice (CZ) 0.00 km UNKNOWN
T1320167 RS41 2021-10-23 13:02:47 48.9152 13.8461 101 ° 30 km/h 1644 m -3.6 m/s 402.70 MHz Prachatice (CZ) 0.00 km UNKNOWN
T1320164 RS41 2021-10-23 07:02:12 49.0965 14.2686 115 ° 46 km/h 1230 m -6.3 m/s 402.70 MHz Vodňany (CZ) 0.00 km FOUND
T1320487 RS41 2021-10-23 01:09:51 49.1646 14.5579 97 ° 54 km/h 965 m -5.0 m/s 402.70 MHz Veselí nad Lužnicí (CZ) 0.00 km UNKNOWN
T1320045 RS41 2021-10-22 19:28:42 49.4613 15.3879 87 ° 56 km/h 960 m -11.6 m/s 402.70 MHz Humpolec (CZ) 0.00 km UNKNOWN
T1320082 RS41 2021-10-22 13:20:39 49.4397 15.0352 88 ° 46 km/h 848 m -6.3 m/s 402.70 MHz Pelhřimov (CZ) 0.00 km UNKNOWN
T1320044 RS41 2021-10-22 07:03:04 49.6943 14.8415 84 ° 44 km/h 824 m -8.3 m/s 402.70 MHz Vlašim (CZ) 0.00 km UNKNOWN
T1510372 RS41 2021-10-22 01:19:33 49.8067 15.2848 101 ° 37 km/h 760 m -7.3 m/s 402.70 MHz Čáslav (CZ) 0.00 km UNKNOWN
T1510370 RS41 2021-10-21 19:10:16 49.995 15.2967 74 ° 80 km/h 837 m -10.5 m/s 402.70 MHz Kutná Hora (CZ) 0.00 km FOUND
T1320165 RS41 2021-10-21 12:50:30 50.2135 15.0641 79 ° 80 km/h 301 m -12.7 m/s 402.70 MHz Nymburk (CZ) 0.00 km UNKNOWN
T1310012 RS41 2021-10-21 07:17:08 50.5262 15.4955 2 ° 48 km/h 628 m -5.9 m/s 402.70 MHz Nová Paka (CZ) 0.00 km UNKNOWN
T1320081 RS41 2021-10-21 01:31:47 50.1572 15.4237 348 ° 20 km/h 360 m -10.2 m/s 402.70 MHz Chlumec nad Cidlinou (CZ) 0.00 km FOUND
T1320001 RS41 2021-10-20 19:16:12 49.8861 14.7755 43 ° 39 km/h 602 m -4.9 m/s 402.70 MHz Benešov (CZ) 0.00 km FOUND
T1310448 RS41 2021-10-20 13:00:31 49.8786 14.3182 28 ° 26 km/h 486 m -9.6 m/s 402.70 MHz Mníšek pod Brdy (CZ) 0.00 km UNKNOWN
T1510367 RS41 2021-10-20 07:38:29 49.5068 14.5232 20 ° 30 km/h 742 m -4.2 m/s 402.70 MHz Milevsko (CZ) 0.00 km UNKNOWN
T1510281 RS41 2021-10-20 01:34:24 48.9775 14.1448 73 ° 61 km/h 1175 m -4.2 m/s 402.70 MHz Prachatice (CZ) 0.00 km UNKNOWN
T1510271 RS41 2021-10-19 19:11:54 48.4623 13.4475 73 ° 35 km/h 776 m -2.8 m/s 402.70 MHz Schärding (AT) 0.00 km UNKNOWN
T1510284 RS41 2021-10-19 13:18:13 48.8387 13.9298 82 ° 28 km/h 1184 m -7.8 m/s 402.700 MHz Ulrichsberg (AT) 0.00 km UNKNOWN
T1510288 RS41 2021-10-19 07:14:48 48.6896 13.6905 84 ° 19 km/h 958 m -6.2 m/s 402.70 MHz Ulrichsberg (AT) 0.00 km UNKNOWN
T1310010 RS41 2021-10-19 01:02:29 48.7424 13.382 87 ° 20 km/h 1136 m -10.7 m/s 404.90 MHz Passau (DE) 0.00 km UNKNOWN
T1510285 RS41 2021-10-18 19:18:14 48.6139 13.3451 11 ° 11 km/h 1199 m -3.6 m/s 402.70 MHz Passau (DE) 0.00 km FOUND
T1510287 RS41 2021-10-18 13:10:19 48.5786 12.8932 290 ° 9 km/h 984 m -6.3 m/s 402.70 MHz Deggendorf (DE) 0.00 km FOUND
T1510286 RS41 2021-10-18 07:01:04 48.736 12.9701 199 ° 9 km/h 1533 m -10.7 m/s 402.70 MHz Deggendorf (DE) 0.00 km FOUND
T1510277 RS41 2021-10-18 00:42:00 49.11 13.0399 177 ° 15 km/h 1374 m -8.9 m/s 402.70 MHz Deggendorf (DE) 0.00 km UNKNOWN
T1510226 RS41 2021-10-17 19:07:44 49.2304 13.6553 110 ° 7 km/h 1226 m -6.7 m/s 402.700 MHz Sušice (CZ) 0.00 km UNKNOWN
T1510318 RS41 2021-10-17 13:04:32 49.219 13.2377 152 ° 6 km/h 1179 m -11.6 m/s 402.70 MHz Klatovy (CZ) 0.00 km UNKNOWN
T1510274 RS41 2021-10-17 07:20:33 49.117 13.1969 145 ° 19 km/h 1349 m -5.4 m/s 402.70 MHz Sušice (CZ) 0.00 km UNKNOWN
T1510279 RS41 2021-10-17 01:01:09 49.2038 13.1973 100 ° 11 km/h 1005 m -8.5 m/s 402.70 MHz Klatovy (CZ) 0.00 km FOUND
T1320003 RS41 2021-10-16 13:11:01 49.3239 13.0677 187 ° 6 km/h 766 m -11.4 m/s 402.700 MHz Kdyně (CZ) 0.00 km LOST
T1510278 RS41 2021-10-16 07:12:30 49.2445 12.9004 236 ° 15 km/h 1018 m -5.8 m/s 402.70 MHz Kdyně (CZ) 0.00 km UNKNOWN
T1510272 RS41 2021-10-16 01:25:56 49.3021 13.3008 323 ° 7 km/h 602 m -7.1 m/s 402.70 MHz Klatovy (CZ) 0.00 km UNKNOWN
T1510280 RS41 2021-10-15 19:22:20 49.3172 13.7797 113 ° 37 km/h 848 m -4.6 m/s 402.700 MHz Horažďovice (CZ) 0.00 km UNKNOWN
T1320872 RS41 2021-10-15 13:01:30 49.6253 13.5091 58 ° 24 km/h 615 m -9.0 m/s 402.70 MHz Starý Plzenec (CZ) 0.00 km UNKNOWN
T1310454 RS41 2021-10-15 07:09:35 49.3489 13.287 32 ° 7 km/h 610 m -11.8 m/s 402.700 MHz Klatovy (CZ) 0.00 km UNKNOWN
T1510212 RS41 2021-10-15 01:01:30 49.1532 13.0073 18 ° 15 km/h 1178 m -7.6 m/s 402.70 MHz Kdyně (CZ) 0.00 km UNKNOWN
T1510248 RS41 2021-10-14 19:30:42 48.75 12.8683 90 ° 24 km/h 902 m -10.0 m/s 402.70 MHz Deggendorf (DE) 0.00 km FOUND
T1510282 RS41 2021-10-14 13:07:57 48.6498 12.3203 87 ° 15 km/h 470 m -8.6 m/s 402.70 MHz Landshut (DE) 0.00 km UNKNOWN
T1510228 RS41 2021-10-14 07:41:01 48.3142 12.1626 71 ° 24 km/h 629 m -4.1 m/s 402.70 MHz Erding (DE) 0.00 km UNKNOWN
T1320002 RS41 2021-10-14 01:05:15 48.5304 12.1139 49 ° 13 km/h 473 m -6.9 m/s 402.70 MHz Landshut (DE) 0.00 km UNKNOWN
T1311080 RS41 2021-10-13 19:25:00 48.1527 11.9608 75 ° 17 km/h 648 m -7.5 m/s 402.70 MHz Vaterstetten (DE) 0.00 km FOUND
T1510399 RS41 2021-10-13 13:13:51 48.4405 12.1539 86 ° 17 km/h 805 m -5.9 m/s 402.70 MHz Landshut (DE) 0.00 km UNKNOWN
T1510398 RS41 2021-10-13 07:18:15 48.5443 12.4072 137 ° 17 km/h 696 m -5.9 m/s 402.70 MHz Landshut (DE) 0.00 km FOUND
T1320491 RS41 2021-10-13 00:51:30 48.788 12.4936 174 ° 26 km/h 817 m -11.1 m/s 404.90 MHz Straubing (DE) 0.00 km FOUND
T1320488 RS41 2021-10-12 19:12:11 48.8982 12.9724 119 ° 28 km/h 1370 m -14.1 m/s 402.70 MHz Deggendorf (DE) 0.00 km UNKNOWN
T1320080 RS41 2021-10-12 13:15:20 48.9165 13.0538 105 ° 33 km/h 1327 m -7.2 m/s 402.70 MHz Deggendorf (DE) 0.00 km UNKNOWN
T1311079 RS41 2021-10-12 07:07:52 48.9134 13.089 141 ° 35 km/h 1724 m -13.1 m/s 402.70 MHz Deggendorf (DE) 0.00 km UNKNOWN
T1320005 RS41 2021-10-12 01:01:03 48.7502 12.9991 144 ° 33 km/h 860 m -13.4 m/s 402.70 MHz Deggendorf (DE) 0.00 km UNKNOWN
T1320079 RS41 2021-10-11 19:00:51 48.7506 13.1165 126 ° 28 km/h 1150 m -9.4 m/s 402.70 MHz Deggendorf (DE) 0.00 km UNKNOWN
T1320490 RS41 2021-10-11 12:55:10 48.9453 12.8573 106 ° 24 km/h 1395 m -9.3 m/s 402.70 MHz Deggendorf (DE) 0.00 km UNKNOWN
T1320006 RS41 2021-10-11 07:12:54 48.8662 12.5206 79 ° 19 km/h 922 m -6.7 m/s 402.700 MHz Straubing (DE) 0.00 km FOUND
T1320743 RS41 2021-10-11 01:21:06 48.8326 12.2418 97 ° 11 km/h 820 m -10.9 m/s 402.70 MHz Regensburg (DE) 0.00 km UNKNOWN
T1330266 RS41 2021-10-10 19:06:30 48.7903 11.9407 9 ° 2 km/h 808 m -8.9 m/s 402.700 MHz Regensburg (DE) 0.00 km FOUND
T1320004 RS41 2021-10-10 13:53:30 48.7903 11.5924 308 ° 11 km/h 1173 m -10.7 m/s 404.90 MHz Ingolstadt (DE) 0.00 km FOUND
T1320931 RS41 2021-10-10 07:08:29 48.5845 11.4583 280 ° 24 km/h 709 m -6.7 m/s 402.70 MHz Pfaffenhofen an der Ilm (DE) 0.00 km FOUND
T1320935 RS41 2021-10-10 01:14:41 48.5619 11.4411 259 ° 15 km/h 583 m -8.9 m/s 402.700 MHz Pfaffenhofen an der Ilm (DE) 0.00 km FOUND
T1320934 RS41 2021-10-09 19:14:11 48.5385 11.3861 269 ° 30 km/h 782 m -13.0 m/s 402.70 MHz Pfaffenhofen an der Ilm (DE) 0.00 km FOUND
T1320942 RS41 2021-10-09 13:15:13 48.7118 11.2278 257 ° 28 km/h 650 m -7.5 m/s 402.70 MHz Neuburg an der Donau (DE) 0.00 km FOUND
T1320932 RS41 2021-10-09 07:10:13 48.7323 11.3682 257 ° 24 km/h 564 m -9.1 m/s 402.70 MHz Ingolstadt (DE) 0.00 km FOUND
T1320941 RS41 2021-10-09 01:11:52 48.8803 11.7265 260 ° 33 km/h 610 m -9.1 m/s 402.700 MHz Ingolstadt (DE) 0.00 km FOUND
T1311077 RS41 2021-10-08 19:22:30 48.8578 11.8191 269 ° 30 km/h 807 m -5.8 m/s 402.70 MHz Regensburg (DE) 0.00 km FOUND
T1330268 RS41 2021-10-08 13:15:00 49.0337 11.9114 242 ° 11 km/h 508 m -5.2 m/s 402.70 MHz Regensburg (DE) 0.00 km FOUND
T1311078 RS41 2021-10-08 07:23:30 48.9176 11.9202 234 ° 33 km/h 627 m -3.0 m/s 402.70 MHz Regensburg (DE) 0.00 km FOUND
T1330130 RS41 2021-10-08 01:22:00 48.9646 12.1381 240 ° 43 km/h 781 m -6.3 m/s 402.70 MHz Regensburg (DE) 0.00 km FOUND
T1320937 RS41 2021-10-07 19:04:30 49.0421 12.1515 230 ° 35 km/h 921 m -10.7 m/s 402.700 MHz Regensburg (DE) 0.00 km FOUND
T1330270 RS41 2021-10-07 12:52:31 49.2822 12.0138 242 ° 19 km/h 1417 m -7.9 m/s 402.70 MHz Schwandorf (DE) 0.00 km FOUND
T1320933 RS41 2021-10-07 07:02:00 49.3592 12.4548 194 ° 13 km/h 890 m -5.7 m/s 402.70 MHz Schwandorf (DE) 0.00 km UNKNOWN
T1320939 RS41 2021-10-07 01:05:29 49.5512 12.8901 80 ° 11 km/h 600 m -10.1 m/s 402.70 MHz Domažlice (CZ) 0.00 km FOUND
T1330269 RS41 2021-10-06 19:27:30 49.6812 13.2875 59 ° 11 km/h 454 m -6.0 m/s 402.700 MHz Dobřany (CZ) 0.00 km FOUND
T1331071 RS41 2021-10-06 13:07:41 49.9455 13.1839 77 ° 19 km/h 829 m -8.4 m/s 402.70 MHz Třemošná (CZ) 0.00 km UNKNOWN
T1330845 RS41 2021-10-06 07:13:57 49.9374 13.3746 81 ° 31 km/h 845 m -10.2 m/s 402.70 MHz Třemošná (CZ) 0.00 km UNKNOWN
T1331073 RS41 2021-10-06 01:25:51 50.0882 13.5615 57 ° 33 km/h 598 m -6.2 m/s 402.700 MHz Rakovník (CZ) 0.00 km UNKNOWN
T1331034 RS41 2021-10-05 19:18:15 50.0434 13.4389 80 ° 33 km/h 711 m -4.1 m/s 402.70 MHz Podbořany (CZ) 0.00 km UNKNOWN
T1330265 RS41 2021-10-05 13:34:19 50.5964 13.2659 33 ° 31 km/h 1065 m -3.7 m/s 404.90 MHz Jirkov (CZ) 0.00 km FOUND
T1320940 RS41 2021-10-05 08:20:11 50.8796 13.4964 349 ° 22 km/h 983 m -4.8 m/s 402.70 MHz Freiberg (DE) 0.00 km FOUND
T1330909 RS41 2021-10-05 01:17:50 50.3445 13.4181 310 ° 22 km/h 973 m -14.6 m/s 402.70 MHz Žatec (CZ) 0.00 km UNKNOWN
T1330908 RS41 2021-10-04 19:01:29 50.268 13.2408 271 ° 15 km/h 871 m -7.9 m/s 402.70 MHz Kadaň (CZ) 0.00 km UNKNOWN
T1331013 RS41 2021-10-04 12:52:20 50.2335 13.3058 209 ° 9 km/h 811 m -14.3 m/s 402.70 MHz Podbořany (CZ) 0.00 km UNKNOWN
T1320936 RS41 2021-10-04 06:48:50 50.0332 13.1938 264 ° 24 km/h 1339 m -11.8 m/s 402.700 MHz Podbořany (CZ) 0.00 km FOUND
T1330961 RS41 2021-10-04 01:28:11 50.2152 13.5513 205 ° 9 km/h 714 m -5.9 m/s 402.70 MHz Podbořany (CZ) 0.00 km UNKNOWN
T1330912 RS41 2021-10-03 19:15:24 49.9535 13.3538 345 ° 13 km/h 747 m -5.8 m/s 402.70 MHz Třemošná (CZ) 0.00 km UNKNOWN
T1330911 RS41 2021-10-03 13:14:57 49.9701 13.388 303 ° 9 km/h 729 m -6.2 m/s 402.70 MHz Třemošná (CZ) 0.00 km UNKNOWN
T1331069 RS41 2021-10-03 07:18:00 49.7238 13.2716 268 ° 7 km/h 429 m -6.3 m/s 402.70 MHz Nýřany (CZ) 0.00 km FOUND
T1331072 RS41 2021-10-03 01:22:27 49.583 13.3418 180 ° 4 km/h 429 m -5.1 m/s 402.70 MHz Přeštice (CZ) 0.00 km UNKNOWN
T1330870 RS41 2021-10-02 19:33:30 49.6088 13.4883 318 ° 39 km/h 614 m -4.5 m/s 402.70 MHz Starý Plzenec (CZ) 0.00 km UNKNOWN
T1330868 RS41 2021-10-02 13:16:11 49.5425 13.2921 28 ° 15 km/h 451 m -7.5 m/s 402.70 MHz Přeštice (CZ) 0.00 km UNKNOWN
T1330865 RS41 2021-10-02 07:04:00 49.7881 13.2088 1 ° 4 km/h 527 m -12.8 m/s 402.70 MHz Nýřany (CZ) 0.00 km FOUND
T1331014 RS41 2021-10-02 01:07:30 49.8653 13.1335 14 ° 9 km/h 639 m -6.5 m/s 402.70 MHz Stříbro (CZ) 0.00 km UNKNOWN
T1330910 RS41 2021-10-01 12:54:00 49.5108 12.8574 276 ° 4 km/h 651 m -12.7 m/s 402.70 MHz Domažlice (CZ) 0.00 km UNKNOWN
T1331070 RS41 2021-10-01 07:14:30 49.2761 12.947 348 ° 2 km/h 559 m -7.6 m/s 402.70 MHz Kdyně (CZ) 0.00 km FOUND
T1330903 RS41 2021-10-01 01:13:20 49.0958 13.199 16 ° 13 km/h 1287 m -7.4 m/s 402.70 MHz Sušice (CZ) 0.00 km UNKNOWN
T1330867 RS41 2021-09-30 19:12:53 48.9804 13.2167 38 ° 11 km/h 1546 m -5.8 m/s 402.70 MHz Deggendorf (DE) 0.00 km UNKNOWN
T1331033 RS41 2021-09-30 13:32:57 49.094 13.9951 152 ° 7 km/h 1064 m -4.4 m/s 402.70 MHz Prachatice (CZ) 0.00 km FOUND
T1330917 RS41 2021-09-30 07:19:25 49.4193 13.6418 79 ° 37 km/h 767 m -4.8 m/s 402.700 MHz Horažďovice (CZ) 0.00 km UNKNOWN
T1330918 RS41-SGP 2021-09-30 01:19:50 49.8275 13.6394 78 ° 28 km/h 708 m -8.2 m/s 402.70 MHz Rokycany (CZ) 0.00 km FOUND
T1331074 RS41 2021-09-29 19:10:30 49.7156 13.1848 88 ° 9 km/h 490 m -12.8 m/s 402.70 MHz Nýřany (CZ) 0.00 km FOUND
T1330973 RS41 2021-09-29 13:00:00 49.8207 13.0258 68 ° 30 km/h 626 m -8.8 m/s 402.70 MHz Stříbro (CZ) 0.00 km FOUND
T1330906 RS41 2021-09-29 07:19:06 49.9207 13.0383 30 ° 19 km/h 843 m -11.3 m/s 402.70 MHz Stříbro (CZ) 0.00 km FOUND
T1330869 RS41 2021-09-29 01:11:31 49.8474 12.9868 257 ° 17 km/h 625 m -5.9 m/s 402.70 MHz Stříbro (CZ) 0.00 km FOUND
T1330824 RS41 2021-09-28 19:22:30 49.6588 13.2156 221 ° 19 km/h 452 m -5.6 m/s 402.70 MHz Dobřany (CZ) 0.00 km FOUND
T1251132 RS41 2021-09-28 13:03:30 49.5527 13.212 90 ° 6 km/h 593 m -15.3 m/s 402.700 MHz Přeštice (CZ) 0.00 km UNKNOWN
T1310341 RS41 2021-09-28 07:06:00 49.3201 13.1877 74 ° 9 km/h 541 m -9.9 m/s 402.70 MHz Klatovy (CZ) 0.00 km UNKNOWN
T1330976 RS41 2021-09-28 01:14:45 49.3847 13.2346 87 ° 13 km/h 525 m -13.4 m/s 402.70 MHz Klatovy (CZ) 0.00 km UNKNOWN
T1330967 RS41 2021-09-27 19:31:57 49.3415 13.1985 48 ° 13 km/h 500 m -8.7 m/s 402.700 MHz Klatovy (CZ) 0.00 km UNKNOWN
T1330978 RS41 2021-09-27 13:08:31 49.3367 12.7361 95 ° 15 km/h 1281 m -7.6 m/s 402.70 MHz Domažlice (CZ) 0.00 km FOUND
T1330914 RS41 2021-09-27 07:17:30 49.6905 12.5112 136 ° 13 km/h 1278 m -11.2 m/s 402.70 MHz Tachov (CZ) 0.00 km UNKNOWN
T1330826 RS41 2021-09-27 01:23:00 49.8188 12.5094 123 ° 24 km/h 891 m -6.5 m/s 402.700 MHz Tachov (CZ) 0.00 km FOUND
T1330974 RS41 2021-09-26 19:25:00 49.7647 12.7595 267 ° 24 km/h 848 m -4.5 m/s 402.70 MHz Tachov (CZ) 0.00 km FOUND
T1330825 RS41 2021-09-26 13:23:30 49.8248 12.8825 240 ° 6 km/h 868 m -3.9 m/s 402.70 MHz Planá (CZ) 0.00 km FOUND
T1330866 RS41 2021-09-26 07:34:30 49.7604 13.0366 288 ° 11 km/h 578 m -5.2 m/s 402.70 MHz Stříbro (CZ) 0.00 km FOUND
T1330851 RS41 2021-09-26 01:26:00 49.6537 13.2559 246 ° 2 km/h 469 m -16.6 m/s 402.70 MHz Dobřany (CZ) 0.00 km UNKNOWN
T1330823 RS41 2021-09-25 19:31:30 49.6412 13.1198 83 ° 9 km/h 538 m -7.3 m/s 402.70 MHz Holýšov (CZ) 0.00 km FOUND
T1330975 RS41 2021-09-25 13:18:30 49.7198 13.0386 68 ° 11 km/h 626 m -6.3 m/s 402.70 MHz Stříbro (CZ) 0.00 km FOUND
T1310335 RS41 2021-09-25 07:08:00 49.3743 12.9364 44 ° 28 km/h 748 m -9.2 m/s 402.700 MHz Domažlice (CZ) 0.00 km FOUND
T1310338 RS41 2021-09-25 01:26:30 49.1941 13.1988 74 ° 33 km/h 1341 m -6.2 m/s 402.700 MHz Klatovy (CZ) 0.00 km FOUND
T1310337 RS41 2021-09-24 18:53:16 49.0901 12.8303 110 ° 35 km/h 2470 m -12.6 m/s 402.70 MHz Deggendorf (DE) 0.00 km FOUND
T1310759 RS41 2021-09-24 13:09:30 49.0026 13.0371 106 ° 43 km/h 1722 m -7.7 m/s 402.700 MHz Deggendorf (DE) 0.00 km NEED ATTENTION
T1310356 RS41 2021-09-24 07:06:15 48.7527 12.9328 115 ° 44 km/h 906 m -6.5 m/s 404.900 MHz Deggendorf (DE) 0.00 km UNKNOWN
T1251131 RS41 2021-09-24 01:10:52 48.6989 13.3443 102 ° 15 km/h 884 m -13.9 m/s 402.70 MHz Passau (DE) 0.00 km UNKNOWN
T1310342 RS41 2021-09-23 19:06:54 48.8156 13.1811 84 ° 13 km/h 1423 m -5.2 m/s 402.70 MHz Deggendorf (DE) 0.00 km UNKNOWN
T1310340 RS41 2021-09-23 12:59:25 48.8718 12.8013 45 ° 19 km/h 1066 m -9.6 m/s 402.70 MHz Deggendorf (DE) 0.00 km FOUND
T1251129 RS41 2021-09-23 07:15:57 48.6888 12.9323 356 ° 11 km/h 1033 m -9.1 m/s 402.700 MHz Deggendorf (DE) 0.00 km FOUND
T1510344 RS41 2021-09-23 00:59:02 48.7758 12.4785 130 ° 4 km/h 788 m -11.9 m/s 402.700 MHz Straubing (DE) 0.00 km FOUND
T1310339 RS41 2021-09-22 19:15:07 48.5176 12.1192 44 ° 2 km/h 536 m -6.0 m/s 402.70 MHz Landshut (DE) 0.00 km UNKNOWN
T1310597 RS41 2021-09-22 13:11:35 48.5649 12.3327 129 ° 13 km/h 625 m -10.9 m/s 404.90 MHz Landshut (DE) 0.00 km FOUND
T1310430 RS41 2021-09-22 07:10:18 48.4183 12.1842 107 ° 24 km/h 661 m -13.1 m/s 402.700 MHz Landshut (DE) 0.00 km FOUND
T1510331 RS41 2021-09-22 00:55:45 48.5502 12.1426 62 ° 9 km/h 479 m -13.5 m/s 402.700 MHz Landshut (DE) 0.00 km UNKNOWN
T1510334 RS41 2021-09-21 19:25:15 48.5118 12.3738 180 ° 22 km/h 914 m -6.7 m/s 402.70 MHz Landshut (DE) 0.00 km UNKNOWN
T1310599 RS41 2021-09-21 12:38:00 48.8643 11.9704 152 ° 13 km/h 865 m -9.2 m/s 402.70 MHz Regensburg (DE) 0.00 km UNKNOWN
T1310429 RS41 2021-09-21 07:00:45 48.9493 12.2774 179 ° 7 km/h 1331 m -8.8 m/s 402.70 MHz Regensburg (DE) 0.00 km FOUND
T1310600 RS41 2021-09-21 01:31:30 49.0225 12.1842 320 ° 6 km/h 625 m -7.6 m/s 402.700 MHz Regensburg (DE) 0.00 km FOUND
T1310598 RS41 2021-09-20 19:17:30 49.1048 12.2324 196 ° 11 km/h 1052 m -8.4 m/s 402.700 MHz Regensburg (DE) 0.00 km FOUND
T1320873 RS41 2021-09-20 13:24:23 49.2222 12.2942 211 ° 13 km/h 749 m -3.3 m/s 402.700 MHz Schwandorf (DE) 0.00 km FOUND
T1320875 RS41 2021-09-20 07:07:30 49.1982 12.2345 189 ° 20 km/h 1073 m -11.3 m/s 402.70 MHz Schwandorf (DE) 0.00 km FOUND
T1310990 RS41 2021-09-20 01:13:05 49.2904 12.2392 218 ° 15 km/h 573 m -11.9 m/s 402.700 MHz Schwandorf (DE) 0.00 km UNKNOWN
T1320874 RS41 2021-09-19 19:26:17 49.3357 12.1433 228 ° 17 km/h 454 m -5.9 m/s 402.70 MHz Schwandorf (DE) 0.00 km FOUND
T1310592 RS41 2021-09-19 13:05:25 49.3969 12.1095 206 ° 17 km/h 475 m -9.7 m/s 402.70 MHz Schwandorf (DE) 0.00 km FOUND
T1310593 RS41 2021-09-19 07:08:23 49.2129 12.2244 258 ° 22 km/h 718 m -13.1 m/s 402.70 MHz Schwandorf (DE) 0.00 km FOUND
T1310594 RS41 2021-09-19 01:25:02 49.0073 12.5062 277 ° 6 km/h 1152 m -11.7 m/s 402.70 MHz Straubing (DE) 0.00 km UNKNOWN
T1310596 RS41 2021-09-18 19:02:37 48.8804 12.5647 209 ° 17 km/h 944 m -10.2 m/s 402.70 MHz Straubing (DE) 0.00 km UNKNOWN
T1310591 RS41 2021-09-18 13:07:54 48.8694 12.8544 148 ° 15 km/h 1247 m -4.4 m/s 402.700 MHz Deggendorf (DE) 0.00 km FOUND
T1310589 RS41 2021-09-18 07:42:08 48.6037 13.15 139 ° 24 km/h 865 m -3.6 m/s 404.90 MHz Passau (DE) 0.00 km FOUND
T1310406 RS41 2021-09-18 01:24:13 48.8115 13.1283 116 ° 22 km/h 1546 m -7.2 m/s 402.700 MHz Deggendorf (DE) 0.00 km UNKNOWN
T1310404 RS41 2021-09-17 19:11:00 48.817 13.0733 175 ° 13 km/h 1384 m -10.2 m/s 402.700 MHz Deggendorf (DE) 0.00 km FOUND
T1310357 RS41 2021-09-17 13:13:17 48.9616 13.148 120 ° 26 km/h 1569 m -10.1 m/s 402.70 MHz Deggendorf (DE) 0.00 km FOUND
T1310358 RS41 2021-09-17 07:05:27 49.1702 12.9346 135 ° 22 km/h 1128 m -13.2 m/s 402.70 MHz Kdyně (CZ) 0.00 km UNKNOWN
T1320871 RS41 2021-09-17 01:25:52 49.3644 13.1761 142 ° 22 km/h 595 m -7.5 m/s 402.70 MHz Klatovy (CZ) 0.00 km UNKNOWN
T1251133 RS41 2021-09-16 19:14:06 49.4808 13.1702 139 ° 20 km/h 608 m -12.9 m/s 402.700 MHz Klatovy (CZ) 0.00 km FOUND
T1310989 RS41 2021-09-16 13:18:01 49.4992 13.0424 52 ° 15 km/h 557 m -7.5 m/s 402.70 MHz Domažlice (CZ) 0.00 km FOUND
T1310360 RS41 2021-09-16 07:21:30 49.4607 13.0305 49 ° 13 km/h 555 m -9.1 m/s 402.70 MHz Domažlice (CZ) 0.00 km FOUND
T1310355 RS41 2021-09-16 01:18:00 49.4468 12.9888 60 ° 15 km/h 562 m -16.8 m/s 402.70 MHz Domažlice (CZ) 0.00 km FOUND
T1310359 RS41 2021-09-15 19:13:53 49.6403 12.9725 54 ° 22 km/h 613 m -11.3 m/s 402.70 MHz Holýšov (CZ) 0.00 km FOUND
T1310595 RS41 2021-09-15 14:15:12 49.7744 13.5858 34 ° 4 km/h 691 m -5.1 m/s 402.70 MHz Rokycany (CZ) 0.00 km LOST
T1310590 RS41 2021-09-15 07:13:30 49.3491 12.9426 256 ° 4 km/h 539 m -6.8 m/s 402.70 MHz Kdyně (CZ) 0.00 km FOUND
T1310428 RS41 2021-09-15 01:14:30 49.2603 12.9282 61 ° 2 km/h 571 m -13.9 m/s 402.70 MHz Kdyně (CZ) 0.00 km FOUND
T1310427 RS41 2021-09-14 19:17:00 49.2448 12.7972 258 ° 9 km/h 663 m -13.2 m/s 402.70 MHz Domažlice (CZ) 0.00 km FOUND
T1311057 RS41 2021-09-14 12:55:31 49.2624 12.6525 318 ° 2 km/h 636 m -11.2 m/s 402.70 MHz Domažlice (CZ) 0.00 km FOUND
T1310431 RS41 2021-09-14 07:14:30 49.1791 12.6986 323 ° 13 km/h 798 m -6.9 m/s 402.70 MHz Domažlice (CZ) 0.00 km UNKNOWN
T1510236 RS41 2021-09-14 01:37:32 49.089 13.015 109 ° 6 km/h 1355 m -6.3 m/s 402.70 MHz Deggendorf (DE) 0.00 km FOUND
T1510235 RS41 2021-09-13 19:19:21 49.0784 12.8706 1 ° 2 km/h 1358 m -6.8 m/s 402.70 MHz Deggendorf (DE) 0.00 km FOUND
T1510425 RS41 2021-09-13 13:11:30 49.2763 12.8282 90 ° 7 km/h 558 m -7.7 m/s 402.700 MHz Domažlice (CZ) 0.00 km FOUND
T1510215 RS41 2021-09-13 07:10:00 49.1866 12.8522 134 ° 15 km/h 1307 m -14.4 m/s 402.70 MHz Kdyně (CZ) 0.00 km FOUND
T1510343 RS41 2021-09-13 01:11:30 49.1803 12.991 221 ° 6 km/h 1002 m -15.8 m/s 402.70 MHz Kdyně (CZ) 0.00 km UNKNOWN
T1510240 RS41 2021-09-12 19:21:12 49.0791 12.9804 111 ° 11 km/h 1384 m -11.1 m/s 402.70 MHz Deggendorf (DE) 0.00 km UNKNOWN
T1510227 RS41 2021-09-12 13:08:30 49.1997 12.8038 99 ° 15 km/h 828 m -5.3 m/s 402.700 MHz Kdyně (CZ) 0.00 km FOUND
T1510214 RS41 2021-09-12 07:04:55 49.0682 12.7251 90 ° 15 km/h 1461 m -15.4 m/s 402.70 MHz Straubing (DE) 0.00 km UNKNOWN
T1510239 RS41 2021-09-12 00:59:10 49.0079 12.5582 166 ° 11 km/h 1378 m -12.8 m/s 402.700 MHz Straubing (DE) 0.00 km UNKNOWN
T1510225 RS41 2021-09-11 19:31:48 49.088 12.8399 79 ° 9 km/h 1492 m -7.5 m/s 402.700 MHz Deggendorf (DE) 0.00 km FOUND
T1510426 RS41 2021-09-11 13:08:00 49.3845 12.8113 29 ° 15 km/h 777 m -13.1 m/s 402.70 MHz Domažlice (CZ) 0.00 km FOUND
T1510347 RS41 2021-09-11 07:08:30 49.3193 12.6441 77 ° 13 km/h 804 m -10.6 m/s 402.70 MHz Domažlice (CZ) 0.00 km UNKNOWN
T1510421 RS41 2021-09-11 01:02:30 49.3786 12.679 119 ° 11 km/h 720 m -16.5 m/s 402.70 MHz Domažlice (CZ) 0.00 km FOUND
T1510332 RS41 2021-09-10 19:26:30 49.464 12.65 62 ° 11 km/h 1011 m -6.3 m/s 402.70 MHz Domažlice (CZ) 0.00 km FOUND
T1510377 RS41 2021-09-10 13:03:38 49.6747 12.3801 107 ° 7 km/h 863 m -10.6 m/s 402.70 MHz Weiden in der Oberpfalz (DE) 0.00 km FOUND
T1510224 RS41 2021-09-10 07:30:37 49.6523 12.3834 69 ° 13 km/h 770 m -5.1 m/s 402.70 MHz Weiden in der Oberpfalz (DE) 0.00 km FOUND
T1510216 RS41 2021-09-10 01:41:30 49.7121 12.4182 91 ° 9 km/h 779 m -14.3 m/s 402.70 MHz Tachov (CZ) 0.00 km UNKNOWN
T1510269 RS41 2021-09-09 19:27:03 49.6371 12.1981 344 ° 15 km/h 591 m -7.2 m/s 402.70 MHz Weiden in der Oberpfalz (DE) 0.00 km FOUND
T1510333 RS41 2021-09-09 13:00:50 49.6967 11.7852 5 ° 17 km/h 715 m -8.6 m/s 402.70 MHz Sulzbach-Rosenberg (DE) 0.00 km LOST
T1510208 RS41 2021-09-09 07:11:48 49.5027 11.5815 330 ° 20 km/h 784 m -7.7 m/s 402.70 MHz Sulzbach-Rosenberg (DE) 0.00 km FOUND
T1510206 RS41 2021-09-09 01:21:00 49.5048 11.6723 38 ° 20 km/h 1035 m -12.1 m/s 402.700 MHz Sulzbach-Rosenberg (DE) 0.00 km FOUND
T1510335 RS41 2021-09-08 19:16:09 49.4592 11.5776 295 ° 26 km/h 728 m -7.2 m/s 402.700 MHz Sulzbach-Rosenberg (DE) 0.00 km FOUND
T1510207 RS41 2021-09-08 13:22:00 49.5178 11.5004 289 ° 20 km/h 986 m -10.5 m/s 404.90 MHz Lauf an der Pegnitz (DE) 0.00 km FOUND
T1510205 RS41 2021-09-08 07:10:31 49.2846 11.4221 283 ° 26 km/h 794 m -6.3 m/s 402.700 MHz Neumarkt in der Oberpfalz (DE) 0.00 km FOUND
T1510202 RS41 2021-09-08 01:21:00 49.1193 11.3797 293 ° 24 km/h 1500 m -7.2 m/s 402.70 MHz Neumarkt in der Oberpfalz (DE) 0.00 km FOUND
T1510204 RS41 2021-09-07 19:24:30 48.8547 11.3508 258 ° 9 km/h 1548 m -7.9 m/s 402.700 MHz Ingolstadt (DE) 0.00 km UNKNOWN
T1510217 RS41 2021-09-07 13:20:00 48.8559 11.639 260 ° 4 km/h 848 m -6.4 m/s 402.700 MHz Ingolstadt (DE) 0.00 km FOUND
T1510220 RS41 2021-09-07 07:13:30 48.9445 11.9867 329 ° 2 km/h 759 m -10.7 m/s 402.70 MHz Regensburg (DE) 0.00 km LOST
T1510299 RS41 2021-09-07 01:18:21 49.1145 12.319 70 ° 9 km/h 1067 m -11.7 m/s 402.70 MHz Regensburg (DE) 0.00 km FOUND
T1510210 RS41 2021-09-06 19:20:30 49.0122 12.2006 190 ° 4 km/h 1238 m -7.0 m/s 402.700 MHz Regensburg (DE) 0.00 km FOUND
T1510203 RS41 2021-09-06 13:00:31 49.1089 12.1447 46 ° 7 km/h 923 m -12.7 m/s 402.70 MHz Regensburg (DE) 0.00 km FOUND
T1510209 RS41 2021-09-06 07:23:00 49.0462 12.1272 311 ° 15 km/h 789 m -6.4 m/s 402.70 MHz Regensburg (DE) 0.00 km FOUND
S3130759 RS41 2021-09-06 01:19:12 49.0778 12.3293 337 ° 13 km/h 1007 m -5.9 m/s 402.70 MHz Regensburg (DE) 0.00 km FOUND
T1510296 RS41 2021-09-05 19:16:57 49.0197 12.4848 288 ° 9 km/h 1164 m -4.3 m/s 402.700 MHz Straubing (DE) 0.00 km UNKNOWN
S3130650 RS41 2021-09-05 13:09:46 49.1702 12.6547 240 ° 13 km/h 1623 m -6.3 m/s 402.70 MHz Straubing (DE) 0.00 km UNKNOWN
S3130758 RS41 2021-09-05 07:04:30 49.1359 12.7382 293 ° 9 km/h 1340 m -8.8 m/s 402.70 MHz Straubing (DE) 0.00 km FOUND
S3140830 RS41 2021-09-05 01:30:30 49.2681 12.8158 231 ° 22 km/h 585 m -11.5 m/s 402.70 MHz Domažlice (CZ) 0.00 km FOUND
S3130760 RS41 2021-09-04 19:27:00 49.2498 12.6845 263 ° 15 km/h 566 m -7.9 m/s 402.700 MHz Domažlice (CZ) 0.00 km FOUND
S3140252 RS41 2021-09-04 13:03:00 49.4088 12.4899 266 ° 6 km/h 1329 m -10.9 m/s 402.70 MHz Schwandorf (DE) 0.00 km FOUND
S3140875 RS41 2021-09-04 07:22:30 49.284 12.3831 353 ° 4 km/h 787 m -4.5 m/s 402.700 MHz Schwandorf (DE) 0.00 km FOUND
S3130756 RS41 2021-09-04 01:26:15 49.2718 12.3715 286 ° 15 km/h 615 m -5.2 m/s 402.700 MHz Schwandorf (DE) 0.00 km UNKNOWN
S3140832 RS41 2021-09-03 19:09:09 49.2389 12.3766 259 ° 15 km/h 709 m -14.1 m/s 402.700 MHz Schwandorf (DE) 0.00 km UNKNOWN
S3140898 RS41 2021-09-03 13:45:48 49.2793 12.2566 243 ° 2 km/h 577 m -4.5 m/s 402.700 MHz Schwandorf (DE) 0.00 km FOUND
S3140249 RS41 2021-09-03 07:13:36 49.2139 12.2785 272 ° 15 km/h 731 m -14.0 m/s 402.700 MHz Schwandorf (DE) 0.00 km FOUND
S3140329 RS41 2021-09-03 01:37:30 49.1797 12.3541 275 ° 17 km/h 1011 m -6.1 m/s 402.70 MHz Schwandorf (DE) 0.00 km FOUND
S3140900 RS41 2021-09-02 19:31:06 49.2279 12.1895 278 ° 30 km/h 675 m -8.1 m/s 402.70 MHz Schwandorf (DE) 0.00 km FOUND
S3140899 RS41 2021-09-02 12:54:15 49.306 12.1177 295 ° 19 km/h 604 m -13.6 m/s 402.70 MHz Schwandorf (DE) 0.00 km FOUND
S3140250 RS41 2021-09-02 07:02:33 49.1268 12.1731 297 ° 20 km/h 971 m -11.0 m/s 402.70 MHz Regensburg (DE) 0.00 km UNKNOWN
S3140333 RS41 2021-09-02 01:19:33 49.0148 12.3127 268 ° 17 km/h 999 m -11.7 m/s 402.700 MHz Regensburg (DE) 0.00 km LOST
S3131321 RS41 2021-09-01 19:05:30 48.9738 12.0486 197 ° 11 km/h 715 m -9.8 m/s 402.70 MHz Regensburg (DE) 0.00 km LOST
S3140834 RS41 2021-09-01 13:20:00 49.0367 11.7093 208 ° 9 km/h 668 m -6.2 m/s 402.70 MHz Regensburg (DE) 0.00 km FOUND
S3131323 RS41 2021-09-01 07:16:54 48.9133 11.7133 208 ° 17 km/h 633 m -8.6 m/s 402.700 MHz Ingolstadt (DE) 0.00 km NEED ATTENTION
S3140833 RS41 2021-09-01 01:47:20 48.9186 11.667 148 ° 15 km/h 513 m -4.2 m/s 402.700 MHz Ingolstadt (DE) 0.00 km FOUND
S3140248 RS41 2021-08-31 19:14:30 49.0167 11.8678 115 ° 17 km/h 574 m -9.8 m/s 402.70 MHz Regensburg (DE) 0.00 km FOUND
S3131281 RS41 2021-08-31 13:02:00 49.0869 11.766 133 ° 22 km/h 620 m -12.4 m/s 402.700 MHz Regensburg (DE) 0.00 km FOUND
S3131279 RS41 2021-08-31 07:18:30 49.0642 11.7796 153 ° 17 km/h 599 m -7.4 m/s 402.700 MHz Regensburg (DE) 0.00 km FOUND
S3131635 RS41 2021-08-31 01:33:30 49.0728 11.9758 122 ° 19 km/h 552 m -8.8 m/s 402.700 MHz Regensburg (DE) 0.00 km FOUND
S3131069 RS41 2021-08-30 19:37:00 49.0538 12.066 136 ° 26 km/h 741 m -5.1 m/s 402.70 MHz Regensburg (DE) 0.00 km FOUND
S3131074 RS41 2021-08-30 13:16:51 49.2098 11.5721 152 ° 7 km/h 1065 m -9.8 m/s 402.700 MHz Neumarkt in der Oberpfalz (DE) 0.00 km FOUND
S3140251 RS41 2021-08-30 07:36:38 49.1818 11.6689 244 ° 19 km/h 994 m -4.4 m/s 402.70 MHz Neumarkt in der Oberpfalz (DE) 0.00 km FOUND
S3131655 RS41 2021-08-30 01:45:30 48.9768 11.9787 327 ° 9 km/h 700 m -6.2 m/s 402.70 MHz Regensburg (DE) 0.00 km LOST
S3131652 RS41 2021-08-29 19:06:30 49.0333 11.7342 46 ° 11 km/h 694 m -16.0 m/s 402.70 MHz Regensburg (DE) 0.00 km FOUND
S3131656 RS41 2021-08-29 13:37:30 48.9932 11.8226 75 ° 15 km/h 614 m -6.2 m/s 402.70 MHz Regensburg (DE) 0.00 km FOUND
S3131070 RS41 2021-08-29 07:03:30 49 11.673 120 ° 19 km/h 748 m -13.0 m/s 402.70 MHz Regensburg (DE) 0.00 km FOUND
S3131072 RS41 2021-08-29 02:12:00 48.8384 11.6911 132 ° 22 km/h 764 m -6.2 m/s 404.90 MHz Ingolstadt (DE) 0.00 km FOUND
S3140871 RS41 2021-08-28 19:27:00 48.9821 11.9024 117 ° 7 km/h 593 m -4.0 m/s 402.70 MHz Regensburg (DE) 0.00 km NEED ATTENTION
S3131073 RS41 2021-08-28 13:27:15 49.2426 12.1045 146 ° 7 km/h 681 m -4.2 m/s 402.70 MHz Schwandorf (DE) 0.00 km LOST
S3131214 RS41 2021-08-28 07:18:30 49.1495 12.1417 169 ° 15 km/h 872 m -10.3 m/s 402.70 MHz Regensburg (DE) 0.00 km FOUND
S3131326 RS41 2021-08-28 01:33:57 49.2141 12.5677 123 ° 24 km/h 1779 m -10.9 m/s 402.70 MHz Schwandorf (DE) 0.00 km UNKNOWN
S3140836 RS41 2021-08-27 19:26:30 49.1208 12.5741 88 ° 37 km/h 881 m -12.1 m/s 402.700 MHz Straubing (DE) 0.00 km UNKNOWN
S3140874 RS41 2021-08-27 13:24:30 49.1234 12.5989 103 ° 28 km/h 978 m -4.9 m/s 402.70 MHz Straubing (DE) 0.00 km FOUND
S3110297 RS41 2021-08-27 07:03:55 49.081 12.3438 125 ° 26 km/h 1127 m -10.3 m/s 402.70 MHz Regensburg (DE) 0.00 km UNKNOWN
S3140873 RS41 2021-08-27 01:25:02 48.9938 12.7762 122 ° 30 km/h 1310 m -5.1 m/s 402.70 MHz Straubing (DE) 0.00 km UNKNOWN
S3131071 RS41 2021-08-26 19:37:43 48.9405 12.8377 162 ° 31 km/h 1279 m -5.0 m/s 402.70 MHz Deggendorf (DE) 0.00 km UNKNOWN
S3131601 RS41 2021-08-26 13:09:24 49.0907 13.0679 119 ° 22 km/h 1403 m -10.1 m/s 402.70 MHz Deggendorf (DE) 0.00 km UNKNOWN
S3131108 RS41 2021-08-26 07:37:18 48.9206 13.1925 86 ° 43 km/h 1451 m -4.7 m/s 402.70 MHz Deggendorf (DE) 0.00 km UNKNOWN
S3120628 RS41 2021-08-26 01:24:59 48.9843 12.1212 99 ° 30 km/h 721 m -14.6 m/s 402.70 MHz Regensburg (DE) 0.00 km FOUND
S3050384 RS41 2021-08-25 19:25:24 48.9658 11.6342 63 ° 19 km/h 657 m -11.6 m/s 402.70 MHz Ingolstadt (DE) 0.00 km FOUND
S3140837 RS41 2021-08-25 13:06:30 49.1016 11.3445 297 ° 11 km/h 1572 m -13.2 m/s 402.70 MHz Neumarkt in der Oberpfalz (DE) 0.00 km UNKNOWN
S3140872 RS41 2021-08-25 06:58:00 49.0262 11.2104 254 ° 19 km/h 1656 m -12.6 m/s 402.70 MHz Roth bei Nürnberg (DE) 0.00 km UNKNOWN
S3050383 RS41 2021-08-25 01:31:28 49.1301 11.3943 282 ° 35 km/h 1104 m -4.7 m/s 402.700 MHz Neumarkt in der Oberpfalz (DE) 0.00 km UNKNOWN
S3050368 RS41 2021-08-24 19:17:33 49.1618 11.4576 265 ° 43 km/h 1081 m -7.8 m/s 402.70 MHz Neumarkt in der Oberpfalz (DE) 0.00 km FOUND
S3120625 RS41 2021-08-24 12:46:51 49.2269 11.5949 224 ° 24 km/h 1067 m -14.5 m/s 402.70 MHz Neumarkt in der Oberpfalz (DE) 0.00 km NEED ATTENTION
S3050379 RS41 2021-08-24 07:28:01 49.0845 11.5439 208 ° 26 km/h 827 m -5.3 m/s 402.70 MHz Neumarkt in der Oberpfalz (DE) 0.00 km UNKNOWN
S3120626 RS41 2021-08-24 01:31:15 48.9662 11.7693 199 ° 28 km/h 634 m -4.8 m/s 402.70 MHz Regensburg (DE) 0.00 km LOST
S3050380 RS41 2021-08-23 19:24:00 48.9691 11.9333 177 ° 19 km/h 588 m -7.6 m/s 402.70 MHz Regensburg (DE) 0.00 km FOUND
S3130653 RS41 2021-08-23 13:26:00 49.1409 12.1339 121 ° 39 km/h 1155 m -11.4 m/s 402.70 MHz Regensburg (DE) 0.00 km FOUND
S3130652 RS41 2021-08-23 07:16:00 49.3084 12.3712 80 ° 28 km/h 1048 m -12.9 m/s 402.70 MHz Schwandorf (DE) 0.00 km FOUND
S3130651 RS41 2021-08-23 01:18:35 49.5564 12.8765 74 ° 19 km/h 679 m -13.4 m/s 402.700 MHz Domažlice (CZ) 0.00 km FOUND
S3110299 RS41 2021-08-22 19:34:56 49.6953 13.2693 77 ° 13 km/h 402 m -6.9 m/s 402.70 MHz Nýřany (CZ) 0.00 km FOUND
S3140001 RS41 2021-08-22 13:30:44 49.6419 12.9838 85 ° 11 km/h 601 m -10.5 m/s 402.70 MHz Holýšov (CZ) 0.00 km FOUND
S3110296 RS41 2021-08-22 07:30:47 49.5596 12.767 102 ° 7 km/h 844 m -6.8 m/s 402.70 MHz Domažlice (CZ) 0.00 km FOUND
S3120627 RS41 2021-08-22 01:37:19 49.6031 12.6483 30 ° 26 km/h 873 m -4.5 m/s 402.70 MHz Tachov (CZ) 0.00 km FOUND
S3050382 RS41 2021-08-21 19:18:30 49.2886 12.6828 310 ° 7 km/h 579 m -5.8 m/s 402.70 MHz Domažlice (CZ) 0.00 km FOUND
S3050375 RS41 2021-08-21 13:18:30 49.4432 12.6475 70 ° 7 km/h 885 m -5.2 m/s 402.70 MHz Domažlice (CZ) 0.00 km UNKNOWN
S3050248 RS41 2021-08-21 07:19:00 49.2255 12.5905 287 ° 6 km/h 728 m -14.2 m/s 402.700 MHz Domažlice (CZ) 0.00 km FOUND
S3130762 RS41 2021-08-21 01:33:00 49.3129 12.6994 9 ° 2 km/h 831 m -15.3 m/s 402.70 MHz Domažlice (CZ) 0.00 km UNKNOWN
S3130761 RS41 2021-08-20 19:18:40 49.4056 12.6169 126 ° 22 km/h 1930 m -12.7 m/s 402.70 MHz Domažlice (CZ) 0.00 km UNKNOWN
S3131705 RS41 2021-08-20 13:04:31 49.5619 12.7939 118 ° 20 km/h 831 m -11.8 m/s 402.70 MHz Domažlice (CZ) 0.00 km FOUND
S3130757 RS41 2021-08-20 07:20:00 49.6919 12.8308 77 ° 20 km/h 1217 m -14.2 m/s 402.700 MHz Stříbro (CZ) 0.00 km FOUND
S3130746 RS41 2021-08-20 01:18:00 49.5599 12.8912 61 ° 13 km/h 661 m -13.2 m/s 402.70 MHz Domažlice (CZ) 0.00 km UNKNOWN
S3050371 RS41 2021-08-19 19:15:30 49.3906 12.8925 68 ° 17 km/h 655 m -10.7 m/s 402.70 MHz Domažlice (CZ) 0.00 km UNKNOWN
S3110298 RS41 2021-08-19 13:26:01 49.4483 12.9705 48 ° 11 km/h 500 m -7.9 m/s 402.70 MHz Domažlice (CZ) 0.00 km FOUND
S3050372 RS41 2021-08-19 07:32:30 49.3695 12.8342 309 ° 2 km/h 706 m -2.5 m/s 402.700 MHz Domažlice (CZ) 0.00 km FOUND
S3110295 RS41 2021-08-19 01:20:00 49.3872 12.6241 72 ° 26 km/h 724 m -12.8 m/s 402.700 MHz Domažlice (CZ) 0.00 km UNKNOWN
S3110324 RS41 2021-08-18 19:18:30 49.0338 12.462 114 ° 35 km/h 1554 m -9.4 m/s 402.70 MHz Straubing (DE) 0.00 km UNKNOWN
S3140002 RS41 2021-08-18 13:01:14 48.8981 12.4914 95 ° 35 km/h 2173 m -10.4 m/s 402.70 MHz Straubing (DE) 0.00 km FOUND
S3110323 RS41 2021-08-18 07:13:38 48.6546 12.605 104 ° 41 km/h 1397 m -13.0 m/s 402.700 MHz Straubing (DE) 0.00 km FOUND
S3130942 RS41 2021-08-18 01:31:40 48.9475 12.9968 106 ° 56 km/h 1670 m -10.8 m/s 402.70 MHz Deggendorf (DE) 0.00 km UNKNOWN
S3130954 RS41 2021-08-17 19:12:31 49.2708 13.093 63 ° 20 km/h 716 m -7.1 m/s 402.70 MHz Kdyně (CZ) 0.00 km UNKNOWN
S3131737 RS41 2021-08-17 13:16:31 49.2364 13.2747 77 ° 44 km/h 949 m -12.7 m/s 402.70 MHz Klatovy (CZ) 0.00 km UNKNOWN
S3131738 RS41 2021-08-17 06:58:30 49.4283 12.836 73 ° 9 km/h 537 m -6.1 m/s 402.700 MHz Domažlice (CZ) 0.00 km UNKNOWN
S3131748 RS41 2021-08-17 01:33:41 49.8858 13.3571 100 ° 28 km/h 757 m -5.9 m/s 402.70 MHz Třemošná (CZ) 0.00 km UNKNOWN
T1320677 RS41 2021-08-16 19:24:36 49.908 13.2395 73 ° 20 km/h 592 m -6.0 m/s 402.701 MHz Třemošná (CZ) 0.00 km UNKNOWN
S3130926 RS41 2021-08-16 13:20:21 49.9149 13.2592 87 ° 39 km/h 1003 m -7.6 m/s 402.70 MHz Třemošná (CZ) 0.00 km UNKNOWN
S3130927 RS41 2021-08-16 07:32:15 49.6554 13.561 64 ° 19 km/h 699 m -9.0 m/s 402.701 MHz Starý Plzenec (CZ) 0.00 km UNKNOWN
S3131713 RS41 2021-08-16 01:31:04 49.6048 13.3431 44 ° 9 km/h 429 m -9.2 m/s 402.701 MHz Přeštice (CZ) 0.00 km UNKNOWN
S3131750 RS41 2021-08-15 19:35:50 49.6624 12.8817 37 ° 7 km/h 597 m -7.6 m/s 402.701 MHz Stříbro (CZ) 0.00 km FOUND
S3131741 RS41 2021-08-15 12:56:30 49.5152 12.9114 85 ° 17 km/h 638 m -12.5 m/s 402.70 MHz Domažlice (CZ) 0.00 km FOUND
S3131732 RS41 2021-08-15 07:26:30 49.4376 13.0122 31 ° 7 km/h 559 m -6.0 m/s 402.701 MHz Kdyně (CZ) 0.00 km FOUND
S3131711 RS41 2021-08-15 01:24:30 49.333 12.8982 77 ° 2 km/h 496 m -8.2 m/s 402.70 MHz Kdyně (CZ) 0.00 km FOUND
S3131718 RS41 2021-08-14 19:05:00 49.2337 12.8763 0 ° 7 km/h 746 m -13.2 m/s 402.70 MHz Kdyně (CZ) 0.00 km FOUND
S3130925 RS41 2021-08-14 13:16:00 49.3734 12.7802 58 ° 13 km/h 1027 m -9.5 m/s 402.70 MHz Domažlice (CZ) 0.00 km FOUND
D18050911 DFM 2021-08-14 10:32:30 49.2962 13.597 105 ° 13 km/h 1374 m -3.2 m/s 403.250 MHz Horažďovice (CZ) 0.00 km UNKNOWN
S3110300 RS41 2021-08-14 07:05:00 49.2181 12.7316 53 ° 7 km/h 606 m -6.3 m/s 402.700 MHz Domažlice (CZ) 0.00 km UNKNOWN
S3131722 RS41 2021-08-14 01:27:46 49.122 12.7744 94 ° 22 km/h 1359 m -14.7 m/s 402.70 MHz Straubing (DE) 0.00 km UNKNOWN
S3130342 RS41 2021-08-13 19:26:28 49.0511 12.7557 108 ° 19 km/h 1241 m -13.5 m/s 402.70 MHz Straubing (DE) 0.00 km UNKNOWN
S3140626 RS41 2021-08-13 13:12:30 49.1749 12.5988 25 ° 6 km/h 799 m -4.8 m/s 402.701 MHz Straubing (DE) 0.00 km FOUND
D18050631 DFM 2021-08-13 10:33:30 49.1565 12.9632 114 ° 19 km/h 1172 m -11.8 m/s 403.249 MHz Kdyně (CZ) 0.00 km UNKNOWN
S3140005 RS41 2021-08-13 07:29:00 49.2996 12.7088 7 ° 6 km/h 743 m -10.1 m/s 402.701 MHz Domažlice (CZ) 0.00 km UNKNOWN
S3210815 RS41 2021-08-13 01:50:00 49.4329 13.297 15 ° 4 km/h 877 m -5.9 m/s 402.70 MHz Klatovy (CZ) 0.00 km UNKNOWN
S3131735 RS41 2021-08-12 19:19:30 49.3134 12.7154 278 ° 17 km/h 917 m -12.6 m/s 402.70 MHz Domažlice (CZ) 0.00 km NEED ATTENTION
S3131740 RS41 2021-08-12 13:10:00 49.308 12.7457 284 ° 7 km/h 559 m -7.8 m/s 402.70 MHz Domažlice (CZ) 0.00 km FOUND
S3131720 RS41 2021-08-12 07:20:00 49.215 12.5919 269 ° 15 km/h 695 m -10.1 m/s 402.700 MHz Domažlice (CZ) 0.00 km UNKNOWN
S3131747 RS41 2021-08-12 01:20:31 49.064 12.9221 56 ° 9 km/h 1392 m -14.8 m/s 402.700 MHz Deggendorf (DE) 0.00 km FOUND
S3131717 RS41 2021-08-11 19:30:16 49.0177 12.9644 104 ° 13 km/h 1563 m -8.0 m/s 402.700 MHz Deggendorf (DE) 0.00 km UNKNOWN
S3050381 RS41 2021-08-11 13:09:36 49.1162 12.8982 120 ° 6 km/h 1476 m -7.8 m/s 402.700 MHz Deggendorf (DE) 0.00 km UNKNOWN
S3131721 RS41 2021-08-11 06:55:23 49.0794 12.9581 100 ° 20 km/h 1450 m -8.9 m/s 402.700 MHz Deggendorf (DE) 0.00 km FOUND
S3131734 RS41 2021-08-11 01:28:29 49.2932 13.3577 86 ° 19 km/h 817 m -7.8 m/s 402.70 MHz Klatovy (CZ) 0.00 km UNKNOWN
S3131024 RS41 2021-08-10 19:14:14 49.4104 13.2295 83 ° 13 km/h 565 m -14.1 m/s 402.70 MHz Klatovy (CZ) 0.00 km UNKNOWN
S3140004 RS41 2021-08-10 13:16:16 49.6047 13.4544 82 ° 22 km/h 643 m -11.9 m/s 402.70 MHz Přeštice (CZ) 0.00 km UNKNOWN
S3131731 RS41 2021-08-10 07:33:05 49.678 13.3484 43 ° 4 km/h 545 m -7.2 m/s 402.701 MHz Dobřany (CZ) 0.00 km UNKNOWN
S3131020 RS41 2021-08-10 01:28:27 49.6394 13.3118 8 ° 13 km/h 591 m -13.0 m/s 402.70 MHz Dobřany (CZ) 0.00 km FOUND
S3131021 RS41 2021-08-09 19:21:31 49.838 13.3266 54 ° 24 km/h 918 m -8.8 m/s 402.70 MHz Třemošná (CZ) 0.00 km UNKNOWN
S3130731 RS41 2021-08-09 13:14:00 49.8831 13.089 70 ° 9 km/h 710 m -6.3 m/s 402.70 MHz Stříbro (CZ) 0.00 km UNKNOWN
S3131018 RS41 2021-08-09 07:09:00 49.8284 12.8885 271 ° 6 km/h 663 m -13.1 m/s 402.700 MHz Planá (CZ) 0.00 km UNKNOWN
S3131025 RS41 2021-08-09 01:22:17 49.7481 13.2224 52 ° 20 km/h 588 m -8.1 m/s 402.700 MHz Nýřany (CZ) 0.00 km FOUND
S3130730 RS41 2021-08-08 19:11:52 50.0421 12.8556 36 ° 22 km/h 870 m -8.5 m/s 402.70 MHz Horní Slavkov (CZ) 0.00 km UNKNOWN
S3131739 RS41 2021-08-08 13:19:00 50.2728 13.0026 81 ° 20 km/h 778 m -9.7 m/s 402.700 MHz Ostrov (CZ) 0.00 km UNKNOWN
S3130732 RS41 2021-08-08 06:51:30 50.137 12.9199 68 ° 44 km/h 1018 m -12.3 m/s 402.700 MHz Horní Slavkov (CZ) 0.00 km FOUND
T1320686 RS41 2021-08-08 01:03:30 50.2818 12.6774 52 ° 31 km/h 788 m -13.6 m/s 402.70 MHz Nejdek (CZ) 0.00 km FOUND
T1320676 RS41 2021-08-07 19:38:30 50.3018 12.9641 38 ° 13 km/h 770 m -7.8 m/s 402.70 MHz Ostrov (CZ) 0.00 km UNKNOWN
S3131026 RS41 2021-08-07 13:19:39 50.055 13.1016 23 ° 17 km/h 904 m -7.4 m/s 402.70 MHz Horní Slavkov (CZ) 0.00 km UNKNOWN
S3131023 RS41 2021-08-07 07:17:41 49.6754 13.0913 319 ° 9 km/h 571 m -13.1 m/s 402.700 MHz Holýšov (CZ) 0.00 km FOUND
S3131730 RS41 2021-08-07 01:33:05 49.444 13.5502 77 ° 24 km/h 686 m -5.4 m/s 402.70 MHz Horažďovice (CZ) 0.00 km UNKNOWN
S3210721 RS41 2021-08-06 19:04:52 49.1308 13.2842 77 ° 26 km/h 1300 m -8.8 m/s 402.70 MHz Sušice (CZ) 0.00 km UNKNOWN
S3131729 RS41 2021-08-06 13:03:00 49.3499 12.6912 61 ° 43 km/h 965 m -13.7 m/s 402.700 MHz Domažlice (CZ) 0.00 km UNKNOWN
S3131022 RS41 2021-08-06 07:08:00 49.374 12.5433 102 ° 7 km/h 792 m -7.0 m/s 402.70 MHz Domažlice (CZ) 0.00 km UNKNOWN
S3210816 RS41 2021-08-06 01:53:30 49.3155 12.7247 44 ° 11 km/h 668 m -3.5 m/s 402.70 MHz Domažlice (CZ) 0.00 km UNKNOWN
S3210869 RS41 2021-08-05 19:13:15 49.3699 12.417 103 ° 11 km/h 1171 m -11.2 m/s 402.700 MHz Schwandorf (DE) 0.00 km NEED ATTENTION
S3131736 RS41 2021-08-05 13:18:00 49.6463 12.214 74 ° 4 km/h 630 m -12.1 m/s 402.70 MHz Weiden in der Oberpfalz (DE) 0.00 km UNKNOWN
S3131733 RS41 2021-08-05 07:40:00 49.7812 12.1068 145 ° 7 km/h 610 m -4.8 m/s 402.700 MHz Weiden in der Oberpfalz (DE) 0.00 km FOUND
S3210870 RS41 2021-08-05 01:22:21 49.8999 12.3383 196 ° 2 km/h 696 m -9.1 m/s 402.700 MHz Cheb (CZ) 0.00 km FOUND
S3210737 RS41 2021-08-04 19:12:00 49.8513 12.4359 84 ° 4 km/h 808 m -12.5 m/s 402.70 MHz Tachov (CZ) 0.00 km UNKNOWN
S3210861 RS41 2021-08-04 13:40:22 49.9008 13.1347 39 ° 9 km/h 753 m -5.5 m/s 402.70 MHz Stříbro (CZ) 0.00 km UNKNOWN
S3210862 RS41 2021-08-04 07:12:58 49.6798 12.9578 85 ° 17 km/h 582 m -11.1 m/s 402.700 MHz Stříbro (CZ) 0.00 km UNKNOWN
T1320689 RS41 2021-08-04 01:12:03 49.7028 12.8041 60 ° 33 km/h 744 m -12.0 m/s 402.700 MHz Stříbro (CZ) 0.00 km LOST
T1320723 RS41 2021-08-03 19:15:00 49.6523 13.1456 154 ° 2 km/h 531 m -5.4 m/s 402.700 MHz Holýšov (CZ) 0.00 km FOUND
S3210866 RS41 2021-08-03 13:01:21 49.7595 12.4166 18 ° 11 km/h 925 m -10.5 m/s 402.70 MHz Tachov (CZ) 0.00 km UNKNOWN
S3210728 RS41 2021-08-03 06:46:00 49.5965 12.3239 18 ° 11 km/h 782 m -13.1 m/s 402.700 MHz Weiden in der Oberpfalz (DE) 0.00 km UNKNOWN
T1320721 RS41 2021-08-03 01:21:24 49.6502 12.4333 67 ° 26 km/h 1109 m -11.5 m/s 402.700 MHz Weiden in der Oberpfalz (DE) 0.00 km UNKNOWN
S3210806 RS41 2021-08-02 19:31:30 49.6028 12.289 95 ° 7 km/h 647 m -6.9 m/s 402.700 MHz Weiden in der Oberpfalz (DE) 0.00 km UNKNOWN
S3210824 RS41 2021-08-02 07:19:30 49.6633 12.4275 96 ° 22 km/h 960 m -10.0 m/s 402.700 MHz Weiden in der Oberpfalz (DE) 0.00 km UNKNOWN
S3210726 RS41 2021-08-02 01:24:30 49.7728 12.3204 62 ° 19 km/h 680 m -6.6 m/s 402.70 MHz Weiden in der Oberpfalz (DE) 0.00 km FOUND
S3210864 RS41 2021-08-01 19:05:30 49.9452 12.3901 35 ° 15 km/h 777 m -10.0 m/s 402.70 MHz Cheb (CZ) 0.00 km FOUND
S3210722 RS41 2021-08-01 13:08:10 50.0376 12.4844 104 ° 11 km/h 599 m -7.7 m/s 402.70 MHz Cheb (CZ) 0.00 km UNKNOWN
S3210846 RS41 2021-08-01 08:18:30 50.3865 12.3986 12 ° 2 km/h 889 m -11.3 m/s 402.70 MHz Kraslice (CZ) 0.00 km FOUND
S3210828 RS41 2021-08-01 01:49:30 50.3626 12.9709 143 ° 13 km/h 954 m -6.9 m/s 402.70 MHz Ostrov (CZ) 0.00 km UNKNOWN
S3130392 RS41 2021-07-31 19:17:16 50.0788 13.2522 85 ° 28 km/h 815 m -12.0 m/s 402.70 MHz Podbořany (CZ) 0.00 km UNKNOWN
S3210823 RS41 2021-07-31 13:02:24 50.0467 12.99 72 ° 35 km/h 1041 m -13.4 m/s 404.900 MHz Horní Slavkov (CZ) 0.00 km FOUND
S3210827 RS41 2021-07-31 07:10:20 49.9825 12.9116 85 ° 20 km/h 789 m -10.6 m/s 402.700 MHz Mariánské Lázně (CZ) 0.00 km UNKNOWN
T1320724 RS41 2021-07-31 01:26:25 50.0202 13.0914 86 ° 35 km/h 894 m -3.5 m/s 402.70 MHz Horní Slavkov (CZ) 0.00 km UNKNOWN
T1320722 RS41 2021-07-30 19:22:50 49.763 13.0451 86 ° 15 km/h 572 m -7.0 m/s 402.70 MHz Stříbro (CZ) 0.00 km UNKNOWN
T1320690 RS41 2021-07-30 13:10:30 49.6544 12.9569 81 ° 22 km/h 606 m -11.9 m/s 402.700 MHz Stříbro (CZ) 0.00 km FOUND
T1320385 RS41 2021-07-30 07:12:13 49.5819 12.9328 356 ° 7 km/h 660 m -14.5 m/s 402.70 MHz Holýšov (CZ) 0.00 km FOUND
S3210812 RS41 2021-07-30 01:26:51 49.7609 13.13 100 ° 6 km/h 574 m -6.9 m/s 402.700 MHz Nýřany (CZ) 0.00 km UNKNOWN
S3210813 RS41 2021-07-29 19:28:18 49.7212 13.3199 115 ° 30 km/h 597 m -4.0 m/s 402.70 MHz Plzeň (CZ) 0.00 km FOUND
T1320678 RS41 2021-07-29 13:26:21 49.8085 13.2969 51 ° 35 km/h 713 m -6.0 m/s 402.70 MHz Třemošná (CZ) 0.00 km UNKNOWN
T1320673 RS41 2021-07-29 07:18:52 49.6714 12.8426 64 ° 15 km/h 581 m -10.2 m/s 402.700 MHz Stříbro (CZ) 0.00 km FOUND
S3210863 RS41 2021-07-29 01:29:53 49.7508 13.2246 68 ° 33 km/h 519 m -3.8 m/s 402.700 MHz Nýřany (CZ) 0.00 km FOUND
S3210805 RS41 2021-07-28 19:19:28 49.5822 12.6894 50 ° 37 km/h 860 m -7.5 m/s 402.70 MHz Domažlice (CZ) 0.00 km FOUND
T1320674 RS41 2021-07-28 13:16:00 50.1999 12.8729 72 ° 28 km/h 888 m -7.1 m/s 402.70 MHz Karlovy Vary (CZ) 0.00 km UNKNOWN
S3210860 RS41 2021-07-28 07:18:26 50.0142 12.6628 76 ° 17 km/h 960 m -13.5 m/s 402.70 MHz Mariánské Lázně (CZ) 0.00 km FOUND
T1320685 RS41 2021-07-28 01:27:30 50.2183 12.9809 51 ° 37 km/h 1017 m -5.5 m/s 402.700 MHz Karlovy Vary (CZ) 0.00 km UNKNOWN
T1320725 RS41 2021-07-27 19:16:50 49.8544 12.5083 56 ° 13 km/h 824 m -7.2 m/s 402.70 MHz Tachov (CZ) 0.00 km UNKNOWN
T1320675 RS41 2021-07-27 12:51:09 49.7902 12.5267 77 ° 15 km/h 827 m -11.4 m/s 402.700 MHz Tachov (CZ) 0.00 km FOUND
S3210814 RS41 2021-07-27 06:57:00 49.8638 12.2677 331 ° 15 km/h 634 m -12.1 m/s 402.700 MHz Weiden in der Oberpfalz (DE) 0.00 km FOUND
S3210825 RS41 2021-07-27 01:30:00 50.2629 12.7366 56 ° 24 km/h 703 m -4.5 m/s 402.70 MHz Chodov (CZ) 0.00 km UNKNOWN
S3210826 RS41 2021-07-26 19:13:05 49.8518 12.0224 313 ° 4 km/h 697 m -14.6 m/s 402.700 MHz Weiden in der Oberpfalz (DE) 0.00 km FOUND
S3210663 RS41 2021-07-26 13:09:00 50.0548 11.8407 39 ° 6 km/h 1118 m -16.2 m/s 402.70 MHz Bayreuth (DE) 0.00 km FOUND
S3210639 RS41 2021-07-26 07:14:00 49.939 11.9769 12 ° 7 km/h 643 m -7.4 m/s 402.70 MHz Bayreuth (DE) 0.00 km FOUND
T1320726 RS41 2021-07-26 01:09:00 49.7668 12.064 108 ° 22 km/h 616 m -13.3 m/s 402.700 MHz Weiden in der Oberpfalz (DE) 0.00 km UNKNOWN
T1320688 RS41 2021-07-25 19:19:00 49.9435 11.956 143 ° 15 km/h 705 m -9.7 m/s 402.700 MHz Bayreuth (DE) 0.00 km FOUND
T1320067 RS41 2021-07-25 13:06:06 49.9706 12.1198 6 ° 4 km/h 766 m -10.7 m/s 402.700 MHz Cheb (CZ) 0.00 km FOUND
T1320742 RS41 2021-07-25 07:28:30 49.8843 11.9798 352 ° 9 km/h 693 m -4.3 m/s 402.70 MHz Weiden in der Oberpfalz (DE) 0.00 km NEED ATTENTION
S3210648 RS41 2021-07-25 01:26:00 49.9104 11.8323 84 ° 19 km/h 691 m -11.1 m/s 402.70 MHz Bayreuth (DE) 0.00 km FOUND
S3210638 RS41 2021-07-24 19:22:38 49.7768 11.9335 323 ° 17 km/h 603 m -12.7 m/s 402.70 MHz Weiden in der Oberpfalz (DE) 0.00 km FOUND
S3210811 RS41 2021-07-24 13:11:39 49.719 12.1549 277 ° 11 km/h 532 m -11.8 m/s 402.70 MHz Weiden in der Oberpfalz (DE) 0.00 km FOUND
S3210637 RS41 2021-07-24 07:34:00 49.3871 12.1883 335 ° 2 km/h 554 m -6.0 m/s 402.70 MHz Schwandorf (DE) 0.00 km FOUND
S3210660 RS41 2021-07-24 01:24:45 49.2837 12.2822 304 ° 19 km/h 575 m -5.0 m/s 402.70 MHz Schwandorf (DE) 0.00 km FOUND
S3210647 RS41 2021-07-23 19:25:35 49.2229 12.2188 311 ° 9 km/h 771 m -4.7 m/s 402.70 MHz Schwandorf (DE) 0.00 km FOUND
S3210841 RS41 2021-07-23 13:06:35 49.3345 12.0258 292 ° 7 km/h 561 m -13.5 m/s 402.70 MHz Schwandorf (DE) 0.00 km FOUND
S3210844 RS41 2021-07-23 07:12:55 49.2322 11.7255 226 ° 6 km/h 1199 m -11.1 m/s 402.70 MHz Neumarkt in der Oberpfalz (DE) 0.00 km LOST
S3130671 RS41 2021-07-23 01:19:20 49.3749 11.6852 94 ° 11 km/h 1045 m -14.3 m/s 402.70 MHz Sulzbach-Rosenberg (DE) 0.00 km FOUND
S3210845 RS41 2021-07-22 18:57:00 49.4211 11.9402 127 ° 9 km/h 757 m -8.3 m/s 402.70 MHz Amberg (DE) 0.00 km FOUND
S3140189 RS41 2021-07-22 12:57:35 49.4983 11.925 351 ° 19 km/h 768 m -10.9 m/s 402.70 MHz Amberg (DE) 0.00 km FOUND
S3140199 RS41 2021-07-22 06:50:30 49.391 11.894 324 ° 19 km/h 753 m -10.5 m/s 404.900 MHz Amberg (DE) 0.00 km FOUND
S3210820 RS41 2021-07-22 01:17:25 49.3774 11.8894 292 ° 19 km/h 872 m -7.0 m/s 402.70 MHz Amberg (DE) 0.00 km FOUND
S3210818 RS41 2021-07-21 19:00:55 49.3503 12.0505 221 ° 15 km/h 527 m -9.2 m/s 402.701 MHz Schwandorf (DE) 0.00 km FOUND
S3210878 RS41 2021-07-21 13:11:09 49.3927 12.0268 194 ° 6 km/h 492 m -8.0 m/s 402.700 MHz Schwandorf (DE) 0.00 km FOUND
S3210819 RS41 2021-07-21 07:20:35 49.228 12.275 275 ° 13 km/h 754 m -8.3 m/s 404.90 MHz Schwandorf (DE) 0.00 km FOUND
S3210809 RS41 2021-07-21 01:43:20 49.0344 12.3009 323 ° 7 km/h 912 m -5.9 m/s 402.70 MHz Regensburg (DE) 0.00 km UNKNOWN
S3210810 RS41 2021-07-20 19:23:30 48.9694 12.2561 157 ° 17 km/h 1118 m -6.0 m/s 402.70 MHz Regensburg (DE) 0.00 km UNKNOWN
S3120722 RS41 2021-07-20 12:44:31 49.118 12.3473 162 ° 13 km/h 1175 m -10.0 m/s 402.70 MHz Regensburg (DE) 0.00 km FOUND
S3210829 RS41 2021-07-20 07:16:07 49.0126 12.2435 248 ° 4 km/h 1022 m -13.0 m/s 402.700 MHz Regensburg (DE) 0.00 km FOUND
S3131697 RS41 2021-07-20 01:34:00 49.423 12.8512 320 ° 4 km/h 550 m -9.4 m/s 402.70 MHz Domažlice (CZ) 0.00 km LOST
S3131687 RS41 2021-07-19 19:28:30 49.3567 12.7045 218 ° 17 km/h 771 m -6.9 m/s 402.70 MHz Domažlice (CZ) 0.00 km FOUND
S3131686 RS41 2021-07-19 13:02:30 49.3283 12.3052 146 ° 17 km/h 897 m -12.6 m/s 402.70 MHz Schwandorf (DE) 0.00 km FOUND
S3120723 RS41 2021-07-19 07:10:30 49.1754 12.2296 217 ° 13 km/h 794 m -8.4 m/s 402.70 MHz Schwandorf (DE) 0.00 km FOUND
S3210807 RS41 2021-07-19 01:08:00 49.1464 12.0268 215 ° 15 km/h 732 m -11.2 m/s 402.701 MHz Regensburg (DE) 0.00 km FOUND
S3210808 RS41 2021-07-18 19:09:00 49.1307 11.9232 190 ° 24 km/h 629 m -12.7 m/s 402.70 MHz Regensburg (DE) 0.00 km FOUND
S3210877 RS41 2021-07-18 13:17:00 49.1437 11.6667 194 ° 19 km/h 854 m -8.9 m/s 402.70 MHz Neumarkt in der Oberpfalz (DE) 0.00 km FOUND
S3210831 RS41 2021-07-18 06:58:44 49.0736 11.4494 220 ° 30 km/h 1001 m -9.2 m/s 402.70 MHz Neumarkt in der Oberpfalz (DE) 0.00 km FOUND
S3210817 RS41 2021-07-18 01:26:55 48.9071 11.2556 174 ° 24 km/h 592 m -9.5 m/s 402.70 MHz Ingolstadt (DE) 0.00 km FOUND
S3210670 RS41 2021-07-17 19:06:54 49.0381 11.2224 189 ° 43 km/h 940 m -11.1 m/s 402.70 MHz Roth bei Nürnberg (DE) 0.00 km FOUND
S3130708 RS41 2021-07-17 13:12:14 49.144 11.2767 171 ° 28 km/h 1111 m -5.2 m/s 402.70 MHz Roth bei Nürnberg (DE) 0.00 km FOUND
S3210833 RS41 2021-07-17 07:06:30 49.2561 11.1992 189 ° 26 km/h 991 m -10.7 m/s 402.701 MHz Roth bei Nürnberg (DE) 0.00 km FOUND
S3140191 RS41 2021-07-17 01:43:30 49.2645 10.7886 179 ° 24 km/h 598 m -5.7 m/s 402.700 MHz Ansbach (DE) 0.00 km FOUND
S3130672 RS41 2021-07-16 19:24:00 49.3097 10.9046 183 ° 20 km/h 561 m -10.9 m/s 402.70 MHz Schwabach (DE) 0.00 km FOUND
S3131699 RS41 2021-07-16 13:09:30 49.6462 10.9985 194 ° 9 km/h 413 m -10.0 m/s 402.70 MHz Erlangen (DE) 0.00 km FOUND
S3131685 RS41 2021-07-16 07:04:30 49.4709 11.0321 124 ° 4 km/h 383 m -10.5 m/s 402.700 MHz Fürth (DE) 0.00 km UNKNOWN
S3130704 RS41 2021-07-16 01:23:30 49.5052 11.0763 273 ° 4 km/h 489 m -6.9 m/s 402.700 MHz Nürnberg (DE) 0.00 km FOUND
S3120726 RS41 2021-07-15 19:19:00 49.483 11.089 10 ° 4 km/h 390 m -6.2 m/s 402.70 MHz Nürnberg (DE) 0.00 km LOST
S3131683 RS41 2021-07-15 13:19:30 49.6125 11.2553 13 ° 4 km/h 493 m -5.3 m/s 402.70 MHz Lauf an der Pegnitz (DE) 0.00 km FOUND
S3120724 RS41 2021-07-15 07:23:00 49.5202 11.233 320 ° 9 km/h 510 m -12.3 m/s 402.70 MHz Lauf an der Pegnitz (DE) 0.00 km FOUND
S3140724 RS41 2021-07-15 01:35:00 49.5505 11.1671 34 ° 7 km/h 484 m -4.9 m/s 402.701 MHz Lauf an der Pegnitz (DE) 0.00 km FOUND
S3131684 RS41 2021-07-14 19:18:00 49.6457 11.1363 208 ° 4 km/h 479 m -9.6 m/s 402.700 MHz Erlangen (DE) 0.00 km FOUND
S3120721 RS41 2021-07-14 13:12:55 49.8886 11.1576 65 ° 22 km/h 832 m -11.9 m/s 402.70 MHz Bamberg (DE) 0.00 km FOUND
S3130707 RS41 2021-07-14 07:12:17 49.8028 10.8322 101 ° 11 km/h 553 m -12.9 m/s 402.70 MHz Bamberg (DE) 0.00 km NEED ATTENTION
S3130670 RS41 2021-07-14 01:40:18 49.966 10.8677 82 ° 15 km/h 470 m -5.6 m/s 402.70 MHz Bamberg (DE) 0.00 km LOST
S3140621 RS41 2021-07-13 19:18:11 49.9546 11.2898 96 ° 15 km/h 922 m -12.9 m/s 402.70 MHz Kulmbach (DE) 0.00 km FOUND
S3130705 RS41 2021-07-13 13:20:58 50.2397 11.4264 239 ° 13 km/h 730 m -4.5 m/s 402.70 MHz Kulmbach (DE) 0.00 km FOUND
S3141081 RS41 2021-07-13 07:21:30 50.0238 11.543 284 ° 41 km/h 1036 m -10.3 m/s 402.70 MHz Bayreuth (DE) 0.00 km FOUND
S3210839 RS41 2021-07-13 01:40:34 49.9604 11.6502 292 ° 22 km/h 894 m -5.4 m/s 402.70 MHz Bayreuth (DE) 0.00 km FOUND
S3210837 RS41 2021-07-12 19:09:23 49.7078 12.0783 249 ° 17 km/h 555 m -9.7 m/s 402.70 MHz Weiden in der Oberpfalz (DE) 0.00 km FOUND
S3210694 RS41 2021-07-12 13:06:59 49.5409 12.2269 267 ° 13 km/h 651 m -6.8 m/s 402.70 MHz Weiden in der Oberpfalz (DE) 0.00 km FOUND
S3210691 RS41 2021-07-12 07:09:45 49.3922 11.9782 14 ° 11 km/h 669 m -12.7 m/s 402.70 MHz Amberg (DE) 0.00 km FOUND
S3210836 RS41 2021-07-12 01:26:00 49.2073 12.151 35 ° 15 km/h 780 m -7.7 m/s 402.70 MHz Schwandorf (DE) 0.00 km FOUND
S3130821 RS41 2021-07-11 19:14:30 49.4764 11.661 32 ° 6 km/h 821 m -7.5 m/s 402.70 MHz Sulzbach-Rosenberg (DE) 0.00 km FOUND
S3210822 RS41 2021-07-11 13:45:55 49.8473 11.338 5 ° 11 km/h 769 m -4.0 m/s 402.70 MHz Bayreuth (DE) 0.00 km FOUND
S3210821 RS41 2021-07-11 07:26:52 49.865 11.3962 93 ° 20 km/h 900 m -8.6 m/s 402.70 MHz Bayreuth (DE) 0.00 km FOUND
S3210731 RS41 2021-07-11 01:40:15 49.852 11.5332 328 ° 31 km/h 819 m -6.1 m/s 402.70 MHz Bayreuth (DE) 0.00 km FOUND
S3210727 RS41 2021-07-10 19:44:00 49.8808 11.917 291 ° 20 km/h 668 m -3.4 m/s 402.70 MHz Bayreuth (DE) 0.00 km FOUND
S3210880 RS41 2021-07-10 13:11:11 49.61 12.022 283 ° 11 km/h 543 m -14.7 m/s 402.70 MHz Weiden in der Oberpfalz (DE) 0.00 km FOUND
S3210693 RS41 2021-07-10 07:36:55 49.3802 12.2318 291 ° 11 km/h 694 m -5.3 m/s 402.700 MHz Schwandorf (DE) 0.00 km FOUND
S3210834 RS41 2021-07-10 01:43:00 49.4894 12.4428 87 ° 15 km/h 870 m -11.3 m/s 402.70 MHz Weiden in der Oberpfalz (DE) 0.00 km LOST
S3210882 RS41 2021-07-09 19:13:05 49.4716 12.0335 108 ° 28 km/h 768 m -11.9 m/s 402.70 MHz Amberg (DE) 0.00 km UNKNOWN
S3130820 RS41 2021-07-09 14:18:04 49.6857 11.9407 89 ° 30 km/h 594 m -6.7 m/s 402.70 MHz Weiden in der Oberpfalz (DE) 0.00 km UNKNOWN
S3210717 RS41 2021-07-09 07:24:56 50.0221 11.1354 131 ° 26 km/h 735 m -8.3 m/s 402.70 MHz Lichtenfels (DE) 0.00 km NEED ATTENTION
S3210881 RS41 2021-07-09 04:07:30 52.0708 11.0025 338 ° 26 km/h 20179 m -6.5 m/s 402.70 MHz Helmstedt (DE) 0.00 km UNKNOWN
S3210730 RS41 2021-07-09 03:13:47 50.1209 11.0515 192 ° 13 km/h 423 m -6.4 m/s 404.90 MHz Lichtenfels (DE) 0.00 km FOUND
S3210835 RS41 2021-07-08 19:03:29 50.1453 11.6843 337 ° 11 km/h 1337 m -15.3 m/s 402.700 MHz Kulmbach (DE) 0.00 km LOST
S3210729 RS41 2021-07-08 13:35:47 50.6278 11.8012 244 ° 19 km/h 640 m -11.0 m/s 402.70 MHz Plauen (DE) 0.00 km FOUND
S3210716 RS41 2021-07-08 07:38:30 50.4967 11.8545 258 ° 17 km/h 764 m -3.3 m/s 402.70 MHz Plauen (DE) 0.00 km FOUND
S3210879 RS41 2021-07-08 01:14:00 50.3764 12.0935 326 ° 20 km/h 708 m -6.5 m/s 402.70 MHz Plauen (DE) 0.00 km FOUND
S3210832 RS41 2021-07-07 19:24:30 50.3774 12.3857 319 ° 6 km/h 877 m -5.8 m/s 402.70 MHz Kraslice (CZ) 0.00 km FOUND
S3210830 RS41 2021-07-07 13:16:57 50.5194 12.5935 67 ° 11 km/h 724 m -11.9 m/s 402.70 MHz Kraslice (CZ) 0.00 km NEED ATTENTION
S3210840 RS41 2021-07-07 07:10:00 50.3619 12.7178 225 ° 4 km/h 973 m -11.7 m/s 402.70 MHz Nejdek (CZ) 0.00 km UNKNOWN
S3140202 RS41 2021-07-07 02:22:54 51.0701 14.0741 127 ° 26 km/h 843 m -3.8 m/s 402.70 MHz Pirna (DE) 0.00 km UNKNOWN
S3140187 RS41 2021-07-06 19:08:00 50.1106 12.5192 107 ° 20 km/h 669 m -13.0 m/s 402.70 MHz Cheb (CZ) 0.00 km UNKNOWN
S3140192 RS41 2021-07-06 14:24:19 50.5847 13.2917 3 ° 20 km/h 1016 m -4.3 m/s 402.70 MHz Jirkov (CZ) 0.00 km UNKNOWN
S3140188 RS41 2021-07-06 07:28:34 49.8477 12.4712 310 ° 13 km/h 817 m -5.2 m/s 402.70 MHz Tachov (CZ) 0.00 km NEED ATTENTION
S3110317 RS41 2021-07-06 01:27:34 49.538 12.6164 12 ° 17 km/h 852 m -9.0 m/s 402.70 MHz Domažlice (CZ) 0.00 km FOUND
S3110314 RS41 2021-07-05 18:55:30 49.276 12.8043 15 ° 13 km/h 577 m -10.2 m/s 402.70 MHz Domažlice (CZ) 0.00 km FOUND
S3110319 RS41 2021-07-05 13:14:57 49.4337 13.1623 62 ° 20 km/h 578 m -6.8 m/s 402.70 MHz Kdyně (CZ) 0.00 km FOUND
S3110315 RS41 2021-07-05 07:24:00 49.3084 12.8141 54 ° 9 km/h 513 m -6.4 m/s 402.700 MHz Domažlice (CZ) 0.00 km NEED ATTENTION
S3050042 RS41 2021-07-05 01:35:23 49.757 12.0994 55 ° 19 km/h 544 m -2.3 m/s 402.70 MHz Weiden in der Oberpfalz (DE) 0.00 km FOUND
S3110313 RS41 2021-07-04 19:02:23 49.6542 11.8934 97 ° 39 km/h 632 m -14.2 m/s 402.70 MHz Weiden in der Oberpfalz (DE) 0.00 km NEED ATTENTION
S3110331 RS41 2021-07-04 13:12:50 49.7305 11.943 44 ° 19 km/h 542 m -7.3 m/s 402.70 MHz Weiden in der Oberpfalz (DE) 0.00 km FOUND
S3140203 RS41 2021-07-04 07:12:26 49.6398 11.9394 14 ° 6 km/h 563 m -8.4 m/s 402.70 MHz Weiden in der Oberpfalz (DE) 0.00 km FOUND
S3050064 RS41 2021-07-04 00:58:57 49.5968 12.4663 19 ° 9 km/h 730 m -3.8 m/s 402.70 MHz Weiden in der Oberpfalz (DE) 0.00 km UNKNOWN
S3140201 RS41 2021-07-03 19:22:00 49.3772 12.1397 183 ° 6 km/h 438 m -8.9 m/s 402.70 MHz Schwandorf (DE) 0.00 km FOUND
S3140190 RS41 2021-07-03 13:07:10 49.3041 12.2273 93 ° 13 km/h 628 m -9.2 m/s 402.70 MHz Schwandorf (DE) 0.00 km FOUND
S3110322 RS41 2021-07-03 07:09:30 49.1971 12.0158 52 ° 13 km/h 735 m -13.5 m/s 402.700 MHz Schwandorf (DE) 0.00 km FOUND
S3110335 RS41 2021-07-03 01:24:35 49.1449 11.9705 40 ° 15 km/h 756 m -7.2 m/s 402.70 MHz Regensburg (DE) 0.00 km FOUND
S3050039 RS41 2021-07-02 19:26:00 49.2384 11.6892 105 ° 15 km/h 1161 m -6.6 m/s 402.70 MHz Neumarkt in der Oberpfalz (DE) 0.00 km FOUND
S3140222 RS41 2021-07-02 13:12:43 49.4462 11.6793 107 ° 19 km/h 785 m -10.1 m/s 404.90 MHz Sulzbach-Rosenberg (DE) 0.00 km FOUND
S3110333 RS41 2021-07-02 07:58:30 49.4766 11.5375 94 ° 22 km/h 760 m -10.2 m/s 402.700 MHz Sulzbach-Rosenberg (DE) 0.00 km FOUND
S3110316 RS41 2021-07-02 01:19:30 49.3213 11.7614 97 ° 28 km/h 951 m -13.2 m/s 402.70 MHz Amberg (DE) 0.00 km FOUND
S3050061 RS41 2021-07-01 19:46:30 49.0996 11.777 92 ° 24 km/h 652 m -11.7 m/s 402.70 MHz Regensburg (DE) 0.00 km FOUND
S3050065 RS41 2021-07-01 13:11:30 49.2856 11.6378 92 ° 43 km/h 1032 m -11.6 m/s 404.901 MHz Neumarkt in der Oberpfalz (DE) 0.00 km FOUND
D503219 DFM 2021-07-01 10:48:35 49.2671 12.068 59 ° 19 km/h 554 m -11.0 m/s 402.709 MHz Schwandorf (DE) 0.00 km FOUND
S3140204 RS41 2021-07-01 07:07:59 49.4492 11.6952 90 ° 41 km/h 742 m -11.7 m/s 402.70 MHz Sulzbach-Rosenberg (DE) 0.00 km FOUND
S3050063 RS41 2021-07-01 01:32:37 49.6581 11.9259 75 ° 28 km/h 738 m -10.8 m/s 402.700 MHz Weiden in der Oberpfalz (DE) 0.00 km UNKNOWN
S3050038 RS41 2021-06-30 19:24:14 49.8436 11.6233 54 ° 22 km/h 707 m -12.8 m/s 402.70 MHz Bayreuth (DE) 0.00 km FOUND
S3050041 RS41 2021-06-30 13:14:32 49.9738 11.7834 68 ° 31 km/h 921 m -8.9 m/s 402.70 MHz Bayreuth (DE) 0.00 km UNKNOWN
S3110320 RS41 2021-06-30 07:18:30 49.8607 11.6651 86 ° 24 km/h 663 m -10.2 m/s 402.70 MHz Bayreuth (DE) 0.00 km FOUND
S3050326 RS41 2021-06-30 01:32:55 49.9034 11.6162 87 ° 28 km/h 828 m -5.8 m/s 402.70 MHz Bayreuth (DE) 0.00 km FOUND
S3110332 RS41 2021-06-29 22:27:30 50.4322 12.2976 43 ° 20 km/h 778 m -9.6 m/s 402.700 MHz Plauen (DE) 0.00 km UNKNOWN
S3110334 RS41 2021-06-29 21:10:00 49.8682 11.5582 88 ° 35 km/h 784 m -15.7 m/s 404.90 MHz Bayreuth (DE) 0.00 km LOST
S3110318 RS41 2021-06-29 13:01:30 49.9149 12.081 334 ° 6 km/h 923 m -11.9 m/s 402.70 MHz Weiden in der Oberpfalz (DE) 0.00 km FOUND
S3130420 RS41 2021-06-29 07:07:39 49.928 11.7224 52 ° 19 km/h 881 m -6.6 m/s 402.70 MHz Bayreuth (DE) 0.00 km FOUND
S3050487 RS41 2021-06-29 01:32:30 49.8925 11.8692 187 ° 4 km/h 685 m -5.7 m/s 402.70 MHz Bayreuth (DE) 0.00 km FOUND
S3110321 RS41 2021-06-28 19:15:47 49.6948 11.9675 240 ° 26 km/h 549 m -12.7 m/s 402.700 MHz Weiden in der Oberpfalz (DE) 0.00 km FOUND
S3130630 RS41 2021-06-28 13:22:30 49.6807 12.2895 269 ° 4 km/h 593 m -10.7 m/s 402.70 MHz Weiden in der Oberpfalz (DE) 0.00 km FOUND
S3130628 RS41 2021-06-28 07:30:30 49.624 12.3374 280 ° 13 km/h 735 m -11.1 m/s 402.70 MHz Weiden in der Oberpfalz (DE) 0.00 km FOUND
S3130463 RS41 2021-06-28 02:20:30 49.5302 12.1508 269 ° 13 km/h 624 m -6.6 m/s 402.70 MHz Weiden in der Oberpfalz (DE) 0.00 km FOUND
S3130415 RS41 2021-06-27 19:12:12 49.4993 12.3713 279 ° 17 km/h 879 m -12.8 m/s 402.70 MHz Weiden in der Oberpfalz (DE) 0.00 km UNKNOWN
S3130635 RS41 2021-06-27 13:03:30 49.5242 12.0885 275 ° 15 km/h 612 m -13.3 m/s 402.70 MHz Weiden in der Oberpfalz (DE) 0.00 km FOUND
S3130417 RS41 2021-06-27 07:22:00 49.4449 11.9467 263 ° 4 km/h 787 m -7.8 m/s 402.70 MHz Amberg (DE) 0.00 km FOUND
S3130636 RS41 2021-06-27 01:38:40 49.3785 12.0669 261 ° 7 km/h 467 m -3.9 m/s 402.70 MHz Schwandorf (DE) 0.00 km FOUND
S3131606 RS41 2021-06-26 19:27:54 49.5426 11.8556 242 ° 19 km/h 864 m -5.6 m/s 402.70 MHz Sulzbach-Rosenberg (DE) 0.00 km FOUND
S3131616 RS41 2021-06-26 13:04:53 49.5885 11.7728 206 ° 9 km/h 928 m -10.3 m/s 402.70 MHz Sulzbach-Rosenberg (DE) 0.00 km FOUND
S3131617 RS41 2021-06-26 07:27:14 49.5185 11.7132 259 ° 13 km/h 908 m -4.6 m/s 402.70 MHz Sulzbach-Rosenberg (DE) 0.00 km FOUND
S3140354 RS41 2021-06-26 01:25:00 49.3723 11.7594 160 ° 13 km/h 1025 m -11.8 m/s 402.70 MHz Amberg (DE) 0.00 km FOUND
S3131156 RS41 2021-06-25 19:05:59 49.4245 11.6958 114 ° 19 km/h 658 m -10.4 m/s 402.70 MHz Sulzbach-Rosenberg (DE) 0.00 km FOUND
S3210849 RS41 2021-06-25 13:05:00 49.6408 11.7314 131 ° 19 km/h 899 m -11.2 m/s 402.70 MHz Sulzbach-Rosenberg (DE) 0.00 km UNKNOWN
S3210848 RS41 2021-06-25 07:27:55 49.6279 11.6985 73 ° 28 km/h 974 m -6.0 m/s 402.70 MHz Sulzbach-Rosenberg (DE) 0.00 km UNKNOWN
S3210671 RS41 2021-06-25 01:49:30 49.7299 11.6447 58 ° 13 km/h 686 m -6.6 m/s 402.70 MHz Bayreuth (DE) 0.00 km FOUND
S3130629 RS41 2021-06-24 19:20:30 49.9351 12.037 248 ° 6 km/h 682 m -7.4 m/s 402.70 MHz Cheb (CZ) 0.00 km FOUND
S3130419 RS41 2021-06-24 13:04:30 50.1328 12.0361 153 ° 13 km/h 664 m -14.9 m/s 402.70 MHz Aš (CZ) 0.00 km FOUND
S3140350 RS41 2021-06-24 07:20:00 50.0532 11.957 191 ° 6 km/h 707 m -10.6 m/s 402.70 MHz Aš (CZ) 0.00 km FOUND
S3140093 RS41 2021-06-24 01:34:23 50.0791 11.4706 258 ° 7 km/h 1160 m -5.5 m/s 402.700 MHz Kulmbach (DE) 0.00 km FOUND
S3210852 RS41 2021-06-23 19:20:00 50.1474 12.1098 193 ° 17 km/h 638 m -10.7 m/s 404.90 MHz Aš (CZ) 0.00 km FOUND
S3131679 RS41 2021-06-23 13:21:30 50.1377 12.1048 189 ° 15 km/h 629 m -8.1 m/s 402.700 MHz Aš (CZ) 0.00 km FOUND
S3131600 RS41 2021-06-23 07:20:00 50.1336 11.7486 243 ° 7 km/h 703 m -6.7 m/s 402.70 MHz Kulmbach (DE) 0.00 km FOUND
S3140349 RS41 2021-06-23 01:44:30 50.2267 12.012 238 ° 11 km/h 738 m -8.5 m/s 402.70 MHz Hof (DE) 0.00 km FOUND
S3140310 RS41 2021-06-22 19:08:00 49.9925 12.094 225 ° 22 km/h 779 m -6.2 m/s 402.70 MHz Cheb (CZ) 0.00 km FOUND
S3131135 RS41 2021-06-22 13:05:00 50.084 11.8885 213 ° 11 km/h 753 m -12.6 m/s 402.70 MHz Hof (DE) 0.00 km FOUND
S3131130 RS41 2021-06-22 07:12:00 49.9148 11.794 236 ° 7 km/h 753 m -12.5 m/s 402.70 MHz Bayreuth (DE) 0.00 km FOUND
S3131618 RS41 2021-06-22 03:41:30 50.3709 11.6721 187 ° 22 km/h 836 m -10.8 m/s 402.70 MHz Hof (DE) 0.00 km FOUND
S3131129 RS41 2021-06-22 02:36:59 50.0952 11.6746 247 ° 17 km/h 970 m -11.5 m/s 404.901 MHz Kulmbach (DE) 0.00 km FOUND
S3140352 RS41 2021-06-21 19:15:00 50.073 12.0864 152 ° 11 km/h 671 m -6.5 m/s 402.70 MHz Aš (CZ) 0.00 km FOUND
S3131136 RS41 2021-06-21 12:49:00 50.0248 12.2656 75 ° 19 km/h 672 m -10.1 m/s 402.70 MHz Cheb (CZ) 0.00 km FOUND
S3210847 RS41 2021-06-21 07:25:30 50.0172 11.6742 52 ° 11 km/h 920 m -6.0 m/s 402.70 MHz Bayreuth (DE) 0.00 km FOUND
S3210858 RS41 2021-06-21 02:05:33 50.0936 11.4262 55 ° 13 km/h 963 m -6.8 m/s 404.90 MHz Kulmbach (DE) 0.00 km FOUND
S3210854 RS41 2021-06-21 01:21:00 50.1153 11.6255 68 ° 22 km/h 1070 m -5.2 m/s 402.70 MHz Kulmbach (DE) 0.00 km FOUND
S3210851 RS41 2021-06-20 19:09:04 49.8951 11.6934 242 ° 22 km/h 664 m -12.4 m/s 402.70 MHz Bayreuth (DE) 0.00 km FOUND
S3131604 RS41 2021-06-20 13:16:58 49.9094 11.8492 297 ° 7 km/h 734 m -7.0 m/s 402.70 MHz Bayreuth (DE) 0.00 km FOUND
S3131605 RS41 2021-06-20 07:07:14 49.5511 12.0151 51 ° 9 km/h 557 m -10.3 m/s 402.70 MHz Amberg (DE) 0.00 km FOUND
S3210856 RS41 2021-06-20 01:30:42 49.5201 11.9503 332 ° 28 km/h 672 m -6.1 m/s 402.70 MHz Amberg (DE) 0.00 km FOUND
S3131615 RS41 2021-06-19 19:24:13 49.5424 11.9813 276 ° 20 km/h 632 m -11.9 m/s 402.70 MHz Amberg (DE) 0.00 km FOUND
S3131153 RS41 2021-06-19 13:03:32 49.6231 11.9721 82 ° 11 km/h 551 m -5.8 m/s 402.70 MHz Weiden in der Oberpfalz (DE) 0.00 km FOUND
S3131620 RS41 2021-06-19 07:23:42 49.5359 11.6516 131 ° 17 km/h 810 m -11.6 m/s 402.70 MHz Sulzbach-Rosenberg (DE) 0.00 km FOUND
S3131603 RS41 2021-06-19 01:35:48 49.5013 11.6913 63 ° 17 km/h 760 m -4.8 m/s 402.70 MHz Sulzbach-Rosenberg (DE) 0.00 km FOUND
S3140353 RS41 2021-06-18 19:02:30 49.6033 11.5756 8 ° 4 km/h 924 m -13.1 m/s 402.70 MHz Sulzbach-Rosenberg (DE) 0.00 km FOUND
S3131143 RS41 2021-06-18 13:13:00 49.7532 11.3103 101 ° 9 km/h 760 m -11.0 m/s 402.700 MHz Lauf an der Pegnitz (DE) 0.00 km FOUND
S3131141 RS41 2021-06-18 07:37:30 49.7067 11.0889 289 ° 6 km/h 425 m -4.0 m/s 402.70 MHz Erlangen (DE) 0.00 km FOUND
S3131619 RS41 2021-06-18 01:45:00 49.5288 11.0697 317 ° 11 km/h 385 m -4.0 m/s 402.70 MHz Erlangen (DE) 0.00 km FOUND
S3131218 RS41 2021-06-17 19:19:58 49.489 11.2966 294 ° 4 km/h 478 m -5.7 m/s 402.70 MHz Lauf an der Pegnitz (DE) 0.00 km FOUND
S3131157 RS41 2021-06-17 12:57:28 49.6567 11.3727 313 ° 11 km/h 798 m -12.5 m/s 402.70 MHz Lauf an der Pegnitz (DE) 0.00 km FOUND
S3131154 RS41 2021-06-17 01:14:00 49.6054 11.2562 313 ° 17 km/h 458 m -8.8 m/s 402.70 MHz Lauf an der Pegnitz (DE) 0.00 km FOUND
S3131146 RS41 2021-06-16 19:29:43 49.5203 11.221 249 ° 4 km/h 468 m -3.9 m/s 402.70 MHz Lauf an der Pegnitz (DE) 0.00 km FOUND
S3131142 RS41 2021-06-16 12:58:58 49.3931 11.3193 292 ° 20 km/h 691 m -11.5 m/s 402.70 MHz Lauf an der Pegnitz (DE) 0.00 km FOUND
S3131134 RS41 2021-06-16 07:31:30 49.0438 11.1635 346 ° 11 km/h 1471 m -5.8 m/s 402.70 MHz Roth bei Nürnberg (DE) 0.00 km UNKNOWN
S3131155 RS41 2021-06-16 01:44:29 48.7806 11.3443 243 ° 6 km/h 467 m -6.2 m/s 402.70 MHz Ingolstadt (DE) 0.00 km FOUND
S3131148 RS41 2021-06-15 19:20:00 48.7931 11.8782 21 ° 2 km/h 807 m -11.7 m/s 402.700 MHz Regensburg (DE) 0.00 km FOUND
S3131131 RS41 2021-06-15 13:23:00 49.0942 12.1315 88 ° 13 km/h 794 m -3.0 m/s 402.70 MHz Regensburg (DE) 0.00 km FOUND
S3131356 RS41 2021-06-15 07:19:00 49.1004 11.8725 334 ° 2 km/h 627 m -10.0 m/s 402.70 MHz Regensburg (DE) 0.00 km FOUND
S3131144 RS41 2021-06-15 01:41:30 49.009 11.6608 7 ° 7 km/h 664 m -11.3 m/s 402.70 MHz Ingolstadt (DE) 0.00 km LOST
S3131158 RS41 2021-06-14 19:11:00 48.9899 11.8724 341 ° 6 km/h 595 m -9.0 m/s 402.70 MHz Regensburg (DE) 0.00 km UNKNOWN
S3130418 RS41 2021-06-14 13:10:30 48.9191 11.8919 280 ° 7 km/h 617 m -7.1 m/s 402.70 MHz Regensburg (DE) 0.00 km FOUND
S3120848 RS41 2021-06-14 07:22:05 48.7382 11.6336 306 ° 15 km/h 487 m -10.6 m/s 402.70 MHz Ingolstadt (DE) 0.00 km FOUND
S3140091 RS41 2021-06-14 01:24:35 48.649 11.8244 258 ° 22 km/h 604 m -5.8 m/s 402.70 MHz Landshut (DE) 0.00 km UNKNOWN
S3130276 RS41 2021-06-13 19:14:31 48.4983 11.8705 170 ° 26 km/h 711 m -6.6 m/s 402.700 MHz Freising (DE) 0.00 km UNKNOWN
S3141015 RS41 2021-06-13 13:03:01 48.523 11.931 126 ° 26 km/h 676 m -8.1 m/s 404.90 MHz Landshut (DE) 0.00 km FOUND
S3130436 RS41 2021-06-13 07:17:32 48.3607 12.184 133 ° 19 km/h 739 m -5.9 m/s 402.70 MHz Erding (DE) 0.00 km UNKNOWN
S3130939 RS41 2021-06-13 00:58:12 48.5494 12.4852 128 ° 30 km/h 672 m -12.8 m/s 402.701 MHz Landshut (DE) 0.00 km FOUND
S3120849 RS41 2021-06-12 19:22:22 48.6483 12.6337 134 ° 30 km/h 523 m -6.9 m/s 402.70 MHz Straubing (DE) 0.00 km FOUND
S3131055 RS41 2021-06-12 13:18:12 48.8169 12.3872 99 ° 28 km/h 633 m -8.3 m/s 402.70 MHz Straubing (DE) 0.00 km UNKNOWN
S3131052 RS41 2021-06-12 07:36:39 48.8071 11.8974 93 ° 22 km/h 712 m -7.1 m/s 402.70 MHz Regensburg (DE) 0.00 km FOUND
S3210857 RS41 2021-06-12 01:37:02 48.7822 11.6992 69 ° 11 km/h 490 m -6.9 m/s 402.70 MHz Ingolstadt (DE) 0.00 km FOUND
S3140032 RS41 2021-06-11 19:11:31 48.8327 11.3591 133 ° 13 km/h 480 m -6.1 m/s 402.70 MHz Ingolstadt (DE) 0.00 km FOUND
S3130271 RS41 2021-06-11 13:04:19 48.8771 11.1876 145 ° 11 km/h 646 m -10.7 m/s 402.70 MHz Neuburg an der Donau (DE) 0.00 km FOUND
S3130274 RS41 2021-06-11 07:07:16 48.8357 11.2276 216 ° 4 km/h 584 m -6.4 m/s 402.70 MHz Neuburg an der Donau (DE) 0.00 km FOUND
S3140092 RS41 2021-06-11 01:46:15 48.9539 11.4354 178 ° 4 km/h 708 m -10.9 m/s 402.70 MHz Ingolstadt (DE) 0.00 km FOUND
S3140035 RS41 2021-06-10 19:07:00 48.9586 11.7038 157 ° 15 km/h 649 m -7.4 m/s 402.70 MHz Ingolstadt (DE) 0.00 km FOUND
S3140034 RS41 2021-06-10 12:52:31 48.9239 11.7692 69 ° 7 km/h 700 m -9.3 m/s 402.70 MHz Regensburg (DE) 0.00 km UNKNOWN
S3140033 RS41 2021-06-10 07:33:02 48.7141 11.5328 353 ° 4 km/h 442 m -4.9 m/s 402.700 MHz Ingolstadt (DE) 0.00 km FOUND
S3130443 RS41 2021-06-10 01:22:30 48.8441 11.6513 91 ° 6 km/h 506 m -12.0 m/s 402.70 MHz Ingolstadt (DE) 0.00 km FOUND
S3140036 RS41 2021-06-09 19:09:00 49.0246 11.9073 118 ° 7 km/h 522 m -10.2 m/s 402.70 MHz Regensburg (DE) 0.00 km FOUND
S3141058 RS41 2021-06-09 13:25:55 49.2788 12.0252 196 ° 22 km/h 593 m -4.7 m/s 402.70 MHz Schwandorf (DE) 0.00 km FOUND
S3141085 RS41 2021-06-09 07:21:43 49.2088 11.7423 185 ° 20 km/h 911 m -8.4 m/s 402.70 MHz Neumarkt in der Oberpfalz (DE) 0.00 km FOUND
S3141084 RS41 2021-06-09 01:43:00 49.2244 11.7114 255 ° 28 km/h 723 m -4.3 m/s 402.70 MHz Neumarkt in der Oberpfalz (DE) 0.00 km FOUND
S3141062 RS41 2021-06-08 19:13:00 49.2751 11.7196 206 ° 22 km/h 808 m -12.7 m/s 402.70 MHz Neumarkt in der Oberpfalz (DE) 0.00 km LOST
S3141086 RS41 2021-06-08 13:04:00 49.384 11.7133 256 ° 13 km/h 1056 m -13.2 m/s 402.70 MHz Amberg (DE) 0.00 km FOUND
S3141030 RS41 2021-06-08 07:15:05 49.338 11.565 290 ° 24 km/h 896 m -8.8 m/s 402.70 MHz Neumarkt in der Oberpfalz (DE) 0.00 km NEED ATTENTION
S3141061 RS41 2021-06-08 01:33:30 49.3483 11.5389 276 ° 44 km/h 1066 m -17.0 m/s 402.70 MHz Neumarkt in der Oberpfalz (DE) 0.00 km FOUND
S3141059 RS41 2021-06-07 19:33:49 49.377 11.5141 230 ° 31 km/h 817 m -7.2 m/s 402.70 MHz Neumarkt in der Oberpfalz (DE) 0.00 km FOUND
S3141057 RS41 2021-06-07 07:14:30 49.4071 11.3819 275 ° 11 km/h 696 m -8.0 m/s 402.70 MHz Lauf an der Pegnitz (DE) 0.00 km NEED ATTENTION
S3141029 RS41 2021-06-07 01:16:00 49.4063 11.4852 253 ° 24 km/h 802 m -8.7 m/s 402.70 MHz Neumarkt in der Oberpfalz (DE) 0.00 km FOUND
S3140617 RS41 2021-06-06 19:24:17 49.3759 11.5813 263 ° 19 km/h 831 m -10.5 m/s 402.70 MHz Neumarkt in der Oberpfalz (DE) 0.00 km FOUND
S3140632 RS41 2021-06-06 13:18:57 49.4224 11.472 140 ° 19 km/h 782 m -12.3 m/s 402.700 MHz Neumarkt in der Oberpfalz (DE) 0.00 km FOUND
S3140629 RS41 2021-06-06 07:09:44 49.2986 11.4682 205 ° 7 km/h 924 m -6.5 m/s 402.70 MHz Neumarkt in der Oberpfalz (DE) 0.00 km FOUND
S3141016 RS41 2021-06-06 01:36:00 49.3448 11.5548 128 ° 15 km/h 916 m -6.3 m/s 402.70 MHz Neumarkt in der Oberpfalz (DE) 0.00 km FOUND
S3140940 RS41 2021-06-05 19:34:20 49.3912 11.8052 190 ° 13 km/h 1428 m -10.0 m/s 402.70 MHz Amberg (DE) 0.00 km FOUND
S3140941 RS41 2021-06-05 13:15:15 49.5102 11.8852 69 ° 22 km/h 645 m -14.5 m/s 404.90 MHz Amberg (DE) 0.00 km FOUND
S3140942 RS41 2021-06-05 07:02:00 49.4117 11.7844 87 ° 15 km/h 828 m -12.7 m/s 402.70 MHz Amberg (DE) 0.00 km FOUND
S3140616 RS41 2021-06-05 01:19:00 49.3804 11.8298 93 ° 11 km/h 748 m -11.6 m/s 402.70 MHz Amberg (DE) 0.00 km FOUND
S3140615 RS41 2021-06-04 19:16:35 49.3703 12.027 284 ° 11 km/h 552 m -7.0 m/s 402.70 MHz Schwandorf (DE) 0.00 km FOUND
S3141028 RS41 2021-06-04 13:28:53 49.4637 12.1671 309 ° 4 km/h 631 m -5.3 m/s 402.70 MHz Schwandorf (DE) 0.00 km FOUND
S3130703 RS41 2021-06-04 07:15:00 49.3898 12.0428 112 ° 2 km/h 472 m -7.5 m/s 402.70 MHz Schwandorf (DE) 0.00 km FOUND
S3120725 RS41 2021-06-04 01:16:45 49.3531 12.1847 328 ° 20 km/h 634 m -12.9 m/s 402.70 MHz Schwandorf (DE) 0.00 km FOUND
S3140939 RS41 2021-06-03 19:40:30 49.1203 12.2743 312 ° 7 km/h 927 m -4.7 m/s 402.70 MHz Regensburg (DE) 0.00 km FOUND
S3140891 RS41 2021-06-03 13:09:25 49.155 12.1824 319 ° 6 km/h 923 m -4.5 m/s 402.70 MHz Regensburg (DE) 0.00 km FOUND
S3140890 RS41 2021-06-03 07:16:30 48.9786 12.1092 305 ° 24 km/h 703 m -5.5 m/s 402.700 MHz Regensburg (DE) 0.00 km FOUND
S3140863 RS41 2021-06-03 01:20:00 49.0632 12.1142 320 ° 28 km/h 716 m -11.8 m/s 402.70 MHz Regensburg (DE) 0.00 km FOUND
S3140862 RS41 2021-06-02 19:14:30 49.0719 12.2161 246 ° 9 km/h 877 m -5.5 m/s 402.70 MHz Regensburg (DE) 0.00 km FOUND
S3140864 RS41 2021-06-02 13:08:25 49.2775 12.1217 271 ° 19 km/h 649 m -15.7 m/s 402.70 MHz Schwandorf (DE) 0.00 km FOUND
S3140894 RS41 2021-06-02 07:08:00 49.2561 11.9905 276 ° 7 km/h 595 m -9.0 m/s 402.70 MHz Schwandorf (DE) 0.00 km FOUND
S3140937 RS41 2021-06-02 01:39:30 49.1254 12.0108 291 ° 13 km/h 541 m -6.7 m/s 402.70 MHz Regensburg (DE) 0.00 km NEED ATTENTION
S3140230 RS41 2021-06-01 19:22:38 49.0507 11.9821 252 ° 24 km/h 544 m -6.4 m/s 402.70 MHz Regensburg (DE) 0.00 km FOUND
S3130724 RS41 2021-06-01 12:57:30 49.1525 11.8256 288 ° 17 km/h 738 m -8.6 m/s 404.900 MHz Regensburg (DE) 0.00 km FOUND
S3120860 RS41 2021-06-01 07:14:30 49.0321 11.6533 297 ° 7 km/h 720 m -9.8 m/s 402.70 MHz Neumarkt in der Oberpfalz (DE) 0.00 km NEED ATTENTION
S3120846 RS41 2021-06-01 01:22:30 49.0008 11.6583 277 ° 26 km/h 658 m -8.9 m/s 402.70 MHz Ingolstadt (DE) 0.00 km FOUND
S3140938 RS41 2021-05-31 19:08:00 49.0996 11.6289 263 ° 13 km/h 783 m -12.0 m/s 402.70 MHz Neumarkt in der Oberpfalz (DE) 0.00 km FOUND
S3140893 RS41 2021-05-31 12:59:23 49.1478 11.6172 262 ° 13 km/h 1033 m -7.3 m/s 402.70 MHz Neumarkt in der Oberpfalz (DE) 0.00 km FOUND
S3140892 RS41 2021-05-31 06:57:30 49.0158 11.4691 304 ° 6 km/h 715 m -8.5 m/s 402.70 MHz Ingolstadt (DE) 0.00 km FOUND
S3140861 RS41 2021-05-31 01:33:34 48.8553 11.5055 220 ° 11 km/h 514 m -6.6 m/s 402.70 MHz Ingolstadt (DE) 0.00 km FOUND
S3140278 RS41 2021-05-30 19:19:06 48.7683 11.5107 274 ° 19 km/h 427 m -5.8 m/s 402.70 MHz Ingolstadt (DE) 0.00 km FOUND
S3141027 RS41 2021-05-30 13:18:50 48.7568 11.6109 203 ° 17 km/h 462 m -7.2 m/s 402.70 MHz Ingolstadt (DE) 0.00 km FOUND
S3141017 RS41 2021-05-30 07:21:19 48.6864 11.5329 176 ° 9 km/h 485 m -9.9 m/s 402.70 MHz Ingolstadt (DE) 0.00 km FOUND
S3140819 RS41 2021-05-30 02:51:22 48.5521 11.5031 222 ° 22 km/h 587 m -5.2 m/s 402.70 MHz Pfaffenhofen an der Ilm (DE) 0.00 km FOUND
S3140818 RS41 2021-05-29 19:10:53 48.8475 11.7844 173 ° 15 km/h 557 m -7.4 m/s 402.70 MHz Ingolstadt (DE) 0.00 km FOUND
S3131365 RS41 2021-05-29 13:05:30 49.0908 12.1239 132 ° 22 km/h 606 m -13.5 m/s 402.70 MHz Regensburg (DE) 0.00 km LOST
S3120842 RS41 2021-05-29 07:12:59 49.0294 12.9614 169 ° 6 km/h 1445 m -10.9 m/s 402.70 MHz Deggendorf (DE) 0.00 km FOUND
S3140013 RS41 2021-05-29 01:24:03 49.0504 13.2274 180 ° 22 km/h 1443 m -5.4 m/s 402.70 MHz Sušice (CZ) 0.00 km UNKNOWN
S3130468 RS41 2021-05-28 19:25:54 49.0195 13.1784 178 ° 15 km/h 1521 m -4.8 m/s 402.70 MHz Deggendorf (DE) 0.00 km UNKNOWN
S3140016 RS41 2021-05-28 13:17:24 49.0731 12.8902 96 ° 9 km/h 1369 m -6.6 m/s 402.70 MHz Deggendorf (DE) 0.00 km UNKNOWN
S3120867 RS41 2021-05-28 07:12:58 48.7963 12.8027 114 ° 22 km/h 1310 m -10.7 m/s 402.70 MHz Deggendorf (DE) 0.00 km FOUND
S3120859 RS41 2021-05-28 01:12:00 48.9253 12.5164 89 ° 20 km/h 601 m -13.5 m/s 402.700 MHz Straubing (DE) 0.00 km FOUND
S3130466 RS41 2021-05-27 19:07:30 49.1559 12.5701 102 ° 35 km/h 847 m -12.2 m/s 402.70 MHz Straubing (DE) 0.00 km NEED ATTENTION
S3140015 RS41 2021-05-27 13:09:30 49.4896 12.8123 62 ° 28 km/h 736 m -9.3 m/s 402.70 MHz Domažlice (CZ) 0.00 km FOUND
S3130726 RS41 2021-05-27 07:15:44 49.6193 13.0625 56 ° 20 km/h 555 m -4.4 m/s 402.70 MHz Holýšov (CZ) 0.00 km FOUND
S3130722 RS41 2021-05-27 01:32:05 49.7407 13.7574 63 ° 39 km/h 705 m -5.5 m/s 402.70 MHz Rokycany (CZ) 0.00 km UNKNOWN
S3120851 RS41 2021-05-26 19:22:30 49.651 13.4853 45 ° 37 km/h 636 m -9.6 m/s 402.70 MHz Starý Plzenec (CZ) 0.00 km UNKNOWN
S3130721 RS41 2021-05-26 13:26:19 49.7907 13.8557 45 ° 24 km/h 599 m -3.2 m/s 402.70 MHz Hořovice (CZ) 0.00 km FOUND
S3140229 RS41 2021-05-26 07:17:22 49.6353 13.4124 44 ° 28 km/h 531 m -8.7 m/s 402.70 MHz Starý Plzenec (CZ) 0.00 km FOUND
S3130725 RS41 2021-05-26 01:11:45 49.5769 13.2843 47 ° 31 km/h 537 m -7.1 m/s 402.70 MHz Přeštice (CZ) 0.00 km UNKNOWN
S3130465 RS41 2021-05-25 19:24:30 49.53 13.1663 54 ° 17 km/h 600 m -9.1 m/s 402.70 MHz Holýšov (CZ) 0.00 km FOUND
S3120866 RS41 2021-05-25 13:03:39 49.9654 12.9392 58 ° 30 km/h 788 m -6.9 m/s 402.70 MHz Mariánské Lázně (CZ) 0.00 km UNKNOWN
S3140018 RS41 2021-05-25 07:13:00 50.2885 13.0038 61 ° 54 km/h 913 m -7.9 m/s 402.700 MHz Ostrov (CZ) 0.00 km UNKNOWN
S3140043 RS41 2021-05-25 01:27:30 50.4356 12.9401 67 ° 24 km/h 1144 m -5.2 m/s 402.70 MHz Ostrov (CZ) 0.00 km UNKNOWN
S3140017 RS41 2021-05-24 19:58:18 50.6123 12.9359 35 ° 30 km/h 875 m -4.4 m/s 402.700 MHz Annaberg-Buchholz (DE) 0.00 km UNKNOWN
S3130097 RS41 2021-05-24 13:12:30 50.3782 13.0076 297 ° 17 km/h 1055 m -9.4 m/s 402.70 MHz Ostrov (CZ) 0.00 km FOUND
S3130091 RS41 2021-05-24 07:38:54 50.1673 13.3244 232 ° 4 km/h 678 m -7.5 m/s 402.70 MHz Podbořany (CZ) 0.00 km UNKNOWN
S3140231 RS41 2021-05-24 01:17:39 49.7544 13.1365 348 ° 11 km/h 593 m -11.0 m/s 402.70 MHz Nýřany (CZ) 0.00 km FOUND
S3130723 RS41 2021-05-23 19:25:25 49.3778 13.2652 42 ° 17 km/h 547 m -5.7 m/s 402.70 MHz Klatovy (CZ) 0.00 km FOUND
S2950455 RS41 2021-05-23 13:29:45 49.6349 13.2139 24 ° 24 km/h 591 m -9.2 m/s 402.700 MHz Dobřany (CZ) 0.00 km FOUND
S3130317 RS41 2021-05-23 07:14:55 49.8591 13.1886 87 ° 35 km/h 853 m -8.8 m/s 402.699 MHz Třemošná (CZ) 0.00 km LOST
S3120865 RS41 2021-05-23 01:25:49 49.7893 13.7887 55 ° 13 km/h 627 m -5.9 m/s 402.70 MHz Hořovice (CZ) 0.00 km FOUND
S3130709 RS41 2021-05-22 19:41:29 49.6463 14.1949 68 ° 31 km/h 733 m -12.2 m/s 402.70 MHz Příbram (CZ) 0.00 km UNKNOWN
S3140050 RS41 2021-05-22 13:09:50 49.7538 13.4312 68 ° 43 km/h 664 m -8.7 m/s 402.700 MHz Plzeň (CZ) 0.00 km UNKNOWN
S3140094 RS41 2021-05-22 07:24:11 49.9572 13.4883 56 ° 37 km/h 603 m -4.9 m/s 402.70 MHz Třemošná (CZ) 0.00 km UNKNOWN
S3140095 RS41 2021-05-22 01:29:20 49.905 13.5559 38 ° 43 km/h 745 m -4.0 m/s 402.70 MHz Třemošná (CZ) 0.00 km UNKNOWN
S3130710 RS41 2021-05-21 19:19:26 49.5713 13.5306 53 ° 43 km/h 653 m -8.2 m/s 402.70 MHz Přeštice (CZ) 0.00 km UNKNOWN
S3140056 RS41 2021-05-21 13:28:29 49.7063 13.444 51 ° 46 km/h 632 m -4.9 m/s 402.70 MHz Starý Plzenec (CZ) 0.00 km FOUND
S3130137 RS41 2021-05-21 07:27:51 49.2537 13.4457 15 ° 24 km/h 826 m -7.3 m/s 402.70 MHz Sušice (CZ) 0.00 km UNKNOWN
S3130720 RS41 2021-05-21 01:23:56 49.0633 13.1799 41 ° 30 km/h 1476 m -10.7 m/s 402.70 MHz Deggendorf (DE) 0.00 km UNKNOWN
S3120868 RS41 2021-05-20 19:18:51 48.8192 12.5059 99 ° 15 km/h 1595 m -7.4 m/s 402.70 MHz Straubing (DE) 0.00 km FOUND
S3120870 RS41 2021-05-20 13:18:00 48.9204 12.2137 71 ° 9 km/h 601 m -10.8 m/s 402.70 MHz Regensburg (DE) 0.00 km FOUND
S3130713 RS41 2021-05-20 07:05:30 49.1905 12.0103 122 ° 19 km/h 637 m -12.0 m/s 402.70 MHz Schwandorf (DE) 0.00 km FOUND
S3140044 RS41 2021-05-20 01:12:30 49.2295 11.9497 120 ° 15 km/h 559 m -12.5 m/s 402.70 MHz Schwandorf (DE) 0.00 km FOUND
S3120869 RS41 2021-05-19 18:58:30 49.2667 12.1001 146 ° 30 km/h 1335 m -8.9 m/s 402.70 MHz Schwandorf (DE) 0.00 km FOUND
S3130980 RS41 2021-05-19 13:13:23 49.4359 12.1509 103 ° 26 km/h 780 m -2.9 m/s 402.70 MHz Schwandorf (DE) 0.00 km FOUND
S3130138 RS41 2021-05-19 07:31:19 49.4897 12.3022 123 ° 19 km/h 729 m -5.8 m/s 402.70 MHz Weiden in der Oberpfalz (DE) 0.00 km FOUND
S3130095 RS41 2021-05-19 01:21:24 49.538 12.4033 117 ° 26 km/h 843 m -10.0 m/s 402.70 MHz Weiden in der Oberpfalz (DE) 0.00 km FOUND
S2840095 RS41 2021-05-18 19:25:49 49.5463 12.6228 121 ° 26 km/h 898 m -3.0 m/s 402.70 MHz Domažlice (CZ) 0.00 km FOUND
S3120922 RS41 2021-05-18 13:18:35 49.6825 12.5471 104 ° 56 km/h 929 m -8.0 m/s 402.70 MHz Tachov (CZ) 0.00 km UNKNOWN
S3050074 RS41 2021-05-18 07:33:07 49.512 12.6097 94 ° 24 km/h 948 m -3.9 m/s 402.70 MHz Domažlice (CZ) 0.00 km UNKNOWN
S3130978 RS41 2021-05-18 01:35:15 49.4356 12.7892 65 ° 41 km/h 877 m -11.5 m/s 402.70 MHz Domažlice (CZ) 0.00 km FOUND
S2940329 RS41 2021-05-17 19:11:10 49.4944 12.7008 61 ° 33 km/h 830 m -6.3 m/s 402.70 MHz Domažlice (CZ) 0.00 km FOUND
S3120957 RS41 2021-05-17 13:20:44 49.671 12.5826 89 ° 24 km/h 861 m -12.4 m/s 402.70 MHz Tachov (CZ) 0.00 km UNKNOWN
S3130988 RS41 2021-05-17 07:37:00 49.7369 12.4121 74 ° 17 km/h 903 m -11.1 m/s 402.70 MHz Tachov (CZ) 0.00 km UNKNOWN
S3130916 RS41 2021-05-17 01:26:38 49.7332 12.6481 77 ° 30 km/h 772 m -10.4 m/s 402.700 MHz Tachov (CZ) 0.00 km LOST
S3130901 RS41 2021-05-16 19:26:23 49.6274 13.0874 342 ° 6 km/h 522 m -4.9 m/s 402.70 MHz Holýšov (CZ) 0.00 km FOUND
S3130905 RS41 2021-05-16 13:23:26 49.6276 13.1228 27 ° 20 km/h 567 m -5.1 m/s 402.70 MHz Holýšov (CZ) 0.00 km FOUND
S3130904 RS41 2021-05-16 07:33:09 49.4721 12.9526 75 ° 24 km/h 678 m -12.2 m/s 402.70 MHz Domažlice (CZ) 0.00 km FOUND
S3130915 RS41 2021-05-16 01:27:05 49.5826 12.6676 73 ° 48 km/h 807 m -6.2 m/s 402.70 MHz Tachov (CZ) 0.00 km UNKNOWN
S3130903 RS41 2021-05-15 19:00:00 49.5716 12.734 27 ° 28 km/h 1230 m -6.2 m/s 404.90 MHz Domažlice (CZ) 0.00 km UNKNOWN
S3130913 RS41 2021-05-15 13:14:31 49.7459 12.4635 354 ° 28 km/h 867 m -7.1 m/s 402.70 MHz Tachov (CZ) 0.00 km UNKNOWN
S3130917 RS41 2021-05-15 07:04:00 49.788 12.2474 14 ° 17 km/h 706 m -8.5 m/s 402.70 MHz Weiden in der Oberpfalz (DE) 0.00 km FOUND
S3130981 RS41 2021-05-15 01:13:58 49.6546 11.9984 90 ° 30 km/h 662 m -11.7 m/s 402.699 MHz Weiden in der Oberpfalz (DE) 0.00 km FOUND
S3130914 RS41 2021-05-14 19:13:00 49.6335 11.865 114 ° 17 km/h 767 m -6.3 m/s 402.70 MHz Sulzbach-Rosenberg (DE) 0.00 km FOUND
S3120959 RS41 2021-05-14 13:32:30 49.849 11.7797 91 ° 20 km/h 569 m -4.1 m/s 402.70 MHz Bayreuth (DE) 0.00 km FOUND
S3120933 RS41 2021-05-14 07:16:00 49.7108 11.5534 91 ° 22 km/h 749 m -12.6 m/s 402.70 MHz Bayreuth (DE) 0.00 km FOUND
S3120273 RS41 2021-05-14 02:01:30 49.6051 11.3565 90 ° 17 km/h 595 m -3.8 m/s 404.899 MHz Lauf an der Pegnitz (DE) 0.00 km NEED ATTENTION
S3130902 RS41 2021-05-13 19:11:30 49.5184 11.4087 44 ° 9 km/h 569 m -14.0 m/s 402.70 MHz Lauf an der Pegnitz (DE) 0.00 km FOUND
S3120971 RS41 2021-05-13 13:19:30 49.6419 11.2534 133 ° 9 km/h 510 m -5.8 m/s 404.90 MHz Lauf an der Pegnitz (DE) 0.00 km FOUND
S3110694 RS41 2021-05-13 07:19:30 49.6274 11.1038 132 ° 9 km/h 438 m -14.7 m/s 402.70 MHz Erlangen (DE) 0.00 km FOUND
S3110693 RS41 2021-05-13 00:48:22 49.911 11.3167 165 ° 26 km/h 913 m -3.6 m/s 402.700 MHz Bayreuth (DE) 0.00 km FOUND
S3120914 RS41 2021-05-12 19:34:37 49.7416 11.1279 174 ° 33 km/h 722 m -9.5 m/s 402.70 MHz Erlangen (DE) 0.00 km NEED ATTENTION
S3140205 RS41 2021-05-12 13:39:11 49.9824 11.0978 137 ° 20 km/h 667 m -3.7 m/s 402.70 MHz Bamberg (DE) 0.00 km FOUND
S3120754 RS41 2021-05-12 07:20:07 49.9018 11.3128 136 ° 33 km/h 894 m -12.8 m/s 402.70 MHz Bayreuth (DE) 0.00 km FOUND
S3120577 RS41 2021-05-12 01:45:13 50.2106 11.4099 105 ° 20 km/h 640 m -6.3 m/s 402.70 MHz Kulmbach (DE) 0.00 km FOUND
S3120824 RS41 2021-05-11 19:05:56 50.0602 11.6288 151 ° 26 km/h 1104 m -14.0 m/s 402.70 MHz Bayreuth (DE) 0.00 km FOUND
S2930582 RS41 2021-05-11 13:19:30 50.2408 11.699 103 ° 19 km/h 819 m -10.1 m/s 402.70 MHz Hof (DE) 0.00 km LOST
S3120752 RS41 2021-05-11 07:35:30 50.2323 11.9718 218 ° 13 km/h 643 m -6.7 m/s 404.90 MHz Hof (DE) 0.00 km FOUND
S3050577 RS41 2021-05-11 07:25:00 50.2016 11.9197 222 ° 13 km/h 725 m -8.3 m/s 402.70 MHz Hof (DE) 0.00 km FOUND
S3120828 RS41 2021-05-11 01:30:00 50.1937 11.9123 213 ° 11 km/h 747 m -7.0 m/s 402.70 MHz Hof (DE) 0.00 km FOUND
S3120826 RS41 2021-05-10 18:59:00 49.9821 12.1318 207 ° 6 km/h 632 m -9.2 m/s 402.70 MHz Cheb (CZ) 0.00 km LOST
S3130096 RS41 2021-05-10 13:11:49 49.9768 12.4396 76 ° 6 km/h 580 m -1.7 m/s 402.70 MHz Cheb (CZ) 0.00 km FOUND
S3130092 RS41 2021-05-10 07:04:30 49.9221 12.2287 17 ° 11 km/h 604 m -13.0 m/s 402.70 MHz Cheb (CZ) 0.00 km FOUND
S3120945 RS41 2021-05-10 01:26:53 49.9635 12.2297 286 ° 20 km/h 679 m -3.8 m/s 402.70 MHz Cheb (CZ) 0.00 km FOUND
S3120935 RS41 2021-05-09 19:25:30 49.7588 12.3508 295 ° 37 km/h 793 m -7.1 m/s 402.70 MHz Weiden in der Oberpfalz (DE) 0.00 km FOUND
S3120751 RS41 2021-05-09 13:12:31 49.7718 12.7498 328 ° 22 km/h 1117 m -10.5 m/s 402.70 MHz Tachov (CZ) 0.00 km UNKNOWN
S3120834 RS41 2021-05-09 07:33:00 49.4268 13.0081 5 ° 2 km/h 542 m -13.0 m/s 402.70 MHz Kdyně (CZ) 0.00 km FOUND
S3120829 RS41 2021-05-09 01:15:01 49.1936 13.1493 15 ° 19 km/h 1086 m -5.1 m/s 402.700 MHz Kdyně (CZ) 0.00 km UNKNOWN
S3120786 RS41 2021-05-08 19:21:17 48.9823 13.4109 76 ° 35 km/h 1494 m -6.2 m/s 402.70 MHz Vimperk (CZ) 0.00 km UNKNOWN
S3140180 RS41 2021-05-08 12:59:04 48.8265 13.4371 349 ° 11 km/h 979 m -11.3 m/s 402.70 MHz Passau (DE) 0.00 km UNKNOWN
S3131484 RS41 2021-05-08 06:55:11 48.657 13.3973 76 ° 15 km/h 1141 m -13.0 m/s 402.70 MHz Passau (DE) 0.00 km UNKNOWN
S3120832 RS41 2021-05-08 01:38:01 48.9584 14.0302 118 ° 19 km/h 1251 m -5.4 m/s 402.70 MHz Prachatice (CZ) 0.00 km UNKNOWN
S3120825 RS41 2021-05-07 19:22:09 49.095 14.0466 119 ° 56 km/h 1057 m -5.7 m/s 402.70 MHz Prachatice (CZ) 0.00 km FOUND
S3140208 RS41 2021-05-07 13:12:51 49.755 14.2112 158 ° 37 km/h 482 m -7.5 m/s 402.70 MHz Dobříš (CZ) 0.00 km UNKNOWN
S3120831 RS41 2021-05-07 07:29:46 49.7224 14.3045 107 ° 31 km/h 509 m -10.9 m/s 402.700 MHz Sedlčany (CZ) 0.00 km UNKNOWN
S3120835 RS41 2021-05-07 01:39:04 49.7387 14.6356 39 ° 28 km/h 477 m -7.7 m/s 402.70 MHz Benešov (CZ) 0.00 km UNKNOWN
S3120823 RS41 2021-05-06 19:37:06 49.8008 14.4179 49 ° 2 km/h 375 m -7.0 m/s 402.70 MHz Týnec nad Sázavou (CZ) 0.00 km UNKNOWN
S3120830 RS41 2021-05-06 13:32:26 49.6785 14.56 58 ° 26 km/h 587 m -5.6 m/s 402.70 MHz Sedlčany (CZ) 0.00 km UNKNOWN
S3120756 RS41 2021-05-06 07:33:52 49.6385 14.301 53 ° 26 km/h 463 m -6.7 m/s 402.70 MHz Sedlčany (CZ) 0.00 km UNKNOWN
S3131483 RS41 2021-05-06 01:22:45 49.5916 14.4161 57 ° 41 km/h 568 m -8.1 m/s 402.70 MHz Sedlčany (CZ) 0.00 km UNKNOWN
S3140209 RS41 2021-05-05 19:17:07 49.5216 14.0003 87 ° 65 km/h 826 m -7.5 m/s 402.70 MHz Blatná (CZ) 0.00 km UNKNOWN
S3120833 RS41 2021-05-05 13:00:38 50.1403 13.9304 73 ° 46 km/h 525 m -13.0 m/s 404.90 MHz Stochov (CZ) 0.00 km FOUND
S3131486 RS41 2021-05-05 07:18:39 50.0705 13.8926 49 ° 22 km/h 533 m -3.1 m/s 402.70 MHz Nové Strašecí (CZ) 0.00 km UNKNOWN
S3140210 RS41 2021-05-05 00:56:11 49.8835 13.9407 65 ° 30 km/h 474 m -10.5 m/s 402.70 MHz Hořovice (CZ) 0.00 km FOUND
S3140175 RS41 2021-05-04 19:00:23 49.7264 13.9975 55 ° 41 km/h 744 m -6.6 m/s 402.70 MHz Příbram (CZ) 0.00 km UNKNOWN
S3140177 RS41 2021-05-04 13:08:29 49.7684 13.762 57 ° 61 km/h 710 m -11.4 m/s 402.70 MHz Rokycany (CZ) 0.00 km UNKNOWN
S3131487 RS41 2021-05-04 07:00:49 49.5667 13.6778 35 ° 20 km/h 804 m -7.1 m/s 402.70 MHz Rokycany (CZ) 0.00 km UNKNOWN
S3140176 RS41 2021-05-04 01:18:03 49.4066 13.6265 25 ° 39 km/h 834 m -4.7 m/s 402.70 MHz Horažďovice (CZ) 0.00 km LOST
S3140115 RS41 2021-05-03 19:31:35 49.271 13.7608 64 ° 15 km/h 1056 m -7.6 m/s 402.70 MHz Horažďovice (CZ) 0.00 km UNKNOWN
S3140178 RS41 2021-05-03 13:17:37 49.4801 13.6571 88 ° 41 km/h 821 m -6.2 m/s 402.700 MHz Blatná (CZ) 0.00 km UNKNOWN
S3140125 RS41 2021-05-03 07:12:18 49.5619 13.4365 97 ° 22 km/h 728 m -14.0 m/s 402.700 MHz Přeštice (CZ) 0.00 km UNKNOWN
S3120753 RS41 2021-05-03 01:39:30 49.6913 13.6778 118 ° 28 km/h 890 m -5.5 m/s 402.70 MHz Rokycany (CZ) 0.00 km UNKNOWN
S3131485 RS41 2021-05-02 19:17:59 49.8931 13.6707 119 ° 28 km/h 693 m -5.3 m/s 402.70 MHz Rokycany (CZ) 0.00 km UNKNOWN
S3131680 RS41 2021-05-02 13:07:21 49.9629 13.2865 121 ° 41 km/h 809 m -8.0 m/s 402.70 MHz Třemošná (CZ) 0.00 km UNKNOWN
S3131176 RS41 2021-05-02 07:28:00 49.846 13.1397 125 ° 31 km/h 668 m -7.0 m/s 402.70 MHz Stříbro (CZ) 0.00 km UNKNOWN
S3131531 RS41 2021-05-02 01:32:04 50.2218 13.5442 185 ° 52 km/h 670 m -13.7 m/s 402.70 MHz Podbořany (CZ) 0.00 km UNKNOWN
S3140179 RS41 2021-05-01 19:33:17 50.0674 13.7044 225 ° 22 km/h 543 m -5.0 m/s 402.70 MHz Rakovník (CZ) 0.00 km UNKNOWN
S3131677 RS41 2021-05-01 13:05:48 50.1118 13.9146 218 ° 11 km/h 552 m -5.2 m/s 402.70 MHz Nové Strašecí (CZ) 0.00 km UNKNOWN
S3131463 RS41 2021-05-01 07:11:15 49.951 13.8323 183 ° 2 km/h 604 m -9.5 m/s 402.70 MHz Hořovice (CZ) 0.00 km UNKNOWN
S3140207 RS41 2021-05-01 01:25:57 49.9007 13.6841 273 ° 9 km/h 678 m -7.0 m/s 402.70 MHz Hořovice (CZ) 0.00 km UNKNOWN
S3050601 RS41 2021-04-30 19:25:24 49.8257 14.0118 199 ° 22 km/h 460 m -7.2 m/s 402.70 MHz Hořovice (CZ) 0.00 km UNKNOWN
S3131178 RS41 2021-04-30 13:20:37 49.9406 14.1228 49 ° 11 km/h 457 m -8.2 m/s 402.70 MHz Beroun (CZ) 0.00 km UNKNOWN
S3131110 RS41 2021-04-30 07:14:26 49.8076 14.001 61 ° 4 km/h 580 m -7.3 m/s 402.70 MHz Hořovice (CZ) 0.00 km FOUND
S3131668 RS41 2021-04-30 01:29:17 49.9672 14.2935 127 ° 22 km/h 403 m -12.7 m/s 402.70 MHz Černošice (CZ) 0.00 km FOUND
S3131166 RS41 2021-04-29 19:17:48 49.9921 14.0779 59 ° 20 km/h 545 m -12.4 m/s 402.70 MHz Beroun (CZ) 0.00 km UNKNOWN
S3131180 RS41 2021-04-29 13:16:23 50.1133 13.9352 57 ° 33 km/h 558 m -12.0 m/s 402.70 MHz Stochov (CZ) 0.00 km UNKNOWN
S3131462 RS41 2021-04-29 07:26:20 49.9652 13.853 48 ° 9 km/h 529 m -9.3 m/s 402.70 MHz Králŭv Dvŭr (CZ) 0.00 km UNKNOWN
S3131667 RS41 2021-04-29 01:31:45 50.0185 13.7642 306 ° 13 km/h 574 m -11.2 m/s 402.70 MHz Rakovník (CZ) 0.00 km UNKNOWN
S3131105 RS41 2021-04-28 19:15:15 49.8034 13.6928 317 ° 26 km/h 686 m -7.7 m/s 402.70 MHz Rokycany (CZ) 0.00 km FOUND
S3131660 RS41 2021-04-28 13:01:22 49.761 13.4998 299 ° 9 km/h 759 m -12.8 m/s 402.70 MHz Rokycany (CZ) 0.00 km FOUND
S3131597 RS41 2021-04-28 07:15:01 49.6767 13.586 268 ° 6 km/h 841 m -6.9 m/s 402.70 MHz Rokycany (CZ) 0.00 km FOUND
S3131460 RS41 2021-04-28 01:22:41 49.5255 13.8038 321 ° 24 km/h 949 m -14.4 m/s 402.70 MHz Blatná (CZ) 0.00 km UNKNOWN
S3131177 RS41 2021-04-27 19:34:04 49.2815 14.0672 305 ° 41 km/h 829 m -8.6 m/s 402.70 MHz Písek (CZ) 0.00 km LOST
S3131165 RS41 2021-04-27 13:04:25 49.4489 13.7051 293 ° 24 km/h 845 m -12.7 m/s 404.900 MHz Blatná (CZ) 0.00 km UNKNOWN
S3131181 RS41 2021-04-27 07:06:39 49.3106 13.7452 301 ° 37 km/h 1074 m -10.1 m/s 402.70 MHz Horažďovice (CZ) 0.00 km UNKNOWN
S3131170 RS41 2021-04-27 02:22:51 49.1809 14.2594 315 ° 26 km/h 942 m -8.8 m/s 404.90 MHz Vodňany (CZ) 0.00 km UNKNOWN
S3131676 RS41 2021-04-26 23:32:00 49.2293 12.6505 292 ° 28 km/h 1123 m -14.0 m/s 402.70 MHz Domažlice (CZ) 0.00 km LOST
S3131100 RS41 2021-04-26 19:07:55 49.0499 13.8332 252 ° 20 km/h 1246 m -9.3 m/s 402.70 MHz Vimperk (CZ) 0.00 km LOST
S3131107 RS41 2021-04-26 13:05:27 49.2443 13.8411 180 ° 6 km/h 1119 m -9.1 m/s 402.70 MHz Strakonice (CZ) 0.00 km FOUND
S3131085 RS41 2021-04-26 07:05:59 49.1799 13.9649 272 ° 15 km/h 1106 m -9.2 m/s 402.70 MHz Strakonice (CZ) 0.00 km FOUND
S3131076 RS41 2021-04-26 01:29:57 49.0028 14.3969 224 ° 13 km/h 1067 m -8.9 m/s 402.70 MHz Hluboká nad Vltavou (CZ) 0.00 km FOUND
S3131678 RS41 2021-04-25 19:07:21 48.8821 13.8692 221 ° 15 km/h 1158 m -6.9 m/s 402.70 MHz Prachatice (CZ) 0.00 km FOUND
S3131109 RS41 2021-04-25 12:58:06 48.8968 13.701 217 ° 9 km/h 1540 m -5.3 m/s 402.70 MHz Vimperk (CZ) 0.00 km UNKNOWN
S2930633 RS41 2021-04-25 07:16:39 48.9171 13.8798 214 ° 11 km/h 1367 m -3.9 m/s 402.70 MHz Prachatice (CZ) 0.00 km UNKNOWN
S3131598 RS41 2021-04-25 01:33:51 49.0498 14.3425 223 ° 19 km/h 893 m -4.5 m/s 402.70 MHz Hluboká nad Vltavou (CZ) 0.00 km FOUND
S3131602 RS41 2021-04-24 19:16:07 48.9641 13.7833 163 ° 13 km/h 1378 m -10.3 m/s 402.70 MHz Vimperk (CZ) 0.00 km UNKNOWN
S3131675 RS41 2021-04-24 13:15:14 49.0448 13.5607 184 ° 13 km/h 1337 m -6.6 m/s 402.70 MHz Vimperk (CZ) 0.00 km UNKNOWN
S3131239 RS41 2021-04-24 07:01:15 48.9602 13.2668 104 ° 19 km/h 1597 m -6.3 m/s 402.70 MHz Deggendorf (DE) 0.00 km UNKNOWN
S3131662 RS41 2021-04-24 01:08:06 49.0886 13.3784 101 ° 19 km/h 1349 m -13.2 m/s 402.70 MHz Sušice (CZ) 0.00 km UNKNOWN
S3131599 RS41 2021-04-23 19:32:07 48.7799 13.3123 139 ° 19 km/h 1261 m -5.8 m/s 402.70 MHz Passau (DE) 0.00 km UNKNOWN
S3131106 RS41 2021-04-23 13:05:50 48.8439 12.9961 107 ° 17 km/h 1389 m -7.4 m/s 402.70 MHz Deggendorf (DE) 0.00 km FOUND
S3131075 RS41 2021-04-23 06:58:59 48.894 12.9202 132 ° 19 km/h 1303 m -10.6 m/s 402.70 MHz Deggendorf (DE) 0.00 km FOUND
S3131086 RS41 2021-04-23 01:29:52 48.7313 13.2536 138 ° 19 km/h 1381 m -6.7 m/s 402.70 MHz Passau (DE) 0.00 km UNKNOWN
S3120733 RS41 2021-04-22 19:24:56 48.6793 13.3273 159 ° 28 km/h 577 m -9.4 m/s 402.70 MHz Passau (DE) 0.00 km UNKNOWN
S3131242 RS41 2021-04-22 13:23:05 49.0411 13.3999 129 ° 24 km/h 1457 m -7.4 m/s 402.70 MHz Sušice (CZ) 0.00 km UNKNOWN
S3131182 RS41 2021-04-22 07:09:16 49.1177 13.2903 131 ° 17 km/h 1387 m -12.3 m/s 402.70 MHz Sušice (CZ) 0.00 km UNKNOWN
S3131461 RS41 2021-04-22 01:20:09 49.2769 13.3403 121 ° 11 km/h 789 m -11.9 m/s 402.70 MHz Klatovy (CZ) 0.00 km UNKNOWN
S3131169 RS41 2021-04-21 19:28:30 49.2064 13.1963 88 ° 6 km/h 1021 m -6.0 m/s 402.70 MHz Klatovy (CZ) 0.00 km FOUND
S2930636 RS41 2021-04-21 12:57:16 49.3218 12.6794 110 ° 43 km/h 1260 m -5.9 m/s 402.70 MHz Domažlice (CZ) 0.00 km FOUND
S2930635 RS41 2021-04-21 07:16:30 49.2223 12.7242 29 ° 9 km/h 626 m -10.0 m/s 402.70 MHz Domažlice (CZ) 0.00 km FOUND
S3131719 RS41 2021-04-21 01:43:00 49.2515 13.0215 237 ° 2 km/h 651 m -8.1 m/s 402.70 MHz Kdyně (CZ) 0.00 km FOUND
S3131168 RS41 2021-04-20 19:35:00 49.1796 12.6716 16 ° 4 km/h 620 m -5.1 m/s 402.70 MHz Straubing (DE) 0.00 km FOUND
S3120740 RS41 2021-04-20 13:20:30 49.2556 12.2578 109 ° 11 km/h 892 m -5.7 m/s 402.70 MHz Schwandorf (DE) 0.00 km FOUND
S3131084 RS41 2021-04-20 07:18:30 49.155 12.1604 185 ° 9 km/h 710 m -5.7 m/s 402.70 MHz Regensburg (DE) 0.00 km FOUND
S3120739 RS41 2021-04-20 01:40:30 49.1714 12.2193 155 ° 9 km/h 802 m -6.0 m/s 402.70 MHz Schwandorf (DE) 0.00 km FOUND
S3120736 RS41 2021-04-19 19:05:36 49.2129 12.0989 250 ° 17 km/h 961 m -13.1 m/s 402.70 MHz Schwandorf (DE) 0.00 km FOUND
S3120738 RS41 2021-04-19 13:02:49 49.3297 11.9469 171 ° 6 km/h 761 m -7.6 m/s 402.70 MHz Schwandorf (DE) 0.00 km FOUND
S3120742 RS41 2021-04-19 07:28:27 49.2363 12.0387 180 ° 15 km/h 638 m -11.2 m/s 402.70 MHz Schwandorf (DE) 0.00 km FOUND
S3210786 RS41 2021-04-19 01:21:30 49.3116 12.4508 161 ° 4 km/h 656 m -8.3 m/s 402.70 MHz Schwandorf (DE) 0.00 km FOUND
S3120735 RS41 2021-04-18 19:27:30 49.3285 12.3759 133 ° 7 km/h 929 m -6.5 m/s 402.70 MHz Schwandorf (DE) 0.00 km FOUND
S3210781 RS41 2021-04-18 13:11:01 49.4217 12.2033 7 ° 2 km/h 750 m -7.1 m/s 402.70 MHz Schwandorf (DE) 0.00 km FOUND
S3210715 RS41 2021-04-18 07:09:22 49.3485 12.0723 233 ° 15 km/h 843 m -11.1 m/s 402.70 MHz Schwandorf (DE) 0.00 km FOUND
S3130279 RS41 2021-04-18 01:22:00 49.3778 12.4249 264 ° 17 km/h 928 m -14.9 m/s 402.70 MHz Schwandorf (DE) 0.00 km UNKNOWN
S3210787 RS41 2021-04-17 19:10:39 49.3555 12.3737 245 ° 11 km/h 885 m -7.4 m/s 402.70 MHz Schwandorf (DE) 0.00 km FOUND
S3210790 RS41 2021-04-17 13:00:38 49.3939 12.2821 177 ° 11 km/h 729 m -10.2 m/s 402.70 MHz Schwandorf (DE) 0.00 km FOUND
S3110228 RS41 2021-04-17 07:04:00 49.3163 12.0727 172 ° 9 km/h 658 m -10.5 m/s 402.70 MHz Schwandorf (DE) 0.00 km FOUND
S3041065 RS41 2021-04-17 01:21:15 49.3523 12.2459 169 ° 15 km/h 544 m -5.3 m/s 402.70 MHz Schwandorf (DE) 0.00 km FOUND
S3210784 RS41 2021-04-16 19:21:09 49.3784 12.2393 225 ° 19 km/h 839 m -6.2 m/s 402.70 MHz Schwandorf (DE) 0.00 km LOST
S3120744 RS41 2021-04-16 12:59:54 49.4832 11.7822 156 ° 15 km/h 752 m -5.1 m/s 402.70 MHz Sulzbach-Rosenberg (DE) 0.00 km FOUND
S3120780 RS41 2021-04-16 07:17:30 49.3045 12.0191 205 ° 9 km/h 608 m -7.6 m/s 402.70 MHz Schwandorf (DE) 0.00 km FOUND
S3120743 RS41 2021-04-16 01:25:13 49.2954 12.048 176 ° 20 km/h 614 m -3.4 m/s 402.70 MHz Schwandorf (DE) 0.00 km NEED ATTENTION
S3120730 RS41 2021-04-15 19:11:26 49.2851 12.3392 182 ° 24 km/h 630 m -10.7 m/s 402.70 MHz Schwandorf (DE) 0.00 km FOUND
S3120741 RS41 2021-04-15 14:00:00 49.429 12.291 154 ° 28 km/h 687 m -8.3 m/s 402.70 MHz Schwandorf (DE) 0.00 km FOUND
S3120727 RS41 2021-04-15 07:21:01 49.3476 12.4329 148 ° 2 km/h 599 m -5.8 m/s 402.70 MHz Schwandorf (DE) 0.00 km FOUND
S3210788 RS41 2021-04-15 01:18:00 49.3802 12.8165 154 ° 15 km/h 780 m -13.8 m/s 402.700 MHz Domažlice (CZ) 0.00 km FOUND
S3210719 RS41 2021-04-14 19:38:51 49.2869 13.277 346 ° 4 km/h 678 m -6.2 m/s 402.70 MHz Klatovy (CZ) 0.00 km UNKNOWN
S3210792 RS41 2021-04-14 13:01:30 49.4477 12.9269 194 ° 7 km/h 529 m -9.5 m/s 402.70 MHz Domažlice (CZ) 0.00 km FOUND
S3210789 RS41 2021-04-14 07:26:30 49.333 13.1649 347 ° 6 km/h 519 m -10.1 m/s 402.70 MHz Kdyně (CZ) 0.00 km UNKNOWN
S3050056 RS41 2021-04-14 01:19:46 49.4316 13.2069 67 ° 9 km/h 698 m -10.7 m/s 402.70 MHz Klatovy (CZ) 0.00 km UNKNOWN
S3050052 RS41 2021-04-13 19:28:39 49.5809 13.3681 165 ° 11 km/h 523 m -6.3 m/s 402.70 MHz Přeštice (CZ) 0.00 km UNKNOWN
S3050047 RS41 2021-04-13 13:05:01 49.7649 13.2164 239 ° 4 km/h 554 m -6.8 m/s 402.70 MHz Nýřany (CZ) 0.00 km UNKNOWN
S3130212 RS41 2021-04-13 07:28:17 49.886 13.4161 170 ° 15 km/h 832 m -5.5 m/s 402.70 MHz Třemošná (CZ) 0.00 km FOUND
S3050055 RS41 2021-04-13 01:25:04 50.0396 13.5194 146 ° 22 km/h 617 m -4.2 m/s 402.70 MHz Rakovník (CZ) 0.00 km UNKNOWN
S3041066 RS41 2021-04-12 19:28:53 49.9645 13.9286 114 ° 15 km/h 657 m -8.7 m/s 402.70 MHz Králŭv Dvŭr (CZ) 0.00 km UNKNOWN
S3130214 RS41 2021-04-12 13:15:18 50.108 13.6524 129 ° 22 km/h 559 m -4.5 m/s 402.70 MHz Rakovník (CZ) 0.00 km UNKNOWN
S3130898 RS41 2021-04-12 07:36:39 50.03 13.9792 153 ° 17 km/h 493 m -6.2 m/s 402.70 MHz Králŭv Dvŭr (CZ) 0.00 km UNKNOWN
S3041064 RS41 2021-04-12 01:21:02 50.0334 13.7073 170 ° 39 km/h 539 m -8.0 m/s 402.70 MHz Rakovník (CZ) 0.00 km UNKNOWN
S2930634 RS41 2021-04-11 19:42:01 49.9062 14.0779 342 ° 19 km/h 514 m -9.6 m/s 402.70 MHz Králŭv Dvŭr (CZ) 0.00 km UNKNOWN
S3210718 RS41 2021-04-11 13:19:46 49.975 13.6873 271 ° 2 km/h 599 m -3.4 m/s 402.70 MHz Rakovník (CZ) 0.00 km UNKNOWN
S3210783 RS41 2021-04-11 07:02:49 49.9212 13.6788 82 ° 9 km/h 693 m -12.1 m/s 404.90 MHz Hořovice (CZ) 0.00 km UNKNOWN
S3210782 RS41 2021-04-11 01:24:11 49.9911 14.1796 307 ° 9 km/h 474 m -6.4 m/s 402.70 MHz Rudná (CZ) 0.00 km FOUND
S3210720 RS41 2021-04-10 19:06:20 49.7718 13.9213 296 ° 11 km/h 693 m -9.6 m/s 402.70 MHz Hořovice (CZ) 0.00 km UNKNOWN
S3131019 RS41 2021-04-10 13:20:20 49.8926 14.1946 76 ° 20 km/h 374 m -8.2 m/s 402.70 MHz Mníšek pod Brdy (CZ) 0.00 km FOUND
S3210791 RS41 2021-04-10 07:04:35 49.7339 14.2762 31 ° 30 km/h 574 m -8.4 m/s 402.70 MHz Dobříš (CZ) 0.00 km FOUND
S3130897 RS41 2021-04-10 01:15:54 49.5958 14.5139 26 ° 15 km/h 600 m -5.5 m/s 402.70 MHz Sedlčany (CZ) 0.00 km FOUND
S3130895 RS41 2021-04-09 19:51:03 49.6749 15.1676 36 ° 35 km/h 714 m -3.1 m/s 402.70 MHz Světlá nad Sázavou (CZ) 0.00 km UNKNOWN
S3210785 RS41 2021-04-09 13:19:29 49.7105 14.8094 8 ° 24 km/h 676 m -7.2 m/s 402.70 MHz Vlašim (CZ) 0.00 km UNKNOWN
S3210725 RS41 2021-04-09 07:16:52 49.2684 14.4378 21 ° 15 km/h 851 m -6.3 m/s 402.700 MHz Týn nad Vltavou (CZ) 0.00 km UNKNOWN
S3130253 RS41 2021-04-09 01:07:52 49.2732 14.3882 36 ° 17 km/h 879 m -11.8 m/s 402.70 MHz Týn nad Vltavou (CZ) 0.00 km UNKNOWN
S3131016 RS41 2021-04-08 19:17:33 48.9806 14.4 115 ° 19 km/h 928 m -5.2 m/s 402.70 MHz České Budějovice (CZ) 0.00 km UNKNOWN
S3130970 RS41 2021-04-08 13:11:23 48.9233 14.207 112 ° 30 km/h 1321 m -5.5 m/s 402.70 MHz Český Krumlov (CZ) 0.00 km UNKNOWN
S3130213 RS41 2021-04-08 07:32:56 48.5864 14.6581 105 ° 28 km/h 1118 m -4.0 m/s 402.70 MHz Sankt Oswald bei Freistadt (AT) 0.00 km UNKNOWN
S3120351 RS41 2021-04-08 01:43:23 48.9978 15.1952 116 ° 35 km/h 753 m -4.3 m/s 402.70 MHz Litschau (AT) 0.00 km UNKNOWN
S3120353 RS41 2021-04-07 19:09:03 49.0274 14.3869 88 ° 35 km/h 725 m -11.0 m/s 402.70 MHz Hluboká nad Vltavou (CZ) 0.00 km FOUND
S3120349 RS41 2021-04-07 12:58:29 49.2114 14.0126 104 ° 54 km/h 1089 m -8.2 m/s 402.70 MHz Strakonice (CZ) 0.00 km FOUND
S3120343 RS41 2021-04-07 07:23:21 49.3955 14.5423 105 ° 26 km/h 804 m -10.2 m/s 402.70 MHz Tábor (CZ) 0.00 km UNKNOWN
S3050678 RS41 2021-04-07 01:31:25 49.5167 14.7027 86 ° 9 km/h 646 m -5.6 m/s 402.70 MHz Tábor (CZ) 0.00 km UNKNOWN
S3120596 RS41 2021-04-06 19:18:44 49.3581 14.396 94 ° 39 km/h 766 m -5.8 m/s 402.70 MHz Milevsko (CZ) 0.00 km FOUND
S3120354 RS41 2021-04-06 13:01:45 49.273 13.8899 98 ° 41 km/h 1018 m -5.0 m/s 402.70 MHz Strakonice (CZ) 0.00 km FOUND
S3120595 RS41 2021-04-06 07:22:35 49.3266 14.2506 79 ° 48 km/h 875 m -9.0 m/s 402.70 MHz Písek (CZ) 0.00 km UNKNOWN
S3050737 RS41 2021-04-06 01:19:08 49.507 14.8077 92 ° 37 km/h 747 m -11.9 m/s 402.70 MHz Tábor (CZ) 0.00 km UNKNOWN
S3120355 RS41 2021-04-05 19:01:18 49.4759 14.5385 160 ° 33 km/h 702 m -10.1 m/s 402.70 MHz Tábor (CZ) 0.00 km UNKNOWN
S3130900 RS41 2021-04-05 12:54:48 49.4624 14.2112 79 ° 54 km/h 932 m -11.9 m/s 402.70 MHz Milevsko (CZ) 0.00 km UNKNOWN
S3050689 RS41 2021-04-05 07:00:06 49.1675 13.4759 73 ° 65 km/h 1247 m -11.5 m/s 402.70 MHz Sušice (CZ) 0.00 km UNKNOWN
S3120356 RS41 2021-04-05 01:07:00 49.132 13.0125 69 ° 37 km/h 1128 m -13.9 m/s 402.70 MHz Kdyně (CZ) 0.00 km LOST
S3120350 RS41 2021-04-04 19:08:30 49.1559 12.9122 74 ° 9 km/h 782 m -8.7 m/s 402.70 MHz Kdyně (CZ) 0.00 km LOST
S3050690 RS41 2021-04-04 13:13:00 49.059 12.5486 129 ° 19 km/h 1363 m -10.2 m/s 402.70 MHz Straubing (DE) 0.00 km FOUND
S3050688 RS41 2021-04-04 07:29:10 48.6956 12.1419 164 ° 11 km/h 607 m -4.2 m/s 402.70 MHz Landshut (DE) 0.00 km UNKNOWN
S3120591 RS41 2021-04-04 01:47:21 48.5068 12.0631 220 ° 6 km/h 522 m -3.4 m/s 402.70 MHz Landshut (DE) 0.00 km UNKNOWN
S3050675 RS41 2021-04-03 19:14:37 48.719 12.2157 111 ° 17 km/h 706 m -6.0 m/s 402.70 MHz Landshut (DE) 0.00 km UNKNOWN
S3120590 RS41 2021-04-03 13:05:43 48.8574 12.2345 162 ° 22 km/h 1037 m -14.8 m/s 402.70 MHz Regensburg (DE) 0.00 km FOUND
S3120589 RS41 2021-04-03 07:21:40 48.6051 12.7778 154 ° 35 km/h 949 m -8.4 m/s 402.70 MHz Deggendorf (DE) 0.00 km FOUND
S3130899 RS41 2021-04-03 01:14:07 48.8537 12.8537 161 ° 33 km/h 1036 m -9.5 m/s 402.70 MHz Deggendorf (DE) 0.00 km FOUND
S3050044 RS41 2021-04-02 19:04:43 49.032 13.0603 138 ° 30 km/h 1519 m -12.1 m/s 402.70 MHz Deggendorf (DE) 0.00 km FOUND
S3050738 RS41 2021-04-02 13:00:31 49.0995 12.6456 208 ° 13 km/h 1111 m -5.7 m/s 402.70 MHz Straubing (DE) 0.00 km FOUND
S3050735 RS41 2021-04-02 08:32:27 48.8261 13.2679 48 ° 9 km/h 1371 m -10.6 m/s 402.70 MHz Deggendorf (DE) 0.00 km UNKNOWN
S3050673 RS41 2021-04-02 01:06:11 48.967 12.7472 115 ° 31 km/h 1521 m -13.5 m/s 402.70 MHz Straubing (DE) 0.00 km UNKNOWN
S3120599 RS41 2021-04-01 19:02:54 48.9932 12.4494 130 ° 28 km/h 1105 m -12.1 m/s 402.70 MHz Straubing (DE) 0.00 km UNKNOWN
R3330604 RS41 2021-04-01 13:22:30 49.2161 12.8825 136 ° 17 km/h 694 m -5.0 m/s 402.70 MHz Kdyně (CZ) 0.00 km FOUND
R3330566 RS41 2021-04-01 07:18:30 49.2786 12.677 12 ° 13 km/h 633 m -8.8 m/s 402.70 MHz Domažlice (CZ) 0.00 km FOUND
R3340942 RS41 2021-04-01 01:37:30 49.4267 12.7176 90 ° 15 km/h 792 m -5.7 m/s 402.70 MHz Domažlice (CZ) 0.00 km FOUND
R3330567 RS41 2021-03-31 19:09:00 49.4022 12.4098 39 ° 7 km/h 804 m -8.6 m/s 402.700 MHz Schwandorf (DE) 0.00 km FOUND
R3330513 RS41 2021-03-31 12:56:38 49.4691 12.1285 360 ° 6 km/h 720 m -12.3 m/s 402.70 MHz Schwandorf (DE) 0.00 km FOUND
R3330575 RS41 2021-03-31 07:19:42 49.3912 12.0504 305 ° 9 km/h 487 m -5.6 m/s 402.70 MHz Schwandorf (DE) 0.00 km FOUND
R3330516 RS41 2021-03-31 01:19:07 49.3835 12.0265 276 ° 6 km/h 555 m -12.3 m/s 402.70 MHz Schwandorf (DE) 0.00 km FOUND
R3330485 RS41 2021-03-30 19:16:00 49.24 12.0074 258 ° 4 km/h 900 m -11.2 m/s 402.70 MHz Schwandorf (DE) 0.00 km FOUND
R3330727 RS41 2021-03-30 13:00:58 49.2192 11.8831 293 ° 7 km/h 888 m -10.0 m/s 402.70 MHz Schwandorf (DE) 0.00 km LOST
R3320682 RS41 2021-03-30 07:11:30 49.0109 11.9669 290 ° 7 km/h 572 m -10.1 m/s 402.70 MHz Regensburg (DE) 0.00 km FOUND
R3330509 RS41 2021-03-30 01:29:08 48.8134 12.156 131 ° 9 km/h 678 m -8.9 m/s 402.70 MHz Regensburg (DE) 0.00 km FOUND
R3330508 RS41 2021-03-29 19:21:13 48.7393 12.5026 106 ° 19 km/h 600 m -6.5 m/s 402.70 MHz Straubing (DE) 0.00 km FOUND
R3330481 RS41 2021-03-29 13:02:36 48.8707 12.4502 89 ° 24 km/h 819 m -8.5 m/s 402.70 MHz Straubing (DE) 0.00 km FOUND
R3330730 RS41 2021-03-29 07:16:06 48.6566 12.7387 41 ° 11 km/h 590 m -6.4 m/s 402.70 MHz Deggendorf (DE) 0.00 km FOUND
R3330571 RS41 2021-03-29 01:21:23 48.5359 13.0201 115 ° 31 km/h 671 m -11.6 m/s 402.70 MHz Passau (DE) 0.00 km UNKNOWN
R3340939 RS41 2021-03-28 19:23:27 48.5723 13.4373 85 ° 22 km/h 1087 m -5.2 m/s 402.70 MHz Passau (DE) 0.00 km NEED ATTENTION
R3330576 RS41 2021-03-28 13:06:29 48.8599 13.3617 89 ° 28 km/h 1500 m -11.5 m/s 402.70 MHz Deggendorf (DE) 0.00 km UNKNOWN
R3330735 RS41 2021-03-28 07:11:23 48.9617 13.5601 83 ° 41 km/h 1690 m -10.3 m/s 402.70 MHz Vimperk (CZ) 0.00 km UNKNOWN
R3330574 RS41 2021-03-28 01:17:05 48.868 13.6752 108 ° 35 km/h 1419 m -12.0 m/s 402.70 MHz Vimperk (CZ) 0.00 km UNKNOWN
R3330483 RS41 2021-03-27 19:18:36 49.1758 14.1454 98 ° 37 km/h 767 m -9.2 m/s 402.70 MHz Vodňany (CZ) 0.00 km FOUND
R3330510 RS41 2021-03-27 13:07:49 49.7241 13.8212 71 ° 41 km/h 840 m -9.7 m/s 402.70 MHz Hořovice (CZ) 0.00 km UNKNOWN
R3330738 RS41 2021-03-27 07:10:45 49.7813 13.4813 62 ° 63 km/h 846 m -7.4 m/s 402.70 MHz Třemošná (CZ) 0.00 km UNKNOWN
R3330733 RS41 2021-03-27 01:22:16 49.6945 13.2883 45 ° 24 km/h 472 m -2.2 m/s 402.70 MHz Dobřany (CZ) 0.00 km FOUND
R3330572 RS41 2021-03-26 19:38:44 49.5857 13.3242 346 ° 6 km/h 461 m -5.8 m/s 402.70 MHz Přeštice (CZ) 0.00 km UNKNOWN
R3320681 RS41 2021-03-26 13:26:09 49.473 13.1824 69 ° 22 km/h 571 m -5.4 m/s 402.70 MHz Klatovy (CZ) 0.00 km UNKNOWN
R3330568 RS41 2021-03-26 07:30:00 49.2076 13.0591 53 ° 6 km/h 880 m -10.1 m/s 402.70 MHz Kdyně (CZ) 0.00 km UNKNOWN
R3330734 RS41 2021-03-26 01:18:00 49.3515 12.9995 72 ° 13 km/h 751 m -11.0 m/s 402.70 MHz Kdyně (CZ) 0.00 km UNKNOWN
R3330484 RS41 2021-03-25 19:12:30 49.409 12.9695 11 ° 26 km/h 614 m -8.9 m/s 402.70 MHz Domažlice (CZ) 0.00 km FOUND
R3320649 RS41 2021-03-25 13:02:00 49.4459 12.8764 117 ° 13 km/h 626 m -11.5 m/s 402.70 MHz Domažlice (CZ) 0.00 km LOST
R3320210 RS41 2021-03-25 07:09:00 49.1524 12.7079 79 ° 9 km/h 744 m -5.1 m/s 402.70 MHz Straubing (DE) 0.00 km FOUND
R3320651 RS41 2021-03-25 01:05:04 49.0646 12.6626 78 ° 22 km/h 999 m -6.9 m/s 402.70 MHz Straubing (DE) 0.00 km UNKNOWN
R3320489 RS41 2021-03-24 19:13:34 48.9182 12.6524 114 ° 13 km/h 1091 m -12.0 m/s 402.70 MHz Straubing (DE) 0.00 km LOST
R3321060 RS41 2021-03-24 13:05:12 49.083 12.3362 32 ° 11 km/h 1300 m -7.1 m/s 402.70 MHz Regensburg (DE) 0.00 km FOUND
R3330694 RS41 2021-03-24 07:09:28 49.03 12.3213 142 ° 7 km/h 1055 m -12.8 m/s 402.70 MHz Regensburg (DE) 0.00 km FOUND
R3340771 RS41 2021-03-24 01:17:00 49.0917 12.5159 118 ° 15 km/h 949 m -6.0 m/s 402.70 MHz Straubing (DE) 0.00 km LOST
R3340770 RS41 2021-03-23 19:06:59 48.9967 12.3208 118 ° 17 km/h 956 m -14.1 m/s 402.70 MHz Regensburg (DE) 0.00 km FOUND
R3330729 RS41 2021-03-23 13:02:30 49.0497 12.2534 113 ° 19 km/h 1019 m -9.5 m/s 402.70 MHz Regensburg (DE) 0.00 km FOUND
R3330728 RS41 2021-03-23 07:06:05 48.7964 12.1019 120 ° 24 km/h 907 m -7.2 m/s 402.70 MHz Regensburg (DE) 0.00 km FOUND
R3340780 RS41 2021-03-23 01:27:52 48.6627 12.2395 115 ° 20 km/h 568 m -4.9 m/s 402.70 MHz Landshut (DE) 0.00 km UNKNOWN
R3321061 RS41 2021-03-22 19:20:44 48.5632 12.6813 147 ° 31 km/h 927 m -10.0 m/s 402.70 MHz Straubing (DE) 0.00 km FOUND
R3321090 RS41 2021-03-22 13:24:39 48.2635 11.7566 93 ° 22 km/h 576 m -4.9 m/s 402.70 MHz Erding (DE) 0.00 km FOUND
R3320502 RS41 2021-03-22 07:08:36 48.2778 11.772 121 ° 15 km/h 550 m -5.7 m/s 402.70 MHz Erding (DE) 0.00 km FOUND
R3340777 RS41 2021-03-22 01:13:15 48.4428 12.1989 122 ° 28 km/h 699 m -5.6 m/s 402.70 MHz Landshut (DE) 0.00 km FOUND
R3340778 RS41 2021-03-21 19:25:40 48.4568 12.4463 114 ° 48 km/h 887 m -11.7 m/s 402.70 MHz Landshut (DE) 0.00 km FOUND
R3340938 RS41 2021-03-21 13:06:51 48.7778 12.6241 86 ° 33 km/h 725 m -7.5 m/s 402.70 MHz Straubing (DE) 0.00 km FOUND
R3320503 RS41 2021-03-21 07:22:00 48.6896 12.6081 57 ° 28 km/h 467 m -11.9 m/s 402.70 MHz Straubing (DE) 0.00 km FOUND
R3320914 RS41 2021-03-21 01:14:17 48.6563 12.1019 91 ° 17 km/h 583 m -7.7 m/s 402.70 MHz Landshut (DE) 0.00 km UNKNOWN
R3330692 RS41 2021-03-20 19:11:35 48.4471 11.621 76 ° 13 km/h 593 m -9.6 m/s 402.70 MHz Freising (DE) 0.00 km FOUND
R3330737 RS41 2021-03-20 13:17:37 48.2989 11.1727 203 ° 9 km/h 635 m -5.9 m/s 402.70 MHz Fürstenfeldbruck (DE) 0.00 km FOUND
R3330486 RS41 2021-03-20 07:15:21 48.2703 11.1439 208 ° 13 km/h 721 m -6.0 m/s 402.70 MHz Fürstenfeldbruck (DE) 0.00 km FOUND
R3330137 RS41 2021-03-20 01:36:37 48.1156 11.1106 202 ° 24 km/h 801 m -6.5 m/s 402.70 MHz Fürstenfeldbruck (DE) 0.00 km FOUND
R3330124 RS41 2021-03-19 19:29:25 48.2869 11.5237 195 ° 26 km/h 671 m -9.3 m/s 402.70 MHz Unterschleißheim (DE) 0.00 km FOUND
R3330731 RS41 2021-03-19 12:59:47 48.7962 11.8438 192 ° 17 km/h 670 m -11.5 m/s 402.70 MHz Regensburg (DE) 0.00 km LOST
R3330515 RS41 2021-03-19 07:27:32 48.5856 11.8976 184 ° 7 km/h 713 m -3.6 m/s 402.70 MHz Landshut (DE) 0.00 km NEED ATTENTION
R3330501 RS41 2021-03-19 01:06:33 48.8569 12.2023 179 ° 7 km/h 738 m -5.0 m/s 402.70 MHz Regensburg (DE) 0.00 km FOUND
R3330482 RS41 2021-03-18 19:23:22 48.7385 12.4715 54 ° 7 km/h 647 m -9.7 m/s 402.70 MHz Straubing (DE) 0.00 km FOUND
R3330514 RS41 2021-03-18 13:04:15 48.8397 12.1209 140 ° 19 km/h 860 m -9.2 m/s 402.70 MHz Regensburg (DE) 0.00 km FOUND
R3320683 RS41 2021-03-18 07:19:01 48.6344 12.1384 168 ° 17 km/h 573 m -5.1 m/s 402.70 MHz Landshut (DE) 0.00 km UNKNOWN
R3320500 RS41 2021-03-18 01:07:47 48.6125 11.9925 166 ° 19 km/h 620 m -11.1 m/s 402.70 MHz Landshut (DE) 0.00 km UNKNOWN
R3320488 RS41 2021-03-17 19:34:42 48.6579 12.4933 157 ° 15 km/h 452 m -4.1 m/s 402.70 MHz Straubing (DE) 0.00 km FOUND
R3340921 RS41 2021-03-17 13:21:21 48.6624 12.5533 111 ° 13 km/h 472 m -6.5 m/s 402.70 MHz Straubing (DE) 0.00 km FOUND
R3330466 RS41 2021-03-17 08:04:19 48.2405 12.869 127 ° 17 km/h 456 m -6.3 m/s 402.70 MHz Hochburg-Ach (AT) 0.00 km UNKNOWN
R3330679 RS41 2021-03-17 01:44:45 48.3788 13.0638 112 ° 26 km/h 656 m -8.2 m/s 402.70 MHz Braunau am Inn (AT) 0.00 km FOUND
R3321091 RS41 2021-03-16 19:17:58 48.4713 12.8968 102 ° 37 km/h 693 m -4.6 m/s 402.70 MHz Braunau am Inn (AT) 0.00 km FOUND
R3320487 RS41 2021-03-16 13:00:57 48.5776 12.3791 118 ° 31 km/h 562 m -10.5 m/s 402.70 MHz Landshut (DE) 0.00 km UNKNOWN
R3320437 RS41 2021-03-16 07:09:49 48.593 12.6895 120 ° 35 km/h 662 m -11.5 m/s 402.70 MHz Straubing (DE) 0.00 km UNKNOWN
R3320491 RS41 2021-03-16 01:02:06 48.7756 12.6854 123 ° 54 km/h 681 m -7.7 m/s 402.70 MHz Straubing (DE) 0.00 km FOUND
R3320490 RS41 2021-03-15 19:28:53 48.7335 13.2206 123 ° 50 km/h 1096 m -4.0 m/s 402.70 MHz Deggendorf (DE) 0.00 km UNKNOWN
R3320463 RS41 2021-03-15 13:17:24 48.9991 13.2467 77 ° 26 km/h 1496 m -7.2 m/s 402.70 MHz Deggendorf (DE) 0.00 km UNKNOWN
R3321087 RS41 2021-03-15 07:17:32 48.9493 13.2609 78 ° 24 km/h 1327 m -6.6 m/s 402.70 MHz Deggendorf (DE) 0.00 km UNKNOWN
R3321059 RS41 2021-03-15 00:55:43 49.0181 12.9791 116 ° 35 km/h 1564 m -7.6 m/s 402.70 MHz Deggendorf (DE) 0.00 km UNKNOWN
R3320436 RS41 2021-03-14 19:17:30 49.0815 13.4409 105 ° 35 km/h 1275 m -8.0 m/s 402.70 MHz Sušice (CZ) 0.00 km UNKNOWN
R3330693 RS41 2021-03-14 13:27:03 49.4333 13.9129 101 ° 44 km/h 879 m -5.6 m/s 402.70 MHz Blatná (CZ) 0.00 km FOUND
R3330054 RS41 2021-03-14 07:01:48 49.4023 13.9466 102 ° 46 km/h 871 m -10.1 m/s 402.70 MHz Blatná (CZ) 0.00 km FOUND
R3330053 RS41 2021-03-14 01:09:51 49.6177 14.4356 50 ° 30 km/h 472 m -6.5 m/s 402.70 MHz Sedlčany (CZ) 0.00 km UNKNOWN
R3330050 RS41 2021-03-13 19:29:51 49.5288 15.4581 77 ° 69 km/h 1033 m -9.8 m/s 402.70 MHz Humpolec (CZ) 0.00 km UNKNOWN
R3321089 RS41 2021-03-13 13:22:17 49.4962 15.5022 53 ° 50 km/h 1015 m -13.7 m/s 402.70 MHz Humpolec (CZ) 0.00 km UNKNOWN
R3321058 RS41 2021-03-13 07:22:25 49.1588 14.841 57 ° 33 km/h 624 m -8.8 m/s 402.70 MHz Veselí nad Lužnicí (CZ) 0.00 km FOUND
R3251248 RS41 2021-03-13 01:41:36 49.1014 15.108 50 ° 31 km/h 685 m -4.3 m/s 402.70 MHz Jindřichŭv Hradec (CZ) 0.00 km UNKNOWN
R3330696 RS41 2021-03-12 19:20:26 49.291 15.0372 63 ° 30 km/h 773 m -11.8 m/s 402.70 MHz Jindřichŭv Hradec (CZ) 0.00 km FOUND
R3330749 RS41 2021-03-12 13:28:06 49.3843 15.2644 96 ° 35 km/h 670 m -4.8 m/s 402.70 MHz Pelhřimov (CZ) 0.00 km FOUND
R3321088 RS41 2021-03-12 07:21:16 49.0541 15.6538 97 ° 52 km/h 623 m -7.4 m/s 402.70 MHz Moravské Budějovice (CZ) 0.00 km UNKNOWN
R3330052 RS41 2021-03-12 00:34:04 49.5333 14.4756 77 ° 44 km/h 760 m -4.8 m/s 402.70 MHz Milevsko (CZ) 0.00 km UNKNOWN
R3330033 RS41 2021-03-11 19:21:02 49.2976 15.6557 30 ° 41 km/h 867 m -6.5 m/s 402.70 MHz Jihlava (CZ) 0.00 km UNKNOWN
R3330034 RS41 2021-03-11 12:38:53 49.16 14.4025 44 ° 20 km/h 635 m -10.7 m/s 402.70 MHz Týn nad Vltavou (CZ) 0.00 km FOUND
R3330001 RS41 2021-03-11 07:17:52 48.4851 14.7821 19 ° 26 km/h 1013 m -4.7 m/s 402.70 MHz Unterweissenbach (AT) 0.00 km FOUND
R3321092 RS41 2021-03-11 00:52:08 48.3532 13.4402 296 ° 20 km/h 453 m -12.0 m/s 402.70 MHz Andorf (AT) 0.00 km FOUND
R3320473 RS41 2021-03-10 18:56:42 48.2735 13.4654 7 ° 15 km/h 554 m -8.3 m/s 402.70 MHz Aurolzmünster (AT) 0.00 km UNKNOWN
R3320546 RS41 2021-03-10 12:52:15 48.3672 13.1944 136 ° 13 km/h 535 m -8.8 m/s 402.70 MHz Altheim (AT) 0.00 km UNKNOWN
R3320541 RS41 2021-03-10 07:16:11 48.466 13.9912 76 ° 13 km/h 671 m -6.2 m/s 402.70 MHz Altenfelden (AT) 0.00 km FOUND
R3321057 RS41 2021-03-10 01:35:33 48.5564 14.0362 26 ° 9 km/h 769 m -10.4 m/s 402.70 MHz Haslach an der Mühl (AT) 0.00 km UNKNOWN
R3330049 RS41 2021-03-09 19:25:11 48.8785 13.8265 24 ° 7 km/h 1359 m -4.1 m/s 402.70 MHz Prachatice (CZ) 0.00 km UNKNOWN
R3330135 RS41 2021-03-09 13:27:55 49.0921 14.4822 321 ° 9 km/h 930 m -8.4 m/s 402.70 MHz Hluboká nad Vltavou (CZ) 0.00 km UNKNOWN
R3330133 RS41 2021-03-09 07:15:40 48.9527 14.1327 306 ° 9 km/h 901 m -6.8 m/s 402.70 MHz Prachatice (CZ) 0.00 km LOST
R3340936 RS41 2021-03-09 01:39:48 48.7738 14.4633 290 ° 9 km/h 756 m -11.7 m/s 402.70 MHz Kaplice (CZ) 0.00 km FOUND
R3340920 RS41 2021-03-08 19:20:28 48.7101 14.0453 198 ° 15 km/h 1031 m -6.4 m/s 402.70 MHz Ulrichsberg (AT) 0.00 km LOST
R3420433 RS41 2021-03-08 13:10:40 48.7887 13.7632 164 ° 4 km/h 1415 m -6.7 m/s 402.70 MHz Ulrichsberg (AT) 0.00 km UNKNOWN
R3330464 RS41 2021-03-08 07:12:04 48.6676 13.8839 132 ° 17 km/h 960 m -4.8 m/s 402.70 MHz Ulrichsberg (AT) 0.00 km FOUND
R3340941 RS41 2021-03-08 01:06:44 48.861 13.9657 163 ° 17 km/h 1291 m -11.7 m/s 402.70 MHz Prachatice (CZ) 0.00 km UNKNOWN
R3340776 RS41 2021-03-07 19:05:28 48.9456 13.8729 85 ° 19 km/h 1231 m -13.7 m/s 402.70 MHz Prachatice (CZ) 0.00 km UNKNOWN
R3330460 RS41 2021-03-07 13:07:47 49.1107 13.7657 71 ° 13 km/h 1288 m -7.6 m/s 402.70 MHz Vimperk (CZ) 0.00 km UNKNOWN
R3330138 RS41 2021-03-07 07:06:44 48.9005 13.4848 359 ° 15 km/h 1287 m -6.1 m/s 402.70 MHz Vimperk (CZ) 0.00 km UNKNOWN
R3330459 RS41 2021-03-07 00:59:34 48.8723 13.7624 117 ° 9 km/h 1445 m -12.5 m/s 402.70 MHz Vimperk (CZ) 0.00 km UNKNOWN
R3330695 RS41 2021-03-06 19:18:04 48.7173 14.1941 302 ° 9 km/h 963 m -4.6 m/s 402.70 MHz Český Krumlov (CZ) 0.00 km UNKNOWN
R3330674 RS41 2021-03-06 13:03:57 48.7635 13.8078 322 ° 6 km/h 1221 m -13.3 m/s 402.70 MHz Ulrichsberg (AT) 0.00 km FOUND
R3330463 RS41 2021-03-06 07:27:22 48.5726 13.8242 269 ° 17 km/h 876 m -2.4 m/s 402.70 MHz Sarleinsbach (AT) 0.00 km LOST
R3330474 RS41 2021-03-06 01:07:05 48.6897 13.4292 247 ° 13 km/h 645 m -11.6 m/s 402.70 MHz Passau (DE) 0.00 km LOST
R3330123 RS41 2021-03-05 19:13:03 48.686 13.6704 214 ° 24 km/h 977 m -10.4 m/s 402.70 MHz Esternberg (AT) 0.00 km UNKNOWN
R3320507 RS41 2021-03-05 13:01:29 49.0737 14.0855 179 ° 20 km/h 911 m -9.9 m/s 402.70 MHz Prachatice (CZ) 0.00 km FOUND
R3330473 RS41 2021-03-05 07:24:23 49.0477 14.4685 162 ° 30 km/h 608 m -7.4 m/s 402.70 MHz Hluboká nad Vltavou (CZ) 0.00 km FOUND
R3330472 RS41 2021-03-05 02:01:04 49.3716 13.788 205 ° 33 km/h 999 m -8.6 m/s 404.90 MHz Horažďovice (CZ) 0.00 km UNKNOWN
R3320492 RS41 2021-03-05 00:41:37 49.4298 13.4844 208 ° 7 km/h 699 m -8.1 m/s 402.70 MHz Klatovy (CZ) 0.00 km UNKNOWN
R3330691 RS41 2021-03-04 19:22:22 49.2958 14.535 99 ° 39 km/h 881 m -5.7 m/s 402.70 MHz Týn nad Vltavou (CZ) 0.00 km FOUND
R3330437 RS41 2021-03-04 13:12:29 49.4206 13.9898 91 ° 33 km/h 806 m -8.0 m/s 402.70 MHz Blatná (CZ) 0.00 km FOUND
R3330134 RS41 2021-03-04 07:28:44 49.2897 13.9377 99 ° 35 km/h 1080 m -7.0 m/s 402.70 MHz Strakonice (CZ) 0.00 km FOUND
R3330676 RS41 2021-03-04 00:13:30 49.3578 12.8021 44 ° 4 km/h 637 m -12.9 m/s 402.70 MHz Domažlice (CZ) 0.00 km FOUND
R3330678 RS41 2021-03-03 18:47:30 49.3017 12.9047 62 ° 15 km/h 484 m -6.9 m/s 402.70 MHz Kdyně (CZ) 0.00 km FOUND
R3330126 RS41 2021-03-03 13:30:00 49.2908 13.1852 91 ° 15 km/h 662 m -4.8 m/s 402.70 MHz Klatovy (CZ) 0.00 km UNKNOWN
R3330125 RS41 2021-03-03 07:26:01 49.2387 12.8092 350 ° 4 km/h 572 m -6.9 m/s 402.70 MHz Kdyně (CZ) 0.00 km FOUND
R3330468 RS41 2021-03-03 01:20:30 49.3892 12.6235 352 ° 6 km/h 543 m -5.5 m/s 402.70 MHz Domažlice (CZ) 0.00 km FOUND
R3330122 RS41 2021-03-02 19:07:30 49.3271 12.4062 295 ° 9 km/h 742 m -11.3 m/s 402.70 MHz Schwandorf (DE) 0.00 km FOUND
R3330455 RS41 2021-03-02 12:58:30 49.431 11.9334 295 ° 7 km/h 788 m -12.6 m/s 402.70 MHz Amberg (DE) 0.00 km FOUND
R3330440 RS41 2021-03-02 07:14:52 49.2736 12.2214 275 ° 13 km/h 594 m -10.0 m/s 402.70 MHz Schwandorf (DE) 0.00 km FOUND
R3330462 RS41 2021-03-02 01:29:15 49.2698 12.1704 261 ° 13 km/h 596 m -5.7 m/s 402.70 MHz Schwandorf (DE) 0.00 km FOUND
R3330458 RS41 2021-03-01 19:05:00 49.2462 11.8911 282 ° 22 km/h 1036 m -5.2 m/s 404.90 MHz Schwandorf (DE) 0.00 km LOST
R3330465 RS41 2021-03-01 13:18:33 49.2007 11.7677 261 ° 13 km/h 919 m -10.0 m/s 402.70 MHz Neumarkt in der Oberpfalz (DE) 0.00 km FOUND
R3330439 RS41 2021-03-01 07:24:00 48.9908 11.9795 235 ° 17 km/h 616 m -6.0 m/s 402.70 MHz Regensburg (DE) 0.00 km FOUND
R3330469 RS41 2021-03-01 01:31:14 48.9786 12.1757 253 ° 7 km/h 894 m -5.9 m/s 402.70 MHz Regensburg (DE) 0.00 km NEED ATTENTION
R3330457 RS41 2021-02-28 19:11:00 48.9539 12.1211 270 ° 15 km/h 945 m -11.8 m/s 402.70 MHz Regensburg (DE) 0.00 km FOUND
R3330461 RS41 2021-02-28 12:58:30 48.9997 12.2679 217 ° 13 km/h 876 m -8.9 m/s 402.70 MHz Regensburg (DE) 0.00 km FOUND
R3330456 RS41 2021-02-28 07:12:25 48.9112 12.3609 294 ° 26 km/h 972 m -5.9 m/s 402.70 MHz Straubing (DE) 0.00 km LOST
R3320501 RS41 2021-02-28 01:29:13 48.9057 11.9315 253 ° 26 km/h 610 m -3.7 m/s 402.70 MHz Regensburg (DE) 0.00 km FOUND
R3330471 RS41 2021-02-27 19:12:11 48.769 12.0598 219 ° 28 km/h 738 m -5.7 m/s 402.70 MHz Landshut (DE) 0.00 km FOUND
R3340919 RS41 2021-02-27 13:08:36 48.7369 11.7693 218 ° 11 km/h 696 m -7.6 m/s 402.70 MHz Ingolstadt (DE) 0.00 km UNKNOWN
R3340775 RS41 2021-02-27 07:12:55 48.7383 12.4177 221 ° 9 km/h 1144 m -6.9 m/s 402.70 MHz Straubing (DE) 0.00 km FOUND
R3340779 RS41 2021-02-27 01:38:39 49.0617 13.7975 209 ° 35 km/h 1417 m -5.4 m/s 402.70 MHz Vimperk (CZ) 0.00 km UNKNOWN
R3340769 RS41 2021-02-26 19:44:41 49.4221 14.581 182 ° 28 km/h 590 m -6.3 m/s 402.70 MHz Tábor (CZ) 0.00 km UNKNOWN
R3330317 RS41 2021-02-26 13:30:20 49.6238 14.0453 109 ° 19 km/h 684 m -4.5 m/s 402.70 MHz Příbram (CZ) 0.00 km UNKNOWN
R3330237 RS41 2021-02-26 07:34:14 49.5924 13.9047 105 ° 39 km/h 866 m -5.8 m/s 402.70 MHz Příbram (CZ) 0.00 km UNKNOWN
R3340940 RS41 2021-02-26 01:36:21 49.7269 13.6004 85 ° 15 km/h 679 m -4.7 m/s 402.70 MHz Rokycany (CZ) 0.00 km UNKNOWN
R3330832 RS41 2021-02-25 19:11:30 49.6067 12.923 40 ° 11 km/h 554 m -6.7 m/s 402.70 MHz Holýšov (CZ) 0.00 km FOUND
R3330828 RS41 2021-02-25 13:07:00 49.624 12.6513 62 ° 15 km/h 829 m -14.1 m/s 402.70 MHz Tachov (CZ) 0.00 km UNKNOWN
R3330238 RS41 2021-02-25 07:01:27 49.5245 12.3981 9 ° 22 km/h 875 m -12.2 m/s 402.70 MHz Weiden in der Oberpfalz (DE) 0.00 km FOUND
R3420467 RS41 2021-02-25 01:24:53 49.5835 12.1689 43 ° 9 km/h 509 m -3.9 m/s 402.70 MHz Weiden in der Oberpfalz (DE) 0.00 km FOUND
R3420458 RS41 2021-02-24 19:30:16 49.4088 12.0963 349 ° 9 km/h 545 m -6.1 m/s 402.70 MHz Schwandorf (DE) 0.00 km FOUND
R3340792 RS41 2021-02-24 13:18:29 49.28 12.0698 349 ° 7 km/h 706 m -7.0 m/s 402.70 MHz Schwandorf (DE) 0.00 km FOUND
R3330240 RS41 2021-02-24 07:04:30 48.9247 12.0772 359 ° 11 km/h 818 m -13.4 m/s 402.70 MHz Regensburg (DE) 0.00 km FOUND
R3340937 RS41 2021-02-24 01:38:09 48.7007 12.2396 47 ° 9 km/h 589 m -3.6 m/s 402.70 MHz Landshut (DE) 0.00 km UNKNOWN
R3340935 RS41 2021-02-23 19:17:08 48.8065 12.7633 286 ° 19 km/h 776 m -8.7 m/s 402.70 MHz Deggendorf (DE) 0.00 km FOUND
R3420435 RS41 2021-02-23 13:20:31 49.2288 12.9906 2 ° 7 km/h 670 m -6.4 m/s 402.70 MHz Kdyně (CZ) 0.00 km FOUND
R3330236 RS41 2021-02-23 07:05:30 49.2564 12.9177 236 ° 2 km/h 642 m -15.3 m/s 402.70 MHz Kdyně (CZ) 0.00 km FOUND
R3340809 RS41 2021-02-23 01:30:00 49.2684 13.0999 122 ° 4 km/h 756 m -11.7 m/s 404.90 MHz Kdyně (CZ) 0.00 km FOUND
R3340932 RS41 2021-02-22 19:20:30 49.3746 13.0888 73 ° 24 km/h 689 m -5.2 m/s 402.70 MHz Kdyně (CZ) 0.00 km UNKNOWN
R3340934 RS41 2021-02-22 12:56:30 49.7139 12.8018 48 ° 17 km/h 893 m -11.2 m/s 402.70 MHz Tachov (CZ) 0.00 km UNKNOWN
R3340933 RS41 2021-02-22 06:52:39 49.8776 12.493 252 ° 11 km/h 777 m -7.9 m/s 402.70 MHz Tachov (CZ) 0.00 km FOUND
R3330209 RS41 2021-02-22 00:58:00 49.5848 12.7429 276 ° 7 km/h 614 m -11.5 m/s 402.70 MHz Domažlice (CZ) 0.00 km FOUND
R3330190 RS41 2021-02-21 19:32:30 49.5068 12.8528 252 ° 17 km/h 635 m -4.8 m/s 402.70 MHz Domažlice (CZ) 0.00 km FOUND
R3420508 RS41 2021-02-21 13:13:00 49.4842 12.8189 246 ° 7 km/h 563 m -12.7 m/s 404.90 MHz Domažlice (CZ) 0.00 km FOUND
R3330193 RS41 2021-02-21 07:15:00 49.2902 12.9528 251 ° 7 km/h 530 m -10.1 m/s 402.70 MHz Kdyně (CZ) 0.00 km FOUND
R3330239 RS41 2021-02-21 01:20:39 49.1247 13.3676 38 ° 2 km/h 1214 m -7.5 m/s 402.70 MHz Sušice (CZ) 0.00 km UNKNOWN
R3330817 RS41 2021-02-20 19:07:02 49.0684 13.5136 333 ° 4 km/h 1556 m -13.2 m/s 402.70 MHz Sušice (CZ) 0.00 km UNKNOWN
R3340773 RS41 2021-02-20 13:11:33 49.1687 13.52 35 ° 7 km/h 1286 m -6.8 m/s 402.70 MHz Sušice (CZ) 0.00 km UNKNOWN
R3330200 RS41 2021-02-20 07:18:47 49.0934 13.4231 37 ° 11 km/h 1237 m -4.8 m/s 402.70 MHz Sušice (CZ) 0.00 km UNKNOWN
R3330818 RS41 2021-02-20 01:20:05 48.9285 13.7653 100 ° 28 km/h 1366 m -5.5 m/s 402.70 MHz Vimperk (CZ) 0.00 km UNKNOWN
R3330819 RS41 2021-02-19 19:36:55 48.7569 13.9906 108 ° 17 km/h 1023 m -7.3 m/s 402.70 MHz Ulrichsberg (AT) 0.00 km UNKNOWN
R3340772 RS41 2021-02-19 12:59:02 48.9831 13.6204 75 ° 26 km/h 1486 m -10.0 m/s 402.70 MHz Vimperk (CZ) 0.00 km UNKNOWN
R3330191 RS41 2021-02-19 07:15:56 49.1362 14.1886 89 ° 35 km/h 755 m -9.5 m/s 402.70 MHz Vodňany (CZ) 0.00 km FOUND
R3420506 RS41 2021-02-19 01:04:47 49.7383 13.8013 54 ° 39 km/h 946 m -9.1 m/s 402.70 MHz Hořovice (CZ) 0.00 km UNKNOWN
R3330203 RS41 2021-02-18 19:08:21 49.4475 13.783 356 ° 24 km/h 958 m -12.5 m/s 402.70 MHz Blatná (CZ) 0.00 km LOST
R3330202 RS41 2021-02-18 13:02:27 49.4287 13.5856 309 ° 15 km/h 839 m -7.0 m/s 402.70 MHz Horažďovice (CZ) 0.00 km UNKNOWN
R3330195 RS41 2021-02-18 07:14:30 49.2408 13.6275 285 ° 2 km/h 982 m -6.2 m/s 402.70 MHz Sušice (CZ) 0.00 km UNKNOWN
R3420507 RS41 2021-02-18 01:25:49 48.9319 13.8791 117 ° 24 km/h 1299 m -5.0 m/s 402.70 MHz Prachatice (CZ) 0.00 km UNKNOWN
R3330408 RS41 2021-02-17 19:12:11 48.8898 13.6615 115 ° 39 km/h 1365 m -13.4 m/s 402.70 MHz Vimperk (CZ) 0.00 km UNKNOWN
R3420532 RS41 2021-02-17 13:08:00 49.2089 13.6009 100 ° 59 km/h 1216 m -14.3 m/s 402.70 MHz Sušice (CZ) 0.00 km FOUND
R3420509 RS41 2021-02-17 07:24:56 49.4387 13.9761 99 ° 61 km/h 810 m -9.8 m/s 402.70 MHz Blatná (CZ) 0.00 km FOUND
R3330196 RS41 2021-02-17 01:10:52 49.5597 13.8373 71 ° 37 km/h 842 m -8.4 m/s 402.70 MHz Blatná (CZ) 0.00 km UNKNOWN
R3330189 RS41 2021-02-16 19:13:15 49.1266 13.6746 107 ° 22 km/h 1293 m -5.3 m/s 402.70 MHz Vimperk (CZ) 0.00 km UNKNOWN
R3340788 RS41 2021-02-16 12:59:39 48.8926 13.2435 96 ° 35 km/h 1268 m -9.6 m/s 402.70 MHz Deggendorf (DE) 0.00 km UNKNOWN
R3330197 RS41 2021-02-16 06:38:50 48.6169 12.9671 116 ° 37 km/h 960 m -10.9 m/s 402.70 MHz Deggendorf (DE) 0.00 km UNKNOWN
R3330367 RS41 2021-02-16 01:30:28 48.3648 13.9067 66 ° 9 km/h 633 m -4.3 m/s 402.70 MHz Waizenkirchen (AT) 0.00 km FOUND
R3340787 RS41 2021-02-15 19:03:09 48.6987 13.4027 70 ° 20 km/h 975 m -12.0 m/s 402.70 MHz Passau (DE) 0.00 km FOUND
R3340797 RS41 2021-02-15 13:03:55 48.6635 13.1206 23 ° 17 km/h 1214 m -11.5 m/s 402.70 MHz Deggendorf (DE) 0.00 km LOST
R3340790 RS41 2021-02-15 07:17:22 48.3537 12.8678 294 ° 19 km/h 558 m -5.2 m/s 402.70 MHz Braunau am Inn (AT) 0.00 km FOUND
R3330306 RS41 2021-02-15 01:09:08 48.4847 12.8194 307 ° 26 km/h 750 m -11.6 m/s 402.70 MHz Braunau am Inn (AT) 0.00 km FOUND
R3330194 RS41 2021-02-14 19:22:41 48.297 12.8686 282 ° 6 km/h 603 m -7.5 m/s 402.70 MHz Braunau am Inn (AT) 0.00 km FOUND
R3330349 RS41 2021-02-14 12:51:20 48.4768 12.226 284 ° 9 km/h 962 m -7.1 m/s 402.70 MHz Landshut (DE) 0.00 km UNKNOWN
R3330303 RS41 2021-02-14 07:09:00 48.2956 12.1228 300 ° 24 km/h 622 m -4.9 m/s 402.70 MHz Erding (DE) 0.00 km FOUND
R3330304 RS41 2021-02-14 01:22:12 48.5306 12.5937 313 ° 9 km/h 1006 m -7.8 m/s 402.70 MHz Landshut (DE) 0.00 km UNKNOWN
R3330416 RS41 2021-02-13 19:26:52 48.5742 12.7656 302 ° 22 km/h 1236 m -6.8 m/s 402.70 MHz Deggendorf (DE) 0.00 km UNKNOWN
R3330293 RS41 2021-02-13 13:23:09 48.7568 12.7294 254 ° 9 km/h 740 m -5.6 m/s 402.70 MHz Straubing (DE) 0.00 km FOUND
R3341002 RS41 2021-02-13 07:23:35 48.8075 13.0549 271 ° 35 km/h 994 m -7.6 m/s 402.70 MHz Deggendorf (DE) 0.00 km UNKNOWN
R3320444 RS41 2021-02-13 01:15:03 48.9396 13.4544 237 ° 46 km/h 1248 m -11.7 m/s 402.70 MHz Vimperk (CZ) 0.00 km UNKNOWN
R3330305 RS41 2021-02-12 19:15:29 48.8589 14.0466 217 ° 31 km/h 1309 m -10.7 m/s 402.70 MHz Prachatice (CZ) 0.00 km UNKNOWN
R3340798 RS41 2021-02-12 13:10:37 48.9108 14.1512 222 ° 13 km/h 914 m -4.8 m/s 402.70 MHz Prachatice (CZ) 0.00 km FOUND
R3320543 RS41 2021-02-12 07:18:40 48.8602 14.3487 175 ° 6 km/h 725 m -11.1 m/s 402.70 MHz Český Krumlov (CZ) 0.00 km FOUND
R3320551 RS41 2021-02-12 01:36:19 48.8316 14.4529 152 ° 15 km/h 718 m -10.3 m/s 402.70 MHz Český Krumlov (CZ) 0.00 km FOUND
R3320545 RS41 2021-02-11 19:05:17 48.9172 14.1317 167 ° 26 km/h 943 m -12.6 m/s 402.70 MHz Prachatice (CZ) 0.00 km FOUND
R3330292 RS41 2021-02-11 13:26:07 48.9729 14.3463 118 ° 33 km/h 668 m -3.8 m/s 402.70 MHz České Budějovice (CZ) 0.00 km UNKNOWN
R3330323 RS41 2021-02-11 07:22:24 49.178 14.3855 164 ° 37 km/h 964 m -5.5 m/s 402.70 MHz Týn nad Vltavou (CZ) 0.00 km FOUND
R3320547 RS41 2021-02-11 01:37:05 49.7025 14.7842 152 ° 26 km/h 667 m -10.5 m/s 402.70 MHz Vlašim (CZ) 0.00 km FOUND
R3321103 RS41 2021-02-10 19:25:51 49.5961 14.3788 179 ° 24 km/h 602 m -8.1 m/s 402.70 MHz Sedlčany (CZ) 0.00 km LOST
R3330324 RS41 2021-02-10 13:24:48 49.8214 14.3707 190 ° 13 km/h 443 m -3.1 m/s 402.70 MHz Mníšek pod Brdy (CZ) 0.00 km UNKNOWN
R3330417 RS41 2021-02-10 08:30:12 50.1074 16.0023 262 ° 4 km/h 620 m -9.1 m/s 402.70 MHz Holice (CZ) 0.00 km FOUND
R3340789 RS41 2021-02-10 01:07:41 49.6911 14.5798 222 ° 11 km/h 566 m -10.9 m/s 402.70 MHz Sedlčany (CZ) 0.00 km UNKNOWN
R3340791 RS41 2021-02-09 19:30:48 49.4584 14.7648 39 ° 7 km/h 586 m -7.8 m/s 402.70 MHz Tábor (CZ) 0.00 km UNKNOWN
R3320549 RS41 2021-02-09 13:14:38 49.802 14.2258 200 ° 9 km/h 527 m -5.9 m/s 402.70 MHz Dobříš (CZ) 0.00 km NEED ATTENTION
R3320469 RS41 2021-02-09 07:06:41 49.7117 14.18 206 ° 2 km/h 566 m -10.2 m/s 402.70 MHz Dobříš (CZ) 0.00 km FOUND
R3320552 RS41 2021-02-09 01:23:00 49.9551 14.4996 204 ° 11 km/h 413 m -3.4 m/s 402.70 MHz Jesenice (CZ) 0.00 km FOUND
R3320550 RS41 2021-02-08 19:21:31 49.795 14.1781 241 ° 11 km/h 517 m -7.2 m/s 402.70 MHz Dobříš (CZ) 0.00 km UNKNOWN
R3320862 RS41 2021-02-08 13:27:00 49.9488 13.7757 348 ° 2 km/h 610 m -5.1 m/s 402.70 MHz Hořovice (CZ) 0.00 km UNKNOWN
R3310929 RS41 2021-02-08 07:38:07 49.7707 13.8101 192 ° 4 km/h 640 m -6.0 m/s 402.70 MHz Hořovice (CZ) 0.00 km UNKNOWN
R3320542 RS41 2021-02-08 01:01:55 50.002 12.7401 249 ° 17 km/h 987 m -6.6 m/s 402.70 MHz Mariánské Lázně (CZ) 0.00 km UNKNOWN
R3310928 RS41 2021-02-07 19:12:33 49.9903 13.1564 253 ° 30 km/h 747 m -6.6 m/s 402.70 MHz Třemošná (CZ) 0.00 km UNKNOWN
R3320950 RS41 2021-02-07 13:04:25 50.0202 13.5648 243 ° 26 km/h 621 m -12.4 m/s 402.70 MHz Rakovník (CZ) 0.00 km UNKNOWN
R3320472 RS41 2021-02-07 06:43:40 49.9912 13.6522 249 ° 33 km/h 656 m -9.0 m/s 402.70 MHz Rakovník (CZ) 0.00 km FOUND
R3330025 RS41 2021-02-07 00:41:21 49.7918 13.4665 270 ° 35 km/h 811 m -12.9 m/s 402.70 MHz Třemošná (CZ) 0.00 km FOUND
R3320850 RS41 2021-02-06 18:27:52 49.611 13.687 291 ° 46 km/h 1014 m -13.6 m/s 402.70 MHz Rokycany (CZ) 0.00 km FOUND
R3320443 RS41 2021-02-06 13:04:59 49.5465 14.2672 253 ° 17 km/h 648 m -12.2 m/s 402.70 MHz Milevsko (CZ) 0.00 km LOST
R3320474 RS41 2021-02-06 07:22:54 49.4548 14.7171 307 ° 17 km/h 835 m -9.4 m/s 402.70 MHz Tábor (CZ) 0.00 km FOUND
R3330090 RS41 2021-02-06 01:14:39 49.4828 14.3899 332 ° 6 km/h 671 m -3.5 m/s 402.70 MHz Milevsko (CZ) 0.00 km LOST
R3321070 RS41 2021-02-05 19:22:49 49.4696 14.9731 348 ° 26 km/h 905 m -4.5 m/s 402.70 MHz Pelhřimov (CZ) 0.00 km LOST
R3320548 RS41 2021-02-05 13:41:16 49.4906 15.3151 354 ° 20 km/h 977 m -4.5 m/s 402.70 MHz Humpolec (CZ) 0.00 km UNKNOWN
R3320849 RS41 2021-02-05 07:34:04 49.4611 15.0405 314 ° 31 km/h 897 m -6.0 m/s 402.70 MHz Pelhřimov (CZ) 0.00 km LOST
R3310926 RS41 2021-02-05 01:15:32 49.4234 14.5761 296 ° 9 km/h 582 m -9.2 m/s 402.70 MHz Tábor (CZ) 0.00 km FOUND
R3310927 RS41 2021-02-04 19:22:33 49.2527 14.7323 144 ° 11 km/h 783 m -10.0 m/s 404.90 MHz Soběslav (CZ) 0.00 km UNKNOWN
R3321104 RS41 2021-02-04 13:03:52 49.2061 14.4569 122 ° 37 km/h 587 m -8.8 m/s 402.70 MHz Týn nad Vltavou (CZ) 0.00 km FOUND
R3321069 RS41 2021-02-04 07:30:50 49.0384 14.9223 97 ° 31 km/h 558 m -5.6 m/s 402.70 MHz Třeboň (CZ) 0.00 km UNKNOWN
R3320847 RS41 2021-02-04 01:32:15 49.3077 14.8933 68 ° 37 km/h 671 m -13.7 m/s 402.70 MHz Soběslav (CZ) 0.00 km UNKNOWN
R3310925 RS41 2021-02-03 19:16:47 49.5401 14.8845 58 ° 61 km/h 803 m -5.2 m/s 402.70 MHz Vlašim (CZ) 0.00 km UNKNOWN
R3320471 RS41 2021-02-03 13:28:28 49.5274 14.7895 24 ° 41 km/h 785 m -9.2 m/s 402.70 MHz Tábor (CZ) 0.00 km FOUND
R3320470 RS41 2021-02-03 07:17:57 49.2089 14.5365 72 ° 46 km/h 1026 m -11.8 m/s 402.70 MHz Týn nad Vltavou (CZ) 0.00 km FOUND
R3251261 RS41 2021-02-03 01:34:56 49.1697 14.6402 357 ° 17 km/h 499 m -8.3 m/s 402.70 MHz Veselí nad Lužnicí (CZ) 0.00 km UNKNOWN
R3251255 RS41 2021-02-02 19:17:44 48.9597 14.5265 80 ° 59 km/h 1091 m -7.8 m/s 402.70 MHz České Budějovice (CZ) 0.00 km NEED ATTENTION
R3310972 RS41 2021-02-02 13:09:04 49.0206 13.9411 66 ° 54 km/h 1219 m -7.3 m/s 404.90 MHz Prachatice (CZ) 0.00 km NEED ATTENTION
R3310930 RS41 2021-02-02 07:30:31 48.7195 13.9176 80 ° 35 km/h 1135 m -5.4 m/s 402.70 MHz Ulrichsberg (AT) 0.00 km UNKNOWN
R3320848 RS41 2021-02-02 01:31:03 48.8943 13.4965 89 ° 46 km/h 1667 m -6.0 m/s 404.90 MHz Vimperk (CZ) 0.00 km UNKNOWN
R3251266 RS41 2021-02-02 00:13:11 48.9076 13.229 91 ° 41 km/h 1238 m -4.8 m/s 402.70 MHz Deggendorf (DE) 0.00 km UNKNOWN
R3251224 RS41 2021-02-01 19:07:51 49.0546 13.1429 52 ° 41 km/h 1559 m -6.1 m/s 402.70 MHz Deggendorf (DE) 0.00 km UNKNOWN
R3330826 RS41 2021-02-01 13:33:36 49.3919 13.3681 57 ° 6 km/h 575 m -7.5 m/s 402.70 MHz Klatovy (CZ) 0.00 km UNKNOWN
D505920 DFM 2021-02-01 13:33:33 49.3918 13.368 27 ° 6 km/h 564 m -7.3 m/s 404.910 MHz Klatovy (CZ) 0.00 km UNKNOWN
R3251208 RS41 2021-02-01 06:54:24 49.1797 13.1408 326 ° 17 km/h 1128 m -11.8 m/s 402.70 MHz Kdyně (CZ) 0.00 km UNKNOWN
R3330825 RS41 2021-02-01 01:07:21 48.9533 13.1767 46 ° 7 km/h 1305 m -3.9 m/s 402.700 MHz Deggendorf (DE) 0.00 km UNKNOWN
R3330827 RS41 2021-01-31 19:09:33 48.7958 13.2153 300 ° 24 km/h 986 m -11.0 m/s 402.70 MHz Deggendorf (DE) 0.00 km UNKNOWN
R3330829 RS41 2021-01-31 13:25:23 48.8522 13.4163 308 ° 19 km/h 1478 m -5.0 m/s 402.70 MHz Passau (DE) 0.00 km UNKNOWN
R3330062 RS41 2021-01-31 06:28:20 49.0384 13.0603 298 ° 24 km/h 1462 m -9.0 m/s 402.70 MHz Deggendorf (DE) 0.00 km UNKNOWN
R3330838 RS41 2021-01-31 01:20:37 48.9617 13.7411 266 ° 31 km/h 1446 m -4.8 m/s 402.70 MHz Vimperk (CZ) 0.00 km UNKNOWN
R3330837 RS41 2021-01-30 19:13:51 48.8857 13.9286 254 ° 26 km/h 1165 m -9.7 m/s 402.70 MHz Prachatice (CZ) 0.00 km UNKNOWN
R3330836 RS41 2021-01-30 13:04:09 48.6951 13.9879 100 ° 17 km/h 1085 m -13.1 m/s 402.70 MHz Ulrichsberg (AT) 0.00 km FOUND
R3330839 RS41 2021-01-30 07:29:52 48.132 14.5108 71 ° 33 km/h 399 m -6.9 m/s 402.70 MHz Ernsthofen (AT) 0.00 km FOUND
R3330834 RS41 2021-01-30 01:25:00 48.2058 13.728 82 ° 39 km/h 482 m -8.2 m/s 402.70 MHz Gallspach (AT) 0.00 km FOUND
R3330830 RS41 2021-01-29 19:20:14 48.6798 13.5334 85 ° 31 km/h 682 m -6.3 m/s 402.70 MHz Passau (DE) 0.00 km UNKNOWN
R3330845 RS41 2021-01-29 13:17:47 48.7949 13.7195 81 ° 76 km/h 1218 m -9.0 m/s 402.70 MHz Ulrichsberg (AT) 0.00 km UNKNOWN
R3330227 RS41 2021-01-29 07:30:24 48.5692 14.0702 87 ° 24 km/h 733 m -10.7 m/s 402.70 MHz Haslach an der Mühl (AT) 0.00 km FOUND
R3330831 RS41 2021-01-29 01:03:39 48.2188 13.7003 90 ° 61 km/h 519 m -11.0 m/s 402.701 MHz Haag am Hausruck (AT) 0.00 km UNKNOWN
R3330833 RS41 2021-01-28 19:25:21 47.9288 13.8351 59 ° 54 km/h 674 m -10.3 m/s 402.701 MHz Gschwandt (AT) 0.00 km FOUND
R3330225 RS41 2021-01-28 13:30:06 48.2766 14.0137 339 ° 2 km/h 422 m -5.2 m/s 402.70 MHz Fraham (AT) 0.00 km FOUND
R3330217 RS41 2021-01-28 07:20:48 47.3737 13.4974 136 ° 63 km/h 3434 m -11.0 m/s 402.70 MHz Radstadt (AT) 0.00 km UNKNOWN
R3330835 RS41 2021-01-28 02:03:16 46.5727 13.5895 136 ° 56 km/h 2695 m -6.0 m/s 402.700 MHz Arnoldstein (AT) 0.00 km UNKNOWN
R3330578 RS41 2021-01-27 19:05:35 47.7644 12.9226 44 ° 11 km/h 580 m -4.1 m/s 402.70 MHz Grossgmain (AT) 0.00 km FOUND
R3330581 RS41 2021-01-27 13:05:23 47.6919 12.8331 60 ° 19 km/h 1169 m -13.8 m/s 402.70 MHz Grossgmain (AT) 0.00 km UNKNOWN
R3330229 RS41 2021-01-27 06:58:54 47.5507 12.6528 65 ° 24 km/h 2103 m -11.3 m/s 402.70 MHz Fieberbrunn (AT) 0.00 km UNKNOWN
R3330593 RS41 2021-01-27 01:29:00 46.9856 12.8433 163 ° 69 km/h 4222 m -7.5 m/s 402.70 MHz Dölsach (AT) 0.00 km UNKNOWN
R3330577 RS41 2021-01-26 19:15:49 47.5846 13.1284 94 ° 20 km/h 1771 m -3.4 m/s 402.70 MHz Golling an der Salzach (AT) 0.00 km UNKNOWN
R3330579 RS41 2021-01-26 13:22:40 47.9904 13.4538 81 ° 56 km/h 682 m -6.0 m/s 402.70 MHz Frankenmarkt (AT) 0.00 km UNKNOWN
R3330580 RS41 2021-01-26 07:17:41 48.3271 13.5988 92 ° 28 km/h 536 m -4.8 m/s 402.70 MHz Raab (AT) 0.00 km UNKNOWN
R3330982 RS41 2021-01-26 01:26:31 48.5907 13.8099 120 ° 15 km/h 870 m -6.8 m/s 402.70 MHz Sarleinsbach (AT) 0.00 km UNKNOWN
R3330585 RS41 2021-01-25 19:12:53 48.713 13.5031 114 ° 20 km/h 1069 m -5.0 m/s 402.70 MHz Passau (DE) 0.00 km UNKNOWN
R3330981 RS41 2021-01-25 13:21:49 49.0819 13.584 177 ° 6 km/h 1579 m -4.5 m/s 402.70 MHz Vimperk (CZ) 0.00 km UNKNOWN
R3330218 RS41 2021-01-25 07:06:09 49.2562 13.4628 123 ° 6 km/h 1004 m -6.7 m/s 402.70 MHz Sušice (CZ) 0.00 km UNKNOWN
R3330592 RS41 2021-01-25 01:35:40 49.4184 14.1118 107 ° 30 km/h 794 m -5.9 m/s 402.70 MHz Písek (CZ) 0.00 km FOUND
R3320629 RS41 2021-01-24 19:26:11 49.4956 14.0362 88 ° 50 km/h 741 m -4.0 m/s 402.70 MHz Blatná (CZ) 0.00 km FOUND
R3310172 RS41 2021-01-24 13:04:50 49.8138 14.0472 20 ° 35 km/h 576 m -9.7 m/s 402.70 MHz Dobříš (CZ) 0.00 km FOUND
R3320632 RS41 2021-01-24 07:23:30 50.0475 14.1987 322 ° 11 km/h 446 m -5.9 m/s 402.70 MHz Rudná (CZ) 0.00 km FOUND
R3330980 RS41 2021-01-24 01:09:34 50.2521 13.7087 10 ° 15 km/h 628 m -6.6 m/s 402.70 MHz Louny (CZ) 0.00 km UNKNOWN
R3330590 RS41 2021-01-23 19:14:12 50.1967 13.6936 90 ° 9 km/h 629 m -3.9 m/s 402.70 MHz Rakovník (CZ) 0.00 km FOUND
R3330589 RS41 2021-01-23 12:53:37 49.9669 13.0968 108 ° 37 km/h 765 m -5.4 m/s 402.70 MHz Stříbro (CZ) 0.00 km UNKNOWN
R3330219 RS41 2021-01-23 06:12:40 49.9564 12.346 157 ° 22 km/h 694 m -8.3 m/s 402.70 MHz Cheb (CZ) 0.00 km FOUND
R3330220 RS41 2021-01-23 01:21:40 50.1144 12.6297 259 ° 9 km/h 732 m -5.3 m/s 404.90 MHz Sokolov (CZ) 0.00 km UNKNOWN
R3330205 RS41 2021-01-22 23:55:41 49.9876 12.4504 185 ° 20 km/h 682 m -12.5 m/s 402.70 MHz Cheb (CZ) 0.00 km FOUND
R3420786 RS41 2021-01-22 18:16:20 49.9024 13.2176 347 ° 33 km/h 1115 m -6.9 m/s 402.70 MHz Třemošná (CZ) 0.00 km UNKNOWN
R3420782 RS41 2021-01-22 13:05:59 50.1312 14.6199 57 ° 26 km/h 323 m -6.1 m/s 402.70 MHz Brandýs nad Labem-Stará Boleslav (CZ) 0.00 km FOUND
R3420785 RS41 2021-01-22 07:21:14 50.3732 15.4823 323 ° 24 km/h 445 m -5.5 m/s 402.70 MHz Hořice (CZ) 0.00 km FOUND
R3420780 RS41 2021-01-22 00:44:32 49.9338 12.7147 51 ° 54 km/h 1573 m -11.2 m/s 404.90 MHz Mariánské Lázně (CZ) 0.00 km UNKNOWN
R3320634 RS41 2021-01-21 23:55:59 50.0085 12.9845 29 ° 54 km/h 1245 m -7.0 m/s 402.70 MHz Horní Slavkov (CZ) 0.00 km UNKNOWN
R3330977 RS41 2021-01-21 19:54:00 50.613 16.6356 45 ° 56 km/h 577 m -6.5 m/s 402.70 MHz Bielawa (PL) 0.00 km FOUND
R3330216 RS41 2021-01-21 13:04:10 50.3445 15.4364 297 ° 19 km/h 402 m -12.3 m/s 402.70 MHz Jičín (CZ) 0.00 km UNKNOWN
R3330924 RS41 2021-01-21 06:20:51 49.8328 13.1982 46 ° 48 km/h 1038 m -9.6 m/s 402.70 MHz Nýřany (CZ) 0.00 km UNKNOWN
R3310204 RS41 2021-01-21 01:09:22 49.9936 14.3965 20 ° 2 km/h 243 m -1.6 m/s 402.70 MHz Černošice (CZ) 0.00 km FOUND
R3251132 RS41 2021-01-20 19:15:32 49.8742 15.2732 18 ° 41 km/h 551 m -4.9 m/s 402.70 MHz Kutná Hora (CZ) 0.00 km FOUND
R3310177 RS41 2021-01-20 13:02:32 49.8401 16.0228 69 ° 41 km/h 978 m -12.0 m/s 402.70 MHz Skuteč (CZ) 0.00 km UNKNOWN
R3310207 RS41 2021-01-20 06:40:01 49.1994 14.1267 94 ° 57 km/h 1285 m -12.7 m/s 402.70 MHz Vodňany (CZ) 0.00 km FOUND
R3330584 RS41 2021-01-20 00:12:47 49.0839 13.7417 96 ° 85 km/h 1806 m -7.3 m/s 402.70 MHz Vimperk (CZ) 0.00 km FOUND
R3251241 RS41 2021-01-19 18:11:01 48.8365 13.7077 90 ° 69 km/h 1341 m -7.1 m/s 402.700 MHz Ulrichsberg (AT) 0.00 km UNKNOWN
R3320082 RS41 2021-01-19 13:21:35 48.6522 16.3713 33 ° 35 km/h 389 m -4.4 m/s 402.70 MHz Laa an der Thaya (AT) 0.00 km FOUND
R3310206 RS41 2021-01-19 05:57:52 48.4522 13.0044 85 ° 33 km/h 1162 m -15.4 m/s 402.70 MHz Braunau am Inn (AT) 0.00 km FOUND
R3320078 RS41 2021-01-19 00:08:32 48.5308 12.9891 101 ° 56 km/h 1223 m -13.4 m/s 402.70 MHz Braunau am Inn (AT) 0.00 km UNKNOWN
R3320076 RS41 2021-01-18 19:08:30 48.6856 15.9979 103 ° 33 km/h 339 m -6.5 m/s 402.70 MHz Zellerndorf (AT) 0.00 km FOUND
R3320080 RS41 2021-01-18 13:20:00 48.7419 15.8027 116 ° 22 km/h 518 m -5.3 m/s 404.90 MHz Retz (AT) 0.00 km FOUND
R3320074 RS41 2021-01-18 07:13:24 48.7518 15.3545 78 ° 9 km/h 652 m -8.1 m/s 402.70 MHz Groß-Siegharts (AT) 0.00 km FOUND
R3320081 RS41 2021-01-18 00:55:35 48.7781 14.1282 97 ° 30 km/h 1138 m -9.3 m/s 402.70 MHz Český Krumlov (CZ) 0.00 km UNKNOWN
R3320077 RS41 2021-01-17 18:55:11 48.4908 14.13 94 ° 13 km/h 858 m -12.2 m/s 402.70 MHz Herzogsdorf (AT) 0.00 km FOUND
R3320648 RS41 2021-01-17 13:02:16 48.4097 13.5911 104 ° 6 km/h 493 m -9.3 m/s 402.70 MHz Sankt Florian am Inn (AT) 0.00 km UNKNOWN
R3320647 RS41 2021-01-17 07:17:31 47.9509 14.0517 93 ° 9 km/h 664 m -12.3 m/s 402.70 MHz Pettenbach (AT) 0.00 km FOUND
R3320646 RS41 2021-01-17 01:00:31 47.9733 13.9118 95 ° 11 km/h 561 m -7.8 m/s 402.70 MHz Vorchdorf (AT) 0.00 km FOUND
R3320631 RS41 2021-01-16 19:11:13 47.3658 14.3023 119 ° 57 km/h 2379 m -13.7 m/s 402.70 MHz Oberwölz Stadt (AT) 0.00 km UNKNOWN
R3330430 RS41 2021-01-16 12:57:19 47.7963 13.8688 98 ° 28 km/h 1709 m -9.2 m/s 402.70 MHz Ebensee (AT) 0.00 km UNKNOWN
R3330432 RS41 2021-01-16 07:02:03 47.6562 13.7945 113 ° 44 km/h 2052 m -9.3 m/s 402.70 MHz Bad Aussee (AT) 0.00 km UNKNOWN
R3330974 RS41 2021-01-16 01:31:28 47.3943 14.4403 145 ° 56 km/h 2282 m -6.2 m/s 402.70 MHz Trieben (AT) 0.00 km UNKNOWN
R3320643 RS41 2021-01-15 18:50:15 47.9317 13.87 94 ° 33 km/h 719 m -10.9 m/s 402.70 MHz Gschwandt (AT) 0.00 km LOST
R3251133 RS41 2021-01-15 13:15:25 47.8475 15.2238 63 ° 15 km/h 1006 m -9.5 m/s 402.70 MHz Mariazell (AT) 0.00 km UNKNOWN
R3320083 RS41 2021-01-15 07:12:45 47.9417 15.2168 93 ° 9 km/h 906 m -5.1 m/s 402.70 MHz Scheibbs (AT) 0.00 km UNKNOWN
R3251134 RS41 2021-01-15 01:09:39 47.9676 14.8317 62 ° 13 km/h 849 m -9.7 m/s 402.70 MHz Waidhofen an der Ybbs (AT) 0.00 km FOUND
R3320073 RS41 2021-01-14 19:17:15 47.5927 15.4986 162 ° 26 km/h 1278 m -8.9 m/s 402.70 MHz Mitterdorf im Mürztal (AT) 0.00 km UNKNOWN
R3330975 RS41 2021-01-14 13:17:00 47.6426 16.0084 116 ° 11 km/h 856 m -9.0 m/s 402.70 MHz Kirchberg am Wechsel (AT) 0.00 km FOUND
R3320635 RS41 2021-01-14 06:20:27 47.8732 14.1773 132 ° 24 km/h 1100 m -2.6 m/s 402.70 MHz Micheldorf in Oberösterreich (AT) 0.00 km UNKNOWN
R3330801 RS41 2021-01-14 01:30:06 47.3263 17.0902 47 ° 17 km/h 225 m -3.9 m/s 402.70 MHz Celldömölk (HU) 0.00 km LOST
R3330800 RS41 2021-01-13 19:02:48 47.6958 15.8985 189 ° 9 km/h 710 m -2.8 m/s 402.70 MHz Gloggnitz (AT) 0.00 km FOUND
R3330973 RS41 2021-01-13 12:58:33 47.9834 15.1973 96 ° 44 km/h 885 m -4.2 m/s 402.70 MHz Scheibbs (AT) 0.00 km UNKNOWN
R3330804 RS41 2021-01-13 07:21:04 48.238 16.5226 97 ° 35 km/h 210 m -5.0 m/s 402.70 MHz Groß-Enzersdorf (AT) 0.00 km FOUND
R3330587 RS41 2021-01-13 01:26:31 48.8122 16.5807 111 ° 22 km/h 297 m -4.7 m/s 402.70 MHz Mikulov (CZ) 0.00 km UNKNOWN
R3330586 RS41 2021-01-12 19:24:06 48.9397 16.4626 68 ° 33 km/h 301 m -3.2 m/s 402.70 MHz Pohořelice (CZ) 0.00 km FOUND
R3330984 RS41 2021-01-12 13:15:30 49.3034 16.6421 17 ° 30 km/h 589 m -8.5 m/s 402.700 MHz Blansko (CZ) 0.00 km LOST
R3330983 RS41 2021-01-12 06:10:39 49.1041 13.3138 47 ° 48 km/h 1403 m -8.4 m/s 402.70 MHz Sušice (CZ) 0.00 km UNKNOWN
R3320644 RS41 2021-01-12 00:15:25 49.198 13.087 40 ° 26 km/h 1076 m -10.1 m/s 402.70 MHz Kdyně (CZ) 0.00 km UNKNOWN
R3331016 RS41 2021-01-11 19:32:19 49.095 15.7225 54 ° 17 km/h 600 m -3.7 m/s 402.700 MHz Moravské Budějovice (CZ) 0.00 km UNKNOWN
R3330588 RS41 2021-01-11 12:49:21 49.2443 14.3631 15 ° 13 km/h 759 m -10.9 m/s 402.70 MHz Týn nad Vltavou (CZ) 0.00 km FOUND
R3320645 RS41 2021-01-11 07:01:51 49.0644 15.0522 115 ° 4 km/h 660 m -4.5 m/s 402.70 MHz Jindřichŭv Hradec (CZ) 0.00 km UNKNOWN
R3320438 RS41 2021-01-11 00:54:02 49.0031 15.1958 135 ° 9 km/h 789 m -12.3 m/s 402.700 MHz Litschau (AT) 0.00 km UNKNOWN
R3330431 RS41 2021-01-10 19:27:03 48.8001 15.7298 218 ° 6 km/h 598 m -6.0 m/s 402.70 MHz Horn (AT) 0.00 km FOUND
R3330976 RS41 2021-01-10 13:05:30 49.0026 15.2125 287 ° 7 km/h 794 m -11.6 m/s 402.70 MHz Litschau (AT) 0.00 km UNKNOWN
R3331015 RS41 2021-01-10 07:21:53 48.9381 15.5961 163 ° 9 km/h 581 m -6.6 m/s 402.70 MHz Raabs an der Thaya (AT) 0.00 km UNKNOWN
R3331017 RS41 2021-01-10 01:25:30 49.1545 16.1714 144 ° 17 km/h 522 m -4.2 m/s 402.70 MHz Velká Bíteš (CZ) 0.00 km FOUND
R3331004 RS41 2021-01-09 19:25:30 49.126 16.5733 147 ° 13 km/h 376 m -6.2 m/s 402.70 MHz Modřice (CZ) 0.00 km FOUND
R3330978 RS41 2021-01-09 12:55:53 49.3092 15.1273 111 ° 15 km/h 829 m -11.2 m/s 402.70 MHz Pelhřimov (CZ) 0.00 km UNKNOWN
R3330583 RS41 2021-01-09 07:14:19 49.229 16.3341 141 ° 13 km/h 552 m -8.7 m/s 402.70 MHz Rosice (CZ) 0.00 km FOUND
R3331009 RS41 2021-01-09 01:07:47 49.394 15.6237 101 ° 31 km/h 856 m -7.9 m/s 402.700 MHz Jihlava (CZ) 0.00 km UNKNOWN
R3331005 RS41 2021-01-08 19:03:50 49.4215 15.2865 61 ° 20 km/h 673 m -7.0 m/s 402.70 MHz Pelhřimov (CZ) 0.00 km UNKNOWN
R3320084 RS41 2021-01-08 13:00:23 49.5909 15.1975 85 ° 33 km/h 799 m -10.5 m/s 402.70 MHz Humpolec (CZ) 0.00 km UNKNOWN
R3320079 RS41 2021-01-08 07:14:54 49.6162 15.4923 77 ° 39 km/h 915 m -9.0 m/s 402.70 MHz Havlíčkŭv Brod (CZ) 0.00 km UNKNOWN
R3320075 RS41 2021-01-08 01:12:33 49.7802 15.3625 65 ° 31 km/h 799 m -11.2 m/s 402.70 MHz Světlá nad Sázavou (CZ) 0.00 km FOUND
R3320071 RS41 2021-01-07 19:25:34 49.9054 15.3289 77 ° 26 km/h 614 m -10.4 m/s 402.70 MHz Čáslav (CZ) 0.00 km FOUND
R3320069 RS41 2021-01-07 13:09:05 49.8306 14.7482 61 ° 19 km/h 571 m -6.9 m/s 402.70 MHz Benešov (CZ) 0.00 km FOUND
R3320067 RS41 2021-01-07 07:16:41 49.7023 14.9651 82 ° 26 km/h 642 m -13.6 m/s 402.70 MHz Vlašim (CZ) 0.00 km UNKNOWN
R3251238 RS41 2021-01-07 01:14:55 49.6569 14.1872 109 ° 6 km/h 544 m -3.2 m/s 402.70 MHz Příbram (CZ) 0.00 km UNKNOWN
R3310192 RS41 2021-01-06 18:50:15 49.5577 12.9362 138 ° 20 km/h 664 m -7.7 m/s 402.70 MHz Holýšov (CZ) 0.00 km FOUND
R3310175 RS41 2021-01-06 13:35:42 49.8973 13.6529 215 ° 9 km/h 692 m -2.9 m/s 402.70 MHz Rokycany (CZ) 0.00 km UNKNOWN
R3310173 RS41 2021-01-06 06:27:00 49.6653 12.113 209 ° 30 km/h 672 m -7.8 m/s 402.70 MHz Weiden in der Oberpfalz (DE) 0.00 km FOUND
R3310179 RS41 2021-01-06 01:12:57 49.902 13.1061 216 ° 22 km/h 725 m -3.6 m/s 402.70 MHz Stříbro (CZ) 0.00 km UNKNOWN
R3320070 RS41 2021-01-05 19:18:34 49.7367 13.0552 213 ° 13 km/h 584 m -4.1 m/s 402.700 MHz Stříbro (CZ) 0.00 km UNKNOWN
R3310169 RS41 2021-01-05 13:27:12 49.7682 13.0607 250 ° 11 km/h 576 m -4.5 m/s 402.70 MHz Stříbro (CZ) 0.00 km UNKNOWN
R3310170 RS41 2021-01-05 07:26:39 49.5828 13.1217 221 ° 24 km/h 628 m -11.3 m/s 402.70 MHz Holýšov (CZ) 0.00 km FOUND
R3251240 RS41 2021-01-05 01:34:54 49.5318 12.8682 245 ° 11 km/h 534 m -3.6 m/s 402.70 MHz Domažlice (CZ) 0.00 km FOUND
R3310178 RS41 2021-01-04 19:30:16 49.3464 13.312 270 ° 13 km/h 638 m -10.8 m/s 402.70 MHz Klatovy (CZ) 0.00 km UNKNOWN
R3310174 RS41 2021-01-04 13:20:00 49.3723 13.1584 258 ° 15 km/h 769 m -7.0 m/s 402.70 MHz Kdyně (CZ) 0.00 km UNKNOWN
R3310171 RS41 2021-01-04 07:13:38 49.236 13.5039 280 ° 17 km/h 1071 m -7.3 m/s 402.70 MHz Sušice (CZ) 0.00 km UNKNOWN
R3251237 RS41 2021-01-04 01:20:38 49.2617 13.5308 303 ° 11 km/h 1055 m -4.6 m/s 402.70 MHz Sušice (CZ) 0.00 km UNKNOWN
R3310191 RS41 2021-01-03 19:14:06 49.1808 13.7106 91 ° 2 km/h 1176 m -11.3 m/s 402.70 MHz Sušice (CZ) 0.00 km UNKNOWN
R3251239 RS41 2021-01-03 13:18:14 49.1598 13.6924 305 ° 4 km/h 1134 m -5.4 m/s 402.70 MHz Vimperk (CZ) 0.00 km UNKNOWN
R3251242 RS41 2021-01-03 07:13:25 48.9517 13.9449 351 ° 22 km/h 1335 m -10.7 m/s 402.70 MHz Prachatice (CZ) 0.00 km UNKNOWN
R3310139 RS41 2021-01-03 00:44:05 49.624 12.8117 287 ° 28 km/h 1222 m -6.3 m/s 402.700 MHz Stříbro (CZ) 0.00 km FOUND
R3310147 RS41 2021-01-02 19:05:39 49.3349 14.0411 262 ° 17 km/h 798 m -10.1 m/s 402.70 MHz Písek (CZ) 0.00 km FOUND
R3310141 RS41 2021-01-02 13:10:13 49.2834 14.5642 181 ° 2 km/h 617 m -8.9 m/s 402.70 MHz Soběslav (CZ) 0.00 km UNKNOWN
R3310140 RS41 2021-01-02 07:38:16 49.1308 15.2648 276 ° 7 km/h 793 m -8.2 m/s 402.70 MHz Dačice (CZ) 0.00 km UNKNOWN
R3310153 RS41 2021-01-02 01:15:34 49.1925 15.0086 31 ° 4 km/h 601 m -6.5 m/s 402.70 MHz Jindřichŭv Hradec (CZ) 0.00 km FOUND
R3310154 RS41 2021-01-01 19:33:21 49.2903 15.3213 332 ° 19 km/h 850 m -7.3 m/s 402.70 MHz Třešť (CZ) 0.00 km UNKNOWN
R3310145 RS41 2021-01-01 13:33:24 49.3853 15.575 348 ° 13 km/h 822 m -4.9 m/s 402.70 MHz Jihlava (CZ) 0.00 km UNKNOWN
R3310072 RS41 2021-01-01 07:16:30 49.3362 15.4351 352 ° 11 km/h 770 m -5.1 m/s 402.70 MHz Třešť (CZ) 0.00 km UNKNOWN
R3310143 RS41 2021-01-01 01:21:30 49.5583 15.1479 13 ° 30 km/h 807 m -2.9 m/s 402.70 MHz Pelhřimov (CZ) 0.00 km UNKNOWN
R3310068 RS41 2020-12-31 19:29:59 49.6203 15.332 346 ° 30 km/h 839 m -5.0 m/s 402.70 MHz Světlá nad Sázavou (CZ) 0.00 km FOUND
R3310142 RS41 2020-12-31 12:57:03 49.6181 15.1893 15 ° 17 km/h 878 m -8.7 m/s 404.90 MHz Humpolec (CZ) 0.00 km UNKNOWN
R3310071 RS41 2020-12-31 07:31:36 49.7713 16.1574 94 ° 19 km/h 1168 m -3.7 m/s 402.70 MHz Polička (CZ) 0.00 km UNKNOWN
R3310149 RS41 2020-12-31 01:11:51 49.7472 15.5405 92 ° 26 km/h 944 m -7.4 m/s 402.70 MHz Chotěboř (CZ) 0.00 km UNKNOWN
R3310148 RS41 2020-12-30 18:57:48 49.9067 16.0005 86 ° 39 km/h 1755 m -13.1 m/s 402.70 MHz Skuteč (CZ) 0.00 km UNKNOWN
R3320241 RS41 2020-12-30 13:19:54 50.3594 16.3456 87 ° 19 km/h 1404 m -6.0 m/s 402.70 MHz Duszniki-Zdrój (PL) 0.00 km FOUND
R3310146 RS41 2020-12-30 07:18:49 50.5068 16.7842 69 ° 11 km/h 567 m -7.8 m/s 402.700 MHz Bardo (PL) 0.00 km FOUND
R3310070 RS41 2020-12-30 01:11:17 50.642 16.4913 53 ° 22 km/h 994 m -8.0 m/s 402.70 MHz Nowa Ruda (PL) 0.00 km FOUND
R3310069 RS41 2020-12-29 19:02:29 50.5466 16.1959 46 ° 61 km/h 1547 m -5.3 m/s 402.70 MHz Hronov (CZ) 0.00 km UNKNOWN
R3310152 RS41 2020-12-29 13:36:59 51.0156 17.2203 46 ° 17 km/h 201 m -3.0 m/s 402.70 MHz Siechnice (PL) 0.00 km FOUND
R3310016 RS41 2020-12-29 07:21:43 50.9093 16.7669 72 ° 37 km/h 266 m -2.3 m/s 402.70 MHz Sobótka (PL) 0.00 km FOUND
R3320269 RS41 2020-12-29 01:08:31 50.7991 16.2072 6 ° 28 km/h 715 m -12.3 m/s 402.70 MHz Szczawno-Zdrój (PL) 0.00 km FOUND
R3320816 RS41 2020-12-28 18:35:41 50.4295 13.4236 347 ° 28 km/h 1961 m -9.2 m/s 402.70 MHz Chomutov (CZ) 0.00 km UNKNOWN
R3320799 RS41 2020-12-28 13:08:51 50.7489 15.3677 1 ° 33 km/h 1236 m -6.5 m/s 402.70 MHz Tanvald (CZ) 0.00 km UNKNOWN
R3320102 RS41 2020-12-28 06:24:40 50.4544 13.2343 61 ° 30 km/h 1374 m -9.5 m/s 402.70 MHz Klášterec nad Ohří (CZ) 0.00 km UNKNOWN
R3320251 RS41 2020-12-28 00:30:00 50.4506 13.2022 308 ° 37 km/h 1185 m -5.1 m/s 402.70 MHz Klášterec nad Ohří (CZ) 0.00 km UNKNOWN
R3320267 RS41 2020-12-27 18:22:24 50.0162 13.2636 349 ° 41 km/h 955 m -12.3 m/s 402.70 MHz Třemošná (CZ) 0.00 km UNKNOWN
R3310018 RS41 2020-12-27 13:11:45 49.9557 15.6925 11 ° 85 km/h 1598 m -10.4 m/s 402.70 MHz Chrudim (CZ) 0.00 km FOUND
R3310155 RS41 2020-12-27 07:08:35 49.4359 14.122 330 ° 43 km/h 880 m -3.3 m/s 402.70 MHz Písek (CZ) 0.00 km FOUND
R3310150 RS41 2020-12-27 01:21:57 49.1026 15.1194 19 ° 20 km/h 738 m -4.7 m/s 402.700 MHz Jindřichŭv Hradec (CZ) 0.00 km FOUND
R3320217 RS41 2020-12-26 19:01:38 48.8851 14.4694 84 ° 31 km/h 1008 m -7.0 m/s 402.70 MHz České Budějovice (CZ) 0.00 km FOUND
R3320227 RS41 2020-12-26 13:11:21 48.7097 14.8893 92 ° 20 km/h 628 m -6.7 m/s 402.70 MHz Weitra (AT) 0.00 km FOUND
R3320224 RS41 2020-12-26 07:15:06 48.213 14.419 114 ° 24 km/h 335 m -8.8 m/s 402.700 MHz Asten (AT) 0.00 km FOUND
R3310067 RS41 2020-12-26 01:24:11 48.3029 15.1718 140 ° 20 km/h 776 m -3.7 m/s 402.70 MHz Pöggstall (AT) 0.00 km FOUND
R3310156 RS41 2020-12-25 19:06:20 48.7922 14.1863 154 ° 24 km/h 1120 m -3.2 m/s 402.70 MHz Český Krumlov (CZ) 0.00 km FOUND
R3320800 RS41 2020-12-25 13:40:36 48.747 16.3159 147 ° 20 km/h 257 m -5.7 m/s 402.70 MHz Laa an der Thaya (AT) 0.00 km UNKNOWN
R3320243 RS41 2020-12-25 06:40:22 49.2724 13.9536 185 ° 20 km/h 1204 m -9.1 m/s 402.70 MHz Strakonice (CZ) 0.00 km FOUND
R3310017 RS41 2020-12-25 00:53:22 49.1073 14.7665 151 ° 9 km/h 517 m -8.8 m/s 402.70 MHz Veselí nad Lužnicí (CZ) 0.00 km UNKNOWN
R3320270 RS41 2020-12-24 19:14:16 48.8336 16.2347 79 ° 26 km/h 305 m -5.0 m/s 402.70 MHz Znojmo (CZ) 0.00 km UNKNOWN
R3320242 RS41 2020-12-24 13:10:00 49.2184 16.7636 50 ° 17 km/h 470 m -9.7 m/s 402.70 MHz Líšeň (CZ) 0.00 km FOUND
R3310104 RS41 2020-12-24 06:28:22 49.8477 14.7402 63 ° 35 km/h 572 m -10.0 m/s 402.70 MHz Benešov (CZ) 0.00 km FOUND
R3320247 RS41 2020-12-24 00:30:08 49.6564 14.7273 66 ° 39 km/h 664 m -11.9 m/s 402.70 MHz Vlašim (CZ) 0.00 km UNKNOWN
R3320863 RS41 2020-12-23 18:33:16 49.5205 14.7054 4 ° 22 km/h 629 m -11.1 m/s 402.70 MHz Tábor (CZ) 0.00 km UNKNOWN
R3320246 RS41 2020-12-23 13:04:35 48.9319 17.3084 65 ° 26 km/h 334 m -12.3 m/s 402.70 MHz Strážnice (CZ) 0.00 km FOUND
R3320252 RS41 2020-12-23 07:30:58 48.6152 17.5347 360 ° 19 km/h 548 m -4.4 m/s 402.70 MHz Brezová pod Bradlom (SK) 0.00 km UNKNOWN
R3320226 RS41 2020-12-23 03:51:28 47.8808 22.7883 136 ° 56 km/h 3755 m -4.8 m/s 402.700 MHz Csenger (HU) 0.00 km UNKNOWN
R3320249 RS41 2020-12-23 02:37:22 48.674 17.5386 301 ° 11 km/h 480 m -12.0 m/s 404.90 MHz Brezová pod Bradlom (SK) 0.00 km FOUND
R3320219 RS41 2020-12-22 19:39:15 48.4401 17.5442 347 ° 9 km/h 357 m -11.3 m/s 402.70 MHz Trnava (SK) 0.00 km UNKNOWN
R3320235 RS41 2020-12-22 13:29:28 48.5691 16.9666 358 ° 20 km/h 241 m -4.5 m/s 402.70 MHz Hohenau an der March (AT) 0.00 km UNKNOWN
R3320244 RS41 2020-12-22 07:10:15 48.6648 15.5665 339 ° 13 km/h 603 m -9.8 m/s 402.700 MHz Horn (AT) 0.00 km FOUND
R3330269 RS41 2020-12-22 01:20:18 48.6567 15.2411 320 ° 11 km/h 683 m -5.7 m/s 402.70 MHz Zwettl (AT) 0.00 km NEED ATTENTION
R3420498 RS41 2020-12-21 19:17:08 48.6076 14.8979 313 ° 15 km/h 860 m -4.5 m/s 402.70 MHz Grossgerungs (AT) 0.00 km UNKNOWN
R3340975 RS41 2020-12-21 13:26:56 48.8368 15.1654 284 ° 13 km/h 682 m -3.1 m/s 402.70 MHz Heidenreichstein (AT) 0.00 km FOUND
R3320238 RS41 2020-12-21 07:19:56 49.1564 15.1227 308 ° 11 km/h 636 m -11.0 m/s 402.700 MHz Jindřichŭv Hradec (CZ) 0.00 km UNKNOWN
R3320700 RS41 2020-12-21 00:45:42 50.0029 13.3897 83 ° 22 km/h 896 m -11.1 m/s 402.700 MHz Třemošná (CZ) 0.00 km FOUND
R3320236 RS41 2020-12-20 18:41:09 49.897 13.5525 1 ° 9 km/h 903 m -13.2 m/s 402.70 MHz Třemošná (CZ) 0.00 km UNKNOWN
R3320702 RS41 2020-12-20 12:58:00 50.066 13.436 327 ° 9 km/h 722 m -11.9 m/s 402.70 MHz Podbořany (CZ) 0.00 km UNKNOWN
R3320770 RS41 2020-12-20 07:04:46 49.9142 13.6597 316 ° 9 km/h 665 m -6.1 m/s 402.70 MHz Hořovice (CZ) 0.00 km FOUND
R3320159 RS41 2020-12-20 01:11:04 49.9304 13.4354 322 ° 6 km/h 737 m -3.2 m/s 402.70 MHz Třemošná (CZ) 0.00 km UNKNOWN
R3320157 RS41 2020-12-19 19:33:15 49.8857 13.6645 333 ° 11 km/h 647 m -4.6 m/s 402.70 MHz Rokycany (CZ) 0.00 km FOUND
R3330268 RS41 2020-12-19 13:25:34 49.9017 13.468 323 ° 7 km/h 803 m -11.0 m/s 402.70 MHz Třemošná (CZ) 0.00 km UNKNOWN
R3320220 RS41 2020-12-19 06:56:49 49.7143 12.6082 346 ° 15 km/h 1024 m -11.2 m/s 402.70 MHz Tachov (CZ) 0.00 km FOUND
R3320221 RS41 2020-12-19 01:10:09 49.628 13.0949 255 ° 11 km/h 516 m -6.7 m/s 402.70 MHz Holýšov (CZ) 0.00 km FOUND
R3320245 RS41 2020-12-18 19:27:51 49.4395 12.9847 220 ° 9 km/h 513 m -4.9 m/s 402.70 MHz Domažlice (CZ) 0.00 km LOST
R3320225 RS41 2020-12-18 13:48:15 49.3965 13.4464 177 ° 4 km/h 579 m -1.7 m/s 402.70 MHz Klatovy (CZ) 0.00 km FOUND
R3320218 RS41 2020-12-18 07:33:22 49.2237 13.4775 147 ° 6 km/h 594 m -9.7 m/s 402.70 MHz Sušice (CZ) 0.00 km FOUND
R3320237 RS41 2020-12-18 01:21:03 49.3148 13.5811 137 ° 7 km/h 879 m -5.2 m/s 402.700 MHz Horažďovice (CZ) 0.00 km UNKNOWN
R3320239 RS41 2020-12-17 18:43:03 49.6952 13.5118 70 ° 24 km/h 746 m -2.7 m/s 402.700 MHz Starý Plzenec (CZ) 0.00 km UNKNOWN
R3420452 RS41 2020-12-17 13:00:29 49.61 13.5235 61 ° 13 km/h 814 m -5.0 m/s 402.700 MHz Starý Plzenec (CZ) 0.00 km UNKNOWN
R3420484 RS41 2020-12-17 07:26:25 49.2453 13.9022 114 ° 6 km/h 1031 m -10.0 m/s 402.70 MHz Strakonice (CZ) 0.00 km FOUND
R3251199 RS41 2020-12-17 01:05:48 49.2714 13.5136 288 ° 13 km/h 992 m -8.8 m/s 402.70 MHz Sušice (CZ) 0.00 km UNKNOWN
R3320161 RS41 2020-12-16 19:08:04 49.3211 13.2163 260 ° 6 km/h 538 m -4.7 m/s 402.700 MHz Klatovy (CZ) 0.00 km UNKNOWN
R3320861 RS41 2020-12-16 13:06:47 49.6061 13.4723 310 ° 20 km/h 745 m -12.3 m/s 402.700 MHz Starý Plzenec (CZ) 0.00 km UNKNOWN
R3320223 RS41 2020-12-16 07:25:14 49.8179 13.5895 237 ° 11 km/h 721 m -5.2 m/s 402.70 MHz Rokycany (CZ) 0.00 km UNKNOWN
R3321031 RS41 2020-12-16 01:35:57 50.0164 13.8761 308 ° 4 km/h 505 m -3.6 m/s 402.70 MHz Králŭv Dvŭr (CZ) 0.00 km FOUND
R3320860 RS41 2020-12-15 19:22:26 49.8688 13.6444 292 ° 6 km/h 685 m -3.3 m/s 402.700 MHz Rokycany (CZ) 0.00 km FOUND
R3320699 RS41 2020-12-15 13:23:20 49.8818 14.2245 1 ° 11 km/h 591 m -6.7 m/s 402.700 MHz Mníšek pod Brdy (CZ) 0.00 km FOUND
R3320837 RS41 2020-12-15 06:34:12 49.8473 12.8862 341 ° 4 km/h 668 m -6.8 m/s 402.70 MHz Planá (CZ) 0.00 km UNKNOWN
R3320824 RS41 2020-12-15 01:07:25 49.4621 13.5797 305 ° 15 km/h 772 m -6.7 m/s 402.70 MHz Horažďovice (CZ) 0.00 km UNKNOWN
R3320827 RS41 2020-12-14 19:15:57 49.1594 13.6666 65 ° 13 km/h 1203 m -5.2 m/s 402.70 MHz Sušice (CZ) 0.00 km UNKNOWN
R3320825 RS41 2020-12-14 13:25:54 48.9937 14.7157 307 ° 17 km/h 545 m -5.7 m/s 402.70 MHz Třeboň (CZ) 0.00 km FOUND
R3320836 RS41 2020-12-14 07:04:27 48.6651 13.9848 324 ° 24 km/h 1041 m -12.4 m/s 402.70 MHz Ulrichsberg (AT) 0.00 km UNKNOWN
R3320838 RS41 2020-12-14 01:37:19 48.3789 14.3475 155 ° 7 km/h 651 m -4.3 m/s 402.70 MHz Altenberg bei Linz (AT) 0.00 km FOUND
R3320839 RS41 2020-12-13 19:26:56 48.3377 14.0992 147 ° 2 km/h 323 m -6.5 m/s 402.70 MHz Feldkirchen an der Donau (AT) 0.00 km FOUND
R3320840 RS41 2020-12-13 13:06:13 48.8491 13.6643 138 ° 26 km/h 1603 m -5.1 m/s 402.70 MHz Vimperk (CZ) 0.00 km UNKNOWN
R3320823 RS41 2020-12-13 07:20:56 48.8737 13.7037 136 ° 22 km/h 1342 m -4.6 m/s 402.70 MHz Vimperk (CZ) 0.00 km UNKNOWN
R3330270 RS41 2020-12-13 03:25:40 49.0396 14.6141 342 ° 9 km/h 553 m -8.5 m/s 402.70 MHz Třeboň (CZ) 0.00 km FOUND
R3330267 RS41 2020-12-12 19:34:10 49.3692 13.5777 347 ° 11 km/h 758 m -3.8 m/s 402.700 MHz Horažďovice (CZ) 0.00 km UNKNOWN
R3420497 RS41 2020-12-12 13:23:32 49.5948 13.7099 27 ° 9 km/h 960 m -10.3 m/s 404.900 MHz Rokycany (CZ) 0.00 km UNKNOWN
R3340977 RS41 2020-12-12 07:06:55 49.3984 12.7825 154 ° 2 km/h 863 m -11.9 m/s 402.70 MHz Domažlice (CZ) 0.00 km FOUND
R3420482 RS41 2020-12-12 01:28:07 49.484 13.8226 318 ° 15 km/h 911 m -3.0 m/s 402.70 MHz Blatná (CZ) 0.00 km FOUND
R3340976 RS41 2020-12-11 19:29:00 49.2481 13.7214 305 ° 30 km/h 950 m -2.4 m/s 402.700 MHz Horažďovice (CZ) 0.00 km UNKNOWN
R3330266 RS41 2020-12-11 13:13:40 49.3569 14.2118 306 ° 22 km/h 796 m -8.1 m/s 402.70 MHz Písek (CZ) 0.00 km FOUND
R3340029 RS41 2020-12-11 08:01:07 49.0446 14.814 303 ° 28 km/h 727 m -5.6 m/s 402.70 MHz Třeboň (CZ) 0.00 km FOUND
R3340978 RS41 2020-12-11 01:29:57 49.116 14.1541 331 ° 11 km/h 907 m -6.3 m/s 402.70 MHz Vodňany (CZ) 0.00 km FOUND
R3330235 RS41 2020-12-10 19:48:55 48.9964 12.7195 315 ° 6 km/h 1225 m -2.3 m/s 402.700 MHz Straubing (DE) 0.00 km UNKNOWN
R3420535 RS41 2020-12-10 13:46:28 49.5284 14.4014 135 ° 7 km/h 732 m -7.3 m/s 402.700 MHz Milevsko (CZ) 0.00 km FOUND
R3420566 RS41 2020-12-10 07:38:34 49.742 13.4839 67 ° 9 km/h 584 m -5.6 m/s 402.70 MHz Starý Plzenec (CZ) 0.00 km FOUND
R3320387 RS41 2020-12-10 01:03:50 49.916 12.18 14 ° 9 km/h 594 m -6.7 m/s 402.70 MHz Cheb (CZ) 0.00 km UNKNOWN
R3321005 RS41 2020-12-09 18:47:30 49.8898 12.1011 250 ° 9 km/h 680 m -13.8 m/s 402.70 MHz Weiden in der Oberpfalz (DE) 0.00 km FOUND
R3330597 RS41 2020-12-09 13:12:30 50.2823 13.527 287 ° 19 km/h 706 m -9.7 m/s 402.70 MHz Žatec (CZ) 0.00 km FOUND
R3320103 RS41 2020-12-09 06:27:45 50.0925 11.9786 237 ° 2 km/h 651 m -6.0 m/s 402.70 MHz Aš (CZ) 0.00 km FOUND
R2350379 RS41 2020-12-09 00:26:40 50.1684 11.917 310 ° 26 km/h 779 m -11.7 m/s 402.70 MHz Hof (DE) 0.00 km FOUND
R3320305 RS41 2020-12-08 18:48:20 50.3303 12.272 309 ° 33 km/h 746 m -6.3 m/s 402.700 MHz Aš (CZ) 0.00 km FOUND
R3310805 RS41 2020-12-08 13:39:38 50.8159 14.1766 320 ° 35 km/h 722 m -5.5 m/s 402.70 MHz Děčín (CZ) 0.00 km UNKNOWN
R3310120 RS41 2020-12-08 07:01:00 50.3537 13.7241 310 ° 19 km/h 566 m -5.5 m/s 402.70 MHz Louny (CZ) 0.00 km FOUND
R3420568 RS41 2020-12-08 01:23:50 50.7269 13.6646 317 ° 41 km/h 994 m -4.0 m/s 402.70 MHz Dubí (CZ) 0.00 km UNKNOWN
R3420567 RS41 2020-12-07 19:41:48 50.8567 14.36 332 ° 28 km/h 590 m -6.4 m/s 402.70 MHz Česká Kamenice (CZ) 0.00 km FOUND
R3320356 RS41 2020-12-07 13:40:21 51.0307 13.9482 7 ° 43 km/h 921 m -6.9 m/s 402.70 MHz Pirna (DE) 0.00 km UNKNOWN
R3420570 RS41 2020-12-07 06:59:12 50.682 12.7345 12 ° 35 km/h 640 m -6.1 m/s 402.700 MHz Zwickau (DE) 0.00 km FOUND
R3340973 RS41 2020-12-07 01:07:14 50.8045 12.9327 312 ° 26 km/h 428 m -10.0 m/s 402.700 MHz Chemnitz (DE) 0.00 km UNKNOWN
R3330318 RS41 2020-12-06 18:37:05 50.6349 12.0194 331 ° 65 km/h 1040 m -11.5 m/s 402.700 MHz Greiz (DE) 0.00 km FOUND
R3320014 RS41 2020-12-06 13:21:53 51.2812 14.2056 336 ° 50 km/h 871 m -8.6 m/s 402.70 MHz Hoyerswerda (DE) 0.00 km UNKNOWN
R3320456 RS41 2020-12-06 07:56:45 51.7832 14.2746 310 ° 44 km/h 335 m -5.9 m/s 402.70 MHz Cottbus (DE) 0.00 km LOST
R3320624 RS41 2020-12-06 01:26:54 51.4814 14.0456 335 ° 26 km/h 525 m -4.9 m/s 402.70 MHz Senftenberg (DE) 0.00 km UNKNOWN
R3330528 RS41 2020-12-05 18:59:51 51.2386 13.1265 268 ° 24 km/h 500 m -6.6 m/s 402.700 MHz Riesa (DE) 0.00 km FOUND
R3320715 RS41 2020-12-05 13:08:04 51.3774 13.8027 15 ° 19 km/h 724 m -12.7 m/s 402.700 MHz Lauchhammer (DE) 0.00 km FOUND
R3420569 RS41 2020-12-05 07:38:24 51.6564 14.3904 352 ° 46 km/h 529 m -8.4 m/s 402.70 MHz Spremberg (DE) 0.00 km FOUND
R3321093 RS41 2020-12-05 00:58:40 51.0212 13.4283 359 ° 43 km/h 1315 m -8.0 m/s 402.700 MHz Freiberg (DE) 0.00 km LOST
R3320695 RS41 2020-12-04 19:26:32 51.0195 13.9467 341 ° 67 km/h 1214 m -7.8 m/s 402.700 MHz Pirna (DE) 0.00 km UNKNOWN
R2340824 RS41 2020-12-04 13:21:43 50.8866 13.7671 338 ° 33 km/h 1082 m -10.8 m/s 402.70 MHz Pirna (DE) 0.00 km FOUND
R2350375 RS41 2020-12-04 07:10:44 50.5771 12.8669 13 ° 37 km/h 986 m -4.5 m/s 404.90 MHz Annaberg-Buchholz (DE) 0.00 km UNKNOWN
R2350560 RS41 2020-12-04 06:26:47 50.6537 13.3455 7 ° 43 km/h 1090 m -3.8 m/s 402.70 MHz Jirkov (CZ) 0.00 km UNKNOWN
R2350513 RS41 2020-12-04 01:42:10 50.4048 13.6779 316 ° 31 km/h 643 m -7.7 m/s 402.70 MHz Louny (CZ) 0.00 km FOUND
R2350377 RS41 2020-12-03 19:38:07 50.2251 13.5735 1 ° 30 km/h 705 m -6.0 m/s 402.70 MHz Podbořany (CZ) 0.00 km UNKNOWN
R2350381 RS41 2020-12-03 13:41:50 50.4567 13.5199 32 ° 35 km/h 777 m -4.1 m/s 404.90 MHz Jirkov (CZ) 0.00 km UNKNOWN
R2350378 RS41 2020-12-03 07:16:19 50.2349 13.0627 44 ° 24 km/h 1038 m -11.9 m/s 402.70 MHz Ostrov (CZ) 0.00 km UNKNOWN
R2350549 RS41 2020-12-03 01:23:23 50.1708 12.9798 26 ° 17 km/h 1008 m -9.2 m/s 402.700 MHz Karlovy Vary (CZ) 0.00 km UNKNOWN
R2350380 RS41 2020-12-02 19:21:02 49.7636 12.3899 306 ° 26 km/h 919 m -8.9 m/s 402.700 MHz Tachov (CZ) 0.00 km NEED ATTENTION
R2340825 RS41 2020-12-02 13:40:15 49.7146 12.2056 259 ° 11 km/h 617 m -8.4 m/s 402.70 MHz Weiden in der Oberpfalz (DE) 0.00 km FOUND
R2350526 RS41 2020-12-02 07:19:00 49.4697 11.9274 247 ° 26 km/h 820 m -10.4 m/s 402.70 MHz Amberg (DE) 0.00 km FOUND
R2350528 RS41 2020-12-02 01:26:31 49.4571 12.0639 264 ° 11 km/h 733 m -6.5 m/s 402.700 MHz Amberg (DE) 0.00 km FOUND
R2350359 RS41 2020-12-01 19:14:30 49.4218 12.344 312 ° 11 km/h 884 m -10.5 m/s 402.700 MHz Schwandorf (DE) 0.00 km FOUND
R2350552 RS41 2020-12-01 13:39:50 49.5801 12.9545 5 ° 9 km/h 761 m -10.0 m/s 404.900 MHz Holýšov (CZ) 0.00 km FOUND
R2350514 RS41 2020-12-01 07:37:48 49.5248 13.2478 330 ° 9 km/h 544 m -7.2 m/s 402.70 MHz Přeštice (CZ) 0.00 km UNKNOWN
R2350561 RS41 2020-12-01 01:50:38 49.3559 13.6938 28 ° 13 km/h 902 m -4.1 m/s 402.70 MHz Horažďovice (CZ) 0.00 km FOUND
R2350524 RS41 2020-11-30 19:29:23 49.2409 13.7129 69 ° 24 km/h 1087 m -6.8 m/s 402.700 MHz Horažďovice (CZ) 0.00 km FOUND
R2350547 RS41 2020-11-30 13:33:53 49.1855 13.5955 69 ° 11 km/h 1195 m -5.3 m/s 402.70 MHz Sušice (CZ) 0.00 km FOUND
R2350527 RS41 2020-11-30 07:03:45 49.0319 13.0003 329 ° 22 km/h 1400 m -8.4 m/s 402.700 MHz Deggendorf (DE) 0.00 km UNKNOWN
R2350383 RS41 2020-11-30 01:17:53 48.9239 12.7534 303 ° 7 km/h 1408 m -12.3 m/s 402.70 MHz Straubing (DE) 0.00 km FOUND
R2350382 RS41 2020-11-29 19:26:54 48.8183 12.4908 315 ° 11 km/h 875 m -5.3 m/s 402.700 MHz Straubing (DE) 0.00 km FOUND
R2350463 RS41 2020-11-29 12:52:20 49.0655 12.0906 231 ° 15 km/h 708 m -9.2 m/s 402.70 MHz Regensburg (DE) 0.00 km FOUND
R2350333 RS41 2020-11-29 07:32:24 48.9175 12.1088 278 ° 11 km/h 878 m -4.2 m/s 402.70 MHz Regensburg (DE) 0.00 km FOUND
R2340504 RS41 2020-11-29 01:18:10 49.0799 12.1287 264 ° 17 km/h 814 m -6.9 m/s 402.70 MHz Regensburg (DE) 0.00 km UNKNOWN
R2350331 RS41 2020-11-28 19:24:55 48.9405 12.1883 237 ° 15 km/h 806 m -3.7 m/s 402.70 MHz Regensburg (DE) 0.00 km FOUND
R2350511 RS41 2020-11-28 13:44:12 49.1659 11.9226 217 ° 13 km/h 595 m -3.8 m/s 402.70 MHz Regensburg (DE) 0.00 km FOUND
R2350373 RS41 2020-11-28 07:14:01 49.3945 11.8852 1 ° 4 km/h 654 m -11.9 m/s 402.70 MHz Amberg (DE) 0.00 km FOUND
R2350374 RS41 2020-11-28 01:30:37 49.5155 11.672 322 ° 9 km/h 843 m -3.3 m/s 402.70 MHz Sulzbach-Rosenberg (DE) 0.00 km FOUND
R2350376 RS41 2020-11-27 19:16:52 49.4032 11.8926 305 ° 9 km/h 802 m -11.2 m/s 402.70 MHz Amberg (DE) 0.00 km FOUND
R2350564 RS41 2020-11-27 13:05:50 49.4073 12.596 303 ° 7 km/h 1149 m -11.3 m/s 402.70 MHz Domažlice (CZ) 0.00 km UNKNOWN
R2350550 RS41 2020-11-27 07:23:39 49.327 12.9502 38 ° 11 km/h 504 m -12.0 m/s 402.70 MHz Kdyně (CZ) 0.00 km UNKNOWN
R2350516 RS41 2020-11-27 01:52:21 49.3655 13.3371 140 ° 4 km/h 564 m -5.0 m/s 402.70 MHz Klatovy (CZ) 0.00 km UNKNOWN
R2340829 RS41 2020-11-26 19:37:39 49.2899 13.367 313 ° 4 km/h 731 m -6.9 m/s 402.700 MHz Klatovy (CZ) 0.00 km UNKNOWN
R2340826 RS41 2020-11-26 13:24:05 49.4265 13.1222 176 ° 4 km/h 657 m -5.7 m/s 402.700 MHz Kdyně (CZ) 0.00 km FOUND
R2350562 RS41 2020-11-26 07:55:08 49.2954 13.2784 345 ° 7 km/h 712 m -3.4 m/s 402.700 MHz Klatovy (CZ) 0.00 km UNKNOWN
R2330614 RS41 2020-11-26 01:32:37 49.4648 13.0187 15 ° 2 km/h 528 m -6.3 m/s 402.701 MHz Domažlice (CZ) 0.00 km UNKNOWN
R2350521 RS41 2020-11-25 19:37:55 49.6022 12.9656 329 ° 7 km/h 586 m -3.7 m/s 402.700 MHz Holýšov (CZ) 0.00 km UNKNOWN
R2340233 RS41 2020-11-25 13:21:48 49.6386 12.8923 269 ° 6 km/h 581 m -4.6 m/s 402.700 MHz Stříbro (CZ) 0.00 km UNKNOWN
R2340289 RS41 2020-11-25 07:24:11 49.4569 12.879 14 ° 6 km/h 545 m -5.8 m/s 402.70 MHz Domažlice (CZ) 0.00 km FOUND
R2330599 RS41 2020-11-25 01:36:25 49.3038 13.1742 288 ° 4 km/h 580 m -6.1 m/s 402.70 MHz Klatovy (CZ) 0.00 km UNKNOWN
R2350563 RS41 2020-11-24 19:19:05 49.095 13.0966 21 ° 20 km/h 1399 m -6.6 m/s 402.70 MHz Deggendorf (DE) 0.00 km UNKNOWN
R2340111 RS41 2020-11-24 13:25:23 49.008 13.1256 317 ° 17 km/h 1088 m -5.6 m/s 402.70 MHz Deggendorf (DE) 0.00 km UNKNOWN
R2321664 RS41 2020-11-24 07:23:09 48.6401 13.2564 318 ° 26 km/h 849 m -9.7 m/s 402.70 MHz Passau (DE) 0.00 km FOUND
R2330518 RS41 2020-11-24 01:13:13 48.6081 13.4295 113 ° 15 km/h 1308 m -12.2 m/s 402.700 MHz Passau (DE) 0.00 km FOUND
R2330512 RS41 2020-11-23 19:45:15 48.4323 14.6721 47 ° 9 km/h 844 m -3.8 m/s 402.70 MHz Gutau (AT) 0.00 km FOUND
R2330167 RS41 2020-11-23 12:55:10 48.9334 14.2275 109 ° 20 km/h 784 m -13.2 m/s 402.70 MHz Český Krumlov (CZ) 0.00 km FOUND
R2340110 RS41 2020-11-23 07:28:28 48.799 14.9699 38 ° 17 km/h 611 m -10.7 m/s 402.70 MHz Schrems (AT) 0.00 km LOST
R2340231 RS41 2020-11-23 01:36:07 48.7631 15.0081 274 ° 7 km/h 585 m -1.6 m/s 402.700 MHz Schrems (AT) 0.00 km FOUND
R2330521 RS41 2020-11-22 19:19:56 48.719 14.6413 61 ° 9 km/h 853 m -9.0 m/s 402.70 MHz Kaplice (CZ) 0.00 km UNKNOWN
R2340202 RS41 2020-11-22 13:14:31 48.7228 14.2958 31 ° 7 km/h 877 m -7.0 m/s 402.70 MHz Český Krumlov (CZ) 0.00 km UNKNOWN
R2340199 RS41 2020-11-22 07:04:42 48.6675 13.9484 100 ° 15 km/h 942 m -12.6 m/s 402.70 MHz Ulrichsberg (AT) 0.00 km FOUND
R2330618 RS41 2020-11-22 01:15:27 48.5413 13.7633 83 ° 19 km/h 994 m -13.8 m/s 402.700 MHz Sarleinsbach (AT) 0.00 km UNKNOWN
R2330616 RS41 2020-11-21 19:35:07 48.1415 13.4276 291 ° 9 km/h 660 m -10.8 m/s 402.70 MHz Waldzell (AT) 0.00 km LOST
R2411138 RS41 2020-11-21 13:30:50 48.1067 12.4381 326 ° 15 km/h 655 m -4.6 m/s 402.70 MHz Waldkraiburg (DE) 0.00 km FOUND
R2330522 RS41 2020-11-21 07:10:31 47.9937 12.3276 313 ° 20 km/h 819 m -13.6 m/s 402.70 MHz Traunreut (DE) 0.00 km LOST
R2340218 RS41 2020-11-21 00:56:30 48.0687 12.2475 144 ° 80 km/h 28261 m -43.3 m/s 402.70 MHz Waldkraiburg (DE) 0.00 km LOST
R2340217 RS41 2020-11-20 19:19:51 48.0193 12.7315 165 ° 22 km/h 1188 m -10.5 m/s 402.700 MHz Ostermiething (AT) 0.00 km UNKNOWN
R2330598 RS41 2020-11-20 13:33:37 48.2943 13.2268 123 ° 19 km/h 410 m -5.8 m/s 402.70 MHz Altheim (AT) 0.00 km UNKNOWN
R2330520 RS41 2020-11-20 07:32:34 48.4805 13.4816 136 ° 15 km/h 628 m -7.0 m/s 402.700 MHz Schärding (AT) 0.00 km UNKNOWN
R2330517 RS41 2020-11-20 01:20:23 49.1118 13.745 139 ° 35 km/h 1174 m -6.1 m/s 402.700 MHz Vimperk (CZ) 0.00 km UNKNOWN
R2330519 RS41 2020-11-19 18:48:36 50.1408 14.414 77 ° 35 km/h 340 m -3.4 m/s 402.700 MHz Roztoky (CZ) 0.00 km UNKNOWN
R2321695 RS41 2020-11-19 13:46:30 49.591 15.128 86 ° 35 km/h 809 m -4.5 m/s 402.70 MHz Humpolec (CZ) 0.00 km UNKNOWN
R2330600 RS41 2020-11-19 07:23:36 49.378 14.2531 45 ° 30 km/h 699 m -10.2 m/s 402.70 MHz Písek (CZ) 0.00 km FOUND
R2330617 RS41 2020-11-19 01:22:21 49.1893 13.8694 59 ° 28 km/h 1105 m -10.4 m/s 402.700 MHz Strakonice (CZ) 0.00 km FOUND
R2330597 RS41 2020-11-18 19:24:03 48.9099 13.3196 289 ° 4 km/h 863 m -13.3 m/s 402.700 MHz Deggendorf (DE) 0.00 km UNKNOWN
R2340232 RS41 2020-11-18 12:55:08 48.8846 12.9555 32 ° 13 km/h 1250 m -13.8 m/s 402.70 MHz Deggendorf (DE) 0.00 km UNKNOWN
R2340230 RS41 2020-11-18 07:27:45 48.3929 13.2309 278 ° 15 km/h 513 m -5.5 m/s 402.70 MHz Altheim (AT) 0.00 km UNKNOWN
R2340234 RS41 2020-11-18 01:20:54 48.4687 13.4591 305 ° 2 km/h 589 m -8.1 m/s 402.70 MHz Schärding (AT) 0.00 km UNKNOWN
R2340200 RS41 2020-11-17 19:34:17 48.175 13.5353 82 ° 13 km/h 638 m -4.6 m/s 402.70 MHz Hohenzell (AT) 0.00 km UNKNOWN
R2330596 RS41 2020-11-17 13:13:07 48.4283 13.3913 58 ° 19 km/h 488 m -7.9 m/s 402.700 MHz Schärding (AT) 0.00 km UNKNOWN
R2340229 RS41 2020-11-17 07:29:46 48.081 13.4746 119 ° 30 km/h 842 m -5.8 m/s 402.700 MHz Neukirchen an der Vöckla (AT) 0.00 km UNKNOWN
R2331429 RS41 2020-11-17 01:16:35 48.5853 13.7051 116 ° 39 km/h 1117 m -11.6 m/s 402.70 MHz Esternberg (AT) 0.00 km UNKNOWN
R2340203 RS41 2020-11-16 19:11:10 48.9021 13.4143 120 ° 43 km/h 1647 m -4.4 m/s 402.700 MHz Vimperk (CZ) 0.00 km UNKNOWN
R2331495 RS41 2020-11-16 12:56:34 49.4463 13.5781 84 ° 39 km/h 693 m -12.3 m/s 402.70 MHz Horažďovice (CZ) 0.00 km UNKNOWN
D503176 DFM 2020-11-16 10:39:00 49.6661 12.8147 60 ° 28 km/h 650 m -9.6 m/s 403.331 MHz Stříbro (CZ) 0.00 km FOUND
D503257 DFM 2020-11-16 09:26:32 50.1223 13.4192 65 ° 44 km/h 760 m -3.4 m/s 403.149 MHz Podbořany (CZ) 0.00 km UNKNOWN
R2331420 RS41 2020-11-16 07:31:38 49.6912 14.3343 44 ° 26 km/h 500 m -8.4 m/s 402.700 MHz Sedlčany (CZ) 0.00 km UNKNOWN
R2350275 RS41 2020-11-16 01:12:10 49.638 13.6277 359 ° 20 km/h 735 m -4.3 m/s 402.700 MHz Rokycany (CZ) 0.00 km UNKNOWN
R2350314 RS41 2020-11-15 19:42:02 49.2557 14.1883 321 ° 22 km/h 839 m -4.9 m/s 402.700 MHz Písek (CZ) 0.00 km FOUND
R2350313 RS41 2020-11-15 13:25:37 49.4278 13.8672 310 ° 19 km/h 878 m -4.1 m/s 402.70 MHz Blatná (CZ) 0.00 km FOUND
R2350320 RS41 2020-11-15 07:36:52 49.1997 14.0163 353 ° 19 km/h 867 m -6.0 m/s 402.70 MHz Strakonice (CZ) 0.00 km NEED ATTENTION
R2350319 RS41 2020-11-15 01:05:58 49.2457 13.4602 7 ° 19 km/h 1140 m -6.5 m/s 404.90 MHz Sušice (CZ) 0.00 km LOST
R2350265 RS41-SGP 2020-11-14 19:45:47 49.0269 13.95 3 ° 24 km/h 824 m -7.2 m/s 402.70 MHz Prachatice (CZ) 0.00 km FOUND
R2350270 RS41 2020-11-14 13:17:18 49.2613 13.8383 72 ° 9 km/h 1142 m -5.8 m/s 402.700 MHz Strakonice (CZ) 0.00 km LOST
R2350271 RS41 2020-11-14 07:18:34 49.3081 14.1398 89 ° 26 km/h 940 m -12.1 m/s 402.70 MHz Písek (CZ) 0.00 km FOUND
R2350266 RS41 2020-11-14 01:09:16 49.4834 13.9526 85 ° 33 km/h 1035 m -6.9 m/s 402.700 MHz Blatná (CZ) 0.00 km FOUND
R2341188 RS41 2020-11-13 19:20:56 49.3885 14.1873 91 ° 26 km/h 803 m -7.4 m/s 402.70 MHz Písek (CZ) 0.00 km LOST
R2350273 RS41 2020-11-13 13:21:37 49.4546 14.0487 43 ° 20 km/h 883 m -9.1 m/s 402.700 MHz Blatná (CZ) 0.00 km UNKNOWN
R2350268 RS41 2020-11-13 07:27:18 49.1884 13.8396 86 ° 28 km/h 1135 m -5.9 m/s 402.70 MHz Strakonice (CZ) 0.00 km FOUND
R2350315 RS41 2020-11-13 01:27:41 49.2776 13.9451 86 ° 24 km/h 1059 m -5.6 m/s 402.700 MHz Strakonice (CZ) 0.00 km FOUND
R2350274 RS41 2020-11-12 19:23:56 49.1898 13.8852 105 ° 43 km/h 1282 m -12.1 m/s 402.700 MHz Strakonice (CZ) 0.00 km FOUND
R2341183 RS41 2020-11-12 14:14:50 49.4197 13.7037 31 ° 4 km/h 771 m -11.2 m/s 402.700 MHz Horažďovice (CZ) 0.00 km UNKNOWN
R2341184 RS41 2020-11-12 07:36:12 49.1951 13.1384 55 ° 15 km/h 1102 m -6.0 m/s 402.70 MHz Kdyně (CZ) 0.00 km UNKNOWN
R2341142 RS41 2020-11-12 01:50:11 49.4343 13.24 197 ° 9 km/h 468 m -5.1 m/s 402.70 MHz Klatovy (CZ) 0.00 km UNKNOWN
R2341141 RS41 2020-11-11 19:47:08 49.5668 12.8185 235 ° 7 km/h 578 m -3.6 m/s 402.70 MHz Domažlice (CZ) 0.00 km FOUND
R2341143 RS41 2020-11-11 14:03:16 49.8138 13.2194 346 ° 9 km/h 756 m -3.0 m/s 402.70 MHz Nýřany (CZ) 0.00 km UNKNOWN
R2331198 RS41 2020-11-11 07:46:55 49.6041 13.1854 329 ° 6 km/h 558 m -3.6 m/s 402.70 MHz Holýšov (CZ) 0.00 km FOUND
R2350269 RS41 2020-11-11 01:14:00 49.5611 12.953 258 ° 2 km/h 555 m -12.5 m/s 402.70 MHz Holýšov (CZ) 0.00 km FOUND
R2331321 RS41 2020-11-10 19:16:05 49.4923 13.0046 240 ° 6 km/h 591 m -11.9 m/s 402.700 MHz Domažlice (CZ) 0.00 km FOUND
R2331200 RS41 2020-11-10 13:17:00 49.5486 12.8243 258 ° 4 km/h 554 m -3.1 m/s 402.70 MHz Domažlice (CZ) 0.00 km FOUND
R2331199 RS41 2020-11-10 07:10:50 49.3864 12.894 275 ° 7 km/h 661 m -11.7 m/s 402.70 MHz Domažlice (CZ) 0.00 km FOUND
R2331414 RS41 2020-11-10 01:22:55 49.4473 13.0166 142 ° 2 km/h 576 m -10.8 m/s 402.70 MHz Domažlice (CZ) 0.00 km FOUND
R2331143 RS41 2020-11-09 19:32:00 49.4466 13.0326 214 ° 7 km/h 559 m -6.0 m/s 402.70 MHz Kdyně (CZ) 0.00 km FOUND
R2341144 RS41 2020-11-09 07:22:59 49.5335 12.6951 294 ° 19 km/h 844 m -5.5 m/s 402.700 MHz Domažlice (CZ) 0.00 km FOUND
R2341185 RS41 2020-11-09 01:17:38 49.5588 12.5115 299 ° 11 km/h 1001 m -3.4 m/s 402.70 MHz Tachov (CZ) 0.00 km FOUND
R2341186 RS41 2020-11-08 19:37:45 49.4501 12.7513 276 ° 26 km/h 947 m -12.6 m/s 402.70 MHz Domažlice (CZ) 0.00 km FOUND
R2341223 RS41 2020-11-08 13:03:30 49.4973 12.4868 178 ° 2 km/h 1063 m -11.8 m/s 402.70 MHz Weiden in der Oberpfalz (DE) 0.00 km UNKNOWN
R2341187 RS41 2020-11-08 07:41:58 49.288 12.8801 0 ° 2 km/h 474 m -6.5 m/s 402.700 MHz Kdyně (CZ) 0.00 km FOUND
R2411165 RS41 2020-11-08 01:40:00 49.5036 13.0702 327 ° 4 km/h 558 m -3.9 m/s 402.70 MHz Holýšov (CZ) 0.00 km FOUND
R2331413 RS41 2020-11-07 19:44:03 49.6535 13.1245 79 ° 7 km/h 749 m -5.5 m/s 402.70 MHz Holýšov (CZ) 0.00 km FOUND
R2341224 RS41 2020-11-07 13:23:05 50.0329 12.4118 280 ° 4 km/h 568 m -8.7 m/s 402.70 MHz Cheb (CZ) 0.00 km FOUND
R3330207 RS41 2020-11-07 07:32:10 50.0164 12.1978 254 ° 2 km/h 624 m -6.5 m/s 402.70 MHz Cheb (CZ) 0.00 km FOUND
R2411142 RS41 2020-11-07 01:33:20 49.9195 11.9759 222 ° 4 km/h 587 m -7.3 m/s 402.70 MHz Bayreuth (DE) 0.00 km FOUND
R2341178 RS41 2020-11-06 19:23:30 49.6423 11.8262 306 ° 26 km/h 839 m -10.9 m/s 402.70 MHz Sulzbach-Rosenberg (DE) 0.00 km LOST
R2310374 RS41 2020-11-06 13:06:20 49.587 11.3735 284 ° 9 km/h 605 m -9.8 m/s 402.70 MHz Lauf an der Pegnitz (DE) 0.00 km FOUND
R2341177 RS41 2020-11-06 07:12:30 49.3867 11.4274 285 ° 15 km/h 752 m -10.3 m/s 402.700 MHz Neumarkt in der Oberpfalz (DE) 0.00 km FOUND
R3330610 RS41 2020-11-06 01:21:45 49.2927 11.1279 294 ° 20 km/h 621 m -7.2 m/s 402.70 MHz Roth bei Nürnberg (DE) 0.00 km FOUND
R2341146 RS41 2020-11-05 19:35:46 48.8239 11.171 247 ° 22 km/h 778 m -5.7 m/s 402.70 MHz Neuburg an der Donau (DE) 0.00 km LOST
R3330757 RS41 2020-11-05 07:01:50 49.1615 12.4885 220 ° 13 km/h 1315 m -13.2 m/s 402.700 MHz Straubing (DE) 0.00 km UNKNOWN
R3420800 RS41 2020-11-05 01:33:00 49.3019 12.9023 248 ° 11 km/h 551 m -10.8 m/s 402.70 MHz Kdyně (CZ) 0.00 km FOUND
R3330721 RS41 2020-11-04 19:43:39 49.4515 12.8349 236 ° 13 km/h 1266 m -11.8 m/s 402.70 MHz Domažlice (CZ) 0.00 km FOUND
R3330758 RS41 2020-11-04 13:25:57 49.8978 12.9269 160 ° 9 km/h 764 m -3.0 m/s 402.70 MHz Planá (CZ) 0.00 km UNKNOWN
R3330215 RS41 2020-11-04 07:16:20 49.9312 13.035 104 ° 15 km/h 774 m -10.2 m/s 402.70 MHz Stříbro (CZ) 0.00 km UNKNOWN
R2330315 RS41 2020-11-04 01:37:22 50.2331 13.3469 109 ° 28 km/h 707 m -6.2 m/s 402.700 MHz Podbořany (CZ) 0.00 km UNKNOWN
R3330770 RS41 2020-11-03 19:39:06 50.2768 13.4624 95 ° 22 km/h 738 m -5.4 m/s 402.70 MHz Podbořany (CZ) 0.00 km UNKNOWN
R3330609 RS41 2020-11-03 13:17:24 50.1397 13.1615 100 ° 6 km/h 923 m -8.3 m/s 402.70 MHz Podbořany (CZ) 0.00 km UNKNOWN
R2330151 RS41 2020-11-03 07:14:05 49.8702 12.8757 118 ° 24 km/h 760 m -15.2 m/s 402.70 MHz Planá (CZ) 0.00 km UNKNOWN
R2331345 RS41 2020-11-03 01:21:31 49.6973 12.9207 68 ° 41 km/h 630 m -10.6 m/s 402.70 MHz Stříbro (CZ) 0.00 km FOUND
R2321693 RS41 2020-11-02 19:34:01 49.3824 12.816 92 ° 83 km/h 1750 m -12.6 m/s 402.70 MHz Domažlice (CZ) 0.00 km FOUND
R2310554 RS41 2020-11-02 13:09:17 49.1427 12.6064 101 ° 59 km/h 1490 m -11.1 m/s 402.70 MHz Straubing (DE) 0.00 km FOUND
R3330222 RS41 2020-11-02 07:25:19 48.7011 12.6475 70 ° 43 km/h 582 m -11.6 m/s 402.70 MHz Straubing (DE) 0.00 km FOUND
R3330208 RS41 2020-11-02 01:39:42 48.4801 12.7636 92 ° 81 km/h 1003 m -7.5 m/s 402.70 MHz Braunau am Inn (AT) 0.00 km FOUND
R3330221 RS41 2020-11-01 19:51:51 48.2066 12.9881 69 ° 15 km/h 474 m -5.7 m/s 402.70 MHz Neukirchen an der Enknach (AT) 0.00 km FOUND
R3330607 RS41 2020-11-01 14:07:19 48.7095 13.6878 64 ° 28 km/h 992 m -4.1 m/s 402.70 MHz Ulrichsberg (AT) 0.00 km UNKNOWN
R3330612 RS41 2020-11-01 07:27:07 48.6626 13.0641 70 ° 20 km/h 978 m -10.2 m/s 402.70 MHz Deggendorf (DE) 0.00 km UNKNOWN
R3330720 RS41 2020-11-01 01:26:37 48.9824 13.1335 60 ° 22 km/h 1102 m -8.2 m/s 402.70 MHz Deggendorf (DE) 0.00 km UNKNOWN
R3330214 RS41 2020-10-31 19:09:20 48.9173 13.0338 96 ° 28 km/h 1479 m -9.1 m/s 402.700 MHz Deggendorf (DE) 0.00 km UNKNOWN
R3330608 RS41 2020-10-31 13:13:42 48.8337 13.0987 47 ° 20 km/h 1590 m -6.3 m/s 402.70 MHz Deggendorf (DE) 0.00 km UNKNOWN
R3330212 RS41 2020-10-31 07:23:11 48.5411 13.1941 115 ° 22 km/h 662 m -8.4 m/s 402.70 MHz Passau (DE) 0.00 km FOUND
R3420731 RS41 2020-10-31 01:08:47 48.5607 13.1151 112 ° 37 km/h 1097 m -13.4 m/s 402.70 MHz Passau (DE) 0.00 km UNKNOWN
R3330192 RS41 2020-10-30 19:09:53 48.3916 13.0677 101 ° 44 km/h 628 m -7.8 m/s 402.70 MHz Braunau am Inn (AT) 0.00 km UNKNOWN
R3330210 RS41 2020-10-30 13:18:58 48.2005 13.3697 86 ° 39 km/h 838 m -8.2 m/s 402.70 MHz Mettmach (AT) 0.00 km LOST
R3330206 RS41 2020-10-30 07:35:56 48.0165 13.7156 77 ° 46 km/h 584 m -12.1 m/s 402.70 MHz Attnang-Puchheim (AT) 0.00 km UNKNOWN
R3330611 RS41 2020-10-30 01:16:03 48.4101 13.721 74 ° 39 km/h 697 m -7.8 m/s 402.700 MHz Natternbach (AT) 0.00 km UNKNOWN
R3330599 RS41 2020-10-29 19:44:32 48.064 14.3365 105 ° 19 km/h 471 m -6.3 m/s 402.70 MHz Sierning (AT) 0.00 km FOUND
R3330851 RS41 2020-10-29 13:10:00 48.9695 14.0589 94 ° 35 km/h 912 m -11.6 m/s 402.70 MHz Prachatice (CZ) 0.00 km NEED ATTENTION
R3330600 RS41 2020-10-29 07:17:09 49.5504 14.2715 30 ° 31 km/h 648 m -12.8 m/s 402.700 MHz Milevsko (CZ) 0.00 km UNKNOWN
R3420766 RS41 2020-10-29 00:53:22 49.849 13.8579 44 ° 35 km/h 486 m -7.7 m/s 402.70 MHz Hořovice (CZ) 0.00 km UNKNOWN
R3420732 RS41 2020-10-28 19:25:23 49.8681 14.4212 26 ° 20 km/h 404 m -8.5 m/s 402.70 MHz Mníšek pod Brdy (CZ) 0.00 km UNKNOWN
R3320096 RS41 2020-10-28 07:13:15 49.8351 13.6599 53 ° 54 km/h 1076 m -14.9 m/s 402.70 MHz Rokycany (CZ) 0.00 km UNKNOWN
R3420765 RS41 2020-10-28 01:28:23 49.842 13.8892 52 ° 46 km/h 1419 m -4.3 m/s 402.70 MHz Hořovice (CZ) 0.00 km UNKNOWN
R3330719 RS41 2020-10-27 19:21:26 49.5884 13.8282 72 ° 20 km/h 1199 m -11.8 m/s 402.70 MHz Příbram (CZ) 0.00 km LOST
R3420763 RS41 2020-10-27 13:10:32 50.5167 14.061 37 ° 72 km/h 3301 m -13.9 m/s 402.70 MHz Lovosice (CZ) 0.00 km UNKNOWN
R3420762 RS41 2020-10-27 07:34:28 50.8516 14.11 51 ° 22 km/h 1821 m -5.9 m/s 402.70 MHz Jílové (CZ) 0.00 km UNKNOWN
R3420730 RS41 2020-10-27 01:08:21 50.738 13.5264 89 ° 26 km/h 1410 m -11.1 m/s 402.70 MHz Litvínov (CZ) 0.00 km UNKNOWN
R3420799 RS41 2020-10-26 19:40:13 50.7468 14.6605 123 ° 24 km/h 594 m -7.9 m/s 402.70 MHz Nový Bor (CZ) 0.00 km UNKNOWN
R3420719 RS41 2020-10-26 13:29:20 50.6034 14.6103 356 ° 28 km/h 575 m -9.7 m/s 402.70 MHz Doksy (CZ) 0.00 km UNKNOWN
R3420718 RS41 2020-10-26 07:24:53 50.4154 14.1036 293 ° 24 km/h 374 m -6.2 m/s 402.70 MHz Roudnice nad Labem (CZ) 0.00 km UNKNOWN
R2340120 RS41 2020-10-26 01:29:44 50.3653 14.4122 306 ° 19 km/h 238 m -7.0 m/s 402.70 MHz Mělník (CZ) 0.00 km UNKNOWN
R2330276 RS41 2020-10-25 20:07:21 49.8828 14.2225 35 ° 2 km/h 576 m -1.5 m/s 402.70 MHz Mníšek pod Brdy (CZ) 0.00 km UNKNOWN
R2340005 RS41 2020-10-25 13:28:41 49.8965 14.1246 342 ° 11 km/h 539 m -5.4 m/s 402.70 MHz Beroun (CZ) 0.00 km UNKNOWN
R2331361 RS41 2020-10-25 07:18:27 49.587 13.7692 358 ° 22 km/h 907 m -5.9 m/s 402.70 MHz Blatná (CZ) 0.00 km UNKNOWN
R2331359 RS41 2020-10-25 01:32:20 49.4089 13.6699 41 ° 15 km/h 909 m -6.0 m/s 402.70 MHz Horažďovice (CZ) 0.00 km UNKNOWN
R2331338 RS41 2020-10-24 19:07:07 49.3466 13.4964 50 ° 22 km/h 807 m -12.2 m/s 402.70 MHz Sušice (CZ) 0.00 km UNKNOWN
R2331504 RS41 2020-10-24 13:12:48 49.4101 13.4346 110 ° 20 km/h 682 m -11.1 m/s 402.70 MHz Klatovy (CZ) 0.00 km UNKNOWN
R2331305 RS41 2020-10-24 07:20:05 49.6172 14.5 99 ° 19 km/h 657 m -14.1 m/s 402.70 MHz Sedlčany (CZ) 0.00 km UNKNOWN
R2331362 RS41 2020-10-24 01:36:34 49.8394 15.0228 82 ° 20 km/h 556 m -8.2 m/s 402.700 MHz Vlašim (CZ) 0.00 km UNKNOWN
R2330128 RS41 2020-10-23 19:30:26 49.9012 15.0615 61 ° 33 km/h 613 m -13.3 m/s 402.700 MHz Kutná Hora (CZ) 0.00 km UNKNOWN
R2331306 RS41 2020-10-23 13:19:52 50.1352 15.0462 7 ° 15 km/h 293 m -7.6 m/s 402.70 MHz Poděbrady (CZ) 0.00 km UNKNOWN
R2321639 RS41 2020-10-23 07:30:09 50.0304 15.3698 59 ° 13 km/h 628 m -10.6 m/s 402.70 MHz Kutná Hora (CZ) 0.00 km FOUND
R2340175 RS41 2020-10-23 01:12:10 49.9295 15.0801 65 ° 7 km/h 605 m -10.7 m/s 402.70 MHz Kutná Hora (CZ) 0.00 km NEED ATTENTION
R2331342 RS41 2020-10-22 19:26:58 49.9511 15.2471 43 ° 15 km/h 708 m -11.3 m/s 402.70 MHz Kutná Hora (CZ) 0.00 km UNKNOWN
R2340273 RS41 2020-10-22 13:14:32 50.123 14.8061 307 ° 11 km/h 338 m -7.4 m/s 402.70 MHz Čelákovice (CZ) 0.00 km LOST
R2331406 RS41 2020-10-22 07:11:16 50.0149 14.5128 162 ° 7 km/h 322 m -2.1 m/s 402.70 MHz Jesenice (CZ) 0.00 km FOUND
R2331245 RS41 2020-10-22 01:14:43 50.1033 14.7091 297 ° 9 km/h 318 m -6.6 m/s 402.70 MHz Úvaly (CZ) 0.00 km UNKNOWN
R2330595 RS41 2020-10-21 19:36:10 50.1599 15.0804 321 ° 11 km/h 284 m -4.5 m/s 402.70 MHz Poděbrady (CZ) 0.00 km UNKNOWN
P3340998 RS41 2020-10-21 13:23:12 49.9253 14.7251 358 ° 11 km/h 554 m -10.2 m/s 402.70 MHz Říčany (CZ) 0.00 km UNKNOWN
R2330854 RS41 2020-10-21 07:31:11 49.6569 14.7097 10 ° 28 km/h 698 m -5.1 m/s 402.70 MHz Benešov (CZ) 0.00 km UNKNOWN
R2340159 RS41 2020-10-21 01:36:48 49.5617 14.9165 326 ° 41 km/h 780 m -5.2 m/s 402.70 MHz Vlašim (CZ) 0.00 km LOST
R2331022 RS41 2020-10-20 19:36:12 49.5293 14.8541 327 ° 39 km/h 782 m -6.8 m/s 402.70 MHz Tábor (CZ) 0.00 km LOST
R2331304 RS41 2020-10-20 13:28:36 49.4958 14.4197 317 ° 26 km/h 686 m -10.3 m/s 402.70 MHz Milevsko (CZ) 0.00 km UNKNOWN
R2331023 RS41 2020-10-20 07:34:08 49.046 14.0096 329 ° 17 km/h 849 m -4.1 m/s 402.70 MHz Prachatice (CZ) 0.00 km FOUND
R2340583 RS41 2020-10-20 01:30:23 48.8453 13.8382 358 ° 19 km/h 1173 m -4.2 m/s 402.70 MHz Ulrichsberg (AT) 0.00 km UNKNOWN
R2330975 RS41 2020-10-19 19:09:54 48.9861 13.7884 23 ° 13 km/h 1476 m -12.9 m/s 402.700 MHz Vimperk (CZ) 0.00 km UNKNOWN
R2340179 RS41 2020-10-19 13:01:41 49.3585 13.6229 291 ° 7 km/h 902 m -12.9 m/s 402.70 MHz Horažďovice (CZ) 0.00 km UNKNOWN
R2330057 RS41 2020-10-19 07:26:03 49.3515 13.8917 113 ° 13 km/h 1425 m -6.8 m/s 402.70 MHz Blatná (CZ) 0.00 km LOST
R2330625 RS41 2020-10-19 01:36:03 49.3721 14.3474 105 ° 31 km/h 1271 m -6.5 m/s 402.70 MHz Milevsko (CZ) 0.00 km UNKNOWN
R2411257 RS41 2020-10-18 19:23:53 49.2386 14.0343 116 ° 33 km/h 888 m -8.8 m/s 402.70 MHz Strakonice (CZ) 0.00 km FOUND
R2321678 RS41 2020-10-18 13:18:45 49.1956 13.6881 110 ° 30 km/h 1123 m -8.5 m/s 402.70 MHz Sušice (CZ) 0.00 km UNKNOWN
R2330786 RS41 2020-10-18 07:34:38 48.929 13.414 117 ° 37 km/h 1723 m -4.7 m/s 402.70 MHz Vimperk (CZ) 0.00 km UNKNOWN
R3320852 RS41 2020-10-18 01:34:34 49.0553 13.3333 102 ° 20 km/h 1473 m -5.3 m/s 402.70 MHz Sušice (CZ) 0.00 km UNKNOWN
R3320557 RS41 2020-10-17 19:31:20 49.1233 13.1787 158 ° 22 km/h 1266 m -10.5 m/s 402.70 MHz Sušice (CZ) 0.00 km UNKNOWN
R3320736 RS41 2020-10-17 13:02:30 49.3353 12.5893 142 ° 15 km/h 754 m -10.7 m/s 402.70 MHz Domažlice (CZ) 0.00 km FOUND
R3320497 RS41 2020-10-17 07:18:18 49.1441 12.8341 167 ° 22 km/h 1423 m -7.3 m/s 402.70 MHz Kdyně (CZ) 0.00 km FOUND
R3320846 RS41 2020-10-17 01:12:35 49.1711 12.7273 193 ° 17 km/h 1220 m -4.7 m/s 402.70 MHz Kdyně (CZ) 0.00 km FOUND
R3320804 RS41 2020-10-16 19:14:25 49.0323 12.5451 216 ° 41 km/h 1439 m -10.5 m/s 402.70 MHz Straubing (DE) 0.00 km UNKNOWN
R3320709 RS41 2020-10-16 13:15:30 49.2012 12.1286 184 ° 26 km/h 999 m -4.0 m/s 404.90 MHz Schwandorf (DE) 0.00 km FOUND
R3320767 RS41 2020-10-16 07:03:40 49.2629 12.3545 230 ° 22 km/h 874 m -11.8 m/s 402.70 MHz Schwandorf (DE) 0.00 km FOUND
R3320843 RS41 2020-10-16 01:21:40 49.2946 12.3676 214 ° 17 km/h 1878 m -3.3 m/s 402.70 MHz Schwandorf (DE) 0.00 km UNKNOWN
R2310564 RS41 2020-10-15 19:48:50 49.2603 12.4191 227 ° 20 km/h 646 m -7.1 m/s 402.70 MHz Schwandorf (DE) 0.00 km FOUND
R3320803 RS41 2020-10-15 13:06:19 49.4741 12.295 237 ° 9 km/h 734 m -14.3 m/s 402.70 MHz Schwandorf (DE) 0.00 km FOUND
R3320802 RS41 2020-10-15 07:28:40 49.2871 12.0107 203 ° 9 km/h 735 m -5.5 m/s 402.70 MHz Schwandorf (DE) 0.00 km FOUND
R3320801 RS41 2020-10-15 01:19:00 49.3213 12.2552 161 ° 17 km/h 1124 m -12.5 m/s 402.700 MHz Schwandorf (DE) 0.00 km FOUND
R3320844 RS41 2020-10-14 19:16:20 49.1894 12.0268 154 ° 41 km/h 959 m -7.3 m/s 402.70 MHz Schwandorf (DE) 0.00 km FOUND
R2340176 RS41 2020-10-14 13:33:59 49.3212 12.1436 131 ° 43 km/h 812 m -4.8 m/s 402.70 MHz Schwandorf (DE) 0.00 km FOUND
R2330579 RS41 2020-10-14 07:08:03 49.4056 11.7959 161 ° 46 km/h 866 m -11.2 m/s 402.700 MHz Amberg (DE) 0.00 km FOUND
R3320842 RS41 2020-10-14 01:33:00 49.5032 12.0419 148 ° 24 km/h 619 m -4.0 m/s 402.700 MHz Amberg (DE) 0.00 km FOUND
R3320841 RS41 2020-10-13 19:22:47 49.5954 12.0436 205 ° 33 km/h 751 m -6.5 m/s 402.70 MHz Weiden in der Oberpfalz (DE) 0.00 km FOUND
R3251265 RS41 2020-10-13 13:13:40 49.6355 12.1168 186 ° 26 km/h 603 m -8.4 m/s 402.700 MHz Weiden in der Oberpfalz (DE) 0.00 km FOUND
R3251221 RS41 2020-10-13 07:26:30 49.3709 12.1024 242 ° 7 km/h 755 m -7.5 m/s 402.70 MHz Schwandorf (DE) 0.00 km FOUND
R3320694 RS41 2020-10-13 01:26:35 49.1482 12.1542 164 ° 19 km/h 1001 m -5.4 m/s 402.70 MHz Regensburg (DE) 0.00 km FOUND
R3320703 RS41 2020-10-12 19:12:40 49.0505 12.2193 159 ° 15 km/h 938 m -8.8 m/s 402.70 MHz Regensburg (DE) 0.00 km UNKNOWN
R3320721 RS41 2020-10-12 12:59:04 49.2352 12.1354 110 ° 20 km/h 1258 m -12.4 m/s 402.70 MHz Schwandorf (DE) 0.00 km FOUND
D314968 DFM06 2020-10-12 08:44:40 49.2869 12.0171 128 ° 19 km/h 723 m -12.1 m/s 404.090 MHz Schwandorf (DE) 0.00 km UNKNOWN
R3251262 RS41 2020-10-12 07:06:55 49.2086 12.1502 108 ° 17 km/h 1038 m -6.5 m/s 402.70 MHz Schwandorf (DE) 0.00 km UNKNOWN
R3320704 RS41 2020-10-12 01:20:15 49.3903 12.1627 159 ° 19 km/h 699 m -7.0 m/s 402.70 MHz Schwandorf (DE) 0.00 km FOUND
R3251206 RS41 2020-10-11 19:21:50 49.5883 12.3695 126 ° 6 km/h 708 m -6.2 m/s 402.700 MHz Weiden in der Oberpfalz (DE) 0.00 km FOUND
R3320845 RS41 2020-10-11 13:33:27 49.834 12.74 212 ° 7 km/h 589 m -5.3 m/s 402.70 MHz Planá (CZ) 0.00 km UNKNOWN
R3320708 RS41 2020-10-11 07:01:26 49.8974 12.9224 60 ° 13 km/h 690 m -9.1 m/s 402.70 MHz Planá (CZ) 0.00 km UNKNOWN
R3251220 RS41 2020-10-11 01:34:09 49.8076 13.2031 75 ° 22 km/h 612 m -8.1 m/s 402.70 MHz Nýřany (CZ) 0.00 km UNKNOWN
R3251207 RS41 2020-10-10 19:20:57 49.7883 13.2643 86 ° 19 km/h 554 m -10.1 m/s 402.700 MHz Nýřany (CZ) 0.00 km UNKNOWN
R3320764 RS41 2020-10-10 13:11:20 49.91 13.3089 79 ° 22 km/h 760 m -10.9 m/s 402.70 MHz Třemošná (CZ) 0.00 km UNKNOWN
R3320692 RS41 2020-10-10 07:44:04 49.8635 13.4811 91 ° 30 km/h 789 m -4.4 m/s 402.70 MHz Třemošná (CZ) 0.00 km UNKNOWN
R3320726 RS41 2020-10-10 01:34:50 49.6885 13.3983 55 ° 26 km/h 648 m -6.5 m/s 402.70 MHz Starý Plzenec (CZ) 0.00 km UNKNOWN
R3320711 RS41 2020-10-09 19:36:30 49.5787 13.57 51 ° 22 km/h 767 m -10.0 m/s 402.700 MHz Starý Plzenec (CZ) 0.00 km UNKNOWN
R3320765 RS41 2020-10-09 13:26:22 49.5381 13.5087 50 ° 22 km/h 675 m -11.9 m/s 402.70 MHz Přeštice (CZ) 0.00 km UNKNOWN
R3320762 RS41 2020-10-09 07:16:08 49.3679 13.456 82 ° 33 km/h 746 m -11.1 m/s 402.70 MHz Klatovy (CZ) 0.00 km UNKNOWN
R3320691 RS41 2020-10-09 01:21:41 49.122 13.8598 87 ° 30 km/h 1311 m -13.1 m/s 402.70 MHz Vimperk (CZ) 0.00 km FOUND
R3320766 RS41 2020-10-08 19:23:53 48.9975 13.8284 22 ° 7 km/h 1168 m -4.0 m/s 402.70 MHz Vimperk (CZ) 0.00 km UNKNOWN
R3320442 RS41 2020-10-08 13:00:44 49.0098 13.3912 74 ° 46 km/h 1519 m -6.5 m/s 402.700 MHz Sušice (CZ) 0.00 km UNKNOWN
D314919 DFM06 2020-10-08 13:00:34 49.0096 13.3898 78 ° 44 km/h 1569 m -6.4 m/s 404.089 MHz Sušice (CZ) 0.00 km UNKNOWN
R3320440 RS41 2020-10-08 07:22:43 48.5256 13.5817 82 ° 15 km/h 680 m -5.9 m/s 402.70 MHz Esternberg (AT) 0.00 km UNKNOWN
R3320733 RS41 2020-10-08 01:25:46 48.3246 13.8415 90 ° 20 km/h 475 m -7.1 m/s 402.70 MHz Waizenkirchen (AT) 0.00 km UNKNOWN
R3320725 RS41 2020-10-07 19:43:31 48.5993 13.6842 114 ° 57 km/h 1219 m -5.4 m/s 402.70 MHz Esternberg (AT) 0.00 km UNKNOWN
R3320713 RS41 2020-10-07 13:10:10 49.2389 13.3097 90 ° 11 km/h 850 m -9.1 m/s 402.700 MHz Sušice (CZ) 0.00 km UNKNOWN
R3320712 RS41 2020-10-07 07:28:06 49.3369 13.3156 89 ° 17 km/h 632 m -4.8 m/s 402.70 MHz Klatovy (CZ) 0.00 km UNKNOWN
R3320478 RS41 2020-10-07 01:27:41 49.7592 13.6797 56 ° 46 km/h 718 m -10.3 m/s 402.70 MHz Rokycany (CZ) 0.00 km UNKNOWN
R3320722 RS41 2020-10-06 19:33:39 49.7818 13.7354 37 ° 50 km/h 703 m -8.3 m/s 402.70 MHz Rokycany (CZ) 0.00 km UNKNOWN
R3320724 RS41 2020-10-06 13:24:15 49.6748 13.8168 23 ° 20 km/h 899 m -7.9 m/s 402.700 MHz Příbram (CZ) 0.00 km UNKNOWN
R3320142 RS41 2020-10-05 19:21:13 49.887 13.1839 45 ° 28 km/h 717 m -11.3 m/s 402.700 MHz Třemošná (CZ) 0.00 km UNKNOWN
R3320723 RS41 2020-10-05 13:21:07 49.9757 12.9158 64 ° 20 km/h 776 m -10.1 m/s 402.70 MHz Mariánské Lázně (CZ) 0.00 km UNKNOWN
R3320714 RS41 2020-10-05 07:36:20 50.3242 12.7323 166 ° 4 km/h 653 m -10.2 m/s 402.700 MHz Nejdek (CZ) 0.00 km UNKNOWN
R3251263 RS41 2020-10-05 01:27:08 50.4765 12.7984 317 ° 57 km/h 1214 m -11.4 m/s 402.70 MHz Nejdek (CZ) 0.00 km UNKNOWN
R3251210 RS41 2020-10-04 19:06:14 50.3376 12.8467 322 ° 22 km/h 1176 m -14.4 m/s 402.70 MHz Ostrov (CZ) 0.00 km UNKNOWN
R3251264 RS41 2020-10-04 13:25:53 50.4072 13.1252 54 ° 33 km/h 1089 m -7.8 m/s 404.90 MHz Klášterec nad Ohří (CZ) 0.00 km UNKNOWN
R3330093 RS41 2020-10-04 07:17:57 50.1533 12.6453 65 ° 44 km/h 1026 m -11.4 m/s 402.700 MHz Sokolov (CZ) 0.00 km UNKNOWN
R3251213 RS41 2020-10-04 01:15:49 50.6944 12.1999 37 ° 9 km/h 792 m -9.6 m/s 402.70 MHz Greiz (DE) 0.00 km UNKNOWN
R3320696 RS41 2020-10-03 19:19:05 50.8703 11.9727 49 ° 26 km/h 456 m -4.9 m/s 402.70 MHz Gera (DE) 0.00 km NEED ATTENTION
R3320735 RS41 2020-10-03 13:30:42 50.5649 12.2003 11 ° 52 km/h 1143 m -4.8 m/s 402.701 MHz Plauen (DE) 0.00 km UNKNOWN
R3251222 RS41 2020-10-03 07:29:58 50.1985 12.3877 312 ° 39 km/h 1014 m -9.0 m/s 402.700 MHz Františkovy Lázně (CZ) 0.00 km UNKNOWN
R3251212 RS41 2020-10-03 01:23:34 50.0442 12.5792 33 ° 9 km/h 797 m -4.4 m/s 402.700 MHz Mariánské Lázně (CZ) 0.00 km UNKNOWN
R3320798 RS41 2020-10-02 20:52:54 50.0411 13.4741 266 ° 28 km/h 675 m -4.0 m/s 402.70 MHz Rakovník (CZ) 0.00 km UNKNOWN
R3251216 RS41 2020-10-02 13:33:41 49.9708 12.7701 272 ° 19 km/h 865 m -5.0 m/s 402.70 MHz Mariánské Lázně (CZ) 0.00 km UNKNOWN
R3320738 RS41 2020-10-02 07:19:55 49.7079 12.5339 299 ° 33 km/h 941 m -12.2 m/s 402.70 MHz Tachov (CZ) 0.00 km FOUND
R3320479 RS41 2020-10-02 01:09:15 49.6072 12.6125 146 ° 13 km/h 846 m -13.1 m/s 402.70 MHz Tachov (CZ) 0.00 km FOUND
R3320441 RS41 2020-10-01 19:30:16 49.6556 12.5949 49 ° 22 km/h 803 m -5.6 m/s 402.70 MHz Tachov (CZ) 0.00 km FOUND
R3320475 RS41 2020-10-01 13:09:45 49.6146 12.3155 32 ° 11 km/h 621 m -8.0 m/s 402.70 MHz Weiden in der Oberpfalz (DE) 0.00 km FOUND
R3320480 RS41 2020-10-01 07:07:30 49.2678 12.2287 346 ° 17 km/h 1039 m -8.9 m/s 402.70 MHz Schwandorf (DE) 0.00 km FOUND
R3251223 RS41 2020-10-01 01:27:40 49.2036 12.2994 315 ° 11 km/h 1042 m -5.8 m/s 402.70 MHz Schwandorf (DE) 0.00 km FOUND
R3251219 RS41 2020-09-30 19:23:50 49.1805 12.2925 276 ° 17 km/h 1155 m -12.6 m/s 402.70 MHz Schwandorf (DE) 0.00 km FOUND
R3320496 RS41 2020-09-30 13:02:31 49.2875 12.2609 155 ° 9 km/h 1088 m -10.6 m/s 402.70 MHz Schwandorf (DE) 0.00 km FOUND
R3251211 RS41 2020-09-30 07:12:00 49.0991 12.2663 126 ° 15 km/h 1337 m -11.0 m/s 402.70 MHz Regensburg (DE) 0.00 km FOUND
R3320495 RS41 2020-09-30 01:46:42 48.9248 12.583 130 ° 15 km/h 992 m -5.5 m/s 402.70 MHz Straubing (DE) 0.00 km UNKNOWN
R3320397 RS41 2020-09-29 19:25:40 48.7764 12.7072 125 ° 30 km/h 754 m -4.2 m/s 402.70 MHz Straubing (DE) 0.00 km FOUND
R3330091 RS41 2020-09-29 13:19:47 48.8735 12.6817 101 ° 15 km/h 1041 m -12.0 m/s 402.70 MHz Straubing (DE) 0.00 km FOUND
R3330092 RS41 2020-09-29 08:01:36 48.8245 12.3647 109 ° 9 km/h 626 m -5.2 m/s 402.700 MHz Straubing (DE) 0.00 km UNKNOWN
R3320554 RS41 2020-09-29 01:19:52 49.0073 12.3549 89 ° 22 km/h 982 m -3.3 m/s 402.70 MHz Regensburg (DE) 0.00 km UNKNOWN
R3251209 RS41 2020-09-28 19:24:20 49.0392 12.1084 40 ° 9 km/h 554 m -3.3 m/s 402.700 MHz Regensburg (DE) 0.00 km FOUND
R2330021 RS41 2020-09-28 13:06:15 49.3067 11.7706 15 ° 7 km/h 840 m -9.8 m/s 402.70 MHz Amberg (DE) 0.00 km FOUND
R2330019 RS41 2020-09-28 07:15:45 49.4188 11.5624 270 ° 24 km/h 801 m -10.5 m/s 402.700 MHz Sulzbach-Rosenberg (DE) 0.00 km UNKNOWN
R2321667 RS41 2020-09-28 01:42:00 49.7174 11.745 263 ° 17 km/h 648 m -6.1 m/s 402.700 MHz Sulzbach-Rosenberg (DE) 0.00 km UNKNOWN
R2321666 RS41 2020-09-27 19:42:30 49.4984 11.321 276 ° 13 km/h 449 m -4.9 m/s 402.70 MHz Lauf an der Pegnitz (DE) 0.00 km LOST
R3320476 RS41 2020-09-27 13:54:20 49.7097 11.1214 347 ° 11 km/h 525 m -6.6 m/s 402.70 MHz Erlangen (DE) 0.00 km FOUND
R3320555 RS41 2020-09-27 07:37:45 49.7463 10.9373 354 ° 11 km/h 462 m -6.7 m/s 402.70 MHz Bamberg (DE) 0.00 km FOUND
R3320493 RS41 2020-09-27 01:39:45 49.7596 11.8067 47 ° 15 km/h 566 m -6.6 m/s 402.70 MHz Weiden in der Oberpfalz (DE) 0.00 km FOUND
R3320494 RS41 2020-09-26 20:19:25 49.567 12.0925 42 ° 26 km/h 546 m -4.2 m/s 402.70 MHz Weiden in der Oberpfalz (DE) 0.00 km FOUND
R2330025 RS41 2020-09-26 13:20:40 49.6431 11.6025 79 ° 24 km/h 808 m -6.8 m/s 402.700 MHz Sulzbach-Rosenberg (DE) 0.00 km LOST
R2330020 RS41 2020-09-26 07:23:30 49.8765 11.5118 90 ° 30 km/h 771 m -6.4 m/s 402.700 MHz Bayreuth (DE) 0.00 km FOUND
R2321671 RS41 2020-09-26 01:53:50 50.1321 11.7959 73 ° 22 km/h 751 m -4.2 m/s 402.700 MHz Hof (DE) 0.00 km FOUND
R2321665 RS41 2020-09-25 20:22:33 50.2218 12.3582 98 ° 20 km/h 585 m -3.3 m/s 402.70 MHz Františkovy Lázně (CZ) 0.00 km UNKNOWN
R2321674 RS41 2020-09-25 13:36:23 50.4156 12.6479 115 ° 17 km/h 1030 m -6.6 m/s 402.70 MHz Nejdek (CZ) 0.00 km UNKNOWN
R2330279 RS41 2020-09-25 07:24:40 50.3561 12.7937 69 ° 9 km/h 954 m -6.7 m/s 402.700 MHz Nejdek (CZ) 0.00 km FOUND
R2330275 RS41 2020-09-25 02:43:03 50.6518 13.6238 331 ° 19 km/h 966 m -7.7 m/s 402.70 MHz Litvínov (CZ) 0.00 km UNKNOWN
R2330281 RS41 2020-09-24 19:22:36 50.021 13.378 317 ° 24 km/h 755 m -9.6 m/s 402.70 MHz Třemošná (CZ) 0.00 km UNKNOWN
R2321574 RS41 2020-09-24 13:29:55 49.9835 13.6691 66 ° 31 km/h 1670 m -4.9 m/s 402.70 MHz Rakovník (CZ) 0.00 km UNKNOWN
R2321575 RS41 2020-09-24 07:27:35 49.7437 13.4889 55 ° 41 km/h 776 m -12.6 m/s 402.70 MHz Starý Plzenec (CZ) 0.00 km UNKNOWN
R2321668 RS41 2020-09-24 01:30:15 49.6726 13.2774 47 ° 31 km/h 789 m -8.7 m/s 402.70 MHz Dobřany (CZ) 0.00 km FOUND
R2321590 RS41 2020-09-23 19:23:20 49.6067 12.9617 43 ° 28 km/h 593 m -12.1 m/s 402.700 MHz Holýšov (CZ) 0.00 km FOUND
R2330023 RS41 2020-09-23 13:44:30 49.7911 12.7764 88 ° 24 km/h 745 m -3.7 m/s 402.70 MHz Planá (CZ) 0.00 km UNKNOWN
R2321669 RS41 2020-09-23 07:12:05 49.7018 12.5803 109 ° 2 km/h 859 m -9.4 m/s 402.70 MHz Tachov (CZ) 0.00 km UNKNOWN
R2321573 RS41 2020-09-23 01:44:10 49.889 12.682 107 ° 13 km/h 806 m -6.1 m/s 402.70 MHz Planá (CZ) 0.00 km UNKNOWN
R2330277 RS41 2020-09-22 19:22:00 49.7749 12.3951 329 ° 9 km/h 807 m -6.1 m/s 402.70 MHz Tachov (CZ) 0.00 km FOUND
R2330024 RS41 2020-09-22 13:26:39 49.8356 12.2958 353 ° 13 km/h 738 m -6.9 m/s 402.70 MHz Weiden in der Oberpfalz (DE) 0.00 km FOUND
D315357 DFM 2020-09-22 12:08:56 49.6877 11.9629 27 ° 9 km/h 21553 m 4.4 m/s 404.089 MHz Weiden in der Oberpfalz (DE) 0.00 km FOUND
R2330022 RS41 2020-09-22 07:06:50 49.5809 11.9035 15 ° 9 km/h 760 m -5.5 m/s 402.70 MHz Sulzbach-Rosenberg (DE) 0.00 km FOUND
R2321672 RS41 2020-09-22 01:20:17 49.5581 11.9345 13 ° 6 km/h 750 m -10.8 m/s 402.70 MHz Amberg (DE) 0.00 km FOUND
R2321670 RS41 2020-09-21 19:34:45 49.4945 11.8674 305 ° 13 km/h 600 m -11.5 m/s 402.70 MHz Amberg (DE) 0.00 km FOUND
R2330059 RS41 2020-09-21 13:20:15 49.4923 11.7983 237 ° 4 km/h 735 m -5.5 m/s 402.70 MHz Sulzbach-Rosenberg (DE) 0.00 km FOUND
R2321585 RS41 2020-09-21 07:12:00 49.3127 11.7569 17 ° 9 km/h 889 m -10.6 m/s 402.70 MHz Amberg (DE) 0.00 km FOUND
R2330071 RS41 2020-09-21 01:31:00 49.3434 11.8003 299 ° 11 km/h 845 m -4.8 m/s 402.70 MHz Amberg (DE) 0.00 km FOUND
R2330058 RS41 2020-09-20 19:49:00 49.3458 11.956 291 ° 22 km/h 808 m -6.6 m/s 402.70 MHz Schwandorf (DE) 0.00 km FOUND
R2330028 RS41 2020-09-20 13:05:30 49.4417 12.0321 230 ° 19 km/h 735 m -12.5 m/s 402.700 MHz Amberg (DE) 0.00 km FOUND
R2321673 RS41 2020-09-20 07:25:18 49.3369 11.9647 269 ° 15 km/h 879 m -6.2 m/s 402.70 MHz Schwandorf (DE) 0.00 km FOUND
R2330084 RS41 2020-09-20 01:39:35 49.3754 12.3017 255 ° 20 km/h 774 m -7.0 m/s 402.70 MHz Schwandorf (DE) 0.00 km UNKNOWN
R2330060 RS41 2020-09-19 19:20:50 49.3343 12.2614 276 ° 28 km/h 847 m -8.0 m/s 402.70 MHz Schwandorf (DE) 0.00 km FOUND
D86873 2020-09-19 18:09:24 49.3863 12.1121 226 ° 30 km/h 23091 m 4.9 m/s 404.093 MHz Schwandorf (DE) 0.00 km UNKNOWN
D315359 DFM06 2020-09-19 18:07:45 49.3942 12.1128 135 ° 17 km/h 22569 m 4.8 m/s 404.088 MHz Schwandorf (DE) 0.00 km FOUND
R2330278 RS41 2020-09-19 12:52:45 49.5443 12.1263 267 ° 11 km/h 665 m -13.7 m/s 402.70 MHz Weiden in der Oberpfalz (DE) 0.00 km FOUND
R2330282 RS41 2020-09-19 07:33:06 49.6847 11.9864 265 ° 33 km/h 628 m -6.1 m/s 402.700 MHz Weiden in der Oberpfalz (DE) 0.00 km FOUND
R2341121 RS41 2020-09-19 01:58:51 49.789 11.9226 274 ° 26 km/h 604 m -5.9 m/s 402.70 MHz Weiden in der Oberpfalz (DE) 0.00 km FOUND
R2341215 RS41 2020-09-18 19:29:15 49.6455 11.6012 290 ° 50 km/h 974 m -11.9 m/s 402.70 MHz Sulzbach-Rosenberg (DE) 0.00 km FOUND
R2330280 RS41 2020-09-18 13:14:20 49.5853 11.4051 271 ° 11 km/h 678 m -8.5 m/s 402.70 MHz Lauf an der Pegnitz (DE) 0.00 km LOST
R2321663 RS41 2020-09-18 07:17:29 49.3732 11.244 275 ° 39 km/h 659 m -9.8 m/s 402.70 MHz Nürnberg (DE) 0.00 km FOUND
R2321587 RS41 2020-09-18 01:25:00 49.274 11.3795 297 ° 24 km/h 1077 m -6.9 m/s 402.70 MHz Neumarkt in der Oberpfalz (DE) 0.00 km UNKNOWN
R2321586 RS41 2020-09-17 19:24:55 49.1338 11.551 258 ° 52 km/h 921 m -11.4 m/s 402.70 MHz Neumarkt in der Oberpfalz (DE) 0.00 km UNKNOWN
R2321589 RS41 2020-09-17 13:11:30 49.2107 11.7632 219 ° 19 km/h 811 m -13.2 m/s 404.90 MHz Neumarkt in der Oberpfalz (DE) 0.00 km FOUND
D314963 DFM06 2020-09-17 11:17:10 49.3482 11.7334 202 ° 13 km/h 8521 m 3.7 m/s 404.088 MHz Amberg (DE) 0.00 km UNKNOWN
R2321588 RS41 2020-09-17 07:22:40 49.1345 12.1592 227 ° 33 km/h 785 m -6.8 m/s 402.70 MHz Regensburg (DE) 0.00 km FOUND
R2340460 RS41 2020-09-17 01:29:15 49.1215 12.2046 209 ° 24 km/h 905 m -5.2 m/s 402.70 MHz Regensburg (DE) 0.00 km UNKNOWN
R2340453 RS41 2020-09-16 19:34:30 49.0751 12.1669 181 ° 28 km/h 883 m -14.6 m/s 402.70 MHz Regensburg (DE) 0.00 km FOUND
D505910 DFM 2020-09-16 13:25:30 49.3212 11.9342 196 ° 9 km/h 678 m -7.0 m/s 404.089 MHz Schwandorf (DE) 0.00 km FOUND
R2340459 RS41 2020-09-16 13:24:59 49.3217 11.9345 210 ° 9 km/h 849 m -6.3 m/s 402.70 MHz Schwandorf (DE) 0.00 km FOUND
R2330932 RS41 2020-09-16 07:22:40 49.3036 11.7542 198 ° 9 km/h 828 m -6.7 m/s 402.70 MHz Amberg (DE) 0.00 km LOST
R2331232 RS41 2020-09-16 01:34:45 49.5165 11.8257 110 ° 13 km/h 858 m -7.6 m/s 402.70 MHz Sulzbach-Rosenberg (DE) 0.00 km FOUND
R2331238 RS41 2020-09-15 19:30:45 49.5812 11.897 307 ° 11 km/h 895 m -7.3 m/s 402.70 MHz Sulzbach-Rosenberg (DE) 0.00 km FOUND
R2340452 RS41 2020-09-15 15:02:20 50.1263 11.9728 296 ° 13 km/h 695 m -11.0 m/s 402.70 MHz Aš (CZ) 0.00 km NEED ATTENTION
R2340468 RS41 2020-09-15 07:16:08 49.6797 11.8321 293 ° 19 km/h 623 m -6.5 m/s 402.70 MHz Sulzbach-Rosenberg (DE) 0.00 km LOST
R2340458 RS41 2020-09-15 01:36:30 49.7553 11.9361 264 ° 22 km/h 625 m -7.0 m/s 402.70 MHz Weiden in der Oberpfalz (DE) 0.00 km FOUND
R2340467 RS41 2020-09-14 19:19:04 49.6797 11.8585 281 ° 26 km/h 549 m -10.1 m/s 402.70 MHz Weiden in der Oberpfalz (DE) 0.00 km LOST
R2340461 RS41 2020-09-14 13:15:59 49.766 11.8417 290 ° 17 km/h 609 m -7.4 m/s 402.700 MHz Weiden in der Oberpfalz (DE) 0.00 km FOUND
D314893 DFM06 2020-09-14 13:15:40 49.766 11.844 262 ° 17 km/h 881 m -8.0 m/s 404.088 MHz Weiden in der Oberpfalz (DE) 0.00 km FOUND
R2341119 RS41 2020-09-14 07:22:42 49.6203 11.8068 300 ° 19 km/h 935 m -14.7 m/s 402.70 MHz Sulzbach-Rosenberg (DE) 0.00 km FOUND
R2341122 RS41 2020-09-14 01:45:12 49.5111 11.9381 285 ° 11 km/h 658 m -5.9 m/s 402.70 MHz Amberg (DE) 0.00 km UNKNOWN
R2341214 RS41 2020-09-13 19:25:22 49.3266 11.9826 243 ° 6 km/h 1451 m -12.5 m/s 402.70 MHz Schwandorf (DE) 0.00 km FOUND
R2341133 RS41 2020-09-13 13:20:13 49.2922 12.1393 119 ° 6 km/h 1157 m -6.5 m/s 402.700 MHz Schwandorf (DE) 0.00 km UNKNOWN
R2331231 RS41 2020-09-13 07:18:23 49.1708 12.232 75 ° 9 km/h 1063 m -7.5 m/s 402.70 MHz Schwandorf (DE) 0.00 km FOUND
R2340451 RS41 2020-09-13 01:43:18 49.2007 12.4689 70 ° 15 km/h 847 m -5.6 m/s 402.70 MHz Schwandorf (DE) 0.00 km UNKNOWN
R2340457 RS41 2020-09-12 19:42:08 49.2328 12.5686 86 ° 13 km/h 1130 m -10.7 m/s 402.70 MHz Schwandorf (DE) 0.00 km FOUND
R2331241 RS41 2020-09-12 13:11:52 49.5129 12.4705 119 ° 6 km/h 1334 m -8.2 m/s 402.700 MHz Weiden in der Oberpfalz (DE) 0.00 km FOUND
R2340406 RS41 2020-09-12 07:34:22 49.4972 12.3376 10 ° 6 km/h 896 m -4.9 m/s 402.700 MHz Weiden in der Oberpfalz (DE) 0.00 km UNKNOWN
R2341129 RS41 2020-09-12 01:18:07 49.4944 12.3775 290 ° 0 km/h 867 m -6.7 m/s 402.70 MHz Weiden in der Oberpfalz (DE) 0.00 km UNKNOWN
R2331242 RS41 2020-09-11 19:18:07 49.454 12.5631 242 ° 4 km/h 1102 m -8.4 m/s 402.700 MHz Domažlice (CZ) 0.00 km UNKNOWN
R2341134 RS41 2020-09-11 13:00:23 49.5676 12.6247 13 ° 4 km/h 1111 m -13.0 m/s 402.70 MHz Tachov (CZ) 0.00 km FOUND
R2331240 RS41 2020-09-11 07:16:53 49.5408 12.7585 197 ° 6 km/h 608 m -7.5 m/s 402.700 MHz Domažlice (CZ) 0.00 km FOUND
R2341120 RS41 2020-09-11 01:12:13 49.5654 12.8697 221 ° 9 km/h 530 m -12.3 m/s 402.700 MHz Domažlice (CZ) 0.00 km FOUND
R2341124 RS41 2020-09-10 19:37:38 49.5031 12.8759 271 ° 7 km/h 539 m -5.9 m/s 402.70 MHz Domažlice (CZ) 0.00 km FOUND
R2331239 RS41 2020-09-10 13:16:03 49.5573 12.8588 238 ° 11 km/h 539 m -11.8 m/s 402.70 MHz Domažlice (CZ) 0.00 km FOUND
R2341130 RS41 2020-09-10 07:33:08 49.5224 13.0449 82 ° 2 km/h 486 m -6.8 m/s 402.70 MHz Holýšov (CZ) 0.00 km LOST
R2341132 RS41 2020-09-10 01:15:28 49.568 13.0839 77 ° 13 km/h 512 m -15.2 m/s 402.70 MHz Holýšov (CZ) 0.00 km FOUND
R2341126 RS41 2020-09-09 19:10:13 49.6427 12.8121 103 ° 26 km/h 810 m -13.2 m/s 402.70 MHz Stříbro (CZ) 0.00 km FOUND
R2341131 RS41 2020-09-09 13:21:46 49.828 12.5181 50 ° 13 km/h 804 m -6.6 m/s 402.70 MHz Tachov (CZ) 0.00 km UNKNOWN
D313993 DFM06 2020-09-09 12:06:24 49.8931 12.3746 4 ° 15 km/h 707 m -2.4 m/s 404.089 MHz Cheb (CZ) 0.00 km NEED ATTENTION
R2341218 RS41 2020-09-09 07:25:09 49.6081 12.2603 338 ° 2 km/h 609 m -6.8 m/s 402.701 MHz Weiden in der Oberpfalz (DE) 0.00 km LOST
R2340419 RS41 2020-09-09 01:36:30 49.4015 12.3007 40 ° 13 km/h 871 m -6.8 m/s 402.70 MHz Schwandorf (DE) 0.00 km UNKNOWN
R2341118 RS41 2020-09-08 19:28:09 49.2171 12.1555 45 ° 9 km/h 928 m -7.9 m/s 402.70 MHz Schwandorf (DE) 0.00 km FOUND
R2340444 RS41 2020-09-08 13:03:39 49.1306 11.9727 6 ° 11 km/h 712 m -13.1 m/s 402.70 MHz Regensburg (DE) 0.00 km FOUND
R2340420 RS41 2020-09-08 07:12:54 48.8598 11.7981 291 ° 9 km/h 626 m -14.4 m/s 402.701 MHz Regensburg (DE) 0.00 km LOST
R2340426 RS41 2020-09-08 01:15:34 48.9323 12.0866 331 ° 9 km/h 631 m -17.1 m/s 402.700 MHz Regensburg (DE) 0.00 km FOUND
R2340425 RS41 2020-09-07 19:13:35 49.0169 12.2499 354 ° 13 km/h 753 m -6.7 m/s 402.700 MHz Regensburg (DE) 0.00 km FOUND
R2340615 RS41 2020-09-07 13:20:20 49.2321 12.6343 253 ° 4 km/h 1777 m -7.1 m/s 402.70 MHz Domažlice (CZ) 0.00 km UNKNOWN
R2340416 RS41 2020-09-07 06:57:29 49.5028 12.7543 208 ° 4 km/h 2181 m -8.8 m/s 402.700 MHz Domažlice (CZ) 0.00 km UNKNOWN
R2340592 RS41 2020-09-07 01:45:25 49.8771 13.3159 212 ° 19 km/h 963 m -5.7 m/s 402.700 MHz Třemošná (CZ) 0.00 km UNKNOWN
R2340417 RS41 2020-09-06 19:35:15 49.8614 13.449 234 ° 26 km/h 1052 m -10.0 m/s 402.700 MHz Třemošná (CZ) 0.00 km FOUND
R2340858 RS41 2020-09-06 13:37:05 49.9634 13.6966 184 ° 11 km/h 504 m -4.3 m/s 402.700 MHz Rakovník (CZ) 0.00 km UNKNOWN
R2340870 RS41 2020-09-06 07:21:35 49.6843 13.6247 96 ° 6 km/h 824 m -6.3 m/s 402.70 MHz Rokycany (CZ) 0.00 km UNKNOWN
R2340857 RS41 2020-09-06 01:16:22 49.8529 13.8937 150 ° 4 km/h 522 m -6.2 m/s 402.700 MHz Hořovice (CZ) 0.00 km UNKNOWN
R2341160 RS41 2020-09-05 19:31:39 49.7692 13.8244 193 ° 17 km/h 687 m -7.3 m/s 402.70 MHz Hořovice (CZ) 0.00 km UNKNOWN
R2341196 RS41 2020-09-05 13:20:55 49.7197 13.8295 80 ° 17 km/h 863 m -7.8 m/s 402.70 MHz Příbram (CZ) 0.00 km UNKNOWN
R2341117 RS41 2020-09-05 08:13:26 49.6646 14.0504 358 ° 13 km/h 718 m -11.1 m/s 402.70 MHz Příbram (CZ) 0.00 km UNKNOWN
R2340867 RS41 2020-09-05 01:45:36 49.443 13.4675 19 ° 15 km/h 680 m -4.9 m/s 402.70 MHz Klatovy (CZ) 0.00 km UNKNOWN
R2340868 RS41 2020-09-04 19:07:21 49.2646 12.912 31 ° 13 km/h 578 m -16.5 m/s 402.700 MHz Kdyně (CZ) 0.00 km FOUND
R2341125 RS41 2020-09-04 13:08:01 49.2742 12.9868 58 ° 9 km/h 611 m -5.7 m/s 402.70 MHz Kdyně (CZ) 0.00 km UNKNOWN
R2341123 RS41 2020-09-04 07:32:14 49.0079 13.0821 104 ° 20 km/h 1582 m -6.6 m/s 402.70 MHz Deggendorf (DE) 0.00 km UNKNOWN
R2340866 RS41 2020-09-04 01:41:52 48.7687 13.1203 118 ° 30 km/h 1129 m -4.8 m/s 402.700 MHz Deggendorf (DE) 0.00 km UNKNOWN
R2340853 RS41 2020-09-03 19:42:22 48.6602 12.7117 21 ° 17 km/h 594 m -5.7 m/s 402.700 MHz Straubing (DE) 0.00 km FOUND
R2340418 RS41 2020-09-03 13:06:18 48.7955 12.3291 55 ° 13 km/h 671 m -8.0 m/s 402.700 MHz Straubing (DE) 0.00 km UNKNOWN
R2340424 RS41 2020-09-03 07:22:40 48.6087 12.1373 52 ° 7 km/h 579 m -6.3 m/s 402.70 MHz Landshut (DE) 0.00 km UNKNOWN
R2340869 RS41 2020-09-03 01:22:32 48.9922 12.3252 74 ° 9 km/h 739 m -15.3 m/s 402.700 MHz Regensburg (DE) 0.00 km UNKNOWN
R2340431 RS41 2020-09-02 19:41:46 49.0586 12.5414 121 ° 22 km/h 1168 m -6.6 m/s 402.70 MHz Straubing (DE) 0.00 km UNKNOWN
R2340432 RS41 2020-09-02 13:22:43 49.2915 12.2635 156 ° 9 km/h 934 m -7.8 m/s 402.700 MHz Schwandorf (DE) 0.00 km FOUND
R2341161 RS41 2020-09-02 07:25:39 49.2713 12.0885 202 ° 9 km/h 837 m -6.1 m/s 402.70 MHz Schwandorf (DE) 0.00 km FOUND
R2340442 RS41 2020-09-02 01:52:13 49.3254 12.0267 190 ° 6 km/h 925 m -4.3 m/s 402.700 MHz Schwandorf (DE) 0.00 km NEED ATTENTION
R2340443 RS41 2020-09-01 19:11:48 49.3857 11.9442 259 ° 9 km/h 1258 m -16.4 m/s 402.70 MHz Amberg (DE) 0.00 km UNKNOWN
R2340856 RS41 2020-09-01 13:11:44 49.4674 11.8419 170 ° 19 km/h 689 m -12.2 m/s 402.700 MHz Amberg (DE) 0.00 km FOUND
R2340441 RS41 2020-09-01 07:39:18 49.428 11.6498 194 ° 17 km/h 725 m -9.5 m/s 402.700 MHz Sulzbach-Rosenberg (DE) 0.00 km FOUND
R2340865 RS41 2020-09-01 01:15:20 49.6867 11.7444 230 ° 28 km/h 819 m -11.6 m/s 402.700 MHz Sulzbach-Rosenberg (DE) 0.00 km LOST
R2340851 RS41 2020-08-31 19:33:28 49.9036 12.0779 188 ° 28 km/h 819 m -9.9 m/s 402.700 MHz Weiden in der Oberpfalz (DE) 0.00 km FOUND
R2341159 RS41 2020-08-31 13:13:16 49.9616 12.4925 50 ° 11 km/h 864 m -1.6 m/s 402.70 MHz Mariánské Lázně (CZ) 0.00 km UNKNOWN
R2341164 RS41 2020-08-31 07:19:05 49.6852 12.0927 65 ° 11 km/h 594 m -12.1 m/s 402.70 MHz Weiden in der Oberpfalz (DE) 0.00 km UNKNOWN
R2341163 RS41 2020-08-31 01:15:14 49.7104 12.4299 106 ° 28 km/h 802 m -6.6 m/s 402.700 MHz Tachov (CZ) 0.00 km FOUND
R2341158 RS41 2020-08-30 19:21:15 50.0506 12.4467 130 ° 19 km/h 549 m -10.2 m/s 402.70 MHz Cheb (CZ) 0.00 km UNKNOWN
R2340440 RS41 2020-08-30 13:19:59 50.3702 12.1157 215 ° 33 km/h 800 m -6.6 m/s 402.70 MHz Plauen (DE) 0.00 km UNKNOWN
R2340439 RS41 2020-08-30 07:16:52 50.3886 12.6663 241 ° 28 km/h 1399 m -14.3 m/s 402.70 MHz Nejdek (CZ) 0.00 km FOUND
R2350363 RS41 2020-08-30 01:20:59 50.4868 12.8105 259 ° 2 km/h 1196 m -11.9 m/s 402.70 MHz Annaberg-Buchholz (DE) 0.00 km UNKNOWN
R2350357 RS41 2020-08-29 18:56:48 50.5595 13.3315 31 ° 24 km/h 955 m -6.6 m/s 402.70 MHz Jirkov (CZ) 0.00 km UNKNOWN
R2340621 RS41 2020-08-29 13:03:32 50.383 13.2413 55 ° 15 km/h 977 m -7.3 m/s 402.70 MHz Kadaň (CZ) 0.00 km UNKNOWN
R2340576 RS41 2020-08-29 07:28:57 50.4015 13.4037 77 ° 39 km/h 797 m -7.3 m/s 402.70 MHz Chomutov (CZ) 0.00 km UNKNOWN
R2340847 RS41 2020-08-29 01:13:39 50.2572 13.4192 80 ° 31 km/h 704 m -10.2 m/s 402.700 MHz Podbořany (CZ) 0.00 km UNKNOWN
R2341157 RS41 2020-08-28 19:45:58 50.149 13.4757 22 ° 20 km/h 579 m -3.8 m/s 402.70 MHz Podbořany (CZ) 0.00 km UNKNOWN
R2350369 RS41 2020-08-28 13:27:13 50.0617 13.6096 28 ° 33 km/h 700 m -7.8 m/s 402.70 MHz Rakovník (CZ) 0.00 km UNKNOWN
R2340622 RS41 2020-08-28 01:16:35 49.4632 13.9244 341 ° 22 km/h 820 m -10.9 m/s 402.700 MHz Blatná (CZ) 0.00 km FOUND
R2340575 RS41 2020-08-27 19:03:44 49.2497 13.7123 85 ° 20 km/h 1342 m -11.8 m/s 402.70 MHz Horažďovice (CZ) 0.00 km UNKNOWN
R2340848 RS41 2020-08-27 13:32:19 49.2985 13.9928 107 ° 20 km/h 967 m -5.5 m/s 402.700 MHz Strakonice (CZ) 0.00 km FOUND
R2340854 RS41 2020-08-27 07:11:59 48.8996 13.6708 116 ° 43 km/h 1581 m -10.9 m/s 402.700 MHz Vimperk (CZ) 0.00 km UNKNOWN
R2340850 RS41 2020-08-27 01:08:18 49.0008 13.8817 110 ° 65 km/h 1582 m -13.4 m/s 402.700 MHz Prachatice (CZ) 0.00 km UNKNOWN
R2340855 RS41 2020-08-26 19:04:03 49.052 13.9097 109 ° 57 km/h 1505 m -11.6 m/s 402.700 MHz Prachatice (CZ) 0.00 km NEED ATTENTION
R2350361 RS41 2020-08-26 13:03:25 49.2615 14.2158 89 ° 52 km/h 954 m -8.7 m/s 402.70 MHz Písek (CZ) 0.00 km FOUND
R2340624 RS41 2020-08-26 07:24:22 49.445 14.3114 98 ° 46 km/h 788 m -6.1 m/s 402.700 MHz Milevsko (CZ) 0.00 km FOUND
R2340658 RS41 2020-08-26 01:30:16 49.4385 13.8625 58 ° 54 km/h 943 m -12.6 m/s 402.700 MHz Blatná (CZ) 0.00 km FOUND
R2340554 RS41 2020-08-25 19:33:51 49.1015 13.7295 75 ° 48 km/h 1348 m -7.4 m/s 402.70 MHz Vimperk (CZ) 0.00 km FOUND
R2340670 RS41 2020-08-25 13:09:07 49.1628 13.3782 74 ° 11 km/h 1677 m -10.7 m/s 402.700 MHz Sušice (CZ) 0.00 km UNKNOWN
R2340668 RS41 2020-08-25 07:17:03 48.8473 13.1569 89 ° 33 km/h 1784 m -7.3 m/s 402.70 MHz Deggendorf (DE) 0.00 km UNKNOWN
R2340574 RS41 2020-08-25 01:28:32 49.1331 13.1042 91 ° 15 km/h 1108 m -8.6 m/s 402.70 MHz Kdyně (CZ) 0.00 km UNKNOWN
R2340570 RS41 2020-08-24 19:21:34 49.6527 12.9264 105 ° 33 km/h 1478 m -13.7 m/s 402.70 MHz Stříbro (CZ) 0.00 km FOUND
R2340655 RS41 2020-08-24 13:02:02 49.8447 12.9821 68 ° 20 km/h 646 m -12.2 m/s 402.70 MHz Stříbro (CZ) 0.00 km UNKNOWN
R2340555 RS41 2020-08-24 06:57:08 49.595 12.8906 69 ° 31 km/h 4667 m -10.8 m/s 402.70 MHz Holýšov (CZ) 0.00 km UNKNOWN
R2340623 RS41 2020-08-24 01:26:33 49.4202 13.2133 95 ° 15 km/h 738 m -12.4 m/s 402.700 MHz Klatovy (CZ) 0.00 km UNKNOWN
R2340614 RS41 2020-08-23 19:08:28 49.5764 13.1361 119 ° 24 km/h 693 m -6.7 m/s 402.70 MHz Holýšov (CZ) 0.00 km FOUND
R2340620 RS41 2020-08-23 13:14:53 49.7948 13.2142 80 ° 28 km/h 647 m -11.6 m/s 402.70 MHz Nýřany (CZ) 0.00 km FOUND
R2340619 RS41 2020-08-23 07:28:42 49.7733 13.2303 88 ° 30 km/h 990 m -6.9 m/s 402.70 MHz Nýřany (CZ) 0.00 km FOUND
R2340573 RS41 2020-08-23 01:19:33 49.6234 13.0396 64 ° 24 km/h 549 m -7.1 m/s 402.70 MHz Holýšov (CZ) 0.00 km FOUND
R2340553 RS41 2020-08-22 19:29:14 49.7924 13.1019 49 ° 28 km/h 594 m -5.3 m/s 402.700 MHz Stříbro (CZ) 0.00 km UNKNOWN
R2340671 RS41 2020-08-22 13:47:03 50.2297 13.1928 78 ° 24 km/h 874 m -6.0 m/s 402.70 MHz Podbořany (CZ) 0.00 km UNKNOWN
R2350365 RS41 2020-08-22 07:15:43 49.9087 12.6751 113 ° 57 km/h 1478 m -8.4 m/s 402.700 MHz Mariánské Lázně (CZ) 0.00 km UNKNOWN
R2340613 RS41 2020-08-22 01:46:01 49.8562 12.7626 140 ° 17 km/h 1318 m -6.0 m/s 402.70 MHz Planá (CZ) 0.00 km FOUND
R2350355 RS41 2020-08-21 19:15:50 49.6597 12.7592 17 ° 19 km/h 648 m -11.9 m/s 402.70 MHz Tachov (CZ) 0.00 km FOUND
R2350414 RS41 2020-08-21 12:47:39 49.6535 12.5699 26 ° 15 km/h 1028 m -13.8 m/s 402.70 MHz Tachov (CZ) 0.00 km UNKNOWN
R2350397 RS41 2020-08-21 07:06:53 49.582 12.5506 39 ° 19 km/h 1378 m -13.5 m/s 402.70 MHz Tachov (CZ) 0.00 km FOUND
R2350413 RS41 2020-08-21 01:23:49 49.5489 12.7164 6 ° 13 km/h 739 m -7.7 m/s 402.70 MHz Domažlice (CZ) 0.00 km UNKNOWN
R2340657 RS41 2020-08-20 19:13:20 49.4026 12.5441 324 ° 20 km/h 833 m -8.7 m/s 402.70 MHz Domažlice (CZ) 0.00 km FOUND
R2340669 RS41 2020-08-20 13:06:55 49.3166 12.4886 1 ° 17 km/h 957 m -10.5 m/s 402.70 MHz Schwandorf (DE) 0.00 km UNKNOWN
R2340656 RS41 2020-08-20 07:17:10 49.0699 12.4464 344 ° 24 km/h 957 m -8.4 m/s 402.70 MHz Straubing (DE) 0.00 km FOUND
R2350370 RS41 2020-08-20 01:24:15 48.9821 12.5147 344 ° 17 km/h 987 m -9.2 m/s 402.700 MHz Straubing (DE) 0.00 km UNKNOWN
R2350367 RS41 2020-08-19 19:22:22 48.8873 12.6256 14 ° 6 km/h 1074 m -12.2 m/s 402.70 MHz Straubing (DE) 0.00 km UNKNOWN
R2350398 RS41 2020-08-19 13:15:00 48.9435 12.5748 53 ° 11 km/h 1105 m -5.1 m/s 402.700 MHz Straubing (DE) 0.00 km UNKNOWN
R2350400 RS41 2020-08-19 06:59:56 49.0933 12.3451 120 ° 9 km/h 1296 m -12.3 m/s 402.70 MHz Regensburg (DE) 0.00 km FOUND
R2340840 RS41 2020-08-19 00:50:36 49.4029 12.4171 98 ° 19 km/h 1133 m -10.1 m/s 402.70 MHz Schwandorf (DE) 0.00 km UNKNOWN
R2350394 RS41 2020-08-18 19:21:55 49.5051 12.2964 92 ° 24 km/h 724 m -12.0 m/s 402.70 MHz Weiden in der Oberpfalz (DE) 0.00 km FOUND
R2350371 RS41 2020-08-18 13:18:51 49.7174 12.2403 90 ° 20 km/h 578 m -11.3 m/s 402.70 MHz Weiden in der Oberpfalz (DE) 0.00 km FOUND
R2350368 RS41 2020-08-18 07:08:21 49.6206 12.2843 112 ° 11 km/h 644 m -5.2 m/s 402.70 MHz Weiden in der Oberpfalz (DE) 0.00 km FOUND
R2350364 RS41 2020-08-18 01:44:50 49.7123 12.4857 110 ° 31 km/h 1018 m -6.8 m/s 402.70 MHz Tachov (CZ) 0.00 km UNKNOWN
R2350362 RS41 2020-08-17 19:28:40 49.7051 12.1438 78 ° 9 km/h 530 m -10.4 m/s 402.70 MHz Weiden in der Oberpfalz (DE) 0.00 km FOUND
R2350395 RS41 2020-08-17 13:14:15 49.6984 12.0827 87 ° 22 km/h 540 m -6.2 m/s 402.70 MHz Weiden in der Oberpfalz (DE) 0.00 km FOUND
R2350396 RS41 2020-08-17 07:25:22 49.558 11.9235 109 ° 11 km/h 680 m -7.1 m/s 402.700 MHz Amberg (DE) 0.00 km FOUND
R2350366 RS41 2020-08-17 01:51:55 49.4621 12.0703 340 ° 17 km/h 715 m -9.3 m/s 402.700 MHz Amberg (DE) 0.00 km FOUND
R2350358 RS41 2020-08-16 19:16:39 49.4549 12.0732 294 ° 22 km/h 721 m -5.9 m/s 402.70 MHz Schwandorf (DE) 0.00 km FOUND
R2350386 RS41 2020-08-16 13:11:36 49.5325 11.8797 293 ° 13 km/h 744 m -11.3 m/s 402.70 MHz Sulzbach-Rosenberg (DE) 0.00 km FOUND
R2350385 RS41 2020-08-16 07:18:10 49.4485 11.6855 298 ° 17 km/h 784 m -6.9 m/s 402.70 MHz Sulzbach-Rosenberg (DE) 0.00 km FOUND
R2340772 RS41 2020-08-16 01:30:25 49.3949 11.7668 294 ° 19 km/h 923 m -13.7 m/s 402.700 MHz Amberg (DE) 0.00 km FOUND
R2350440 RS41 2020-08-15 19:44:23 49.3577 11.8258 237 ° 20 km/h 879 m -11.8 m/s 402.70 MHz Amberg (DE) 0.00 km FOUND
R2340531 RS41 2020-08-15 13:07:08 49.42 11.8891 158 ° 13 km/h 767 m -8.9 m/s 402.700 MHz Amberg (DE) 0.00 km FOUND
R2350408 RS41 2020-08-15 07:03:45 49.3278 11.885 148 ° 20 km/h 1192 m -8.6 m/s 402.70 MHz Amberg (DE) 0.00 km FOUND
R2340774 RS41 2020-08-15 00:53:23 49.3322 12.1786 119 ° 35 km/h 1283 m -6.0 m/s 402.700 MHz Schwandorf (DE) 0.00 km UNKNOWN
R2350387 RS41 2020-08-14 19:28:08 49.414 11.8796 131 ° 15 km/h 781 m -10.6 m/s 402.70 MHz Amberg (DE) 0.00 km FOUND
R2350411 RS41 2020-08-14 13:10:11 49.5622 11.9652 145 ° 31 km/h 715 m -7.7 m/s 402.70 MHz Amberg (DE) 0.00 km FOUND
R2350410 RS41 2020-08-14 07:28:15 49.5587 11.757 99 ° 9 km/h 941 m -5.9 m/s 402.70 MHz Sulzbach-Rosenberg (DE) 0.00 km FOUND
R2350393 RS41 2020-08-14 01:20:09 49.588 11.8104 135 ° 20 km/h 931 m -4.9 m/s 402.70 MHz Sulzbach-Rosenberg (DE) 0.00 km UNKNOWN
R2350443 RS41 2020-08-13 19:23:54 49.5043 11.7874 131 ° 19 km/h 815 m -7.9 m/s 402.70 MHz Sulzbach-Rosenberg (DE) 0.00 km FOUND
R2350390 RS41 2020-08-13 13:14:26 49.5137 11.9671 105 ° 26 km/h 655 m -6.6 m/s 402.70 MHz Amberg (DE) 0.00 km FOUND
R2340773 RS41 2020-08-13 07:18:48 49.3335 12.0264 340 ° 17 km/h 832 m -6.1 m/s 402.700 MHz Schwandorf (DE) 0.00 km FOUND
R2340769 RS41 2020-08-13 01:39:22 49.3089 12.0776 282 ° 7 km/h 1191 m -5.8 m/s 402.70 MHz Schwandorf (DE) 0.00 km UNKNOWN
R2340763 RS41 2020-08-12 19:25:38 49.1863 12.0735 296 ° 17 km/h 841 m -7.7 m/s 402.700 MHz Schwandorf (DE) 0.00 km FOUND
R2350402 RS41 2020-08-12 13:21:06 49.2529 11.9624 298 ° 15 km/h 991 m -4.6 m/s 402.70 MHz Schwandorf (DE) 0.00 km FOUND
R2350401 RS41 2020-08-12 07:28:51 49.1382 11.9192 249 ° 7 km/h 614 m -8.2 m/s 402.70 MHz Regensburg (DE) 0.00 km FOUND
R2350392 RS41 2020-08-12 01:44:51 49.1247 11.996 286 ° 15 km/h 664 m -6.5 m/s 402.70 MHz Regensburg (DE) 0.00 km FOUND
R2350391 RS41 2020-08-11 19:54:43 49.1111 11.8735 91 ° 6 km/h 633 m -11.2 m/s 402.70 MHz Regensburg (DE) 0.00 km FOUND
R2350412 RS41 2020-08-11 13:10:36 49.2337 12.0956 274 ° 9 km/h 864 m -10.4 m/s 402.700 MHz Schwandorf (DE) 0.00 km FOUND
R2350439 RS41 2020-08-11 07:08:43 49.2438 11.9788 333 ° 19 km/h 963 m -4.5 m/s 402.700 MHz Schwandorf (DE) 0.00 km LOST
R2350442 RS41 2020-08-11 01:28:26 49.2752 11.9209 344 ° 17 km/h 1224 m -15.5 m/s 402.700 MHz Schwandorf (DE) 0.00 km FOUND
R2350441 RS41 2020-08-10 19:05:53 49.2767 11.9904 270 ° 39 km/h 962 m -8.4 m/s 402.70 MHz Schwandorf (DE) 0.00 km UNKNOWN
R2340765 RS41 2020-08-10 13:17:56 49.4384 11.9632 349 ° 13 km/h 775 m -13.9 m/s 402.70 MHz Amberg (DE) 0.00 km FOUND
R2341170 RS41 2020-08-10 07:11:24 49.3581 11.9911 270 ° 17 km/h 877 m -13.5 m/s 402.70 MHz Schwandorf (DE) 0.00 km FOUND
R2340770 RS41 2020-08-10 01:32:34 49.29 11.8799 332 ° 7 km/h 913 m -6.9 m/s 404.90 MHz Amberg (DE) 0.00 km FOUND
R2350388 RS41 2020-08-09 19:12:20 49.2217 11.8537 302 ° 4 km/h 810 m -8.1 m/s 402.700 MHz Schwandorf (DE) 0.00 km LOST
R2350444 RS41 2020-08-09 13:22:28 49.25 11.7515 261 ° 17 km/h 1562 m -9.0 m/s 402.70 MHz Neumarkt in der Oberpfalz (DE) 0.00 km LOST
R2350389 RS41 2020-08-09 07:05:00 49.1978 11.6126 247 ° 11 km/h 1431 m -14.2 m/s 402.700 MHz Neumarkt in der Oberpfalz (DE) 0.00 km LOST
R2331399 RS41 2020-08-09 01:04:53 49.1715 11.7022 281 ° 13 km/h 897 m -5.7 m/s 402.700 MHz Neumarkt in der Oberpfalz (DE) 0.00 km LOST
R2331128 RS41 2020-08-08 19:13:25 49.081 11.5846 250 ° 7 km/h 873 m -7.8 m/s 402.70 MHz Neumarkt in der Oberpfalz (DE) 0.00 km LOST
R2331402 RS41 2020-08-08 13:03:27 49.1547 11.4595 295 ° 15 km/h 1456 m -10.1 m/s 402.70 MHz Neumarkt in der Oberpfalz (DE) 0.00 km UNKNOWN
R2331387 RS41 2020-08-08 07:06:47 49.0193 11.3969 260 ° 13 km/h 917 m -11.4 m/s 402.700 MHz Ingolstadt (DE) 0.00 km LOST
R2340771 RS41 2020-08-08 01:22:27 49.0119 11.278 273 ° 17 km/h 1230 m -8.2 m/s 402.700 MHz Roth bei Nürnberg (DE) 0.00 km LOST
R2340766 RS41 2020-08-07 19:20:27 48.9758 11.2818 286 ° 17 km/h 1402 m -12.7 m/s 402.700 MHz Ingolstadt (DE) 0.00 km LOST
R2331282 RS41 2020-08-07 13:17:08 49.119 11.3257 289 ° 17 km/h 1601 m -9.9 m/s 402.70 MHz Neumarkt in der Oberpfalz (DE) 0.00 km LOST
R2331127 RS41 2020-08-07 07:20:57 49.0256 11.2741 278 ° 22 km/h 1109 m -7.8 m/s 402.70 MHz Roth bei Nürnberg (DE) 0.00 km FOUND
R2331403 RS41 2020-08-07 01:33:01 49.149 11.159 296 ° 9 km/h 1290 m -12.2 m/s 402.70 MHz Roth bei Nürnberg (DE) 0.00 km LOST
R2331401 RS41 2020-08-06 19:41:17 49.2183 11.3547 260 ° 20 km/h 1109 m -3.9 m/s 402.700 MHz Neumarkt in der Oberpfalz (DE) 0.00 km FOUND
R2331195 RS41 2020-08-06 13:09:18 49.385 11.4263 265 ° 9 km/h 1082 m -10.8 m/s 402.700 MHz Neumarkt in der Oberpfalz (DE) 0.00 km FOUND
R2331196 RS41 2020-08-06 07:03:39 49.3103 11.4448 282 ° 17 km/h 855 m -15.2 m/s 402.700 MHz Neumarkt in der Oberpfalz (DE) 0.00 km UNKNOWN
R2340466 RS41 2020-08-06 01:21:01 49.266 11.4682 303 ° 13 km/h 794 m -13.3 m/s 402.70 MHz Neumarkt in der Oberpfalz (DE) 0.00 km UNKNOWN
R2331449 RS41 2020-08-05 19:34:01 49.1606 11.4112 290 ° 15 km/h 1754 m -10.2 m/s 402.70 MHz Neumarkt in der Oberpfalz (DE) 0.00 km UNKNOWN
R2331448 RS41 2020-08-05 13:17:07 49.2539 11.4374 269 ° 20 km/h 781 m -5.2 m/s 402.70 MHz Neumarkt in der Oberpfalz (DE) 0.00 km FOUND
R2331373 RS41 2020-08-05 07:11:25 49.0632 11.2704 240 ° 7 km/h 1257 m -9.2 m/s 402.70 MHz Roth bei Nürnberg (DE) 0.00 km LOST
R2331451 RS41 2020-08-05 01:16:29 48.9555 11.2164 170 ° 4 km/h 1292 m -10.1 m/s 402.70 MHz Neuburg an der Donau (DE) 0.00 km LOST
R2331452 RS41 2020-08-04 19:22:19 49.0552 11.544 166 ° 11 km/h 1135 m -6.6 m/s 402.70 MHz Neumarkt in der Oberpfalz (DE) 0.00 km FOUND
R2331450 RS41 2020-08-04 13:14:29 49.3787 11.5821 206 ° 6 km/h 886 m -5.7 m/s 402.70 MHz Neumarkt in der Oberpfalz (DE) 0.00 km FOUND
R2331374 RS41 2020-08-04 07:52:59 49.553 11.3826 72 ° 15 km/h 594 m -3.5 m/s 402.70 MHz Lauf an der Pegnitz (DE) 0.00 km FOUND
R2331390 RS41 2020-08-04 01:38:29 49.8524 11.5352 189 ° 28 km/h 788 m -3.7 m/s 402.700 MHz Bayreuth (DE) 0.00 km FOUND
R2331371 RS41 2020-08-03 19:18:57 50.0081 12.0293 196 ° 33 km/h 878 m -14.0 m/s 402.70 MHz Cheb (CZ) 0.00 km FOUND
R2331372 RS41 2020-08-03 13:32:27 50.0495 12.2645 173 ° 17 km/h 673 m -7.2 m/s 402.70 MHz Cheb (CZ) 0.00 km FOUND
R2331370 RS41 2020-08-03 07:36:54 50.1061 12.1972 163 ° 13 km/h 651 m -7.0 m/s 402.700 MHz Františkovy Lázně (CZ) 0.00 km LOST
R2341217 RS41 2020-08-03 01:29:00 49.9327 12.4496 186 ° 31 km/h 1179 m -6.4 m/s 402.70 MHz Cheb (CZ) 0.00 km UNKNOWN
R2340593 RS41 2020-08-02 20:43:18 49.7717 12.2264 54 ° 2 km/h 638 m -3.7 m/s 404.90 MHz Weiden in der Oberpfalz (DE) 0.00 km FOUND
R2331389 RS41 2020-08-02 20:07:53 49.8319 13.3351 222 ° 17 km/h 990 m -10.1 m/s 402.70 MHz Třemošná (CZ) 0.00 km UNKNOWN
R2340471 RS41 2020-08-02 13:04:00 49.8461 12.4464 186 ° 24 km/h 1193 m -12.8 m/s 402.70 MHz Tachov (CZ) 0.00 km FOUND
R2340470 RS41 2020-08-02 07:19:13 49.6575 12.3167 359 ° 6 km/h 607 m -6.4 m/s 402.70 MHz Weiden in der Oberpfalz (DE) 0.00 km FOUND
R2340464 RS41 2020-08-02 02:02:06 49.5877 12.1436 358 ° 6 km/h 554 m -6.0 m/s 404.90 MHz Weiden in der Oberpfalz (DE) 0.00 km FOUND
R2340473 RS41 2020-08-01 19:11:28 49.3691 12.2635 337 ° 6 km/h 1044 m -10.4 m/s 402.70 MHz Schwandorf (DE) 0.00 km FOUND
R2331457 RS41 2020-08-01 13:31:03 49.1865 12.1924 181 ° 7 km/h 1574 m -7.6 m/s 402.700 MHz Schwandorf (DE) 0.00 km FOUND
R2340465 RS41 2020-08-01 07:33:33 49.1482 11.9962 145 ° 17 km/h 1808 m -11.5 m/s 402.70 MHz Regensburg (DE) 0.00 km FOUND
R2340864 RS41 2020-08-01 01:35:44 49.1069 12.0153 258 ° 19 km/h 682 m -5.3 m/s 404.90 MHz Regensburg (DE) 0.00 km FOUND
R2340407 RS41 2020-07-31 19:16:19 49.0409 12.0841 209 ° 13 km/h 561 m -13.6 m/s 404.90 MHz Regensburg (DE) 0.00 km FOUND
R2350455 RS41 2020-07-31 13:01:08 49.0948 12.2127 111 ° 17 km/h 1459 m -17.5 m/s 404.90 MHz Regensburg (DE) 0.00 km FOUND
R2340469 RS41 2020-07-31 07:25:24 49.0103 12.1757 170 ° 6 km/h 944 m -7.2 m/s 404.90 MHz Regensburg (DE) 0.00 km FOUND
R2340472 RS41 2020-07-31 01:20:19 49.0224 12.4021 25 ° 19 km/h 1134 m -12.6 m/s 402.700 MHz Straubing (DE) 0.00 km UNKNOWN
R2340463 RS41 2020-07-30 19:24:55 49.2123 12.8007 238 ° 7 km/h 837 m -12.4 m/s 402.700 MHz Kdyně (CZ) 0.00 km FOUND
R2331464 RS41 2020-07-30 13:13:14 49.3478 12.8031 220 ° 6 km/h 702 m -3.5 m/s 402.70 MHz Domažlice (CZ) 0.00 km FOUND
R2331388 RS41 2020-07-30 07:16:45 49.3031 12.7257 33 ° 2 km/h 634 m -13.0 m/s 402.70 MHz Domažlice (CZ) 0.00 km UNKNOWN
R2331456 RS41 2020-07-30 01:39:35 49.2516 13.1575 113 ° 2 km/h 963 m -8.4 m/s 402.70 MHz Kdyně (CZ) 0.00 km UNKNOWN
R2331459 RS41 2020-07-29 19:15:22 49.3195 13.0289 292 ° 2 km/h 527 m -7.6 m/s 402.70 MHz Kdyně (CZ) 0.00 km FOUND
R2350582 RS41 2020-07-29 13:23:30 49.4113 13.3828 62 ° 22 km/h 774 m -4.1 m/s 402.700 MHz Klatovy (CZ) 0.00 km UNKNOWN
R2350457 RS41 2020-07-29 07:34:04 49.4064 13.6993 99 ° 26 km/h 1109 m -6.4 m/s 402.700 MHz Horažďovice (CZ) 0.00 km NEED ATTENTION
R2350437 RS41 2020-07-29 01:39:42 49.7484 13.6226 128 ° 17 km/h 773 m -7.4 m/s 402.700 MHz Rokycany (CZ) 0.00 km UNKNOWN
R2350435 RS41 2020-07-28 19:23:14 49.8002 13.4811 113 ° 30 km/h 799 m -9.3 m/s 402.70 MHz Třemošná (CZ) 0.00 km UNKNOWN
R2350445 RS41 2020-07-28 13:10:09 49.6957 13.1054 112 ° 31 km/h 765 m -11.3 m/s 402.700 MHz Nýřany (CZ) 0.00 km FOUND
R2350447 RS41 2020-07-28 07:16:41 49.5201 12.7823 58 ° 30 km/h 581 m -10.7 m/s 402.700 MHz Domažlice (CZ) 0.00 km FOUND
R2350436 RS41 2020-07-28 01:16:08 49.3422 12.7749 14 ° 39 km/h 972 m -13.3 m/s 402.700 MHz Domažlice (CZ) 0.00 km UNKNOWN
R2340605 RS41 2020-07-27 19:10:06 49.2052 12.8347 336 ° 17 km/h 965 m -13.7 m/s 402.700 MHz Kdyně (CZ) 0.00 km UNKNOWN
R2340650 RS41 2020-07-27 12:59:16 49.1647 12.8112 27 ° 11 km/h 764 m -11.3 m/s 402.700 MHz Kdyně (CZ) 0.00 km UNKNOWN
R2340486 RS41 2020-07-27 07:23:50 48.8932 12.9798 122 ° 15 km/h 1387 m -10.5 m/s 402.70 MHz Deggendorf (DE) 0.00 km FOUND
R2340490 RS41 2020-07-27 01:25:36 48.923 13.0192 68 ° 28 km/h 1599 m -10.2 m/s 404.900 MHz Deggendorf (DE) 0.00 km UNKNOWN
R2340479 RS41 2020-07-26 19:42:32 49.3309 12.814 68 ° 9 km/h 625 m -4.9 m/s 402.70 MHz Domažlice (CZ) 0.00 km UNKNOWN
R2340489 RS41 2020-07-26 13:25:49 49.6536 12.526 63 ° 9 km/h 1015 m -11.3 m/s 402.70 MHz Tachov (CZ) 0.00 km FOUND
R2331076 RS41 2020-07-26 07:10:59 49.742 12.4198 103 ° 24 km/h 939 m -15.2 m/s 402.70 MHz Tachov (CZ) 0.00 km UNKNOWN
R2331077 RS41 2020-07-26 01:34:51 49.5643 12.4 21 ° 31 km/h 899 m -7.3 m/s 402.700 MHz Weiden in der Oberpfalz (DE) 0.00 km UNKNOWN
R2340488 RS41 2020-07-25 19:10:25 49.3648 12.304 31 ° 26 km/h 910 m -8.6 m/s 402.70 MHz Schwandorf (DE) 0.00 km UNKNOWN
R2340484 RS41 2020-07-25 13:14:45 49.4186 12.1315 122 ° 9 km/h 715 m -9.9 m/s 402.70 MHz Schwandorf (DE) 0.00 km FOUND
R2340480 RS41 2020-07-25 07:13:52 49.3414 12.031 83 ° 15 km/h 831 m -11.1 m/s 402.70 MHz Schwandorf (DE) 0.00 km FOUND
R2350452 RS41 2020-07-25 01:31:27 49.2772 11.9055 122 ° 17 km/h 1236 m -6.1 m/s 402.700 MHz Schwandorf (DE) 0.00 km FOUND
R2350422 RS41 2020-07-24 19:33:23 49.4394 12.42 133 ° 20 km/h 833 m -3.2 m/s 402.70 MHz Schwandorf (DE) 0.00 km FOUND
R2350454 RS41 2020-07-24 13:11:01 49.696 12.8267 96 ° 19 km/h 658 m -10.8 m/s 402.70 MHz Stříbro (CZ) 0.00 km FOUND
R2350451 RS41 2020-07-24 07:12:18 49.5715 12.5022 109 ° 17 km/h 1278 m -7.8 m/s 402.70 MHz Tachov (CZ) 0.00 km FOUND
R2331164 RS41 2020-07-24 01:59:11 49.5196 12.6992 82 ° 4 km/h 913 m -4.3 m/s 402.700 MHz Domažlice (CZ) 0.00 km FOUND
R2350438 RS41 2020-07-23 19:14:43 49.5008 12.5653 170 ° 11 km/h 1220 m -12.7 m/s 402.700 MHz Domažlice (CZ) 0.00 km UNKNOWN
R2350449 RS41 2020-07-23 13:31:03 49.351 12.8255 334 ° 0 km/h 673 m -5.6 m/s 402.70 MHz Domažlice (CZ) 0.00 km FOUND
R2350448 RS41 2020-07-23 07:32:38 49.3093 13.1227 131 ° 4 km/h 529 m -6.0 m/s 402.70 MHz Kdyně (CZ) 0.00 km UNKNOWN
R2350456 RS41 2020-07-23 01:16:53 49.3912 12.9674 175 ° 15 km/h 591 m -9.8 m/s 402.70 MHz Kdyně (CZ) 0.00 km FOUND
R2350409 RS41 2020-07-22 19:19:51 49.4288 12.9205 138 ° 11 km/h 569 m -8.4 m/s 402.700 MHz Domažlice (CZ) 0.00 km NEED ATTENTION
R2331075 RS41 2020-07-22 13:05:11 49.4954 13.0572 61 ° 11 km/h 545 m -8.8 m/s 402.700 MHz Domažlice (CZ) 0.00 km FOUND
R2331086 RS41 2020-07-22 07:17:13 49.4122 12.8142 196 ° 6 km/h 664 m -10.5 m/s 402.70 MHz Domažlice (CZ) 0.00 km FOUND
R2350351 RS41 2020-07-22 01:35:19 49.4625 13.2898 214 ° 20 km/h 645 m -4.8 m/s 402.700 MHz Klatovy (CZ) 0.00 km UNKNOWN
R2340481 RS41 2020-07-21 19:15:34 49.3972 13.3211 224 ° 24 km/h 536 m -11.2 m/s 402.70 MHz Klatovy (CZ) 0.00 km UNKNOWN
R2340485 RS41 2020-07-21 13:21:49 49.4329 13.1603 93 ° 19 km/h 723 m -8.1 m/s 404.900 MHz Kdyně (CZ) 0.00 km FOUND
R2340483 RS41 2020-07-21 07:26:50 49.3413 13.1371 188 ° 6 km/h 576 m -4.7 m/s 402.70 MHz Kdyně (CZ) 0.00 km FOUND
R2340487 RS41 2020-07-21 01:07:55 49.4566 12.8586 205 ° 22 km/h 616 m -14.2 m/s 402.701 MHz Domažlice (CZ) 0.00 km FOUND
R2340475 RS41 2020-07-20 19:28:23 49.3567 12.8272 68 ° 2 km/h 709 m -7.1 m/s 402.70 MHz Domažlice (CZ) 0.00 km FOUND
R2321528 RS41 2020-07-20 13:26:40 49.6883 12.6898 77 ° 28 km/h 759 m -6.9 m/s 402.70 MHz Tachov (CZ) 0.00 km LOST
R2321481 RS41 2020-07-20 07:33:20 49.4935 12.4831 113 ° 22 km/h 1105 m -6.4 m/s 402.70 MHz Weiden in der Oberpfalz (DE) 0.00 km UNKNOWN
R2340476 RS41 2020-07-20 01:42:20 49.383 11.9344 69 ° 7 km/h 949 m -10.9 m/s 402.70 MHz Amberg (DE) 0.00 km FOUND
R2340477 RS41 2020-07-19 19:26:22 49.3328 11.9049 138 ° 7 km/h 1573 m -11.6 m/s 402.700 MHz Amberg (DE) 0.00 km UNKNOWN
R2321482 RS41 2020-07-19 13:39:21 49.2962 11.7268 70 ° 2 km/h 1059 m -8.5 m/s 402.700 MHz Amberg (DE) 0.00 km LOST
R2321463 RS41 2020-07-19 07:04:35 49.2092 11.4812 217 ° 11 km/h 996 m -15.5 m/s 402.70 MHz Neumarkt in der Oberpfalz (DE) 0.00 km FOUND
R2321464 RS41 2020-07-19 01:47:33 49.0579 11.1081 197 ° 7 km/h 878 m -7.1 m/s 402.70 MHz Roth bei Nürnberg (DE) 0.00 km FOUND
R2330672 RS41 2020-07-18 19:33:50 48.9984 11.0234 227 ° 7 km/h 1125 m -7.0 m/s 402.70 MHz Roth bei Nürnberg (DE) 0.00 km FOUND
R2330668 RS41 2020-07-18 13:04:01 48.9977 11.113 206 ° 13 km/h 1784 m -13.5 m/s 404.900 MHz Roth bei Nürnberg (DE) 0.00 km FOUND
R2321480 RS41 2020-07-18 06:54:34 48.7049 11.0858 186 ° 17 km/h 849 m -8.7 m/s 402.70 MHz Neuburg an der Donau (DE) 0.00 km FOUND
R2321527 RS41 2020-07-18 01:29:58 48.3264 10.8409 188 ° 11 km/h 583 m -10.5 m/s 402.70 MHz Augsburg (DE) 0.00 km UNKNOWN
R2330667 RS41 2020-07-17 19:28:52 48.2157 11.0539 220 ° 17 km/h 695 m -5.4 m/s 402.70 MHz Königsbrunn (DE) 0.00 km UNKNOWN
R2321380 RS41 2020-07-17 13:07:57 48.5655 11.1809 236 ° 28 km/h 673 m -14.5 m/s 402.70 MHz Aichach (DE) 0.00 km UNKNOWN
R2321376 RS41 2020-07-17 07:06:21 48.5032 11.2612 192 ° 9 km/h 723 m -13.5 m/s 402.700 MHz Aichach (DE) 0.00 km FOUND
R2321532 RS41 2020-07-17 01:30:37 48.6902 11.6295 178 ° 13 km/h 1343 m -13.5 m/s 402.70 MHz Ingolstadt (DE) 0.00 km UNKNOWN
R2321372 RS41 2020-07-16 19:23:12 48.8456 12.5415 142 ° 24 km/h 863 m -9.8 m/s 402.700 MHz Straubing (DE) 0.00 km FOUND
DF61C4E7 DFM 2020-07-16 14:40:29 48.9813 11.3774 122 ° 106 km/h 12359 m -3.9 m/s MHz Ingolstadt (DE) 0.00 km UNKNOWN
R2321534 RS41 2020-07-16 13:16:37 49.0183 12.2498 131 ° 22 km/h 1294 m -14.1 m/s 402.70 MHz Regensburg (DE) 0.00 km UNKNOWN
R2321533 RS41 2020-07-16 07:18:29 48.8341 12.3855 126 ° 15 km/h 781 m -11.1 m/s 402.700 MHz Straubing (DE) 0.00 km UNKNOWN
R2321494 RS41 2020-07-16 01:12:37 48.9487 12.1518 135 ° 37 km/h 1882 m -10.2 m/s 402.70 MHz Regensburg (DE) 0.00 km FOUND
R2321379 RS41 2020-07-15 19:25:23 49.1904 11.9999 120 ° 24 km/h 911 m -12.1 m/s 402.70 MHz Schwandorf (DE) 0.00 km FOUND
R2321378 RS41 2020-07-15 13:06:14 49.6284 12.1682 26 ° 17 km/h 543 m -12.4 m/s 402.70 MHz Weiden in der Oberpfalz (DE) 0.00 km FOUND
R2320429 RS41 2020-07-15 07:39:39 49.6032 11.9568 111 ° 11 km/h 550 m -9.2 m/s 402.700 MHz Weiden in der Oberpfalz (DE) 0.00 km FOUND
R2321525 RS41 2020-07-15 01:31:38 49.554 11.5892 63 ° 30 km/h 817 m -12.3 m/s 402.70 MHz Sulzbach-Rosenberg (DE) 0.00 km FOUND
R2321520 RS41 2020-07-14 19:17:30 49.5098 11.7828 61 ° 11 km/h 785 m -8.3 m/s 402.70 MHz Sulzbach-Rosenberg (DE) 0.00 km FOUND
R2321377 RS41 2020-07-14 13:20:40 49.5988 11.7021 331 ° 9 km/h 829 m -10.4 m/s 402.70 MHz Sulzbach-Rosenberg (DE) 0.00 km FOUND
R2321352 RS41 2020-07-14 07:19:39 49.4797 11.7649 6 ° 17 km/h 738 m -5.6 m/s 402.70 MHz Sulzbach-Rosenberg (DE) 0.00 km LOST
R2321354 RS41 2020-07-14 01:32:15 49.4349 11.7251 347 ° 33 km/h 953 m -13.7 m/s 402.70 MHz Sulzbach-Rosenberg (DE) 0.00 km FOUND
R2321353 RS41 2020-07-13 19:43:53 49.3199 11.9118 261 ° 20 km/h 851 m -5.2 m/s 402.70 MHz Amberg (DE) 0.00 km FOUND
R2321370 RS41 2020-07-13 12:55:42 49.2972 11.921 294 ° 20 km/h 1254 m -13.7 m/s 402.70 MHz Schwandorf (DE) 0.00 km FOUND
R2321371 RS41 2020-07-13 07:24:09 49.0782 12.0814 297 ° 13 km/h 650 m -6.2 m/s 402.70 MHz Regensburg (DE) 0.00 km FOUND
R2321355 RS41 2020-07-13 01:25:24 49.0495 12.3145 293 ° 15 km/h 1201 m -13.5 m/s 402.700 MHz Regensburg (DE) 0.00 km UNKNOWN
R2321350 RS41 2020-07-12 19:12:31 48.8799 12.3428 246 ° 9 km/h 988 m -10.1 m/s 402.700 MHz Straubing (DE) 0.00 km UNKNOWN
R2321369 RS41 2020-07-12 13:08:41 48.9984 12.5382 173 ° 2 km/h 1425 m -12.8 m/s 402.70 MHz Straubing (DE) 0.00 km LOST
P3330399 RS41 2020-07-12 07:15:34 49.1619 12.48 240 ° 15 km/h 1076 m -4.9 m/s 402.70 MHz Regensburg (DE) 0.00 km FOUND
R2321530 RS41 2020-07-12 01:43:36 49.3203 12.6342 319 ° 9 km/h 805 m -5.7 m/s 402.70 MHz Domažlice (CZ) 0.00 km UNKNOWN
R2321479 RS41 2020-07-11 19:09:06 49.6577 12.5687 271 ° 6 km/h 995 m -12.5 m/s 402.70 MHz Tachov (CZ) 0.00 km UNKNOWN
R2321513 RS41 2020-07-11 13:09:37 50.0391 12.9443 329 ° 13 km/h 858 m -12.7 m/s 402.70 MHz Horní Slavkov (CZ) 0.00 km UNKNOWN
R2321459 RS41 2020-07-11 07:05:37 50.1649 13.2222 210 ° 15 km/h 790 m -5.4 m/s 402.700 MHz Podbořany (CZ) 0.00 km UNKNOWN
P3330398 RS41 2020-07-11 01:37:32 50.1102 13.0898 185 ° 9 km/h 886 m -3.8 m/s 402.700 MHz Horní Slavkov (CZ) 0.00 km UNKNOWN
P3330402 RS41 2020-07-10 17:55:25 49.8372 13.0609 128 ° 57 km/h 1352 m -10.2 m/s 402.700 MHz Stříbro (CZ) 0.00 km UNKNOWN
R2321478 RS41 2020-07-10 13:10:47 49.9024 13.0229 82 ° 33 km/h 632 m -5.6 m/s 402.70 MHz Stříbro (CZ) 0.00 km UNKNOWN
R2321488 RS41 2020-07-10 07:21:58 49.7033 13.0835 356 ° 9 km/h 536 m -6.6 m/s 402.70 MHz Stříbro (CZ) 0.00 km FOUND
P3311223 RS41 2020-07-10 01:56:48 49.5088 12.9122 24 ° 19 km/h 577 m -8.6 m/s 402.70 MHz Domažlice (CZ) 0.00 km FOUND
P3320178 RS41 2020-07-09 19:17:58 49.3411 12.8472 90 ° 0 km/h 529 m -9.3 m/s 402.700 MHz Domažlice (CZ) 0.00 km UNKNOWN
R2321373 RS41 2020-07-09 13:30:35 49.4138 13.2333 52 ° 39 km/h 831 m -7.2 m/s 402.700 MHz Klatovy (CZ) 0.00 km FOUND
R2321368 RS41 2020-07-09 07:32:10 49.2772 13.105 54 ° 37 km/h 719 m -10.3 m/s 402.700 MHz Kdyně (CZ) 0.00 km FOUND
P3320019 RS41 2020-07-09 01:18:57 49.0393 13.5879 98 ° 72 km/h 1933 m -5.7 m/s 402.70 MHz Vimperk (CZ) 0.00 km NEED ATTENTION
P3320181 RS41 2020-07-08 19:30:47 49.0576 13.5454 91 ° 76 km/h 2087 m -10.0 m/s 402.70 MHz Vimperk (CZ) 0.00 km FOUND
P3320022 RS41 2020-07-08 13:19:27 49.2483 13.3464 92 ° 37 km/h 1066 m -11.5 m/s 402.700 MHz Sušice (CZ) 0.00 km UNKNOWN
P3320021 RS41 2020-07-08 07:04:09 49.2458 13.0037 15 ° 2 km/h 635 m -3.7 m/s 402.70 MHz Kdyně (CZ) 0.00 km UNKNOWN
P3330397 RS41 2020-07-08 01:20:19 49.2225 13.1032 44 ° 19 km/h 1160 m -9.3 m/s 402.700 MHz Kdyně (CZ) 0.00 km UNKNOWN
P3320182 RS41 2020-07-07 19:03:14 49.0907 12.7537 102 ° 7 km/h 1112 m -10.3 m/s 402.700 MHz Straubing (DE) 0.00 km UNKNOWN
P3330400 RS41 2020-07-07 13:12:49 49.0013 12.8631 97 ° 17 km/h 1707 m -10.1 m/s 402.70 MHz Deggendorf (DE) 0.00 km UNKNOWN
P3320183 RS41 2020-07-07 07:16:09 48.8362 12.6546 120 ° 17 km/h 1022 m -10.9 m/s 402.70 MHz Straubing (DE) 0.00 km LOST
P3320185 RS41 2020-07-07 01:31:18 49.0065 12.7718 148 ° 37 km/h 1397 m -6.6 m/s 404.900 MHz Straubing (DE) 0.00 km LOST
P3320191 RS41 2020-07-06 19:04:35 49.6209 12.9165 116 ° 31 km/h 625 m -10.5 m/s 402.70 MHz Holýšov (CZ) 0.00 km FOUND
P3310872 RS41 2020-07-06 13:00:56 50.0127 13.37 111 ° 22 km/h 846 m -8.3 m/s 402.70 MHz Třemošná (CZ) 0.00 km UNKNOWN
P3310873 RS41 2020-07-06 07:48:32 50.1047 13.5129 79 ° 33 km/h 589 m -5.0 m/s 402.700 MHz Podbořany (CZ) 0.00 km UNKNOWN
P3320421 RS41 2020-07-06 01:31:43 49.7873 12.7095 84 ° 63 km/h 1522 m -7.4 m/s 402.70 MHz Tachov (CZ) 0.00 km FOUND
P3320424 RS41 2020-07-05 19:24:31 49.4759 12.4635 72 ° 31 km/h 1024 m -8.9 m/s 402.700 MHz Schwandorf (DE) 0.00 km UNKNOWN
P3330484 RS41 2020-07-05 13:17:49 49.3348 12.1841 69 ° 31 km/h 1046 m -7.0 m/s 402.70 MHz Schwandorf (DE) 0.00 km FOUND
P3330481 RS41 2020-07-05 07:29:31 49.1322 11.9324 52 ° 19 km/h 578 m -6.9 m/s 402.70 MHz Regensburg (DE) 0.00 km FOUND
P3320425 RS41 2020-07-05 01:43:56 48.9342 11.8675 66 ° 26 km/h 661 m -10.8 m/s 402.700 MHz Regensburg (DE) 0.00 km LOST
P3330401 RS41 2020-07-04 19:23:46 49.172 12.0665 81 ° 26 km/h 808 m -6.6 m/s 402.700 MHz Schwandorf (DE) 0.00 km FOUND
P3320422 RS41 2020-07-04 13:17:16 49.4679 12.0532 77 ° 20 km/h 838 m -7.5 m/s 402.700 MHz Amberg (DE) 0.00 km FOUND
P3320426 RS41 2020-07-04 07:19:18 49.4811 11.9212 85 ° 19 km/h 757 m -14.5 m/s 402.700 MHz Amberg (DE) 0.00 km FOUND
P3340605 RS41 2020-07-04 01:27:49 49.4201 11.7867 69 ° 19 km/h 782 m -12.3 m/s 402.70 MHz Amberg (DE) 0.00 km FOUND
P3330485 RS41 2020-07-03 19:16:17 49.4334 12.0762 125 ° 15 km/h 790 m -4.9 m/s 402.70 MHz Schwandorf (DE) 0.00 km FOUND
P3340597 RS41 2020-07-03 13:15:49 49.5356 12.3161 110 ° 20 km/h 715 m -5.1 m/s 404.900 MHz Weiden in der Oberpfalz (DE) 0.00 km FOUND
P3350265 RS41 2020-07-03 07:30:43 49.8239 12.5062 117 ° 17 km/h 858 m -9.1 m/s 402.70 MHz Tachov (CZ) 0.00 km UNKNOWN
P3350269 RS41 2020-07-03 01:43:22 49.9945 12.9562 127 ° 35 km/h 821 m -5.0 m/s 402.700 MHz Mariánské Lázně (CZ) 0.00 km UNKNOWN
P3420858 RS41 2020-07-02 19:16:27 49.7852 12.8587 58 ° 28 km/h 669 m -12.2 m/s 402.70 MHz Stříbro (CZ) 0.00 km UNKNOWN
P3340604 RS41 2020-07-02 14:22:29 50.1992 13.0725 74 ° 24 km/h 986 m -10.6 m/s 402.70 MHz Karlovy Vary (CZ) 0.00 km UNKNOWN
P3320188 RS41 2020-07-02 13:58:57 49.9057 12.6942 53 ° 17 km/h 757 m -5.3 m/s 404.90 MHz Planá (CZ) 0.00 km UNKNOWN
P3330486 RS41 2020-07-02 07:16:22 49.7753 12.6587 92 ° 22 km/h 807 m -9.8 m/s 402.70 MHz Tachov (CZ) 0.00 km FOUND
P3320187 RS41 2020-07-02 02:38:03 49.9459 13.5719 88 ° 50 km/h 719 m -5.0 m/s 402.700 MHz Třemošná (CZ) 0.00 km UNKNOWN
P3320186 RS41 2020-07-01 19:32:48 49.771 12.6711 70 ° 28 km/h 832 m -10.2 m/s 402.700 MHz Tachov (CZ) 0.00 km UNKNOWN
P3320184 RS41 2020-07-01 13:41:28 49.8402 13.0604 38 ° 24 km/h 626 m -3.9 m/s 402.70 MHz Stříbro (CZ) 0.00 km UNKNOWN
P3320189 RS41 2020-07-01 07:34:23 49.728 12.9082 52 ° 24 km/h 653 m -8.5 m/s 402.70 MHz Stříbro (CZ) 0.00 km FOUND
P3330483 RS41 2020-07-01 01:28:33 49.6356 12.8219 70 ° 20 km/h 684 m -9.7 m/s 402.70 MHz Stříbro (CZ) 0.00 km FOUND
P3330482 RS41 2020-06-30 19:06:08 49.5082 12.9228 88 ° 19 km/h 587 m -10.7 m/s 402.70 MHz Domažlice (CZ) 0.00 km FOUND
P3320172 RS41 2020-06-30 13:30:18 49.5375 13.3958 68 ° 26 km/h 690 m -13.4 m/s 402.70 MHz Přeštice (CZ) 0.00 km UNKNOWN
P3310871 RS41 2020-06-30 07:25:28 49.5242 13.3769 71 ° 43 km/h 877 m -13.2 m/s 402.700 MHz Přeštice (CZ) 0.00 km UNKNOWN
P3320190 RS41 2020-06-30 01:20:13 49.3915 13.248 49 ° 2 km/h 475 m -11.7 m/s 402.70 MHz Klatovy (CZ) 0.00 km UNKNOWN
P3320192 RS41 2020-06-29 19:43:54 49.2207 13.4904 96 ° 41 km/h 1462 m -6.8 m/s 402.70 MHz Sušice (CZ) 0.00 km UNKNOWN
P3320020 RS41 2020-06-29 13:03:59 49.7603 12.8121 85 ° 35 km/h 908 m -12.7 m/s 402.700 MHz Planá (CZ) 0.00 km UNKNOWN
P3320023 RS41 2020-06-29 07:22:27 50.0395 12.4855 37 ° 4 km/h 615 m -7.6 m/s 402.70 MHz Cheb (CZ) 0.00 km FOUND
P3350268 RS41 2020-06-29 01:29:17 50.2491 12.7503 84 ° 31 km/h 1243 m -8.4 m/s 404.90 MHz Chodov (CZ) 0.00 km UNKNOWN
P3340192 RS41 2020-06-28 20:27:40 50.1664 12.1633 81 ° 17 km/h 693 m -3.9 m/s 402.700 MHz Aš (CZ) 0.00 km NEED ATTENTION
P3340665 RS41 2020-06-28 13:18:05 49.9424 12.3286 87 ° 15 km/h 770 m -6.3 m/s 402.70 MHz Cheb (CZ) 0.00 km FOUND
P3340609 RS41 2020-06-28 07:18:27 49.6423 12.2448 18 ° 15 km/h 631 m -10.6 m/s 402.70 MHz Weiden in der Oberpfalz (DE) 0.00 km FOUND
P3340600 RS41 2020-06-28 01:19:20 49.5938 12.1053 352 ° 17 km/h 516 m -14.0 m/s 402.70 MHz Weiden in der Oberpfalz (DE) 0.00 km UNKNOWN
P3421102 RS41 2020-06-27 19:30:01 49.7085 12.1368 34 ° 11 km/h 501 m -10.7 m/s 402.70 MHz Weiden in der Oberpfalz (DE) 0.00 km FOUND
P3350270 RS41 2020-06-27 13:02:50 49.663 12.1174 20 ° 22 km/h 636 m -6.3 m/s 402.700 MHz Weiden in der Oberpfalz (DE) 0.00 km FOUND
P3340599 RS41 2020-06-27 07:07:46 49.5187 12.1391 18 ° 15 km/h 637 m -12.5 m/s 402.70 MHz Weiden in der Oberpfalz (DE) 0.00 km FOUND
P3340627 RS41 2020-06-27 01:22:24 49.5138 12.1387 68 ° 26 km/h 749 m -5.4 m/s 402.70 MHz Weiden in der Oberpfalz (DE) 0.00 km FOUND
P3340612 RS41 2020-06-26 19:31:31 49.218 12.2608 63 ° 7 km/h 1098 m -5.8 m/s 402.70 MHz Schwandorf (DE) 0.00 km FOUND
P3340608 RS41 2020-06-26 13:08:30 49.1979 12.0523 47 ° 9 km/h 886 m -13.4 m/s 402.700 MHz Schwandorf (DE) 0.00 km FOUND
P3420243 RS41 2020-06-26 07:16:26 49.0689 11.7096 275 ° 9 km/h 653 m -5.8 m/s 402.70 MHz Neumarkt in der Oberpfalz (DE) 0.00 km FOUND
P3420252 RS41 2020-06-26 01:33:00 48.9925 11.6471 284 ° 17 km/h 772 m -5.1 m/s 402.70 MHz Ingolstadt (DE) 0.00 km NEED ATTENTION
P3420242 RS41 2020-06-25 19:13:06 49.1954 11.0823 284 ° 15 km/h 1275 m -13.1 m/s 402.700 MHz Roth bei Nürnberg (DE) 0.00 km UNKNOWN
P3340596 RS41 2020-06-25 13:52:41 48.7903 10.8807 333 ° 9 km/h 778 m -6.9 m/s 402.700 MHz Neuburg an der Donau (DE) 0.00 km FOUND
P3340621 RS41 2020-06-25 07:14:30 48.8329 10.7358 287 ° 13 km/h 863 m -16.8 m/s 402.70 MHz Dillingen (DE) 0.00 km LOST
P3430086 RS41 2020-06-25 01:46:38 48.872 10.61 266 ° 7 km/h 852 m -5.7 m/s 402.700 MHz Dillingen (DE) 0.00 km FOUND
P3420250 RS41 2020-06-24 19:23:56 48.9454 11.0831 275 ° 13 km/h 1407 m -9.6 m/s 402.70 MHz Neuburg an der Donau (DE) 0.00 km UNKNOWN
P3420113 RS41 2020-06-24 13:50:20 48.7874 11.314 254 ° 17 km/h 1704 m -4.4 m/s 402.70 MHz Ingolstadt (DE) 0.00 km LOST
P3420112 RS41 2020-06-24 07:03:56 48.7844 11.625 250 ° 11 km/h 1081 m -14.1 m/s 402.70 MHz Ingolstadt (DE) 0.00 km UNKNOWN
P3340606 RS41 2020-06-24 01:31:22 48.8698 11.3698 193 ° 9 km/h 1605 m -11.0 m/s 402.700 MHz Ingolstadt (DE) 0.00 km NEED ATTENTION
P3340607 RS41 2020-06-23 19:25:27 48.9496 11.5299 209 ° 22 km/h 1109 m -12.6 m/s 402.70 MHz Ingolstadt (DE) 0.00 km FOUND
P3340602 RS41 2020-06-23 13:12:17 49.0922 11.6972 139 ° 6 km/h 855 m -4.1 m/s 402.700 MHz Neumarkt in der Oberpfalz (DE) 0.00 km LOST
P3350267 RS41 2020-06-23 07:30:27 48.9565 11.5694 222 ° 13 km/h 971 m -4.1 m/s 402.70 MHz Ingolstadt (DE) 0.00 km UNKNOWN
P3420251 RS41 2020-06-23 01:31:47 48.9207 11.6019 243 ° 26 km/h 880 m -6.8 m/s 402.700 MHz Ingolstadt (DE) 0.00 km UNKNOWN
P3420249 RS41 2020-06-22 19:14:17 48.9432 11.5505 175 ° 26 km/h 1141 m -12.5 m/s 402.700 MHz Ingolstadt (DE) 0.00 km FOUND
P3340601 RS41 2020-06-22 13:11:12 49.091 11.947 138 ° 22 km/h 618 m -9.2 m/s 402.70 MHz Regensburg (DE) 0.00 km FOUND
P3420247 RS41 2020-06-22 07:30:28 48.9489 11.9425 138 ° 26 km/h 642 m -3.9 m/s 402.70 MHz Regensburg (DE) 0.00 km LOST
P3420246 RS41 2020-06-22 01:31:38 49.1017 11.535 122 ° 26 km/h 1156 m -7.9 m/s 402.700 MHz Neumarkt in der Oberpfalz (DE) 0.00 km LOST
P3420245 RS41 2020-06-21 19:14:14 49.2865 11.3981 126 ° 26 km/h 1001 m -12.6 m/s 402.70 MHz Neumarkt in der Oberpfalz (DE) 0.00 km FOUND
P3420236 RS41 2020-06-21 13:25:28 49.4083 11.2444 119 ° 17 km/h 508 m -7.6 m/s 402.700 MHz Lauf an der Pegnitz (DE) 0.00 km FOUND
P3420235 RS41 2020-06-21 07:05:33 49.3614 11.2477 153 ° 19 km/h 912 m -10.9 m/s 402.700 MHz Nürnberg (DE) 0.00 km LOST
P3420114 RS41 2020-06-21 01:44:53 49.3849 10.973 125 ° 15 km/h 527 m -6.6 m/s 402.70 MHz Zirndorf (DE) 0.00 km LOST
P3420244 RS41 2020-06-20 19:09:27 49.3985 11.3141 24 ° 13 km/h 538 m -15.2 m/s 402.70 MHz Lauf an der Pegnitz (DE) 0.00 km FOUND
P3340185 RS41 2020-06-20 13:21:23 49.4764 11.2311 139 ° 19 km/h 433 m -10.5 m/s 402.700 MHz Lauf an der Pegnitz (DE) 0.00 km LOST
P3340191 RS41 2020-06-20 07:33:06 49.3828 11.2049 129 ° 13 km/h 548 m -5.5 m/s 402.70 MHz Nürnberg (DE) 0.00 km FOUND
P3340190 RS41 2020-06-20 01:52:54 49.5006 11.2185 84 ° 6 km/h 451 m -3.6 m/s 402.70 MHz Lauf an der Pegnitz (DE) 0.00 km LOST
P3340181 RS41 2020-06-19 19:08:49 49.5776 11.2747 244 ° 4 km/h 497 m -11.2 m/s 402.70 MHz Lauf an der Pegnitz (DE) 0.00 km FOUND
P3340935 RS41 2020-06-19 13:42:38 49.7657 11.2927 120 ° 30 km/h 753 m -3.4 m/s 402.70 MHz Erlangen (DE) 0.00 km UNKNOWN
P3340184 RS41 2020-06-19 07:08:26 49.6518 11.3623 130 ° 13 km/h 709 m -8.8 m/s 402.700 MHz Lauf an der Pegnitz (DE) 0.00 km FOUND
P3340246 RS41 2020-06-19 01:42:54 49.7091 11.2345 101 ° 17 km/h 752 m -5.7 m/s 402.70 MHz Erlangen (DE) 0.00 km UNKNOWN
P3340932 RS41 2020-06-18 19:29:35 49.8154 11.2071 147 ° 17 km/h 825 m -5.5 m/s 402.700 MHz Bamberg (DE) 0.00 km FOUND
P3340244 RS41 2020-06-18 13:29:31 49.8469 11.1355 91 ° 20 km/h 860 m -5.1 m/s 402.70 MHz Bamberg (DE) 0.00 km FOUND
P3340243 RS41 2020-06-18 07:13:05 49.7492 11.1265 98 ° 30 km/h 739 m -9.3 m/s 402.70 MHz Erlangen (DE) 0.00 km FOUND
P3341018 RS41 2020-06-18 00:45:19 49.8533 11.4515 97 ° 26 km/h 907 m -2.8 m/s 402.70 MHz Bayreuth (DE) 0.00 km FOUND
P3341017 RS41 2020-06-17 19:25:25 49.823 11.0435 130 ° 19 km/h 444 m -5.8 m/s 402.700 MHz Bamberg (DE) 0.00 km FOUND
P3340459 RS41 2020-06-17 13:08:40 49.8348 11.0347 210 ° 17 km/h 468 m -11.2 m/s 402.70 MHz Bamberg (DE) 0.00 km FOUND
P3340933 RS41 2020-06-17 07:31:27 49.8217 10.7913 261 ° 13 km/h 662 m -6.4 m/s 402.70 MHz Bamberg (DE) 0.00 km FOUND
P3340934 RS41 2020-06-17 01:14:48 49.8067 11.1156 254 ° 26 km/h 784 m -11.5 m/s 402.70 MHz Bamberg (DE) 0.00 km FOUND
P3340183 RS41 2020-06-16 19:29:26 49.785 10.9941 114 ° 19 km/h 507 m -11.3 m/s 402.70 MHz Bamberg (DE) 0.00 km FOUND
P3340461 RS41 2020-06-16 13:09:26 49.8441 11.2292 113 ° 2 km/h 974 m -11.8 m/s 402.70 MHz Bamberg (DE) 0.00 km FOUND
P3340460 RS41 2020-06-16 07:10:06 49.6687 11.0246 159 ° 7 km/h 359 m -15.2 m/s 402.70 MHz Erlangen (DE) 0.00 km FOUND
P3340245 RS41 2020-06-16 01:27:56 49.5896 10.8017 112 ° 11 km/h 430 m -15.0 m/s 402.70 MHz Herzogenaurach (DE) 0.00 km UNKNOWN
P3340242 RS41 2020-06-15 19:19:26 49.5075 10.9525 116 ° 11 km/h 379 m -11.4 m/s 402.700 MHz Fürth (DE) 0.00 km FOUND
P3341015 RS41 2020-06-15 13:22:06 49.573 11.099 95 ° 17 km/h 411 m -13.4 m/s 402.70 MHz Erlangen (DE) 0.00 km FOUND
P3341010 RS41 2020-06-15 08:03:11 49.515 10.9866 105 ° 17 km/h 376 m -13.0 m/s 402.700 MHz Fürth (DE) 0.00 km FOUND
P3330665 RS41 2020-06-15 01:47:57 49.5354 11.1329 97 ° 13 km/h 403 m -2.9 m/s 402.70 MHz Nürnberg (DE) 0.00 km FOUND
P3340166 RS41 2020-06-14 19:43:42 49.4721 10.9595 89 ° 20 km/h 385 m -13.3 m/s 402.70 MHz Fürth (DE) 0.00 km FOUND
P3341013 RS41 2020-06-14 13:20:12 49.6024 10.9939 98 ° 28 km/h 412 m -6.1 m/s 402.700 MHz Erlangen (DE) 0.00 km FOUND
P3340992 RS41 2020-06-14 07:24:10 49.5076 10.6942 130 ° 24 km/h 501 m -9.6 m/s 402.70 MHz Herzogenaurach (DE) 0.00 km FOUND
P3341008 RS41 2020-06-14 01:24:09 49.633 10.8539 118 ° 31 km/h 470 m -12.5 m/s 402.70 MHz Herzogenaurach (DE) 0.00 km UNKNOWN
P3340908 RS41 2020-06-13 19:07:17 49.6383 10.9514 121 ° 24 km/h 446 m -14.2 m/s 402.70 MHz Erlangen (DE) 0.00 km FOUND
P3340182 RS41 2020-06-13 12:59:07 49.7319 11.1339 209 ° 7 km/h 644 m -15.0 m/s 402.700 MHz Erlangen (DE) 0.00 km FOUND
P3341016 RS41 2020-06-13 07:13:37 49.6773 11.0237 160 ° 6 km/h 387 m -8.5 m/s 402.70 MHz Erlangen (DE) 0.00 km FOUND
P3341000 RS41 2020-06-13 02:47:21 49.7617 10.36 322 ° 19 km/h 640 m -6.6 m/s 402.70 MHz Kitzingen (DE) 0.00 km UNKNOWN
P3340999 RS41 2020-06-12 19:09:16 49.6632 11.1971 277 ° 37 km/h 610 m -13.8 m/s 402.70 MHz Erlangen (DE) 0.00 km FOUND
P3341019 RS41 2020-06-12 13:18:28 49.7628 11.155 289 ° 19 km/h 723 m -10.2 m/s 402.70 MHz Erlangen (DE) 0.00 km FOUND
P3340241 RS41 2020-06-12 07:20:43 49.7896 11.1152 293 ° 28 km/h 714 m -12.0 m/s 402.70 MHz Bamberg (DE) 0.00 km FOUND
P3321006 RS41 2020-06-12 01:39:38 49.884 10.5891 309 ° 26 km/h 785 m -6.8 m/s 402.700 MHz Bamberg (DE) 0.00 km UNKNOWN
P3340188 RS41 2020-06-11 19:29:47 49.8455 10.3831 241 ° 15 km/h 589 m -8.1 m/s 402.700 MHz Kitzingen (DE) 0.00 km FOUND
P3340186 RS41 2020-06-11 13:14:04 49.8674 10.6287 343 ° 13 km/h 960 m -15.4 m/s 402.700 MHz Bamberg (DE) 0.00 km UNKNOWN
P3330070 RS41 2020-06-11 07:25:28 49.7208 10.5143 220 ° 17 km/h 563 m -6.1 m/s 402.700 MHz Kitzingen (DE) 0.00 km UNKNOWN
P3330069 RS41 2020-06-11 01:23:28 49.7035 10.675 172 ° 19 km/h 522 m -8.0 m/s 402.701 MHz Herzogenaurach (DE) 0.00 km UNKNOWN
P3330037 RS41 2020-06-10 19:33:25 49.6268 10.685 204 ° 26 km/h 518 m -9.7 m/s 402.700 MHz Herzogenaurach (DE) 0.00 km FOUND
P3321204 RS41 2020-06-10 13:07:14 49.8047 10.8747 209 ° 22 km/h 539 m -13.6 m/s 402.700 MHz Bamberg (DE) 0.00 km FOUND
P3321017 RS41 2020-06-10 07:00:44 49.8016 10.9994 198 ° 11 km/h 431 m -7.6 m/s 402.70 MHz Bamberg (DE) 0.00 km UNKNOWN
P3340187 RS41 2020-06-10 01:00:44 49.7629 11.0912 198 ° 17 km/h 490 m -11.3 m/s 402.700 MHz Erlangen (DE) 0.00 km UNKNOWN
P3340189 RS41 2020-06-09 19:23:59 49.8129 11.0375 204 ° 17 km/h 386 m -3.4 m/s 402.70 MHz Bamberg (DE) 0.00 km FOUND
P3330068 RS41 2020-06-09 13:40:29 50.0106 10.8001 220 ° 28 km/h 704 m -6.2 m/s 402.700 MHz Bamberg (DE) 0.00 km FOUND
P3330067 RS41 2020-06-09 07:13:29 49.8933 10.9849 201 ° 11 km/h 443 m -10.8 m/s 402.70 MHz Bamberg (DE) 0.00 km FOUND
P3321195 RS41 2020-06-09 01:06:44 49.8829 11.3556 259 ° 17 km/h 1131 m -10.8 m/s 402.700 MHz Bayreuth (DE) 0.00 km FOUND
P3321005 RS41 2020-06-08 19:13:08 49.9833 11.744 257 ° 19 km/h 971 m -6.7 m/s 402.70 MHz Bayreuth (DE) 0.00 km FOUND
P3321018 RS41 2020-06-08 13:04:17 50.0784 11.6991 96 ° 7 km/h 1027 m -11.5 m/s 402.700 MHz Bayreuth (DE) 0.00 km UNKNOWN
P3321205 RS41 2020-06-08 07:05:58 49.9747 11.8654 154 ° 7 km/h 850 m -6.8 m/s 402.700 MHz Bayreuth (DE) 0.00 km FOUND
P3320989 RS41 2020-06-08 01:27:38 50.0241 11.7862 78 ° 7 km/h 900 m -6.2 m/s 402.700 MHz Bayreuth (DE) 0.00 km FOUND
P3320985 RS41 2020-06-07 19:16:56 49.9961 11.6807 93 ° 19 km/h 970 m -11.6 m/s 402.70 MHz Bayreuth (DE) 0.00 km FOUND
P3320986 RS41 2020-06-07 13:19:13 50.1872 12.0498 353 ° 4 km/h 792 m -5.6 m/s 402.700 MHz Aš (CZ) 0.00 km FOUND
P3321201 RS41 2020-06-07 07:22:13 50.2052 12.4932 112 ° 6 km/h 697 m -5.0 m/s 402.70 MHz Sokolov (CZ) 0.00 km UNKNOWN
P3321040 RS41 2020-06-07 01:44:23 50.3283 12.4332 5 ° 20 km/h 876 m -5.3 m/s 402.700 MHz Kraslice (CZ) 0.00 km UNKNOWN
P3321019 RS41 2020-06-06 19:06:31 50.0304 12.6408 34 ° 20 km/h 1025 m -6.5 m/s 402.70 MHz Mariánské Lázně (CZ) 0.00 km UNKNOWN
P3321003 RS41 2020-06-06 13:11:17 50.215 12.8698 70 ° 54 km/h 1405 m -12.8 m/s 402.70 MHz Karlovy Vary (CZ) 0.00 km UNKNOWN
P3330040 RS41 2020-06-06 07:08:24 50.0282 12.897 43 ° 11 km/h 906 m -15.6 m/s 402.70 MHz Horní Slavkov (CZ) 0.00 km UNKNOWN
P3330041 RS41 2020-06-06 01:16:04 49.7851 13.254 63 ° 41 km/h 705 m -8.3 m/s 402.700 MHz Nýřany (CZ) 0.00 km UNKNOWN
P3330039 RS41 2020-06-05 18:59:44 49.6592 13.0627 29 ° 28 km/h 570 m -13.0 m/s 402.70 MHz Holýšov (CZ) 0.00 km FOUND
P3321215 RS41 2020-06-05 13:25:40 49.9752 12.7046 46 ° 30 km/h 833 m -7.0 m/s 402.700 MHz Mariánské Lázně (CZ) 0.00 km FOUND
P3321020 RS41 2020-06-05 07:43:14 50.2619 12.3636 88 ° 26 km/h 789 m -7.2 m/s 402.70 MHz Aš (CZ) 0.00 km FOUND
P3330042 RS41 2020-06-05 01:31:04 50.0616 12.206 51 ° 17 km/h 613 m -6.7 m/s 402.70 MHz Cheb (CZ) 0.00 km LOST
P3321213 RS41 2020-06-04 19:25:34 49.9419 12.2028 45 ° 26 km/h 627 m -10.6 m/s 402.70 MHz Cheb (CZ) 0.00 km FOUND
P3321207 RS41 2020-06-04 13:00:16 49.8501 12.4197 2 ° 33 km/h 952 m -11.5 m/s 402.70 MHz Tachov (CZ) 0.00 km FOUND
P3321206 RS41 2020-06-04 07:04:10 49.5438 12.1199 3 ° 15 km/h 627 m -10.6 m/s 402.70 MHz Weiden in der Oberpfalz (DE) 0.00 km FOUND
P3321202 RS41 2020-06-04 01:24:50 49.3245 12.3755 358 ° 33 km/h 867 m -7.5 m/s 402.70 MHz Schwandorf (DE) 0.00 km UNKNOWN
P3330072 RS41 2020-06-03 19:13:40 49.2154 11.8795 154 ° 6 km/h 1188 m -12.9 m/s 402.70 MHz Schwandorf (DE) 0.00 km LOST
P3321209 RS41 2020-06-03 13:02:30 49.227 11.9292 16 ° 19 km/h 986 m -12.4 m/s 402.70 MHz Schwandorf (DE) 0.00 km FOUND
P3321210 RS41 2020-06-03 07:02:50 49.0221 11.7821 358 ° 0 km/h 619 m -12.2 m/s 402.700 MHz Regensburg (DE) 0.00 km FOUND
P3321041 RS41 2020-06-03 00:43:45 48.8881 11.9588 289 ° 17 km/h 693 m -10.5 m/s 402.70 MHz Regensburg (DE) 0.00 km UNKNOWN
P3321222 RS41 2020-06-02 19:11:40 48.7603 11.5745 115 ° 9 km/h 1074 m -9.8 m/s 402.70 MHz Ingolstadt (DE) 0.00 km UNKNOWN
P3321208 RS41 2020-06-02 13:17:50 48.8513 11.386 341 ° 2 km/h 1265 m -4.6 m/s 402.700 MHz Ingolstadt (DE) 0.00 km UNKNOWN
P3321008 RS41 2020-06-02 06:33:51 48.878 11.7035 260 ° 13 km/h 771 m -7.2 m/s 402.700 MHz Ingolstadt (DE) 0.00 km UNKNOWN
P3330038 RS41 2020-06-02 01:09:01 48.9516 11.463 276 ° 22 km/h 1214 m -10.5 m/s 402.699 MHz Ingolstadt (DE) 0.00 km UNKNOWN
P3320988 RS41 2020-06-01 19:03:21 48.9657 11.3095 239 ° 17 km/h 1747 m -7.1 m/s 402.70 MHz Ingolstadt (DE) 0.00 km UNKNOWN
P3320987 RS41 2020-06-01 12:56:51 48.9995 11.2835 253 ° 11 km/h 1707 m -10.3 m/s 402.699 MHz Ingolstadt (DE) 0.00 km NEED ATTENTION
P3330071 RS41 2020-06-01 07:09:56 49.0927 10.827 259 ° 19 km/h 1316 m -6.4 m/s 402.700 MHz Roth bei Nürnberg (DE) 0.00 km UNKNOWN
P3330150 RS41 2020-06-01 00:50:43 48.9871 11.122 289 ° 37 km/h 1657 m -12.8 m/s 402.70 MHz Roth bei Nürnberg (DE) 0.00 km UNKNOWN
P3330136 RS41 2020-05-31 18:58:28 49.0908 10.8974 213 ° 15 km/h 1619 m -13.5 m/s 402.70 MHz Roth bei Nürnberg (DE) 0.00 km FOUND
P3330120 RS41 2020-05-31 12:53:41 49.3432 10.6959 213 ° 24 km/h 535 m -11.4 m/s 402.70 MHz Ansbach (DE) 0.00 km UNKNOWN
P3330089 RS41 2020-05-31 06:55:56 49.3435 10.5823 238 ° 11 km/h 588 m -11.8 m/s 402.700 MHz Ansbach (DE) 0.00 km UNKNOWN
P3330126 RS41 2020-05-31 01:29:42 49.3661 10.4608 228 ° 22 km/h 628 m -5.5 m/s 402.70 MHz Ansbach (DE) 0.00 km UNKNOWN
P3330125 RS41 2020-05-30 19:20:16 48.9493 11.0911 237 ° 26 km/h 1466 m -7.9 m/s 402.70 MHz Neuburg an der Donau (DE) 0.00 km UNKNOWN
P3330146 RS41 2020-05-30 13:00:31 49.1723 11.0741 211 ° 22 km/h 1233 m -12.3 m/s 402.700 MHz Roth bei Nürnberg (DE) 0.00 km FOUND
P3330144 RS41 2020-05-30 07:22:38 49.0589 10.8245 227 ° 22 km/h 1216 m -7.3 m/s 402.70 MHz Roth bei Nürnberg (DE) 0.00 km UNKNOWN
P3310842 RS41 2020-05-30 01:29:42 49.0905 10.8396 269 ° 31 km/h 1400 m -9.5 m/s 402.70 MHz Roth bei Nürnberg (DE) 0.00 km NEED ATTENTION
P3310918 RS41 2020-05-29 19:16:49 49.0243 10.8409 248 ° 30 km/h 1268 m -6.8 m/s 402.70 MHz Roth bei Nürnberg (DE) 0.00 km UNKNOWN
P3310916 RS41 2020-05-29 13:04:42 49.0819 10.7677 256 ° 7 km/h 1380 m -13.1 m/s 402.70 MHz Ansbach (DE) 0.00 km FOUND
P3310914 RS41 2020-05-29 06:59:09 49.0252 10.8381 247 ° 31 km/h 1588 m -13.8 m/s 402.700 MHz Roth bei Nürnberg (DE) 0.00 km LOST
P3330129 RS41 2020-05-29 00:59:59 49.0282 10.858 244 ° 37 km/h 1818 m -10.3 m/s 402.70 MHz Roth bei Nürnberg (DE) 0.00 km FOUND
P3330147 RS41 2020-05-28 18:54:23 48.8408 11.3598 203 ° 31 km/h 1324 m -15.0 m/s 402.70 MHz Ingolstadt (DE) 0.00 km UNKNOWN
P3311228 RS41 2020-05-28 13:15:58 48.7133 11.6094 174 ° 17 km/h 1150 m -6.3 m/s 402.70 MHz Ingolstadt (DE) 0.00 km UNKNOWN
P3310923 RS41 2020-05-28 07:05:18 48.8883 11.765 213 ° 44 km/h 920 m -12.4 m/s 402.70 MHz Regensburg (DE) 0.00 km LOST
P3311229 RS41 2020-05-28 01:17:43 48.9261 11.8036 166 ° 17 km/h 664 m -4.6 m/s 402.701 MHz Regensburg (DE) 0.00 km UNKNOWN
P3310919 RS41 2020-05-27 18:57:03 48.914 11.5612 165 ° 6 km/h 908 m -11.2 m/s 402.700 MHz Ingolstadt (DE) 0.00 km UNKNOWN
P3330242 RS41 2020-05-27 12:57:43 48.8826 11.3507 229 ° 11 km/h 1579 m -10.0 m/s 402.700 MHz Ingolstadt (DE) 0.00 km NEED ATTENTION
P3330090 RS41 2020-05-27 07:09:42 48.6875 11.1145 259 ° 9 km/h 562 m -6.8 m/s 402.700 MHz Neuburg an der Donau (DE) 0.00 km UNKNOWN
P3330096 RS41 2020-05-27 01:12:37 48.5666 11.1586 261 ° 20 km/h 615 m -12.6 m/s 402.700 MHz Aichach (DE) 0.00 km LOST
P3330115 RS41 2020-05-26 19:26:08 48.2654 11.164 208 ° 20 km/h 735 m -3.8 m/s 402.70 MHz Fürstenfeldbruck (DE) 0.00 km FOUND
P3330118 RS41 2020-05-26 13:24:42 48.2561 11.3211 208 ° 20 km/h 851 m -6.1 m/s 402.70 MHz Olching (DE) 0.00 km FOUND
P3330091 RS41 2020-05-26 07:11:23 48.1913 11.4614 98 ° 11 km/h 1014 m -10.9 m/s 402.700 MHz Dachau (DE) 0.00 km FOUND
P3330116 RS41 2020-05-26 01:32:04 48.0949 11.5214 225 ° 15 km/h 1003 m -6.4 m/s 402.70 MHz München (DE) 0.00 km UNKNOWN
P3330123 RS41 2020-05-25 19:09:18 48.066 11.804 140 ° 43 km/h 1395 m -11.3 m/s 402.700 MHz Vaterstetten (DE) 0.00 km FOUND
P3330095 RS41 2020-05-25 13:01:11 48.2283 12.0689 138 ° 39 km/h 988 m -6.0 m/s 402.701 MHz Erding (DE) 0.00 km FOUND
P3330122 RS41 2020-05-25 07:02:12 48.2679 12.2672 128 ° 41 km/h 1044 m -10.2 m/s 402.70 MHz Waldkraiburg (DE) 0.00 km UNKNOWN
P3330092 RS41 2020-05-25 01:29:46 48.3406 12.444 136 ° 43 km/h 1922 m -6.4 m/s 402.70 MHz Waldkraiburg (DE) 0.00 km UNKNOWN
P3330083 RS41 2020-05-24 18:34:25 48.6661 12.6013 109 ° 30 km/h 603 m -13.1 m/s 402.700 MHz Straubing (DE) 0.00 km FOUND
P3330241 RS41 2020-05-24 13:17:04 48.9696 12.5553 103 ° 41 km/h 1162 m -11.3 m/s 402.700 MHz Straubing (DE) 0.00 km LOST
P3330086 RS41 2020-05-24 07:05:59 49.1184 12.5055 112 ° 17 km/h 940 m -8.3 m/s 402.700 MHz Straubing (DE) 0.00 km UNKNOWN
P3330243 RS41 2020-05-24 01:23:05 49.6827 12.8667 74 ° 28 km/h 617 m -11.8 m/s 402.70 MHz Stříbro (CZ) 0.00 km FOUND
P3330245 RS41 2020-05-23 19:06:15 49.863 13.6189 105 ° 44 km/h 745 m -9.5 m/s 402.700 MHz Rokycany (CZ) 0.00 km UNKNOWN
P3330124 RS41 2020-05-23 13:26:06 49.6148 13.2046 135 ° 30 km/h 562 m -5.7 m/s 402.70 MHz Dobřany (CZ) 0.00 km FOUND
P3330138 RS41 2020-05-23 07:26:54 49.2025 12.7591 62 ° 15 km/h 757 m -11.6 m/s 402.700 MHz Kdyně (CZ) 0.00 km UNKNOWN
P3330133 RS41 2020-05-23 01:34:59 48.8515 12.65 99 ° 11 km/h 898 m -9.4 m/s 402.70 MHz Straubing (DE) 0.00 km UNKNOWN
P3330074 RS41 2020-05-22 18:47:24 48.6102 12.7696 92 ° 35 km/h 1100 m -8.3 m/s 402.70 MHz Deggendorf (DE) 0.00 km LOST
P3330143 RS41 2020-05-22 13:16:59 48.5782 12.1976 24 ° 13 km/h 499 m -9.7 m/s 402.70 MHz Landshut (DE) 0.00 km UNKNOWN
P3330094 RS41 2020-05-22 07:05:24 48.4909 12.0666 75 ° 7 km/h 601 m -9.6 m/s 402.70 MHz Landshut (DE) 0.00 km FOUND
P3330087 RS41 2020-05-22 01:40:22 48.6519 12.0928 67 ° 15 km/h 788 m -11.5 m/s 402.700 MHz Landshut (DE) 0.00 km UNKNOWN
P3330084 RS41 2020-05-21 19:15:37 48.7533 12.1096 185 ° 7 km/h 1029 m -6.7 m/s 402.70 MHz Landshut (DE) 0.00 km UNKNOWN
P3330117 RS41 2020-05-21 12:49:17 48.8875 12.0714 148 ° 9 km/h 1397 m -10.1 m/s 402.70 MHz Regensburg (DE) 0.00 km FOUND
P3330093 RS41 2020-05-21 07:15:02 48.7282 11.6739 169 ° 13 km/h 1415 m -13.8 m/s 402.700 MHz Ingolstadt (DE) 0.00 km FOUND
P3330135 RS41 2020-05-21 01:14:33 48.6454 11.8567 254 ° 15 km/h 952 m -9.9 m/s 402.700 MHz Landshut (DE) 0.00 km UNKNOWN
P3330119 RS41 2020-05-20 19:10:45 48.7602 11.8771 218 ° 15 km/h 1166 m -10.3 m/s 402.70 MHz Landshut (DE) 0.00 km UNKNOWN
P3330244 RS41 2020-05-20 13:38:22 48.7185 11.9031 162 ° 6 km/h 1126 m -12.8 m/s 402.700 MHz Landshut (DE) 0.00 km UNKNOWN
P3330082 RS41 2020-05-20 07:11:14 48.7885 12.2733 218 ° 9 km/h 779 m -9.8 m/s 402.700 MHz Straubing (DE) 0.00 km UNKNOWN
P3320193 RS41 2020-05-20 01:11:02 49.0573 11.9237 215 ° 15 km/h 552 m -7.6 m/s 402.700 MHz Regensburg (DE) 0.00 km FOUND
P3310845 RS41 2020-05-19 19:30:03 49.0403 11.8489 175 ° 17 km/h 573 m -6.2 m/s 402.700 MHz Regensburg (DE) 0.00 km FOUND
P3320194 RS41 2020-05-19 12:44:43 49.2519 12.2447 148 ° 13 km/h 1036 m -10.2 m/s 402.70 MHz Schwandorf (DE) 0.00 km FOUND
P3510995 RS41 2020-05-19 07:08:13 49.1552 11.9317 169 ° 11 km/h 832 m -6.6 m/s 402.700 MHz Regensburg (DE) 0.00 km FOUND
P3310913 RS41 2020-05-19 01:13:03 49.1454 12.2665 171 ° 19 km/h 1088 m -10.5 m/s 402.700 MHz Regensburg (DE) 0.00 km FOUND
P3320002 RS41 2020-05-18 19:20:11 49.1885 12.3154 138 ° 24 km/h 848 m -12.5 m/s 402.700 MHz Schwandorf (DE) 0.00 km FOUND
P3320738 RS41 2020-05-18 12:57:23 49.3738 12.546 76 ° 7 km/h 853 m -8.1 m/s 402.70 MHz Domažlice (CZ) 0.00 km UNKNOWN
P3320013 RS41 2020-05-18 07:01:18 49.2511 12.3065 156 ° 6 km/h 980 m -12.4 m/s 402.700 MHz Schwandorf (DE) 0.00 km FOUND
P3320009 RS41 2020-05-18 00:49:57 49.1181 12.6478 99 ° 15 km/h 1292 m -6.7 m/s 402.70 MHz Straubing (DE) 0.00 km UNKNOWN
P3320196 RS41 2020-05-17 18:36:18 49.168 12.9088 149 ° 11 km/h 1062 m -10.4 m/s 402.701 MHz Kdyně (CZ) 0.00 km UNKNOWN
P3320198 RS41 2020-05-17 12:31:44 49.1646 13.0997 139 ° 20 km/h 730 m -5.5 m/s 402.700 MHz Kdyně (CZ) 0.00 km UNKNOWN
P3320017 RS41 2020-05-17 06:58:19 49.2656 13.5996 115 ° 24 km/h 1238 m -4.8 m/s 402.700 MHz Sušice (CZ) 0.00 km UNKNOWN
P3311230 RS41 2020-05-17 00:35:29 49.8411 13.8644 225 ° 17 km/h 586 m -4.3 m/s 402.700 MHz Hořovice (CZ) 0.00 km UNKNOWN
P3311227 RS41 2020-05-16 18:43:32 49.7038 13.5578 47 ° 19 km/h 910 m -4.1 m/s 402.700 MHz Rokycany (CZ) 0.00 km UNKNOWN
P3320004 RS41 2020-05-16 12:41:09 49.6997 13.4034 68 ° 15 km/h 901 m -10.2 m/s 402.700 MHz Plzeň (CZ) 0.00 km FOUND
P3320006 RS41 2020-05-16 06:20:55 49.5851 13.1668 40 ° 11 km/h 961 m -7.2 m/s 402.700 MHz Holýšov (CZ) 0.00 km FOUND
P3320010 RS41 2020-05-16 00:57:49 49.5993 13.5255 215 ° 6 km/h 780 m -3.3 m/s 402.700 MHz Starý Plzenec (CZ) 0.00 km UNKNOWN
P3310921 RS41 2020-05-15 18:24:47 49.4652 12.9129 47 ° 17 km/h 664 m -13.3 m/s 402.700 MHz Domažlice (CZ) 0.00 km FOUND
P3310924 RS41 2020-05-15 14:35:53 49.6291 14.0241 150 ° 17 km/h 789 m -7.2 m/s 402.700 MHz Příbram (CZ) 0.00 km FOUND
P3320003 RS41 2020-05-15 07:02:36 49.6673 12.824 258 ° 39 km/h 1064 m -4.0 m/s 402.700 MHz Stříbro (CZ) 0.00 km FOUND
P3420106 RS41 2020-05-15 00:16:50 49.7504 12.8639 234 ° 26 km/h 632 m -9.1 m/s 402.70 MHz Stříbro (CZ) 0.00 km FOUND
P3320195 RS41 2020-05-14 19:06:30 49.8421 13.5538 222 ° 30 km/h 566 m -4.0 m/s 402.700 MHz Rokycany (CZ) 0.00 km UNKNOWN
P3420878 RS41 2020-05-14 13:15:37 49.8033 13.6297 251 ° 17 km/h 743 m -11.4 m/s 402.70 MHz Rokycany (CZ) 0.00 km UNKNOWN
P3420105 RS41 2020-05-14 06:57:55 49.5957 13.7323 136 ° 9 km/h 907 m -3.5 m/s 402.70 MHz Rokycany (CZ) 0.00 km UNKNOWN
P3420880 RS41 2020-05-14 00:48:39 49.8802 13.8984 200 ° 19 km/h 1083 m -4.0 m/s 402.700 MHz Hořovice (CZ) 0.00 km UNKNOWN
P3510993 RS41 2020-05-13 18:54:16 49.9414 13.5851 297 ° 19 km/h 869 m -3.2 m/s 402.70 MHz Třemošná (CZ) 0.00 km UNKNOWN
P3320018 RS41 2020-05-13 12:36:54 49.8685 13.6048 244 ° 15 km/h 1021 m -9.2 m/s 402.70 MHz Rokycany (CZ) 0.00 km UNKNOWN
P3310846 RS41 2020-05-13 06:46:34 49.7155 14.1647 279 ° 2 km/h 1493 m -3.2 m/s 402.70 MHz Dobříš (CZ) 0.00 km UNKNOWN
P3420882 RS41 2020-05-13 00:36:47 49.6987 13.879 340 ° 26 km/h 1085 m -3.9 m/s 402.700 MHz Příbram (CZ) 0.00 km UNKNOWN
P3420139 RS41 2020-05-12 18:33:41 49.5043 13.6104 242 ° 6 km/h 1283 m -5.3 m/s 402.700 MHz Přeštice (CZ) 0.00 km UNKNOWN
P3310844 RS41 2020-05-12 12:50:06 49.4445 13.4143 271 ° 6 km/h 522 m -5.1 m/s 402.701 MHz Klatovy (CZ) 0.00 km UNKNOWN
P3310841 RS41 2020-05-12 07:10:21 49.2658 13.0363 327 ° 11 km/h 730 m -4.4 m/s 402.70 MHz Kdyně (CZ) 0.00 km UNKNOWN
P3320016 RS41 2020-05-12 00:53:46 49.4413 13.2619 179 ° 15 km/h 606 m -5.6 m/s 402.700 MHz Klatovy (CZ) 0.00 km UNKNOWN
P3320008 RS41 2020-05-11 18:52:06 49.4536 12.8747 194 ° 15 km/h 576 m -6.0 m/s 402.700 MHz Domažlice (CZ) 0.00 km FOUND
P3320011 RS41 2020-05-11 12:31:35 49.8899 12.3195 179 ° 63 km/h 786 m -6.9 m/s 402.700 MHz Cheb (CZ) 0.00 km FOUND
P3310917 RS41 2020-05-11 07:02:45 49.8551 12.951 252 ° 19 km/h 950 m -4.6 m/s 402.70 MHz Stříbro (CZ) 0.00 km UNKNOWN
P3320197 RS41 2020-05-11 00:59:02 49.746 13.1686 44 ° 7 km/h 578 m -3.5 m/s 402.700 MHz Nýřany (CZ) 0.00 km FOUND
P3320199 RS41 2020-05-10 19:07:02 49.5116 13.3753 73 ° 4 km/h 643 m -4.1 m/s 402.70 MHz Přeštice (CZ) 0.00 km UNKNOWN
P3420879 RS41 2020-05-10 12:24:22 49.6703 12.8466 38 ° 11 km/h 682 m -6.8 m/s 402.70 MHz Stříbro (CZ) 0.00 km FOUND
P3420914 RS41 2020-05-10 06:50:17 49.5837 13.0998 172 ° 2 km/h 501 m -4.2 m/s 402.700 MHz Holýšov (CZ) 0.00 km FOUND
P3350717 RS41 2020-05-10 00:20:12 49.3712 13.0888 201 ° 6 km/h 640 m -8.1 m/s 402.70 MHz Kdyně (CZ) 0.00 km LOST
P3421101 RS41 2020-05-09 18:46:42 49.3654 13.0361 256 ° 20 km/h 578 m -3.9 m/s 402.700 MHz Kdyně (CZ) 0.00 km LOST
P3421091 RS41 2020-05-09 12:39:46 49.3894 12.9799 205 ° 9 km/h 544 m -4.8 m/s 402.70 MHz Kdyně (CZ) 0.00 km FOUND
P3421104 RS41 2020-05-09 06:56:09 49.2777 13.0523 65 ° 4 km/h 670 m -2.9 m/s 402.70 MHz Kdyně (CZ) 0.00 km FOUND
P3420100 RS41 2020-05-09 00:29:56 49.2795 13.1725 67 ° 2 km/h 729 m -5.1 m/s 402.70 MHz Klatovy (CZ) 0.00 km UNKNOWN
P3420101 RS41 2020-05-08 18:27:33 49.2641 12.9244 8 ° 11 km/h 567 m -15.9 m/s 402.700 MHz Kdyně (CZ) 0.00 km FOUND
P3420104 RS41 2020-05-08 12:50:13 49.1404 13.1146 105 ° 9 km/h 953 m -3.1 m/s 402.700 MHz Kdyně (CZ) 0.00 km UNKNOWN
P3420188 RS41 2020-05-08 06:44:18 49.1176 13.3339 120 ° 17 km/h 1838 m -4.2 m/s 402.70 MHz Sušice (CZ) 0.00 km FOUND
P3420189 RS41 2020-05-08 00:49:23 49.1327 12.9201 81 ° 9 km/h 1134 m -3.4 m/s 402.70 MHz Kdyně (CZ) 0.00 km UNKNOWN
P3420187 RS41 2020-05-07 18:37:00 49.0169 12.7107 166 ° 9 km/h 1383 m -4.6 m/s 402.70 MHz Straubing (DE) 0.00 km FOUND
P3420141 RS41 2020-05-07 13:09:53 48.7289 12.3367 69 ° 9 km/h 590 m -3.0 m/s 402.70 MHz Straubing (DE) 0.00 km FOUND
P3420108 RS41 2020-05-07 07:08:23 48.3882 11.9595 93 ° 7 km/h 703 m -3.9 m/s 402.700 MHz Erding (DE) 0.00 km FOUND
P3421092 RS41 2020-05-07 00:19:50 48.4151 11.7449 136 ° 15 km/h 918 m -12.4 m/s 402.700 MHz Freising (DE) 0.00 km FOUND
P3421088 RS41 2020-05-06 18:24:40 48.5329 11.8576 130 ° 11 km/h 1542 m -4.2 m/s 402.70 MHz Freising (DE) 0.00 km UNKNOWN
P3340620 RS41 2020-05-06 12:37:57 48.7013 12.1225 133 ° 9 km/h 788 m -2.7 m/s 402.700 MHz Landshut (DE) 0.00 km LOST
P3420881 RS41 2020-05-06 06:29:48 48.612 12.7 215 ° 11 km/h 957 m -4.5 m/s 402.70 MHz Straubing (DE) 0.00 km LOST
P3421090 RS41 2020-05-06 00:25:43 48.5543 13.3156 124 ° 37 km/h 2089 m -3.0 m/s 402.70 MHz Passau (DE) 0.00 km UNKNOWN
P3421089 RS41 2020-05-05 18:32:49 48.6876 13.8078 183 ° 35 km/h 1259 m -4.5 m/s 402.700 MHz Ulrichsberg (AT) 0.00 km UNKNOWN
P3420877 RS41 2020-05-05 12:54:22 48.9176 14.0736 111 ° 9 km/h 1429 m -5.5 m/s 404.900 MHz Prachatice (CZ) 0.00 km NEED ATTENTION
P3420103 RS41 2020-05-05 06:52:18 48.7998 14.324 214 ° 20 km/h 818 m -4.7 m/s 402.70 MHz Český Krumlov (CZ) 0.00 km UNKNOWN
P3420107 RS41 2020-05-05 00:34:41 48.7342 14.3837 172 ° 13 km/h 909 m -8.6 m/s 402.700 MHz Kaplice (CZ) 0.00 km UNKNOWN
P3410698 RS41 2020-05-04 18:51:49 48.8077 14.0315 97 ° 33 km/h 1429 m -6.7 m/s 402.700 MHz Ulrichsberg (AT) 0.00 km UNKNOWN
P3420099 RS41 2020-05-04 13:02:08 48.5774 14.2822 69 ° 20 km/h 1037 m -3.4 m/s 402.70 MHz Vorderweissenbach (AT) 0.00 km UNKNOWN
P3420102 RS41 2020-05-04 06:51:13 48.7648 13.3918 53 ° 22 km/h 1604 m -6.3 m/s 402.700 MHz Passau (DE) 0.00 km UNKNOWN
P3420140 RS41 2020-05-04 00:31:48 48.6121 13.4194 119 ° 13 km/h 1471 m -6.9 m/s 402.70 MHz Passau (DE) 0.00 km LOST
P3420142 RS41 2020-05-03 18:54:43 48.6129 13.2485 104 ° 24 km/h 1511 m -4.4 m/s 402.70 MHz Passau (DE) 0.00 km UNKNOWN
P3420144 RS41 2020-05-03 12:52:21 48.6028 13.0434 133 ° 22 km/h 1790 m -5.0 m/s 402.700 MHz Deggendorf (DE) 0.00 km UNKNOWN
P3420143 RS41 2020-05-03 06:45:09 48.5215 13.084 119 ° 35 km/h 2116 m -6.0 m/s 402.70 MHz Passau (DE) 0.00 km UNKNOWN
P3340598 RS41 2020-05-03 01:18:04 48.5914 13.3011 109 ° 30 km/h 1369 m -3.5 m/s 402.700 MHz Passau (DE) 0.00 km UNKNOWN
P3420090 RS41 2020-05-02 18:41:05 49.0724 13.0463 114 ° 41 km/h 1243 m -10.2 m/s 402.700 MHz Deggendorf (DE) 0.00 km UNKNOWN
P3420088 RS41 2020-05-02 12:51:41 49.3711 13.5589 98 ° 33 km/h 837 m -1.7 m/s 402.70 MHz Horažďovice (CZ) 0.00 km UNKNOWN
P3420089 RS41 2020-05-02 07:00:28 49.2495 13.3435 96 ° 52 km/h 1087 m -5.3 m/s 402.70 MHz Sušice (CZ) 0.00 km FOUND
P3321199 RS41 2020-05-02 00:25:46 49.4221 13.2695 58 ° 37 km/h 712 m -5.4 m/s 402.700 MHz Klatovy (CZ) 0.00 km FOUND
P3410697 RS41 2020-05-01 18:56:11 49.507 13.1535 93 ° 17 km/h 663 m -5.7 m/s 402.700 MHz Holýšov (CZ) 0.00 km UNKNOWN
P3330014 RS41 2020-05-01 12:48:11 49.6772 13.1007 12 ° 31 km/h 496 m -5.8 m/s 404.900 MHz Nýřany (CZ) 0.00 km FOUND
P3330017 RS41 2020-05-01 07:30:21 49.7172 12.9219 66 ° 24 km/h 694 m -8.2 m/s 404.90 MHz Stříbro (CZ) 0.00 km FOUND
P3330016 RS41 2020-05-01 05:54:11 49.7085 12.7588 70 ° 30 km/h 738 m -6.2 m/s 402.70 MHz Tachov (CZ) 0.00 km FOUND
P3330015 RS41 2020-05-01 00:27:16 49.916 12.8103 83 ° 56 km/h 1305 m -8.2 m/s 402.70 MHz Planá (CZ) 0.00 km UNKNOWN
R2350349 RS41 2020-04-30 18:49:41 49.9122 12.8161 39 ° 28 km/h 828 m -6.7 m/s 402.701 MHz Planá (CZ) 0.00 km FOUND
R2341189 RS41 2020-04-30 12:33:57 49.8436 13.1945 59 ° 31 km/h 872 m -4.5 m/s 402.700 MHz Třemošná (CZ) 0.00 km UNKNOWN
R2340685 RS41 2020-04-30 07:06:52 49.7263 13.044 37 ° 17 km/h 589 m -4.5 m/s 402.700 MHz Stříbro (CZ) 0.00 km UNKNOWN
R2331535 RS41 2020-04-30 00:27:26 49.3068 12.7858 89 ° 6 km/h 664 m -4.0 m/s 402.70 MHz Domažlice (CZ) 0.00 km UNKNOWN
R2331263 RS41 2020-04-29 18:23:07 49.4872 12.5299 86 ° 30 km/h 1317 m -9.7 m/s 402.70 MHz Domažlice (CZ) 0.00 km UNKNOWN
R2340689 RS41 2020-04-29 12:43:17 49.6442 12.4111 101 ° 22 km/h 808 m -7.4 m/s 402.70 MHz Weiden in der Oberpfalz (DE) 0.00 km FOUND
R2331261 RS41 2020-04-29 06:51:47 49.6091 12.4432 108 ° 41 km/h 920 m -2.4 m/s 402.70 MHz Weiden in der Oberpfalz (DE) 0.00 km FOUND
R2331271 RS41 2020-04-29 00:25:10 49.6702 12.4266 121 ° 30 km/h 933 m -4.7 m/s 402.700 MHz Weiden in der Oberpfalz (DE) 0.00 km UNKNOWN
R2331551 RS41 2020-04-28 18:20:27 49.7004 12.5406 85 ° 31 km/h 1075 m -8.9 m/s 402.70 MHz Tachov (CZ) 0.00 km FOUND
R2331151 RS41 2020-04-28 12:29:07 49.6954 12.4371 73 ° 15 km/h 870 m -4.8 m/s 402.70 MHz Tachov (CZ) 0.00 km FOUND
R2331536 RS41 2020-04-28 06:49:13 49.4177 12.5752 3 ° 28 km/h 929 m -8.9 m/s 402.70 MHz Domažlice (CZ) 0.00 km UNKNOWN
R2340616 RS41 2020-04-28 00:42:53 49.3445 12.7015 346 ° 28 km/h 773 m -4.4 m/s 402.701 MHz Domažlice (CZ) 0.00 km UNKNOWN
R2331554 RS41 2020-04-27 19:59:48 49.3002 12.641 2 ° 17 km/h 728 m -5.5 m/s 404.90 MHz Domažlice (CZ) 0.00 km UNKNOWN
P3321214 RS41 2020-04-27 18:20:38 49.321 12.6533 11 ° 17 km/h 877 m -4.4 m/s 402.700 MHz Domažlice (CZ) 0.00 km UNKNOWN
R2340673 RS41 2020-04-27 12:47:38 49.4378 12.4295 35 ° 19 km/h 817 m -5.8 m/s 402.70 MHz Schwandorf (DE) 0.00 km FOUND
P3321212 RS41 2020-04-27 06:34:11 49.4087 12.4364 62 ° 24 km/h 1359 m -3.1 m/s 402.70 MHz Schwandorf (DE) 0.00 km FOUND
P3330005 RS41 2020-04-27 01:01:23 49.3205 12.4597 23 ° 15 km/h 755 m -4.4 m/s 402.70 MHz Schwandorf (DE) 0.00 km FOUND
P3320248 RS41 2020-04-26 18:48:28 49.3252 12.3393 245 ° 4 km/h 1375 m -10.6 m/s 402.700 MHz Schwandorf (DE) 0.00 km FOUND
P3321217 RS41 2020-04-26 12:41:58 49.1914 12.1636 194 ° 0 km/h 1116 m -13.9 m/s 402.700 MHz Schwandorf (DE) 0.00 km FOUND
P3330004 RS41 2020-04-26 06:50:54 48.8248 12.3421 311 ° 24 km/h 712 m -3.0 m/s 402.70 MHz Straubing (DE) 0.00 km FOUND
R2340690 RS41 2020-04-26 00:35:00 48.8741 12.7173 136 ° 9 km/h 1519 m -4.6 m/s 402.700 MHz Straubing (DE) 0.00 km UNKNOWN
P3321200 RS41 2020-04-25 18:43:12 48.9806 12.5823 131 ° 22 km/h 1434 m -8.6 m/s 402.70 MHz Straubing (DE) 0.00 km UNKNOWN
R2340674 RS41 2020-04-25 12:34:23 48.9753 12.6397 140 ° 20 km/h 1180 m -8.4 m/s 402.700 MHz Straubing (DE) 0.00 km FOUND
P3321220 RS41 2020-04-25 06:47:32 48.8132 13.1087 131 ° 41 km/h 1320 m -6.6 m/s 402.700 MHz Deggendorf (DE) 0.00 km UNKNOWN
P3321221 RS41 2020-04-25 00:38:07 48.7976 13.1089 108 ° 54 km/h 1879 m -6.7 m/s 402.700 MHz Deggendorf (DE) 0.00 km UNKNOWN
R2331553 RS41 2020-04-24 18:31:03 48.7927 12.6158 116 ° 35 km/h 911 m -7.8 m/s 402.700 MHz Straubing (DE) 0.00 km UNKNOWN
P3341011 RS41 2020-04-24 12:11:00 49.0064 12.4794 83 ° 22 km/h 1207 m -9.2 m/s 402.70 MHz Straubing (DE) 0.00 km FOUND
P3341004 RS41 2020-04-24 06:47:08 48.9074 12.3692 102 ° 20 km/h 767 m -4.1 m/s 402.700 MHz Straubing (DE) 0.00 km FOUND
P3321216 RS41 2020-04-24 00:35:49 49.0695 12.1285 338 ° 30 km/h 769 m -5.6 m/s 402.700 MHz Regensburg (DE) 0.00 km FOUND
P3341006 RS41 2020-04-23 18:41:45 49.0499 11.8402 9 ° 4 km/h 595 m -10.6 m/s 402.700 MHz Regensburg (DE) 0.00 km FOUND
P3341034 RS41 2020-04-23 12:40:00 49.0425 11.479 234 ° 7 km/h 912 m -13.3 m/s 402.700 MHz Neumarkt in der Oberpfalz (DE) 0.00 km UNKNOWN
P3420366 RS41 2020-04-23 00:37:00 48.8307 11.3655 280 ° 30 km/h 1441 m -8.7 m/s 402.700 MHz Ingolstadt (DE) 0.00 km UNKNOWN
P3420339 RS41 2020-04-22 18:37:25 48.8989 11.4832 251 ° 48 km/h 978 m -7.9 m/s 402.700 MHz Ingolstadt (DE) 0.00 km UNKNOWN
P3330018 RS41 2020-04-22 12:30:50 49.1905 11.2423 285 ° 28 km/h 2275 m -5.1 m/s 402.700 MHz Roth bei Nürnberg (DE) 0.00 km UNKNOWN
P3321223 RS41 2020-04-22 06:54:20 49.1887 10.9764 288 ° 44 km/h 947 m -4.0 m/s 402.70 MHz Roth bei Nürnberg (DE) 0.00 km LOST
P3421086 RS41 2020-04-22 00:19:55 49.2279 11.3668 295 ° 46 km/h 1897 m -8.6 m/s 402.700 MHz Neumarkt in der Oberpfalz (DE) 0.00 km UNKNOWN
P3420977 RS41 2020-04-21 18:29:51 49.248 11.4119 296 ° 43 km/h 2259 m -9.2 m/s 402.700 MHz Neumarkt in der Oberpfalz (DE) 0.00 km UNKNOWN
P3341036 RS41 2020-04-21 12:42:51 49.2398 11.4655 275 ° 52 km/h 1269 m -9.3 m/s 402.70 MHz Neumarkt in der Oberpfalz (DE) 0.00 km UNKNOWN
P3340966 RS41 2020-04-21 06:58:56 49.1401 11.8441 244 ° 37 km/h 661 m -6.5 m/s 402.70 MHz Regensburg (DE) 0.00 km LOST
P3340226 RS41 2020-04-21 00:56:01 49.1467 12.2475 293 ° 65 km/h 1106 m -5.9 m/s 402.700 MHz Regensburg (DE) 0.00 km FOUND
P3341012 RS41 2020-04-20 18:35:35 49.226 12.4853 258 ° 50 km/h 735 m -13.4 m/s 402.700 MHz Schwandorf (DE) 0.00 km FOUND
P3341037 RS41 2020-04-20 12:41:36 49.3041 12.2973 247 ° 37 km/h 796 m -5.1 m/s 402.700 MHz Schwandorf (DE) 0.00 km FOUND
P3341003 RS41 2020-04-20 06:39:06 49.2982 12.389 272 ° 76 km/h 1206 m -5.2 m/s 402.700 MHz Schwandorf (DE) 0.00 km UNKNOWN
P3340225 RS41 2020-04-20 01:05:29 49.1447 12.595 263 ° 24 km/h 764 m -5.7 m/s 402.70 MHz Straubing (DE) 0.00 km UNKNOWN
P3340224 RS41 2020-04-19 18:37:46 49.0532 13.0923 277 ° 7 km/h 1749 m -3.8 m/s 404.90 MHz Deggendorf (DE) 0.00 km UNKNOWN
P3330003 RS41 2020-04-19 12:20:48 49.1164 12.8883 132 ° 7 km/h 1316 m -10.7 m/s 402.70 MHz Deggendorf (DE) 0.00 km FOUND
P3321218 RS41 2020-04-19 06:38:27 49.0951 13.0172 162 ° 20 km/h 1353 m -9.1 m/s 404.90 MHz Deggendorf (DE) 0.00 km UNKNOWN
P3330002 RS41 2020-04-19 06:19:14 49.1291 13.3053 150 ° 33 km/h 1787 m -5.1 m/s 402.70 MHz Sušice (CZ) 0.00 km FOUND
P3340227 RS41 2020-04-19 01:22:32 49.041 13.1384 85 ° 41 km/h 1743 m -3.0 m/s 402.70 MHz Deggendorf (DE) 0.00 km UNKNOWN
P3340223 RS41 2020-04-18 18:38:17 49.137 13.1348 326 ° 4 km/h 1000 m -1.9 m/s 402.700 MHz Kdyně (CZ) 0.00 km UNKNOWN
P3341069 RS41 2020-04-18 12:40:22 49.2108 13.0842 88 ° 9 km/h 938 m -6.7 m/s 402.70 MHz Kdyně (CZ) 0.00 km UNKNOWN
P3341074 RS41 2020-04-18 06:42:22 49.0285 13.0671 129 ° 13 km/h 1878 m -6.8 m/s 402.700 MHz Deggendorf (DE) 0.00 km UNKNOWN
P3340228 RS41 2020-04-18 00:36:47 49.0432 13.2438 96 ° 13 km/h 1593 m -9.8 m/s 402.70 MHz Sušice (CZ) 0.00 km UNKNOWN
P3330001 RS41 2020-04-17 18:36:53 48.9863 13.1509 102 ° 24 km/h 2096 m -8.7 m/s 402.70 MHz Deggendorf (DE) 0.00 km UNKNOWN
P3420361 RS41 2020-04-17 12:36:23 49.1144 13.0394 74 ° 20 km/h 1319 m -4.6 m/s 402.70 MHz Kdyně (CZ) 0.00 km UNKNOWN
P3420887 RS41 2020-04-17 06:16:28 49.2201 13.0157 356 ° 6 km/h 787 m -4.3 m/s 402.700 MHz Kdyně (CZ) 0.00 km FOUND
P3420973 RS41 2020-04-17 00:36:58 49.2467 13.2252 132 ° 39 km/h 1045 m -4.0 m/s 402.700 MHz Klatovy (CZ) 0.00 km UNKNOWN
P3340619 RS41 2020-04-16 18:35:58 49.3478 13.0514 68 ° 13 km/h 567 m -3.9 m/s 402.70 MHz Kdyně (CZ) 0.00 km FOUND
P3350266 RS41 2020-04-16 13:03:53 49.5068 13.1495 66 ° 9 km/h 676 m -1.6 m/s 402.700 MHz Holýšov (CZ) 0.00 km FOUND
P3330225 RS41 2020-04-16 07:01:18 49.5448 12.7755 258 ° 0 km/h 561 m -7.8 m/s 402.70 MHz Domažlice (CZ) 0.00 km FOUND
P3330226 RS41 2020-04-16 00:34:53 49.5633 12.3087 359 ° 9 km/h 676 m -5.7 m/s 402.70 MHz Weiden in der Oberpfalz (DE) 0.00 km FOUND
P3330149 RS41 2020-04-15 18:19:09 49.2442 12.011 169 ° 9 km/h 1491 m -4.9 m/s 402.70 MHz Schwandorf (DE) 0.00 km FOUND
P3330077 RS41 2020-04-15 12:35:53 48.9379 11.9117 311 ° 7 km/h 694 m -5.1 m/s 404.90 MHz Regensburg (DE) 0.00 km FOUND
P3330076 RS41 2020-04-15 06:16:03 48.8381 11.8993 309 ° 11 km/h 752 m -9.0 m/s 402.70 MHz Regensburg (DE) 0.00 km FOUND
P3330131 RS41 2020-04-15 00:17:49 48.6929 11.7583 298 ° 6 km/h 1769 m -5.3 m/s 402.70 MHz Ingolstadt (DE) 0.00 km UNKNOWN
P3420979 RS41 2020-04-14 18:21:00 48.5521 11.8845 138 ° 4 km/h 815 m -4.2 m/s 402.70 MHz Landshut (DE) 0.00 km UNKNOWN
P3420974 RS41 2020-04-14 12:28:40 48.2134 11.9318 151 ° 9 km/h 1018 m -9.0 m/s 402.70 MHz Erding (DE) 0.00 km FOUND
P3420903 RS41 2020-04-14 06:11:29 48.4168 12.4206 106 ° 50 km/h 1934 m -11.3 m/s 402.700 MHz Waldkraiburg (DE) 0.00 km UNKNOWN
P3420885 RS41 2020-04-14 00:46:19 48.8865 13.9549 152 ° 33 km/h 1469 m -4.3 m/s 402.70 MHz Prachatice (CZ) 0.00 km UNKNOWN
R2331266 RS41 2020-04-13 19:16:32 48.974 14.7981 152 ° 19 km/h 526 m -3.1 m/s 402.700 MHz Třeboň (CZ) 0.00 km UNKNOWN
P3330128 RS41 2020-04-13 12:54:17 49.0652 13.8023 74 ° 28 km/h 1372 m -4.2 m/s 402.700 MHz Vimperk (CZ) 0.00 km FOUND
P3420888 RS41 2020-04-13 06:15:34 49.2912 12.9645 255 ° 2 km/h 538 m -6.5 m/s 402.700 MHz Kdyně (CZ) 0.00 km FOUND
P3420340 RS41 2020-04-13 00:56:39 49.1884 13.7547 90 ° 54 km/h 1162 m -9.7 m/s 402.700 MHz Strakonice (CZ) 0.00 km LOST
R2340688 RS41 2020-04-12 18:07:00 49.462 12.8756 48 ° 17 km/h 671 m -12.1 m/s 402.700 MHz Domažlice (CZ) 0.00 km FOUND
P3330134 RS41 2020-04-12 14:12:05 49.5824 13.5004 90 ° 13 km/h 812 m -2.9 m/s 404.90 MHz Přeštice (CZ) 0.00 km UNKNOWN
P3330132 RS41 2020-04-12 12:10:06 49.639 12.7586 66 ° 11 km/h 994 m -8.4 m/s 402.70 MHz Tachov (CZ) 0.00 km FOUND
P3330127 RS41 2020-04-12 06:27:25 49.352 13.3103 95 ° 20 km/h 1011 m -12.6 m/s 402.70 MHz Klatovy (CZ) 0.00 km UNKNOWN
P3330073 RS41 2020-04-12 00:52:05 49.2691 13.7195 39 ° 17 km/h 2581 m -4.3 m/s 404.900 MHz Horažďovice (CZ) 0.00 km UNKNOWN
P3330137 RS41 2020-04-11 18:13:35 49.3151 12.7865 208 ° 7 km/h 803 m -6.7 m/s 402.700 MHz Domažlice (CZ) 0.00 km UNKNOWN
R2331272 RS41 2020-04-11 12:39:20 49.0998 13.1746 164 ° 9 km/h 1431 m -5.0 m/s 402.70 MHz Sušice (CZ) 0.00 km UNKNOWN
R2331152 RS41 2020-04-11 06:52:48 48.8608 13.1954 155 ° 17 km/h 1877 m -4.3 m/s 402.700 MHz Deggendorf (DE) 0.00 km UNKNOWN
R2331144 RS41 2020-04-11 00:50:33 48.8864 13.3416 121 ° 28 km/h 1903 m -4.0 m/s 402.700 MHz Deggendorf (DE) 0.00 km UNKNOWN
P3420904 RS41 2020-04-10 18:23:00 48.9711 12.647 163 ° 17 km/h 1280 m -3.9 m/s 402.70 MHz Straubing (DE) 0.00 km UNKNOWN
P3420363 RS41 2020-04-10 12:40:39 48.9772 12.8724 118 ° 13 km/h 1822 m -9.3 m/s 402.70 MHz Deggendorf (DE) 0.00 km FOUND
P3420972 RS41 2020-04-10 06:50:12 48.8899 12.729 329 ° 15 km/h 1140 m -6.3 m/s 402.70 MHz Straubing (DE) 0.00 km UNKNOWN
P3330224 RS41 2020-04-10 00:36:11 48.9607 12.511 319 ° 9 km/h 1195 m -10.3 m/s 402.70 MHz Straubing (DE) 0.00 km UNKNOWN
P3330223 RS41 2020-04-09 18:56:31 48.871 12.56 183 ° 7 km/h 861 m -4.3 m/s 402.700 MHz Straubing (DE) 0.00 km UNKNOWN
P3330078 RS41 2020-04-09 12:31:46 49.1073 12.2975 188 ° 15 km/h 1244 m -4.6 m/s 404.90 MHz Regensburg (DE) 0.00 km FOUND
P3330236 RS41 2020-04-09 06:56:34 49.1952 12.5145 187 ° 20 km/h 883 m -4.0 m/s 402.70 MHz Schwandorf (DE) 0.00 km UNKNOWN
P3330239 RS41 2020-04-09 00:38:21 49.3831 12.3508 104 ° 0 km/h 1374 m -2.8 m/s 402.70 MHz Schwandorf (DE) 0.00 km UNKNOWN
P3330228 RS41 2020-04-08 18:35:31 49.3899 12.418 268 ° 11 km/h 1042 m -8.2 m/s 402.70 MHz Schwandorf (DE) 0.00 km FOUND
P3330235 RS41 2020-04-08 12:45:56 49.5416 12.4456 225 ° 13 km/h 965 m -4.9 m/s 404.900 MHz Weiden in der Oberpfalz (DE) 0.00 km UNKNOWN
P3330130 RS41 2020-04-08 06:33:07 49.5317 12.4294 283 ° 20 km/h 899 m -12.3 m/s 402.70 MHz Weiden in der Oberpfalz (DE) 0.00 km FOUND
P3320024 RS41 2020-04-08 01:11:52 49.6357 12.4975 270 ° 37 km/h 1157 m -4.5 m/s 402.70 MHz Tachov (CZ) 0.00 km FOUND
P3330473 RS41 2020-04-07 18:20:57 49.5316 12.2372 255 ° 28 km/h 715 m -9.6 m/s 402.70 MHz Weiden in der Oberpfalz (DE) 0.00 km FOUND
P3330474 RS41 2020-04-07 12:57:08 49.5608 12.4898 258 ° 19 km/h 741 m -7.9 m/s 402.70 MHz Weiden in der Oberpfalz (DE) 0.00 km FOUND
P3330237 RS41 2020-04-07 06:49:19 49.5661 12.4094 171 ° 7 km/h 760 m -3.5 m/s 402.70 MHz Weiden in der Oberpfalz (DE) 0.00 km FOUND
P3330238 RS41 2020-04-07 00:58:17 49.7026 12.6068 177 ° 19 km/h 868 m -3.9 m/s 402.70 MHz Tachov (CZ) 0.00 km LOST
P3330472 RS41 2020-04-06 18:33:57 49.7051 12.3889 353 ° 6 km/h 703 m -4.2 m/s 402.70 MHz Weiden in der Oberpfalz (DE) 0.00 km FOUND
P3320171 RS41 2020-04-06 12:36:57 49.7759 12.2808 320 ° 9 km/h 630 m -5.2 m/s 402.70 MHz Weiden in der Oberpfalz (DE) 0.00 km FOUND
P3330227 RS41 2020-04-06 06:45:26 49.7121 11.9716 311 ° 33 km/h 696 m -3.8 m/s 402.70 MHz Weiden in der Oberpfalz (DE) 0.00 km FOUND
P3330240 RS41 2020-04-06 00:42:20 49.6635 12.5909 326 ° 30 km/h 1436 m -11.3 m/s 402.70 MHz Tachov (CZ) 0.00 km UNKNOWN
P3320169 RS41 2020-04-05 18:55:35 49.4836 11.9148 281 ° 44 km/h 734 m -4.3 m/s 402.700 MHz Amberg (DE) 0.00 km UNKNOWN
P3320170 RS41 2020-04-05 12:34:35 49.4365 12.2362 262 ° 24 km/h 1027 m -15.2 m/s 402.70 MHz Schwandorf (DE) 0.00 km FOUND
P3311221 RS41 2020-04-05 07:15:53 49.204 11.7961 295 ° 44 km/h 931 m -5.8 m/s 404.90 MHz Neumarkt in der Oberpfalz (DE) 0.00 km LOST
P3330470 RS41 2020-04-05 06:12:33 49.1316 11.6827 293 ° 52 km/h 784 m -8.5 m/s 402.70 MHz Neumarkt in der Oberpfalz (DE) 0.00 km FOUND
P3320203 RS41 2020-04-05 00:22:14 49.1259 12.353 307 ° 35 km/h 1358 m -9.5 m/s 402.70 MHz Regensburg (DE) 0.00 km FOUND
P3311224 RS41 2020-04-04 18:35:26 49.0336 12.7411 315 ° 13 km/h 1516 m -6.0 m/s 402.70 MHz Straubing (DE) 0.00 km UNKNOWN
P3311210 RS41 2020-04-04 12:36:53 49.0472 12.8882 22 ° 4 km/h 1576 m -4.4 m/s 402.70 MHz Deggendorf (DE) 0.00 km NEED ATTENTION
P3311226 RS41 2020-04-04 06:19:08 49.1199 12.8603 144 ° 9 km/h 1348 m -9.2 m/s 402.70 MHz Deggendorf (DE) 0.00 km UNKNOWN
P3311204 RS41 2020-04-04 00:49:50 49.0914 13.4352 101 ° 30 km/h 2075 m -3.6 m/s 402.700 MHz Sušice (CZ) 0.00 km FOUND
P3311208 RS41 2020-04-03 18:56:39 49.1408 13.7282 111 ° 30 km/h 1231 m -4.3 m/s 402.70 MHz Vimperk (CZ) 0.00 km LOST
P3330471 RS41 2020-04-03 12:42:59 49.1955 13.3177 99 ° 17 km/h 1387 m -2.0 m/s 402.70 MHz Sušice (CZ) 0.00 km UNKNOWN
P3330469 RS41 2020-04-03 06:47:33 49.199 13.4135 122 ° 35 km/h 1882 m -5.2 m/s 402.70 MHz Sušice (CZ) 0.00 km UNKNOWN
P3320177 RS41 2020-04-03 00:29:29 49.3282 13.1443 118 ° 9 km/h 568 m -10.7 m/s 402.700 MHz Kdyně (CZ) 0.00 km FOUND
P3320173 RS41 2020-04-02 18:19:49 49.2053 12.6571 39 ° 24 km/h 599 m -9.8 m/s 402.70 MHz Domažlice (CZ) 0.00 km LOST
P3320175 RS41 2020-04-02 13:00:44 49.2473 12.9948 85 ° 17 km/h 568 m -10.3 m/s 402.70 MHz Kdyně (CZ) 0.00 km UNKNOWN
P3320176 RS41 2020-04-02 06:42:29 49.2105 12.6058 60 ° 7 km/h 778 m -3.7 m/s 402.700 MHz Domažlice (CZ) 0.00 km LOST
P3311219 RS41 2020-04-02 00:44:04 49.3681 12.6995 61 ° 7 km/h 896 m -9.6 m/s 402.700 MHz Domažlice (CZ) 0.00 km UNKNOWN
P3311212 RS41 2020-04-01 19:01:59 49.2713 12.6714 47 ° 15 km/h 634 m -4.1 m/s 402.70 MHz Domažlice (CZ) 0.00 km UNKNOWN
P3320174 RS41 2020-04-01 12:25:59 49.295 12.1283 325 ° 6 km/h 906 m -10.7 m/s 402.70 MHz Schwandorf (DE) 0.00 km UNKNOWN
P3320180 RS41 2020-04-01 06:51:34 49.0435 12.2802 56 ° 0 km/h 1726 m -5.6 m/s 402.70 MHz Regensburg (DE) 0.00 km UNKNOWN
P3320202 RS41 2020-04-01 01:03:19 48.749 11.8588 302 ° 24 km/h 1044 m -3.5 m/s 402.700 MHz Landshut (DE) 0.00 km UNKNOWN
P3311213 RS41 2020-03-31 18:40:31 48.6158 11.6284 186 ° 9 km/h 1503 m -6.4 m/s 402.70 MHz Pfaffenhofen an der Ilm (DE) 0.00 km UNKNOWN
P3311218 RS41 2020-03-31 12:29:50 48.7064 11.5199 240 ° 20 km/h 1658 m -13.7 m/s 402.70 MHz Ingolstadt (DE) 0.00 km FOUND
P3311217 RS41 2020-03-31 06:53:41 48.4857 11.6013 205 ° 19 km/h 821 m -3.7 m/s 402.700 MHz Pfaffenhofen an der Ilm (DE) 0.00 km UNKNOWN
P3311215 RS41 2020-03-31 00:43:38 48.6982 11.9971 316 ° 6 km/h 773 m -3.0 m/s 404.90 MHz Landshut (DE) 0.00 km UNKNOWN
P3320737 RS41 2020-03-30 19:03:58 48.763 12.2443 224 ° 11 km/h 702 m -3.1 m/s 402.70 MHz Landshut (DE) 0.00 km UNKNOWN
P3311220 RS41 2020-03-30 12:48:45 49.069 12.7227 197 ° 7 km/h 1028 m -4.3 m/s 404.900 MHz Straubing (DE) 0.00 km FOUND
P3311222 RS41 2020-03-30 06:44:55 49.0928 12.6431 211 ° 30 km/h 823 m -9.9 m/s 402.70 MHz Straubing (DE) 0.00 km UNKNOWN
P3311225 RS41 2020-03-30 00:53:28 49.2235 13.1904 203 ° 31 km/h 1119 m -4.9 m/s 402.70 MHz Klatovy (CZ) 0.00 km FOUND
P3311156 RS41 2020-03-29 18:44:10 49.3123 13.1883 214 ° 26 km/h 668 m -4.0 m/s 402.70 MHz Klatovy (CZ) 0.00 km FOUND
P3311216 RS41 2020-03-29 12:10:29 49.3629 12.7317 198 ° 19 km/h 1038 m -10.6 m/s 402.700 MHz Domažlice (CZ) 0.00 km UNKNOWN
P3311211 RS41 2020-03-29 06:49:46 49.1358 12.8624 209 ° 43 km/h 931 m -5.2 m/s 402.70 MHz Kdyně (CZ) 0.00 km UNKNOWN
P3311206 RS41 2020-03-29 00:59:41 49.0869 12.6018 214 ° 19 km/h 1191 m -3.5 m/s 402.700 MHz Straubing (DE) 0.00 km UNKNOWN
P3311214 RS41 2020-03-28 19:01:51 48.883 12.1495 196 ° 24 km/h 1254 m -3.5 m/s 402.70 MHz Regensburg (DE) 0.00 km UNKNOWN
P3320204 RS41 2020-03-28 12:43:16 49.0821 11.8469 248 ° 7 km/h 2184 m -4.9 m/s 402.700 MHz Regensburg (DE) 0.00 km FOUND
P3311202 RS41 2020-03-28 06:50:33 49.1146 11.6362 306 ° 19 km/h 923 m -6.8 m/s 402.70 MHz Neumarkt in der Oberpfalz (DE) 0.00 km FOUND
P3320200 RS41 2020-03-28 00:53:34 49.2272 11.5437 289 ° 24 km/h 1178 m -9.8 m/s 402.70 MHz Neumarkt in der Oberpfalz (DE) 0.00 km UNKNOWN
P3310920 RS41 2020-03-27 18:22:18 49.4235 11.6691 273 ° 50 km/h 979 m -10.5 m/s 402.70 MHz Sulzbach-Rosenberg (DE) 0.00 km FOUND
P3320803 RS41 2020-03-27 12:14:07 49.5997 11.5574 294 ° 26 km/h 1288 m -9.4 m/s 402.70 MHz Sulzbach-Rosenberg (DE) 0.00 km FOUND
P3311153 RS41 2020-03-27 06:45:19 49.63 11.1542 273 ° 20 km/h 506 m -3.3 m/s 402.70 MHz Erlangen (DE) 0.00 km NEED ATTENTION
P3311209 RS41 2020-03-27 00:50:49 49.683 10.759 253 ° 28 km/h 524 m -4.2 m/s 402.70 MHz Herzogenaurach (DE) 0.00 km FOUND
P3311207 RS41 2020-03-26 18:56:19 49.734 10.9297 261 ° 33 km/h 449 m -3.0 m/s 402.70 MHz Erlangen (DE) 0.00 km FOUND
P3311150 RS41 2020-03-26 12:48:49 49.7969 11.3527 285 ° 28 km/h 876 m -6.7 m/s 404.90 MHz Bayreuth (DE) 0.00 km UNKNOWN
P3320201 RS41 2020-03-26 06:32:55 49.8147 11.626 269 ° 46 km/h 816 m -11.2 m/s 402.700 MHz Bayreuth (DE) 0.00 km UNKNOWN
P3320771 RS41 2020-03-26 00:46:23 49.3998 10.4024 255 ° 33 km/h 610 m -3.3 m/s 402.70 MHz Rotenburg (DE) 0.00 km UNKNOWN
P3310867 RS41 2020-03-25 18:55:31 49.1411 10.0147 264 ° 59 km/h 805 m -4.6 m/s 402.700 MHz Crailsheim (DE) 0.00 km FOUND
P3311155 RS41 2020-03-25 13:06:36 49.0174 9.67442 252 ° 39 km/h 712 m -5.6 m/s 402.700 MHz Schwäbisch Hall (DE) 0.00 km UNKNOWN
P3311149 RS41 2020-03-25 06:35:36 49.1023 10.0821 281 ° 33 km/h 902 m -4.5 m/s 402.700 MHz Crailsheim (DE) 0.00 km FOUND
P3311148 RS41 2020-03-25 00:54:28 49.0549 9.97422 291 ° 57 km/h 885 m -3.5 m/s 402.70 MHz Crailsheim (DE) 0.00 km UNKNOWN
P3311154 RS41 2020-03-24 19:01:48 48.822 9.80895 255 ° 39 km/h 810 m -3.6 m/s 402.70 MHz Schwäbisch Gmünd (DE) 0.00 km UNKNOWN
P3420995 RS41 2020-03-24 12:46:48 48.8193 10.2018 276 ° 31 km/h 1427 m -10.6 m/s 402.70 MHz Aalen (DE) 0.00 km FOUND
P3420265 RS41 2020-03-24 06:52:58 48.6973 10.3449 276 ° 28 km/h 871 m -3.6 m/s 402.70 MHz Giengen (DE) 0.00 km UNKNOWN
P3310866 RS41 2020-03-24 00:53:05 48.5293 10.5736 283 ° 22 km/h 495 m -4.7 m/s 402.700 MHz Dillingen (DE) 0.00 km FOUND
P3410127 RS41 2020-03-23 18:57:18 48.486 10.9334 260 ° 33 km/h 803 m -4.2 m/s 402.70 MHz Neusäß (DE) 0.00 km UNKNOWN
P3410130 RS41 2020-03-23 13:01:45 48.6125 10.9972 265 ° 28 km/h 695 m -4.4 m/s 402.700 MHz Neuburg an der Donau (DE) 0.00 km UNKNOWN
P3420021 RS41 2020-03-23 06:48:46 48.5746 11.2667 284 ° 39 km/h 750 m -2.6 m/s 402.70 MHz Aichach (DE) 0.00 km UNKNOWN
P3420019 RS41 2020-03-23 00:50:25 48.574 11.6193 278 ° 48 km/h 972 m -3.2 m/s 402.70 MHz Pfaffenhofen an der Ilm (DE) 0.00 km UNKNOWN
P3410694 RS41 2020-03-22 18:29:00 48.6653 11.7045 268 ° 39 km/h 1225 m -4.9 m/s 402.70 MHz Pfaffenhofen an der Ilm (DE) 0.00 km UNKNOWN
P3420022 RS41 2020-03-22 12:47:36 48.7899 11.9219 236 ° 31 km/h 783 m -6.5 m/s 402.70 MHz Regensburg (DE) 0.00 km UNKNOWN
P3420925 RS41 2020-03-22 06:56:37 48.9372 12.2691 293 ° 35 km/h 1215 m -5.2 m/s 402.70 MHz Regensburg (DE) 0.00 km FOUND
P3420929 RS41 2020-03-22 00:45:35 49.2348 12.6055 259 ° 37 km/h 581 m -8.9 m/s 402.70 MHz Domažlice (CZ) 0.00 km UNKNOWN
P3420012 RS41 2020-03-21 18:31:57 49.2634 12.7037 237 ° 30 km/h 628 m -2.5 m/s 402.70 MHz Domažlice (CZ) 0.00 km UNKNOWN
P3410131 RS41 2020-03-21 12:50:26 49.2906 12.9505 248 ° 19 km/h 532 m -3.6 m/s 402.70 MHz Kdyně (CZ) 0.00 km UNKNOWN
P3420268 RS41 2020-03-21 06:58:17 49.2995 12.9613 217 ° 11 km/h 579 m -2.2 m/s 402.70 MHz Kdyně (CZ) 0.00 km FOUND
P3420020 RS41 2020-03-21 00:54:43 49.3547 12.8271 191 ° 46 km/h 718 m -5.9 m/s 402.700 MHz Domažlice (CZ) 0.00 km FOUND
P3410695 RS41 2020-03-20 18:52:17 49.5543 12.9349 218 ° 30 km/h 595 m -5.5 m/s 402.70 MHz Domažlice (CZ) 0.00 km FOUND
P3420013 RS41 2020-03-20 12:25:32 49.7165 12.9219 201 ° 7 km/h 601 m -10.0 m/s 402.700 MHz Stříbro (CZ) 0.00 km FOUND
P3410132 RS41 2020-03-20 07:07:42 49.6805 12.9283 323 ° 7 km/h 572 m -2.9 m/s 402.70 MHz Stříbro (CZ) 0.00 km FOUND
P3420011 RS41 2020-03-20 00:58:07 49.8065 12.7449 248 ° 13 km/h 716 m -3.9 m/s 404.90 MHz Planá (CZ) 0.00 km FOUND
P3350800 RS41 2020-03-19 18:34:16 49.6247 12.4949 273 ° 9 km/h 910 m -8.4 m/s 402.70 MHz Tachov (CZ) 0.00 km FOUND
P3420996 RS41 2020-03-19 13:26:19 49.5985 12.5132 91 ° 15 km/h 742 m -6.8 m/s 402.700 MHz Tachov (CZ) 0.00 km UNKNOWN
P3420939 RS41 2020-03-19 06:34:28 49.4573 12.305 42 ° 9 km/h 740 m -9.3 m/s 402.700 MHz Schwandorf (DE) 0.00 km FOUND
P3420266 RS41 2020-03-19 01:48:24 49.3846 12.3369 27 ° 15 km/h 748 m -7.4 m/s 402.70 MHz Schwandorf (DE) 0.00 km FOUND
P3350780 RS41 2020-03-18 19:13:02 49.2753 12.1988 23 ° 6 km/h 986 m -8.6 m/s 402.70 MHz Schwandorf (DE) 0.00 km FOUND
P3421106 RS41 2020-03-18 13:14:13 49.2822 12.0426 53 ° 11 km/h 960 m -8.2 m/s 402.700 MHz Schwandorf (DE) 0.00 km FOUND
P3420008 RS41 2020-03-18 06:56:53 49.1246 11.9944 357 ° 13 km/h 683 m -13.6 m/s 402.70 MHz Regensburg (DE) 0.00 km FOUND
P3420010 RS41 2020-03-18 00:59:38 49.1064 11.9424 342 ° 9 km/h 607 m -9.4 m/s 402.700 MHz Regensburg (DE) 0.00 km FOUND
P3420009 RS41 2020-03-17 19:09:53 48.9537 11.8695 329 ° 11 km/h 627 m -12.7 m/s 402.70 MHz Regensburg (DE) 0.00 km FOUND
P3421087 RS41 2020-03-17 13:33:38 49.0558 12.335 100 ° 26 km/h 1066 m -5.9 m/s 402.70 MHz Regensburg (DE) 0.00 km FOUND
P3421103 RS41 2020-03-17 07:18:02 49.352 12.6507 104 ° 30 km/h 1034 m -11.1 m/s 402.70 MHz Domažlice (CZ) 0.00 km FOUND
P3410015 RS41 2020-03-17 01:26:28 49.3544 12.6342 71 ° 13 km/h 805 m -5.5 m/s 402.70 MHz Domažlice (CZ) 0.00 km UNKNOWN
P3350801 RS41 2020-03-16 19:29:58 49.2759 12.5737 23 ° 17 km/h 661 m -6.1 m/s 402.70 MHz Domažlice (CZ) 0.00 km FOUND
P3350779 RS41 2020-03-16 12:23:52 49.4596 12.589 78 ° 15 km/h 1129 m -13.3 m/s 402.700 MHz Domažlice (CZ) 0.00 km FOUND
P3420938 RS41 2020-03-16 07:01:47 49.4967 12.5828 2 ° 28 km/h 964 m -11.4 m/s 402.70 MHz Domažlice (CZ) 0.00 km UNKNOWN
P3421110 RS41 2020-03-16 01:15:32 49.4593 12.648 25 ° 24 km/h 1004 m -6.6 m/s 404.900 MHz Domažlice (CZ) 0.00 km UNKNOWN
P3421107 RS41 2020-03-15 19:01:15 49.2751 12.6218 335 ° 11 km/h 632 m -14.4 m/s 402.70 MHz Domažlice (CZ) 0.00 km UNKNOWN
P3421109 RS41 2020-03-15 13:08:33 49.2011 12.6928 300 ° 15 km/h 706 m -9.5 m/s 402.70 MHz Domažlice (CZ) 0.00 km UNKNOWN
P3421108 RS41 2020-03-15 07:15:44 48.9828 12.7322 336 ° 31 km/h 1868 m -6.7 m/s 402.700 MHz Straubing (DE) 0.00 km UNKNOWN
P3330142 RS41 2020-03-15 01:14:37 48.8763 12.6489 322 ° 31 km/h 1105 m -7.5 m/s 402.70 MHz Straubing (DE) 0.00 km UNKNOWN
P3330156 RS41 2020-03-14 19:11:25 49.1922 12.8807 324 ° 11 km/h 1314 m -6.4 m/s 402.70 MHz Kdyně (CZ) 0.00 km UNKNOWN
P3330154 RS41 2020-03-14 13:15:39 49.3523 13.2437 256 ° 7 km/h 483 m -10.5 m/s 402.70 MHz Klatovy (CZ) 0.00 km UNKNOWN
P3330151 RS41 2020-03-14 07:20:52 49.3003 13.9635 171 ° 11 km/h 865 m -4.5 m/s 402.700 MHz Strakonice (CZ) 0.00 km FOUND
P3330102 RS41 2020-03-14 01:17:18 49.3116 14.1248 117 ° 43 km/h 798 m -9.8 m/s 402.70 MHz Písek (CZ) 0.00 km FOUND
P3330141 RS41 2020-03-13 19:09:18 49.2595 14.2438 94 ° 50 km/h 856 m -11.4 m/s 402.70 MHz Písek (CZ) 0.00 km FOUND
P3350136 RS41 2020-03-13 13:13:22 49.3943 14.5992 98 ° 63 km/h 812 m -8.0 m/s 402.70 MHz Tábor (CZ) 0.00 km FOUND
P3330316 RS41 2020-03-13 07:28:41 49.6873 15.395 82 ° 43 km/h 880 m -4.0 m/s 402.700 MHz Světlá nad Sázavou (CZ) 0.00 km FOUND
P3330315 RS41 2020-03-13 01:21:47 49.6939 15.0853 108 ° 39 km/h 708 m -5.9 m/s 402.70 MHz Vlašim (CZ) 0.00 km UNKNOWN
P3330317 RS41 2020-03-12 20:34:17 49.6076 15.4361 119 ° 52 km/h 965 m -3.5 m/s 404.90 MHz Světlá nad Sázavou (CZ) 0.00 km FOUND
P3330098 RS41 2020-03-12 18:22:27 49.5773 15.1067 122 ° 43 km/h 881 m -3.7 m/s 402.70 MHz Pelhřimov (CZ) 0.00 km UNKNOWN
P3330155 RS41 2020-03-12 13:09:20 49.6733 14.6877 52 ° 28 km/h 604 m -5.7 m/s 402.70 MHz Benešov (CZ) 0.00 km UNKNOWN
P3330139 RS41 2020-03-12 07:03:04 49.4261 14.36 47 ° 50 km/h 792 m -14.2 m/s 402.70 MHz Milevsko (CZ) 0.00 km UNKNOWN
P3330152 RS41 2020-03-12 01:17:15 49.2233 14.3709 74 ° 48 km/h 934 m -10.1 m/s 402.70 MHz Týn nad Vltavou (CZ) 0.00 km FOUND
P3330105 RS41 2020-03-11 19:13:16 48.8197 14.2727 86 ° 69 km/h 1137 m -3.4 m/s 402.70 MHz Český Krumlov (CZ) 0.00 km UNKNOWN
P3330349 RS41 2020-03-11 13:01:45 48.8809 13.9336 84 ° 61 km/h 1361 m -7.6 m/s 404.90 MHz Prachatice (CZ) 0.00 km UNKNOWN
P3330148 RS41 2020-03-11 07:08:54 48.6846 14.0258 92 ° 67 km/h 1141 m -8.8 m/s 402.700 MHz Ulrichsberg (AT) 0.00 km UNKNOWN
P3330312 RS41 2020-03-11 01:18:13 48.5909 13.7955 86 ° 33 km/h 817 m -5.4 m/s 402.70 MHz Sarleinsbach (AT) 0.00 km UNKNOWN
P3350058 RS41 2020-03-10 18:38:23 48.4611 13.163 81 ° 81 km/h 1096 m -12.7 m/s 402.70 MHz Schärding (AT) 0.00 km UNKNOWN
P3350238 RS41 2020-03-10 13:14:11 48.3766 13.1032 35 ° 28 km/h 604 m -9.0 m/s 402.70 MHz Sankt Peter (AT) 0.00 km UNKNOWN
DF94357B DFM09 2020-03-10 07:31:14 48.869 12.5461 156 ° 233 km/h 9631 m -8.1 m/s 403.451 MHz Straubing (DE) 0.00 km UNKNOWN
P3330318 RS41 2020-03-10 07:05:46 48.685 12.9991 87 ° 61 km/h 1707 m -8.4 m/s 402.700 MHz Deggendorf (DE) 0.00 km UNKNOWN
P3350028 RS41 2020-03-10 01:11:52 48.9416 12.7242 87 ° 35 km/h 1677 m -15.3 m/s 402.70 MHz Straubing (DE) 0.00 km FOUND
P3350029 RS41 2020-03-09 19:29:04 49.4493 12.9013 50 ° 6 km/h 581 m -5.8 m/s 402.70 MHz Domažlice (CZ) 0.00 km FOUND
P3350252 RS41 2020-03-09 13:24:59 49.7389 12.7168 121 ° 24 km/h 1073 m -3.4 m/s 402.70 MHz Tachov (CZ) 0.00 km FOUND
P3350243 RS41 2020-03-09 07:25:20 49.6682 12.7575 82 ° 41 km/h 1171 m -4.9 m/s 402.70 MHz Tachov (CZ) 0.00 km FOUND
P3350242 RS41 2020-03-09 01:32:14 49.5796 12.7909 24 ° 15 km/h 579 m -5.0 m/s 402.70 MHz Domažlice (CZ) 0.00 km FOUND
P3350254 RS41 2020-03-08 19:30:00 49.3494 12.7377 359 ° 26 km/h 914 m -7.6 m/s 402.70 MHz Domažlice (CZ) 0.00 km FOUND
P3320179 RS41 2020-03-08 13:16:56 49.2363 12.3995 35 ° 19 km/h 894 m -7.3 m/s 402.70 MHz Schwandorf (DE) 0.00 km FOUND
P3330295 RS41 2020-03-08 07:03:10 49.0145 12.2169 57 ° 20 km/h 709 m -8.0 m/s 402.70 MHz Regensburg (DE) 0.00 km FOUND
P3330302 RS41 2020-03-08 00:51:10 48.9241 12.0453 86 ° 26 km/h 767 m -12.1 m/s 402.70 MHz Regensburg (DE) 0.00 km UNKNOWN
P3330306 RS41 2020-03-07 19:31:45 48.8144 12.3279 122 ° 22 km/h 714 m -5.0 m/s 402.70 MHz Straubing (DE) 0.00 km UNKNOWN
P3330153 RS41 2020-03-07 13:09:30 49.3377 12.5649 96 ° 28 km/h 911 m -8.1 m/s 402.70 MHz Domažlice (CZ) 0.00 km FOUND
P3330112 RS41 2020-03-07 07:26:23 49.3545 12.8148 123 ° 11 km/h 662 m -5.9 m/s 402.700 MHz Domažlice (CZ) 0.00 km FOUND
P3330311 RS41 2020-03-07 01:10:10 49.5883 12.9099 86 ° 33 km/h 553 m -9.7 m/s 402.700 MHz Holýšov (CZ) 0.00 km FOUND
P3330309 RS41 2020-03-06 19:42:16 49.7272 13.1603 85 ° 48 km/h 816 m -3.9 m/s 402.70 MHz Nýřany (CZ) 0.00 km FOUND
P3330081 RS41 2020-03-06 13:06:35 49.906 13.0804 36 ° 26 km/h 689 m -9.7 m/s 402.700 MHz Stříbro (CZ) 0.00 km FOUND
P3330314 RS41 2020-03-06 06:41:54 50.0614 13.2595 63 ° 48 km/h 1304 m -16.3 m/s 402.700 MHz Podbořany (CZ) 0.00 km UNKNOWN
P3330296 RS41 2020-03-06 01:00:23 50.0655 13.7054 359 ° 22 km/h 552 m -3.4 m/s 402.70 MHz Rakovník (CZ) 0.00 km UNKNOWN
P3330292 RS41 2020-03-05 19:37:55 49.5888 13.7155 317 ° 17 km/h 776 m -6.5 m/s 402.70 MHz Rokycany (CZ) 0.00 km FOUND
P3330308 RS41 2020-03-05 13:03:20 49.2287 13.2307 11 ° 15 km/h 1174 m -12.1 m/s 402.700 MHz Klatovy (CZ) 0.00 km FOUND
P3330301 RS41 2020-03-05 07:01:31 48.8464 13.1173 1 ° 26 km/h 1459 m -7.4 m/s 402.70 MHz Deggendorf (DE) 0.00 km UNKNOWN
P3330140 RS41 2020-03-05 01:12:19 48.8752 12.7701 11 ° 13 km/h 1208 m -13.8 m/s 402.70 MHz Straubing (DE) 0.00 km UNKNOWN
P3330307 RS41 2020-03-04 19:13:34 48.7999 12.6325 110 ° 24 km/h 892 m -7.4 m/s 402.70 MHz Straubing (DE) 0.00 km UNKNOWN
DF92697A DFM09 2020-03-04 15:59:55 48.705 12.0519 138 ° 70 km/h 6660 m -4.5 m/s 405.309 MHz Landshut (DE) 0.00 km FOUND
P3330305 RS41 2020-03-04 12:56:30 49.0153 12.5018 86 ° 24 km/h 1410 m -9.7 m/s 402.70 MHz Straubing (DE) 0.00 km UNKNOWN
P3330304 RS41 2020-03-04 07:15:05 49.1702 12.5448 82 ° 24 km/h 1252 m -5.7 m/s 402.70 MHz Straubing (DE) 0.00 km FOUND
P3330310 RS41 2020-03-04 01:03:47 49.4354 12.3856 108 ° 26 km/h 803 m -7.7 m/s 402.70 MHz Schwandorf (DE) 0.00 km FOUND
P3330257 RS41 2020-03-03 19:04:28 49.5892 12.5825 95 ° 33 km/h 772 m -5.6 m/s 402.70 MHz Tachov (CZ) 0.00 km FOUND
P3330303 RS41 2020-03-03 13:12:55 49.5724 12.3635 89 ° 24 km/h 799 m -10.6 m/s 402.70 MHz Weiden in der Oberpfalz (DE) 0.00 km NEED ATTENTION
P3330887 RS41 2020-03-03 07:19:06 49.6171 12.3966 96 ° 43 km/h 703 m -9.5 m/s 402.70 MHz Weiden in der Oberpfalz (DE) 0.00 km FOUND
P3350250 RS41 2020-03-03 01:26:31 49.7358 12.5824 74 ° 26 km/h 866 m -6.9 m/s 402.700 MHz Tachov (CZ) 0.00 km UNKNOWN
P3350244 RS41 2020-03-02 19:27:46 49.6271 12.984 259 ° 26 km/h 596 m -9.6 m/s 402.70 MHz Holýšov (CZ) 0.00 km FOUND
P3350030 RS41 2020-03-02 13:13:01 49.5288 13.5229 320 ° 19 km/h 668 m -8.1 m/s 404.900 MHz Přeštice (CZ) 0.00 km FOUND
P3350191 RS41 2020-03-02 07:06:06 49.2923 13.3249 97 ° 56 km/h 1695 m -9.1 m/s 402.70 MHz Klatovy (CZ) 0.00 km UNKNOWN
P3350033 RS41 2020-03-02 01:18:21 49.854 13.4552 63 ° 46 km/h 838 m -8.1 m/s 404.900 MHz Třemošná (CZ) 0.00 km UNKNOWN
P3350214 RS41 2020-03-01 19:22:44 49.5492 13.9413 351 ° 31 km/h 833 m -7.4 m/s 402.70 MHz Blatná (CZ) 0.00 km FOUND
P3350211 RS41 2020-03-01 13:19:50 49.6882 14.3607 35 ° 30 km/h 439 m -7.7 m/s 402.700 MHz Sedlčany (CZ) 0.00 km UNKNOWN
P3350189 RS41 2020-03-01 07:03:28 49.3752 14.1854 52 ° 46 km/h 899 m -6.6 m/s 402.700 MHz Písek (CZ) 0.00 km FOUND
P3350102 RS41 2020-03-01 01:21:40 49.1883 14.5805 91 ° 41 km/h 926 m -7.2 m/s 402.70 MHz Veselí nad Lužnicí (CZ) 0.00 km FOUND
P3350192 RS41 2020-02-29 19:21:37 49.113 14.5709 18 ° 28 km/h 1122 m -5.7 m/s 402.70 MHz Hluboká nad Vltavou (CZ) 0.00 km FOUND
P3350032 RS41 2020-02-29 13:06:26 48.9775 14.3771 87 ° 20 km/h 1282 m -14.3 m/s 402.70 MHz České Budějovice (CZ) 0.00 km UNKNOWN
P3350061 RS41 2020-02-29 07:10:43 48.5897 14.5644 11 ° 33 km/h 961 m -6.8 m/s 402.700 MHz Rainbach im Mühlkreis (AT) 0.00 km FOUND
P3350169 RS41 2020-02-29 01:31:17 48.1263 15.1566 255 ° 15 km/h 397 m -4.2 m/s 402.70 MHz Wieselburg (AT) 0.00 km FOUND
P3350170